<?xml version="1.0" encoding="UTF-8"?>
<gpx version="1.1" creator="RoadTrp.org" xmlns="http://www.topografix.com/GPX/1/1">
<trk><name>Mouse Creek Greenway — July 26, 2026</name><trkseg>
<trkpt lat="35.211728" lon="-84.852416"><ele>234.4</ele><time>2026-07-26T17:39:27Z</time></trkpt>
<trkpt lat="35.211724" lon="-84.852378"><ele>235.6</ele><time>2026-07-26T17:39:31Z</time></trkpt>
<trkpt lat="35.21174" lon="-84.852342"><ele>236.2</ele><time>2026-07-26T17:39:34Z</time></trkpt>
<trkpt lat="35.211761" lon="-84.852301"><ele>235.9</ele><time>2026-07-26T17:39:38Z</time></trkpt>
<trkpt lat="35.211763" lon="-84.852265"><ele>235.9</ele><time>2026-07-26T17:39:40Z</time></trkpt>
<trkpt lat="35.211781" lon="-84.852231"><ele>237.1</ele><time>2026-07-26T17:39:43Z</time></trkpt>
<trkpt lat="35.211816" lon="-84.852211"><ele>237.1</ele><time>2026-07-26T17:39:46Z</time></trkpt>
<trkpt lat="35.211849" lon="-84.852194"><ele>235.6</ele><time>2026-07-26T17:39:49Z</time></trkpt>
<trkpt lat="35.211868" lon="-84.85217"><ele>235.3</ele><time>2026-07-26T17:39:52Z</time></trkpt>
<trkpt lat="35.21189" lon="-84.852148"><ele>235.9</ele><time>2026-07-26T17:39:55Z</time></trkpt>
<trkpt lat="35.211906" lon="-84.852108"><ele>234.7</ele><time>2026-07-26T17:39:58Z</time></trkpt>
<trkpt lat="35.211912" lon="-84.85207"><ele>235.0</ele><time>2026-07-26T17:40:00Z</time></trkpt>
<trkpt lat="35.211902" lon="-84.852039"><ele>235.9</ele><time>2026-07-26T17:40:02Z</time></trkpt>
<trkpt lat="35.211883" lon="-84.851998"><ele>236.2</ele><time>2026-07-26T17:40:05Z</time></trkpt>
<trkpt lat="35.211861" lon="-84.851962"><ele>236.5</ele><time>2026-07-26T17:40:08Z</time></trkpt>
<trkpt lat="35.21184" lon="-84.85192"><ele>236.2</ele><time>2026-07-26T17:40:11Z</time></trkpt>
<trkpt lat="35.211816" lon="-84.851894"><ele>235.6</ele><time>2026-07-26T17:40:14Z</time></trkpt>
<trkpt lat="35.21179" lon="-84.851869"><ele>235.9</ele><time>2026-07-26T17:40:17Z</time></trkpt>
<trkpt lat="35.211753" lon="-84.851852"><ele>237.1</ele><time>2026-07-26T17:40:20Z</time></trkpt>
<trkpt lat="35.211724" lon="-84.851848"><ele>237.4</ele><time>2026-07-26T17:40:22Z</time></trkpt>
<trkpt lat="35.211688" lon="-84.851836"><ele>238.0</ele><time>2026-07-26T17:40:25Z</time></trkpt>
<trkpt lat="35.211652" lon="-84.851829"><ele>237.1</ele><time>2026-07-26T17:40:28Z</time></trkpt>
<trkpt lat="35.211614" lon="-84.85182"><ele>236.8</ele><time>2026-07-26T17:40:31Z</time></trkpt>
<trkpt lat="35.211576" lon="-84.85182"><ele>238.0</ele><time>2026-07-26T17:40:34Z</time></trkpt>
<trkpt lat="35.211546" lon="-84.851834"><ele>239.0</ele><time>2026-07-26T17:40:36Z</time></trkpt>
<trkpt lat="35.211519" lon="-84.851819"><ele>239.3</ele><time>2026-07-26T17:40:37Z</time></trkpt>
<trkpt lat="35.21149" lon="-84.851811"><ele>239.0</ele><time>2026-07-26T17:40:40Z</time></trkpt>
<trkpt lat="35.211458" lon="-84.85181"><ele>239.0</ele><time>2026-07-26T17:40:43Z</time></trkpt>
<trkpt lat="35.21142" lon="-84.851817"><ele>240.5</ele><time>2026-07-26T17:40:46Z</time></trkpt>
<trkpt lat="35.211389" lon="-84.851822"><ele>239.6</ele><time>2026-07-26T17:40:48Z</time></trkpt>
<trkpt lat="35.211351" lon="-84.851827"><ele>240.2</ele><time>2026-07-26T17:40:51Z</time></trkpt>
<trkpt lat="35.211313" lon="-84.851834"><ele>239.9</ele><time>2026-07-26T17:40:54Z</time></trkpt>
<trkpt lat="35.211279" lon="-84.851839"><ele>241.4</ele><time>2026-07-26T17:40:57Z</time></trkpt>
<trkpt lat="35.211243" lon="-84.851837"><ele>242.6</ele><time>2026-07-26T17:41:00Z</time></trkpt>
<trkpt lat="35.211213" lon="-84.851856"><ele>239.9</ele><time>2026-07-26T17:41:03Z</time></trkpt>
<trkpt lat="35.211175" lon="-84.85187"><ele>240.5</ele><time>2026-07-26T17:41:06Z</time></trkpt>
<trkpt lat="35.211138" lon="-84.851883"><ele>239.9</ele><time>2026-07-26T17:41:09Z</time></trkpt>
<trkpt lat="35.211111" lon="-84.851891"><ele>240.5</ele><time>2026-07-26T17:41:11Z</time></trkpt>
<trkpt lat="35.211084" lon="-84.851905"><ele>241.1</ele><time>2026-07-26T17:41:13Z</time></trkpt>
<trkpt lat="35.211057" lon="-84.851929"><ele>240.8</ele><time>2026-07-26T17:41:16Z</time></trkpt>
<trkpt lat="35.211032" lon="-84.851946"><ele>241.1</ele><time>2026-07-26T17:41:18Z</time></trkpt>
<trkpt lat="35.210997" lon="-84.851956"><ele>240.2</ele><time>2026-07-26T17:41:20Z</time></trkpt>
<trkpt lat="35.210961" lon="-84.85197"><ele>239.9</ele><time>2026-07-26T17:41:23Z</time></trkpt>
<trkpt lat="35.210935" lon="-84.851985"><ele>239.6</ele><time>2026-07-26T17:41:26Z</time></trkpt>
<trkpt lat="35.210908" lon="-84.852001"><ele>239.0</ele><time>2026-07-26T17:41:28Z</time></trkpt>
<trkpt lat="35.210873" lon="-84.852022"><ele>238.4</ele><time>2026-07-26T17:41:31Z</time></trkpt>
<trkpt lat="35.210838" lon="-84.852034"><ele>237.7</ele><time>2026-07-26T17:41:34Z</time></trkpt>
<trkpt lat="35.210803" lon="-84.852044"><ele>237.7</ele><time>2026-07-26T17:41:37Z</time></trkpt>
<trkpt lat="35.210769" lon="-84.852071"><ele>240.2</ele><time>2026-07-26T17:41:40Z</time></trkpt>
<trkpt lat="35.210735" lon="-84.852084"><ele>238.0</ele><time>2026-07-26T17:41:43Z</time></trkpt>
<trkpt lat="35.210696" lon="-84.852096"><ele>238.4</ele><time>2026-07-26T17:41:46Z</time></trkpt>
<trkpt lat="35.21066" lon="-84.852119"><ele>236.8</ele><time>2026-07-26T17:41:49Z</time></trkpt>
<trkpt lat="35.210627" lon="-84.852139"><ele>236.5</ele><time>2026-07-26T17:41:52Z</time></trkpt>
<trkpt lat="35.210592" lon="-84.852159"><ele>236.5</ele><time>2026-07-26T17:41:55Z</time></trkpt>
<trkpt lat="35.210558" lon="-84.852184"><ele>236.8</ele><time>2026-07-26T17:41:58Z</time></trkpt>
<trkpt lat="35.210529" lon="-84.852209"><ele>238.0</ele><time>2026-07-26T17:42:01Z</time></trkpt>
<trkpt lat="35.210496" lon="-84.852223"><ele>237.1</ele><time>2026-07-26T17:42:04Z</time></trkpt>
<trkpt lat="35.210462" lon="-84.852241"><ele>238.0</ele><time>2026-07-26T17:42:07Z</time></trkpt>
<trkpt lat="35.210425" lon="-84.85226"><ele>237.1</ele><time>2026-07-26T17:42:10Z</time></trkpt>
<trkpt lat="35.210389" lon="-84.852281"><ele>236.5</ele><time>2026-07-26T17:42:13Z</time></trkpt>
<trkpt lat="35.210354" lon="-84.852306"><ele>236.8</ele><time>2026-07-26T17:42:16Z</time></trkpt>
<trkpt lat="35.21032" lon="-84.852327"><ele>236.8</ele><time>2026-07-26T17:42:19Z</time></trkpt>
<trkpt lat="35.210296" lon="-84.852344"><ele>238.7</ele><time>2026-07-26T17:42:21Z</time></trkpt>
<trkpt lat="35.210271" lon="-84.852358"><ele>239.3</ele><time>2026-07-26T17:42:23Z</time></trkpt>
<trkpt lat="35.210232" lon="-84.852373"><ele>239.3</ele><time>2026-07-26T17:42:26Z</time></trkpt>
<trkpt lat="35.210207" lon="-84.852391"><ele>238.4</ele><time>2026-07-26T17:42:28Z</time></trkpt>
<trkpt lat="35.210173" lon="-84.852411"><ele>238.4</ele><time>2026-07-26T17:42:31Z</time></trkpt>
<trkpt lat="35.210139" lon="-84.852434"><ele>238.0</ele><time>2026-07-26T17:42:34Z</time></trkpt>
<trkpt lat="35.210104" lon="-84.852452"><ele>240.2</ele><time>2026-07-26T17:42:37Z</time></trkpt>
<trkpt lat="35.210078" lon="-84.852487"><ele>240.5</ele><time>2026-07-26T17:42:40Z</time></trkpt>
<trkpt lat="35.210054" lon="-84.852522"><ele>240.5</ele><time>2026-07-26T17:42:43Z</time></trkpt>
<trkpt lat="35.210023" lon="-84.852549"><ele>242.9</ele><time>2026-07-26T17:42:46Z</time></trkpt>
<trkpt lat="35.209991" lon="-84.85257"><ele>244.1</ele><time>2026-07-26T17:42:49Z</time></trkpt>
<trkpt lat="35.209966" lon="-84.852594"><ele>243.5</ele><time>2026-07-26T17:42:52Z</time></trkpt>
<trkpt lat="35.209937" lon="-84.852616"><ele>242.0</ele><time>2026-07-26T17:42:55Z</time></trkpt>
<trkpt lat="35.209907" lon="-84.852643"><ele>241.7</ele><time>2026-07-26T17:42:58Z</time></trkpt>
<trkpt lat="35.209879" lon="-84.852672"><ele>240.8</ele><time>2026-07-26T17:43:01Z</time></trkpt>
<trkpt lat="35.209847" lon="-84.852699"><ele>240.5</ele><time>2026-07-26T17:43:04Z</time></trkpt>
<trkpt lat="35.209811" lon="-84.852719"><ele>240.8</ele><time>2026-07-26T17:43:07Z</time></trkpt>
<trkpt lat="35.209789" lon="-84.85274"><ele>239.9</ele><time>2026-07-26T17:43:09Z</time></trkpt>
<trkpt lat="35.209757" lon="-84.852767"><ele>240.8</ele><time>2026-07-26T17:43:12Z</time></trkpt>
<trkpt lat="35.209729" lon="-84.852797"><ele>241.1</ele><time>2026-07-26T17:43:15Z</time></trkpt>
<trkpt lat="35.209696" lon="-84.852821"><ele>240.5</ele><time>2026-07-26T17:43:18Z</time></trkpt>
<trkpt lat="35.209665" lon="-84.852852"><ele>239.9</ele><time>2026-07-26T17:43:21Z</time></trkpt>
<trkpt lat="35.209631" lon="-84.852872"><ele>239.9</ele><time>2026-07-26T17:43:24Z</time></trkpt>
<trkpt lat="35.209596" lon="-84.85289"><ele>239.3</ele><time>2026-07-26T17:43:27Z</time></trkpt>
<trkpt lat="35.209559" lon="-84.852905"><ele>239.3</ele><time>2026-07-26T17:43:30Z</time></trkpt>
<trkpt lat="35.20953" lon="-84.852934"><ele>239.3</ele><time>2026-07-26T17:43:33Z</time></trkpt>
<trkpt lat="35.2095" lon="-84.852964"><ele>240.8</ele><time>2026-07-26T17:43:36Z</time></trkpt>
<trkpt lat="35.209468" lon="-84.852992"><ele>240.2</ele><time>2026-07-26T17:43:39Z</time></trkpt>
<trkpt lat="35.209433" lon="-84.853006"><ele>239.3</ele><time>2026-07-26T17:43:42Z</time></trkpt>
<trkpt lat="35.209416" lon="-84.853034"><ele>238.0</ele><time>2026-07-26T17:43:44Z</time></trkpt>
<trkpt lat="35.2094" lon="-84.853065"><ele>234.7</ele><time>2026-07-26T17:43:46Z</time></trkpt>
<trkpt lat="35.209384" lon="-84.853095"><ele>235.3</ele><time>2026-07-26T17:43:48Z</time></trkpt>
<trkpt lat="35.209365" lon="-84.853135"><ele>235.0</ele><time>2026-07-26T17:43:52Z</time></trkpt>
<trkpt lat="35.209355" lon="-84.853166"><ele>235.0</ele><time>2026-07-26T17:43:54Z</time></trkpt>
<trkpt lat="35.209327" lon="-84.85319"><ele>237.7</ele><time>2026-07-26T17:43:56Z</time></trkpt>
<trkpt lat="35.209295" lon="-84.853212"><ele>238.4</ele><time>2026-07-26T17:43:59Z</time></trkpt>
<trkpt lat="35.209268" lon="-84.853242"><ele>239.3</ele><time>2026-07-26T17:44:02Z</time></trkpt>
<trkpt lat="35.209239" lon="-84.85328"><ele>239.0</ele><time>2026-07-26T17:44:05Z</time></trkpt>
<trkpt lat="35.209214" lon="-84.853298"><ele>239.3</ele><time>2026-07-26T17:44:07Z</time></trkpt>
<trkpt lat="35.209182" lon="-84.853325"><ele>241.7</ele><time>2026-07-26T17:44:10Z</time></trkpt>
<trkpt lat="35.209157" lon="-84.853348"><ele>242.0</ele><time>2026-07-26T17:44:12Z</time></trkpt>
<trkpt lat="35.209127" lon="-84.853368"><ele>239.6</ele><time>2026-07-26T17:44:14Z</time></trkpt>
<trkpt lat="35.209095" lon="-84.853386"><ele>239.0</ele><time>2026-07-26T17:44:17Z</time></trkpt>
<trkpt lat="35.209064" lon="-84.853409"><ele>238.4</ele><time>2026-07-26T17:44:20Z</time></trkpt>
<trkpt lat="35.209041" lon="-84.85343"><ele>239.3</ele><time>2026-07-26T17:44:22Z</time></trkpt>
<trkpt lat="35.209009" lon="-84.853458"><ele>242.3</ele><time>2026-07-26T17:44:25Z</time></trkpt>
<trkpt lat="35.208973" lon="-84.853475"><ele>243.8</ele><time>2026-07-26T17:44:28Z</time></trkpt>
<trkpt lat="35.208937" lon="-84.853482"><ele>244.4</ele><time>2026-07-26T17:44:31Z</time></trkpt>
<trkpt lat="35.208906" lon="-84.853495"><ele>244.4</ele><time>2026-07-26T17:44:34Z</time></trkpt>
<trkpt lat="35.20887" lon="-84.853498"><ele>244.4</ele><time>2026-07-26T17:44:37Z</time></trkpt>
<trkpt lat="35.208839" lon="-84.853498"><ele>243.5</ele><time>2026-07-26T17:44:40Z</time></trkpt>
<trkpt lat="35.208804" lon="-84.853503"><ele>243.5</ele><time>2026-07-26T17:44:43Z</time></trkpt>
<trkpt lat="35.208768" lon="-84.853513"><ele>242.3</ele><time>2026-07-26T17:44:46Z</time></trkpt>
<trkpt lat="35.208736" lon="-84.85353"><ele>241.7</ele><time>2026-07-26T17:44:49Z</time></trkpt>
<trkpt lat="35.208703" lon="-84.853548"><ele>242.0</ele><time>2026-07-26T17:44:52Z</time></trkpt>
<trkpt lat="35.20867" lon="-84.853556"><ele>241.7</ele><time>2026-07-26T17:44:55Z</time></trkpt>
<trkpt lat="35.208633" lon="-84.853561"><ele>240.5</ele><time>2026-07-26T17:44:58Z</time></trkpt>
<trkpt lat="35.208607" lon="-84.853571"><ele>239.0</ele><time>2026-07-26T17:45:00Z</time></trkpt>
<trkpt lat="35.208576" lon="-84.853573"><ele>240.5</ele><time>2026-07-26T17:45:02Z</time></trkpt>
<trkpt lat="35.208546" lon="-84.853586"><ele>241.4</ele><time>2026-07-26T17:45:04Z</time></trkpt>
<trkpt lat="35.208516" lon="-84.853594"><ele>242.0</ele><time>2026-07-26T17:45:06Z</time></trkpt>
<trkpt lat="35.208487" lon="-84.853597"><ele>243.8</ele><time>2026-07-26T17:45:08Z</time></trkpt>
<trkpt lat="35.208447" lon="-84.853605"><ele>244.1</ele><time>2026-07-26T17:45:11Z</time></trkpt>
<trkpt lat="35.20842" lon="-84.853614"><ele>243.8</ele><time>2026-07-26T17:45:13Z</time></trkpt>
<trkpt lat="35.208396" lon="-84.853631"><ele>243.5</ele><time>2026-07-26T17:45:15Z</time></trkpt>
<trkpt lat="35.208362" lon="-84.85365"><ele>243.8</ele><time>2026-07-26T17:45:18Z</time></trkpt>
<trkpt lat="35.208333" lon="-84.853656"><ele>244.1</ele><time>2026-07-26T17:45:20Z</time></trkpt>
<trkpt lat="35.208294" lon="-84.853665"><ele>244.8</ele><time>2026-07-26T17:45:23Z</time></trkpt>
<trkpt lat="35.208266" lon="-84.853671"><ele>242.9</ele><time>2026-07-26T17:45:25Z</time></trkpt>
<trkpt lat="35.208238" lon="-84.853669"><ele>244.8</ele><time>2026-07-26T17:45:27Z</time></trkpt>
<trkpt lat="35.208209" lon="-84.853668"><ele>244.1</ele><time>2026-07-26T17:45:29Z</time></trkpt>
<trkpt lat="35.20818" lon="-84.853671"><ele>243.8</ele><time>2026-07-26T17:45:31Z</time></trkpt>
<trkpt lat="35.20815" lon="-84.853665"><ele>243.8</ele><time>2026-07-26T17:45:33Z</time></trkpt>
<trkpt lat="35.20811" lon="-84.853657"><ele>244.1</ele><time>2026-07-26T17:45:36Z</time></trkpt>
<trkpt lat="35.208082" lon="-84.853657"><ele>242.6</ele><time>2026-07-26T17:45:38Z</time></trkpt>
<trkpt lat="35.208054" lon="-84.853654"><ele>242.3</ele><time>2026-07-26T17:45:40Z</time></trkpt>
<trkpt lat="35.208023" lon="-84.853645"><ele>243.2</ele><time>2026-07-26T17:45:42Z</time></trkpt>
<trkpt lat="35.20799" lon="-84.853638"><ele>242.6</ele><time>2026-07-26T17:45:44Z</time></trkpt>
<trkpt lat="35.207957" lon="-84.853638"><ele>242.0</ele><time>2026-07-26T17:45:46Z</time></trkpt>
<trkpt lat="35.207918" lon="-84.853631"><ele>242.6</ele><time>2026-07-26T17:45:49Z</time></trkpt>
<trkpt lat="35.207882" lon="-84.853627"><ele>243.8</ele><time>2026-07-26T17:45:52Z</time></trkpt>
<trkpt lat="35.207842" lon="-84.853616"><ele>245.7</ele><time>2026-07-26T17:45:55Z</time></trkpt>
<trkpt lat="35.207802" lon="-84.853614"><ele>244.8</ele><time>2026-07-26T17:45:58Z</time></trkpt>
<trkpt lat="35.207767" lon="-84.853622"><ele>244.1</ele><time>2026-07-26T17:46:01Z</time></trkpt>
<trkpt lat="35.207727" lon="-84.853627"><ele>243.2</ele><time>2026-07-26T17:46:04Z</time></trkpt>
<trkpt lat="35.207698" lon="-84.853635"><ele>245.1</ele><time>2026-07-26T17:46:06Z</time></trkpt>
<trkpt lat="35.207672" lon="-84.853648"><ele>244.4</ele><time>2026-07-26T17:46:08Z</time></trkpt>
<trkpt lat="35.207646" lon="-84.853662"><ele>243.8</ele><time>2026-07-26T17:46:10Z</time></trkpt>
<trkpt lat="35.207613" lon="-84.853692"><ele>242.3</ele><time>2026-07-26T17:46:13Z</time></trkpt>
<trkpt lat="35.207584" lon="-84.853701"><ele>241.7</ele><time>2026-07-26T17:46:15Z</time></trkpt>
<trkpt lat="35.207558" lon="-84.853714"><ele>241.7</ele><time>2026-07-26T17:46:17Z</time></trkpt>
<trkpt lat="35.207524" lon="-84.853736"><ele>242.0</ele><time>2026-07-26T17:46:20Z</time></trkpt>
<trkpt lat="35.207489" lon="-84.853761"><ele>240.8</ele><time>2026-07-26T17:46:23Z</time></trkpt>
<trkpt lat="35.207458" lon="-84.853782"><ele>241.1</ele><time>2026-07-26T17:46:26Z</time></trkpt>
<trkpt lat="35.20742" lon="-84.853795"><ele>240.8</ele><time>2026-07-26T17:46:29Z</time></trkpt>
<trkpt lat="35.207387" lon="-84.853816"><ele>241.7</ele><time>2026-07-26T17:46:32Z</time></trkpt>
<trkpt lat="35.207357" lon="-84.853851"><ele>241.1</ele><time>2026-07-26T17:46:35Z</time></trkpt>
<trkpt lat="35.207322" lon="-84.853871"><ele>241.7</ele><time>2026-07-26T17:46:38Z</time></trkpt>
<trkpt lat="35.207288" lon="-84.853888"><ele>241.4</ele><time>2026-07-26T17:46:41Z</time></trkpt>
<trkpt lat="35.207255" lon="-84.853911"><ele>242.0</ele><time>2026-07-26T17:46:44Z</time></trkpt>
<trkpt lat="35.207218" lon="-84.853926"><ele>241.4</ele><time>2026-07-26T17:46:47Z</time></trkpt>
<trkpt lat="35.207184" lon="-84.853943"><ele>241.7</ele><time>2026-07-26T17:46:50Z</time></trkpt>
<trkpt lat="35.207144" lon="-84.853948"><ele>242.9</ele><time>2026-07-26T17:46:53Z</time></trkpt>
<trkpt lat="35.20712" lon="-84.853966"><ele>243.5</ele><time>2026-07-26T17:46:55Z</time></trkpt>
<trkpt lat="35.20709" lon="-84.853995"><ele>242.3</ele><time>2026-07-26T17:46:58Z</time></trkpt>
<trkpt lat="35.207057" lon="-84.854021"><ele>242.0</ele><time>2026-07-26T17:47:01Z</time></trkpt>
<trkpt lat="35.207024" lon="-84.854046"><ele>240.8</ele><time>2026-07-26T17:47:04Z</time></trkpt>
<trkpt lat="35.206989" lon="-84.854071"><ele>242.9</ele><time>2026-07-26T17:47:07Z</time></trkpt>
<trkpt lat="35.206959" lon="-84.854094"><ele>243.2</ele><time>2026-07-26T17:47:10Z</time></trkpt>
<trkpt lat="35.206926" lon="-84.854118"><ele>242.6</ele><time>2026-07-26T17:47:13Z</time></trkpt>
<trkpt lat="35.206891" lon="-84.85414"><ele>241.1</ele><time>2026-07-26T17:47:16Z</time></trkpt>
<trkpt lat="35.206867" lon="-84.854159"><ele>241.4</ele><time>2026-07-26T17:47:18Z</time></trkpt>
<trkpt lat="35.206831" lon="-84.854185"><ele>240.5</ele><time>2026-07-26T17:47:21Z</time></trkpt>
<trkpt lat="35.206804" lon="-84.854199"><ele>240.5</ele><time>2026-07-26T17:47:23Z</time></trkpt>
<trkpt lat="35.206776" lon="-84.854212"><ele>242.3</ele><time>2026-07-26T17:47:25Z</time></trkpt>
<trkpt lat="35.206752" lon="-84.85423"><ele>241.1</ele><time>2026-07-26T17:47:27Z</time></trkpt>
<trkpt lat="35.206731" lon="-84.854252"><ele>240.5</ele><time>2026-07-26T17:47:29Z</time></trkpt>
<trkpt lat="35.206695" lon="-84.85426"><ele>242.0</ele><time>2026-07-26T17:47:32Z</time></trkpt>
<trkpt lat="35.206659" lon="-84.854265"><ele>242.6</ele><time>2026-07-26T17:47:35Z</time></trkpt>
<trkpt lat="35.206624" lon="-84.854262"><ele>241.1</ele><time>2026-07-26T17:47:38Z</time></trkpt>
<trkpt lat="35.206586" lon="-84.85427"><ele>241.1</ele><time>2026-07-26T17:47:41Z</time></trkpt>
<trkpt lat="35.206548" lon="-84.854269"><ele>242.0</ele><time>2026-07-26T17:47:44Z</time></trkpt>
<trkpt lat="35.206511" lon="-84.85426"><ele>242.6</ele><time>2026-07-26T17:47:47Z</time></trkpt>
<trkpt lat="35.206483" lon="-84.854255"><ele>242.9</ele><time>2026-07-26T17:47:49Z</time></trkpt>
<trkpt lat="35.206445" lon="-84.854247"><ele>244.1</ele><time>2026-07-26T17:47:52Z</time></trkpt>
<trkpt lat="35.206406" lon="-84.85425"><ele>244.1</ele><time>2026-07-26T17:47:55Z</time></trkpt>
<trkpt lat="35.206368" lon="-84.854249"><ele>243.8</ele><time>2026-07-26T17:47:58Z</time></trkpt>
<trkpt lat="35.206333" lon="-84.854252"><ele>245.1</ele><time>2026-07-26T17:48:01Z</time></trkpt>
<trkpt lat="35.206295" lon="-84.85425"><ele>244.1</ele><time>2026-07-26T17:48:04Z</time></trkpt>
<trkpt lat="35.206256" lon="-84.854244"><ele>243.5</ele><time>2026-07-26T17:48:07Z</time></trkpt>
<trkpt lat="35.20623" lon="-84.854231"><ele>243.8</ele><time>2026-07-26T17:48:09Z</time></trkpt>
<trkpt lat="35.206192" lon="-84.854221"><ele>245.1</ele><time>2026-07-26T17:48:12Z</time></trkpt>
<trkpt lat="35.206165" lon="-84.85421"><ele>245.4</ele><time>2026-07-26T17:48:14Z</time></trkpt>
<trkpt lat="35.206126" lon="-84.854203"><ele>242.6</ele><time>2026-07-26T17:48:17Z</time></trkpt>
<trkpt lat="35.206098" lon="-84.854197"><ele>242.9</ele><time>2026-07-26T17:48:19Z</time></trkpt>
<trkpt lat="35.206059" lon="-84.854194"><ele>244.1</ele><time>2026-07-26T17:48:22Z</time></trkpt>
<trkpt lat="35.20602" lon="-84.854182"><ele>244.1</ele><time>2026-07-26T17:48:25Z</time></trkpt>
<trkpt lat="35.205992" lon="-84.854183"><ele>246.0</ele><time>2026-07-26T17:48:27Z</time></trkpt>
<trkpt lat="35.205965" lon="-84.854175"><ele>245.4</ele><time>2026-07-26T17:48:29Z</time></trkpt>
<trkpt lat="35.205929" lon="-84.854173"><ele>243.8</ele><time>2026-07-26T17:48:32Z</time></trkpt>
<trkpt lat="35.205891" lon="-84.854171"><ele>244.8</ele><time>2026-07-26T17:48:35Z</time></trkpt>
<trkpt lat="35.205854" lon="-84.854172"><ele>244.8</ele><time>2026-07-26T17:48:38Z</time></trkpt>
<trkpt lat="35.205815" lon="-84.854169"><ele>245.4</ele><time>2026-07-26T17:48:41Z</time></trkpt>
<trkpt lat="35.205775" lon="-84.854161"><ele>245.7</ele><time>2026-07-26T17:48:44Z</time></trkpt>
<trkpt lat="35.205748" lon="-84.85415"><ele>246.3</ele><time>2026-07-26T17:48:46Z</time></trkpt>
<trkpt lat="35.205708" lon="-84.854149"><ele>247.2</ele><time>2026-07-26T17:48:49Z</time></trkpt>
<trkpt lat="35.20567" lon="-84.854149"><ele>246.6</ele><time>2026-07-26T17:48:52Z</time></trkpt>
<trkpt lat="35.205633" lon="-84.854158"><ele>244.8</ele><time>2026-07-26T17:48:55Z</time></trkpt>
<trkpt lat="35.205596" lon="-84.854178"><ele>245.4</ele><time>2026-07-26T17:48:58Z</time></trkpt>
<trkpt lat="35.205559" lon="-84.854196"><ele>246.3</ele><time>2026-07-26T17:49:01Z</time></trkpt>
<trkpt lat="35.205525" lon="-84.854219"><ele>243.5</ele><time>2026-07-26T17:49:04Z</time></trkpt>
<trkpt lat="35.205499" lon="-84.85423"><ele>243.5</ele><time>2026-07-26T17:49:06Z</time></trkpt>
<trkpt lat="35.205464" lon="-84.854241"><ele>243.8</ele><time>2026-07-26T17:49:09Z</time></trkpt>
<trkpt lat="35.205425" lon="-84.854246"><ele>244.8</ele><time>2026-07-26T17:49:12Z</time></trkpt>
<trkpt lat="35.205384" lon="-84.854244"><ele>244.8</ele><time>2026-07-26T17:49:15Z</time></trkpt>
<trkpt lat="35.205346" lon="-84.854246"><ele>244.4</ele><time>2026-07-26T17:49:18Z</time></trkpt>
<trkpt lat="35.205306" lon="-84.85425"><ele>244.4</ele><time>2026-07-26T17:49:21Z</time></trkpt>
<trkpt lat="35.205266" lon="-84.854253"><ele>243.8</ele><time>2026-07-26T17:49:24Z</time></trkpt>
<trkpt lat="35.205225" lon="-84.854254"><ele>244.4</ele><time>2026-07-26T17:49:27Z</time></trkpt>
<trkpt lat="35.205186" lon="-84.854258"><ele>243.5</ele><time>2026-07-26T17:49:30Z</time></trkpt>
<trkpt lat="35.205159" lon="-84.854263"><ele>242.6</ele><time>2026-07-26T17:49:32Z</time></trkpt>
<trkpt lat="35.205122" lon="-84.854257"><ele>243.8</ele><time>2026-07-26T17:49:35Z</time></trkpt>
<trkpt lat="35.205082" lon="-84.854252"><ele>243.2</ele><time>2026-07-26T17:49:38Z</time></trkpt>
<trkpt lat="35.205054" lon="-84.854246"><ele>243.5</ele><time>2026-07-26T17:49:40Z</time></trkpt>
<trkpt lat="35.205026" lon="-84.854239"><ele>243.8</ele><time>2026-07-26T17:49:42Z</time></trkpt>
<trkpt lat="35.204988" lon="-84.85423"><ele>242.9</ele><time>2026-07-26T17:49:45Z</time></trkpt>
<trkpt lat="35.20495" lon="-84.854219"><ele>243.2</ele><time>2026-07-26T17:49:48Z</time></trkpt>
<trkpt lat="35.204921" lon="-84.854209"><ele>244.1</ele><time>2026-07-26T17:49:50Z</time></trkpt>
<trkpt lat="35.204891" lon="-84.854203"><ele>245.4</ele><time>2026-07-26T17:49:52Z</time></trkpt>
<trkpt lat="35.204864" lon="-84.854196"><ele>245.4</ele><time>2026-07-26T17:49:54Z</time></trkpt>
<trkpt lat="35.204826" lon="-84.854194"><ele>245.4</ele><time>2026-07-26T17:49:57Z</time></trkpt>
<trkpt lat="35.204785" lon="-84.854197"><ele>246.6</ele><time>2026-07-26T17:50:00Z</time></trkpt>
<trkpt lat="35.204745" lon="-84.854199"><ele>246.3</ele><time>2026-07-26T17:50:03Z</time></trkpt>
<trkpt lat="35.204706" lon="-84.854201"><ele>245.1</ele><time>2026-07-26T17:50:06Z</time></trkpt>
<trkpt lat="35.204668" lon="-84.854201"><ele>243.8</ele><time>2026-07-26T17:50:09Z</time></trkpt>
<trkpt lat="35.204631" lon="-84.854198"><ele>243.5</ele><time>2026-07-26T17:50:12Z</time></trkpt>
<trkpt lat="35.204593" lon="-84.854189"><ele>243.2</ele><time>2026-07-26T17:50:15Z</time></trkpt>
<trkpt lat="35.204553" lon="-84.854183"><ele>243.2</ele><time>2026-07-26T17:50:18Z</time></trkpt>
<trkpt lat="35.204524" lon="-84.85418"><ele>242.6</ele><time>2026-07-26T17:50:20Z</time></trkpt>
<trkpt lat="35.204497" lon="-84.854168"><ele>243.2</ele><time>2026-07-26T17:50:22Z</time></trkpt>
<trkpt lat="35.204468" lon="-84.854161"><ele>243.5</ele><time>2026-07-26T17:50:24Z</time></trkpt>
<trkpt lat="35.204438" lon="-84.854153"><ele>243.8</ele><time>2026-07-26T17:50:26Z</time></trkpt>
<trkpt lat="35.204412" lon="-84.854137"><ele>243.5</ele><time>2026-07-26T17:50:28Z</time></trkpt>
<trkpt lat="35.204383" lon="-84.854125"><ele>242.9</ele><time>2026-07-26T17:50:30Z</time></trkpt>
<trkpt lat="35.204354" lon="-84.854115"><ele>243.2</ele><time>2026-07-26T17:50:32Z</time></trkpt>
<trkpt lat="35.204327" lon="-84.854106"><ele>242.3</ele><time>2026-07-26T17:50:34Z</time></trkpt>
<trkpt lat="35.20429" lon="-84.85409"><ele>242.9</ele><time>2026-07-26T17:50:37Z</time></trkpt>
<trkpt lat="35.204253" lon="-84.854075"><ele>242.3</ele><time>2026-07-26T17:50:40Z</time></trkpt>
<trkpt lat="35.204214" lon="-84.854066"><ele>242.6</ele><time>2026-07-26T17:50:43Z</time></trkpt>
<trkpt lat="35.204172" lon="-84.854055"><ele>242.9</ele><time>2026-07-26T17:50:46Z</time></trkpt>
<trkpt lat="35.204144" lon="-84.854049"><ele>242.0</ele><time>2026-07-26T17:50:48Z</time></trkpt>
<trkpt lat="35.204105" lon="-84.854054"><ele>241.1</ele><time>2026-07-26T17:50:51Z</time></trkpt>
<trkpt lat="35.204066" lon="-84.854052"><ele>240.8</ele><time>2026-07-26T17:50:54Z</time></trkpt>
<trkpt lat="35.204037" lon="-84.854054"><ele>241.1</ele><time>2026-07-26T17:50:56Z</time></trkpt>
<trkpt lat="35.203997" lon="-84.854047"><ele>240.8</ele><time>2026-07-26T17:50:59Z</time></trkpt>
<trkpt lat="35.203969" lon="-84.854037"><ele>242.3</ele><time>2026-07-26T17:51:01Z</time></trkpt>
<trkpt lat="35.203944" lon="-84.854019"><ele>241.4</ele><time>2026-07-26T17:51:03Z</time></trkpt>
<trkpt lat="35.203907" lon="-84.853999"><ele>240.8</ele><time>2026-07-26T17:51:06Z</time></trkpt>
<trkpt lat="35.203882" lon="-84.853978"><ele>241.4</ele><time>2026-07-26T17:51:08Z</time></trkpt>
<trkpt lat="35.203847" lon="-84.853949"><ele>242.9</ele><time>2026-07-26T17:51:11Z</time></trkpt>
<trkpt lat="35.203825" lon="-84.853929"><ele>242.9</ele><time>2026-07-26T17:51:13Z</time></trkpt>
<trkpt lat="35.203792" lon="-84.853901"><ele>242.0</ele><time>2026-07-26T17:51:16Z</time></trkpt>
<trkpt lat="35.203763" lon="-84.853868"><ele>240.8</ele><time>2026-07-26T17:51:19Z</time></trkpt>
<trkpt lat="35.203726" lon="-84.853844"><ele>240.5</ele><time>2026-07-26T17:51:22Z</time></trkpt>
<trkpt lat="35.203705" lon="-84.853822"><ele>240.5</ele><time>2026-07-26T17:51:24Z</time></trkpt>
<trkpt lat="35.203673" lon="-84.853792"><ele>241.1</ele><time>2026-07-26T17:51:27Z</time></trkpt>
<trkpt lat="35.203654" lon="-84.853765"><ele>242.9</ele><time>2026-07-26T17:51:29Z</time></trkpt>
<trkpt lat="35.203632" lon="-84.853744"><ele>242.6</ele><time>2026-07-26T17:51:31Z</time></trkpt>
<trkpt lat="35.20361" lon="-84.853724"><ele>241.1</ele><time>2026-07-26T17:51:33Z</time></trkpt>
<trkpt lat="35.203588" lon="-84.853703"><ele>240.8</ele><time>2026-07-26T17:51:35Z</time></trkpt>
<trkpt lat="35.203567" lon="-84.853682"><ele>240.2</ele><time>2026-07-26T17:51:37Z</time></trkpt>
<trkpt lat="35.203543" lon="-84.853662"><ele>240.5</ele><time>2026-07-26T17:51:39Z</time></trkpt>
<trkpt lat="35.203519" lon="-84.853643"><ele>240.5</ele><time>2026-07-26T17:51:41Z</time></trkpt>
<trkpt lat="35.203488" lon="-84.853614"><ele>240.5</ele><time>2026-07-26T17:51:44Z</time></trkpt>
<trkpt lat="35.203456" lon="-84.853585"><ele>240.5</ele><time>2026-07-26T17:51:47Z</time></trkpt>
<trkpt lat="35.203426" lon="-84.853558"><ele>240.8</ele><time>2026-07-26T17:51:50Z</time></trkpt>
<trkpt lat="35.203394" lon="-84.853531"><ele>241.1</ele><time>2026-07-26T17:51:53Z</time></trkpt>
<trkpt lat="35.203362" lon="-84.853504"><ele>240.2</ele><time>2026-07-26T17:51:56Z</time></trkpt>
<trkpt lat="35.203329" lon="-84.853478"><ele>239.9</ele><time>2026-07-26T17:51:59Z</time></trkpt>
<trkpt lat="35.203305" lon="-84.85346"><ele>239.9</ele><time>2026-07-26T17:52:01Z</time></trkpt>
<trkpt lat="35.203272" lon="-84.853432"><ele>237.7</ele><time>2026-07-26T17:52:04Z</time></trkpt>
<trkpt lat="35.203238" lon="-84.853406"><ele>237.1</ele><time>2026-07-26T17:52:07Z</time></trkpt>
<trkpt lat="35.203216" lon="-84.853385"><ele>237.1</ele><time>2026-07-26T17:52:09Z</time></trkpt>
<trkpt lat="35.203194" lon="-84.853364"><ele>237.4</ele><time>2026-07-26T17:52:11Z</time></trkpt>
<trkpt lat="35.203169" lon="-84.853342"><ele>238.0</ele><time>2026-07-26T17:52:13Z</time></trkpt>
<trkpt lat="35.203145" lon="-84.853319"><ele>238.4</ele><time>2026-07-26T17:52:15Z</time></trkpt>
<trkpt lat="35.203124" lon="-84.853294"><ele>238.4</ele><time>2026-07-26T17:52:17Z</time></trkpt>
<trkpt lat="35.203101" lon="-84.853274"><ele>239.3</ele><time>2026-07-26T17:52:19Z</time></trkpt>
<trkpt lat="35.203076" lon="-84.853251"><ele>239.6</ele><time>2026-07-26T17:52:21Z</time></trkpt>
<trkpt lat="35.203048" lon="-84.853231"><ele>240.5</ele><time>2026-07-26T17:52:23Z</time></trkpt>
<trkpt lat="35.203026" lon="-84.853207"><ele>239.9</ele><time>2026-07-26T17:52:25Z</time></trkpt>
<trkpt lat="35.202995" lon="-84.853173"><ele>239.9</ele><time>2026-07-26T17:52:28Z</time></trkpt>
<trkpt lat="35.202971" lon="-84.853152"><ele>240.8</ele><time>2026-07-26T17:52:30Z</time></trkpt>
<trkpt lat="35.202944" lon="-84.853137"><ele>241.7</ele><time>2026-07-26T17:52:32Z</time></trkpt>
<trkpt lat="35.202923" lon="-84.853116"><ele>241.7</ele><time>2026-07-26T17:52:34Z</time></trkpt>
<trkpt lat="35.202902" lon="-84.853093"><ele>241.7</ele><time>2026-07-26T17:52:36Z</time></trkpt>
<trkpt lat="35.20288" lon="-84.853071"><ele>242.3</ele><time>2026-07-26T17:52:38Z</time></trkpt>
<trkpt lat="35.202847" lon="-84.853043"><ele>242.0</ele><time>2026-07-26T17:52:41Z</time></trkpt>
<trkpt lat="35.202814" lon="-84.853013"><ele>241.7</ele><time>2026-07-26T17:52:44Z</time></trkpt>
<trkpt lat="35.202791" lon="-84.852991"><ele>241.7</ele><time>2026-07-26T17:52:46Z</time></trkpt>
<trkpt lat="35.202758" lon="-84.852966"><ele>240.8</ele><time>2026-07-26T17:52:49Z</time></trkpt>
<trkpt lat="35.202733" lon="-84.852946"><ele>240.8</ele><time>2026-07-26T17:52:51Z</time></trkpt>
<trkpt lat="35.20271" lon="-84.852924"><ele>241.1</ele><time>2026-07-26T17:52:53Z</time></trkpt>
<trkpt lat="35.20269" lon="-84.8529"><ele>241.1</ele><time>2026-07-26T17:52:55Z</time></trkpt>
<trkpt lat="35.202658" lon="-84.852869"><ele>241.7</ele><time>2026-07-26T17:52:58Z</time></trkpt>
<trkpt lat="35.202628" lon="-84.852835"><ele>242.3</ele><time>2026-07-26T17:53:01Z</time></trkpt>
<trkpt lat="35.202592" lon="-84.852812"><ele>241.1</ele><time>2026-07-26T17:53:04Z</time></trkpt>
<trkpt lat="35.202567" lon="-84.852797"><ele>241.4</ele><time>2026-07-26T17:53:06Z</time></trkpt>
<trkpt lat="35.202533" lon="-84.852772"><ele>242.0</ele><time>2026-07-26T17:53:09Z</time></trkpt>
<trkpt lat="35.202499" lon="-84.852757"><ele>241.7</ele><time>2026-07-26T17:53:12Z</time></trkpt>
<trkpt lat="35.202474" lon="-84.852742"><ele>241.7</ele><time>2026-07-26T17:53:14Z</time></trkpt>
<trkpt lat="35.202446" lon="-84.85273"><ele>241.7</ele><time>2026-07-26T17:53:16Z</time></trkpt>
<trkpt lat="35.202419" lon="-84.852718"><ele>240.5</ele><time>2026-07-26T17:53:18Z</time></trkpt>
<trkpt lat="35.202393" lon="-84.852701"><ele>239.9</ele><time>2026-07-26T17:53:20Z</time></trkpt>
<trkpt lat="35.202368" lon="-84.852689"><ele>240.5</ele><time>2026-07-26T17:53:22Z</time></trkpt>
<trkpt lat="35.202325" lon="-84.852678"><ele>239.3</ele><time>2026-07-26T17:53:25Z</time></trkpt>
<trkpt lat="35.202296" lon="-84.852668"><ele>239.0</ele><time>2026-07-26T17:53:27Z</time></trkpt>
<trkpt lat="35.202267" lon="-84.852661"><ele>240.5</ele><time>2026-07-26T17:53:29Z</time></trkpt>
<trkpt lat="35.202238" lon="-84.852656"><ele>239.6</ele><time>2026-07-26T17:53:31Z</time></trkpt>
<trkpt lat="35.2022" lon="-84.852639"><ele>239.9</ele><time>2026-07-26T17:53:34Z</time></trkpt>
<trkpt lat="35.202172" lon="-84.85263"><ele>240.2</ele><time>2026-07-26T17:53:36Z</time></trkpt>
<trkpt lat="35.202131" lon="-84.85262"><ele>240.5</ele><time>2026-07-26T17:53:39Z</time></trkpt>
<trkpt lat="35.202103" lon="-84.852617"><ele>241.1</ele><time>2026-07-26T17:53:41Z</time></trkpt>
<trkpt lat="35.202073" lon="-84.852612"><ele>241.7</ele><time>2026-07-26T17:53:43Z</time></trkpt>
<trkpt lat="35.202043" lon="-84.852608"><ele>241.4</ele><time>2026-07-26T17:53:45Z</time></trkpt>
<trkpt lat="35.202004" lon="-84.852603"><ele>240.8</ele><time>2026-07-26T17:53:48Z</time></trkpt>
<trkpt lat="35.201976" lon="-84.852603"><ele>241.7</ele><time>2026-07-26T17:53:50Z</time></trkpt>
<trkpt lat="35.201947" lon="-84.852604"><ele>242.0</ele><time>2026-07-26T17:53:52Z</time></trkpt>
<trkpt lat="35.201919" lon="-84.852603"><ele>242.0</ele><time>2026-07-26T17:53:54Z</time></trkpt>
<trkpt lat="35.201889" lon="-84.852607"><ele>241.7</ele><time>2026-07-26T17:53:56Z</time></trkpt>
<trkpt lat="35.201861" lon="-84.852613"><ele>240.8</ele><time>2026-07-26T17:53:58Z</time></trkpt>
<trkpt lat="35.201831" lon="-84.852616"><ele>239.6</ele><time>2026-07-26T17:54:00Z</time></trkpt>
<trkpt lat="35.201803" lon="-84.852617"><ele>239.6</ele><time>2026-07-26T17:54:02Z</time></trkpt>
<trkpt lat="35.201774" lon="-84.852615"><ele>239.3</ele><time>2026-07-26T17:54:04Z</time></trkpt>
<trkpt lat="35.201744" lon="-84.852617"><ele>239.9</ele><time>2026-07-26T17:54:06Z</time></trkpt>
<trkpt lat="35.201716" lon="-84.85262"><ele>240.5</ele><time>2026-07-26T17:54:08Z</time></trkpt>
<trkpt lat="35.201688" lon="-84.852624"><ele>240.2</ele><time>2026-07-26T17:54:10Z</time></trkpt>
<trkpt lat="35.201661" lon="-84.852628"><ele>239.6</ele><time>2026-07-26T17:54:12Z</time></trkpt>
<trkpt lat="35.201632" lon="-84.852636"><ele>240.5</ele><time>2026-07-26T17:54:14Z</time></trkpt>
<trkpt lat="35.201593" lon="-84.852653"><ele>240.8</ele><time>2026-07-26T17:54:17Z</time></trkpt>
<trkpt lat="35.201554" lon="-84.852667"><ele>239.9</ele><time>2026-07-26T17:54:20Z</time></trkpt>
<trkpt lat="35.201526" lon="-84.852675"><ele>239.9</ele><time>2026-07-26T17:54:22Z</time></trkpt>
<trkpt lat="35.201497" lon="-84.852678"><ele>240.5</ele><time>2026-07-26T17:54:24Z</time></trkpt>
<trkpt lat="35.201469" lon="-84.852677"><ele>240.5</ele><time>2026-07-26T17:54:26Z</time></trkpt>
<trkpt lat="35.201441" lon="-84.852679"><ele>240.2</ele><time>2026-07-26T17:54:28Z</time></trkpt>
<trkpt lat="35.201413" lon="-84.852672"><ele>239.6</ele><time>2026-07-26T17:54:30Z</time></trkpt>
<trkpt lat="35.201386" lon="-84.852663"><ele>238.7</ele><time>2026-07-26T17:54:32Z</time></trkpt>
<trkpt lat="35.201359" lon="-84.852657"><ele>239.3</ele><time>2026-07-26T17:54:34Z</time></trkpt>
<trkpt lat="35.20133" lon="-84.852655"><ele>238.7</ele><time>2026-07-26T17:54:36Z</time></trkpt>
<trkpt lat="35.201293" lon="-84.852636"><ele>236.8</ele><time>2026-07-26T17:54:39Z</time></trkpt>
<trkpt lat="35.201254" lon="-84.852627"><ele>236.2</ele><time>2026-07-26T17:54:42Z</time></trkpt>
<trkpt lat="35.201226" lon="-84.852616"><ele>236.5</ele><time>2026-07-26T17:54:44Z</time></trkpt>
<trkpt lat="35.201198" lon="-84.852604"><ele>236.2</ele><time>2026-07-26T17:54:46Z</time></trkpt>
<trkpt lat="35.201171" lon="-84.852594"><ele>235.9</ele><time>2026-07-26T17:54:48Z</time></trkpt>
<trkpt lat="35.201145" lon="-84.852582"><ele>236.2</ele><time>2026-07-26T17:54:50Z</time></trkpt>
<trkpt lat="35.201119" lon="-84.852568"><ele>236.5</ele><time>2026-07-26T17:54:52Z</time></trkpt>
<trkpt lat="35.201081" lon="-84.852569"><ele>237.1</ele><time>2026-07-26T17:54:55Z</time></trkpt>
<trkpt lat="35.201044" lon="-84.852577"><ele>237.1</ele><time>2026-07-26T17:54:58Z</time></trkpt>
<trkpt lat="35.201018" lon="-84.852591"><ele>237.1</ele><time>2026-07-26T17:55:00Z</time></trkpt>
<trkpt lat="35.200983" lon="-84.85262"><ele>238.0</ele><time>2026-07-26T17:55:03Z</time></trkpt>
<trkpt lat="35.200955" lon="-84.852648"><ele>238.4</ele><time>2026-07-26T17:55:05Z</time></trkpt>
<trkpt lat="35.200936" lon="-84.852696"><ele>238.7</ele><time>2026-07-26T17:55:07Z</time></trkpt>
<trkpt lat="35.200932" lon="-84.852743"><ele>238.7</ele><time>2026-07-26T17:55:09Z</time></trkpt>
<trkpt lat="35.200928" lon="-84.852782"><ele>237.7</ele><time>2026-07-26T17:55:11Z</time></trkpt>
<trkpt lat="35.200926" lon="-84.852823"><ele>236.8</ele><time>2026-07-26T17:55:13Z</time></trkpt>
<trkpt lat="35.200921" lon="-84.85286"><ele>237.4</ele><time>2026-07-26T17:55:15Z</time></trkpt>
<trkpt lat="35.200911" lon="-84.85291"><ele>240.2</ele><time>2026-07-26T17:55:18Z</time></trkpt>
<trkpt lat="35.200902" lon="-84.852944"><ele>239.9</ele><time>2026-07-26T17:55:20Z</time></trkpt>
<trkpt lat="35.20089" lon="-84.852978"><ele>240.2</ele><time>2026-07-26T17:55:22Z</time></trkpt>
<trkpt lat="35.200879" lon="-84.853011"><ele>239.9</ele><time>2026-07-26T17:55:24Z</time></trkpt>
<trkpt lat="35.200867" lon="-84.853042"><ele>240.8</ele><time>2026-07-26T17:55:26Z</time></trkpt>
<trkpt lat="35.20085" lon="-84.853086"><ele>241.1</ele><time>2026-07-26T17:55:29Z</time></trkpt>
<trkpt lat="35.200839" lon="-84.853118"><ele>242.0</ele><time>2026-07-26T17:55:31Z</time></trkpt>
<trkpt lat="35.20082" lon="-84.853162"><ele>242.0</ele><time>2026-07-26T17:55:34Z</time></trkpt>
<trkpt lat="35.200804" lon="-84.853192"><ele>241.1</ele><time>2026-07-26T17:55:36Z</time></trkpt>
<trkpt lat="35.200793" lon="-84.853224"><ele>241.4</ele><time>2026-07-26T17:55:38Z</time></trkpt>
<trkpt lat="35.200782" lon="-84.853254"><ele>241.4</ele><time>2026-07-26T17:55:40Z</time></trkpt>
<trkpt lat="35.20077" lon="-84.853302"><ele>241.7</ele><time>2026-07-26T17:55:43Z</time></trkpt>
<trkpt lat="35.200751" lon="-84.853344"><ele>241.4</ele><time>2026-07-26T17:55:46Z</time></trkpt>
<trkpt lat="35.200732" lon="-84.853383"><ele>242.0</ele><time>2026-07-26T17:55:49Z</time></trkpt>
<trkpt lat="35.200708" lon="-84.853423"><ele>242.0</ele><time>2026-07-26T17:55:52Z</time></trkpt>
<trkpt lat="35.200691" lon="-84.853455"><ele>242.0</ele><time>2026-07-26T17:55:54Z</time></trkpt>
<trkpt lat="35.200676" lon="-84.853485"><ele>242.0</ele><time>2026-07-26T17:55:56Z</time></trkpt>
<trkpt lat="35.200661" lon="-84.853516"><ele>241.7</ele><time>2026-07-26T17:55:58Z</time></trkpt>
<trkpt lat="35.200644" lon="-84.853545"><ele>241.4</ele><time>2026-07-26T17:56:00Z</time></trkpt>
<trkpt lat="35.200629" lon="-84.853576"><ele>240.8</ele><time>2026-07-26T17:56:02Z</time></trkpt>
<trkpt lat="35.200615" lon="-84.853623"><ele>240.5</ele><time>2026-07-26T17:56:05Z</time></trkpt>
<trkpt lat="35.200606" lon="-84.853656"><ele>240.5</ele><time>2026-07-26T17:56:07Z</time></trkpt>
<trkpt lat="35.200597" lon="-84.853689"><ele>240.8</ele><time>2026-07-26T17:56:09Z</time></trkpt>
<trkpt lat="35.200581" lon="-84.85372"><ele>241.1</ele><time>2026-07-26T17:56:11Z</time></trkpt>
<trkpt lat="35.200559" lon="-84.853744"><ele>242.3</ele><time>2026-07-26T17:56:13Z</time></trkpt>
<trkpt lat="35.200535" lon="-84.853761"><ele>242.0</ele><time>2026-07-26T17:56:15Z</time></trkpt>
<trkpt lat="35.200502" lon="-84.853765"><ele>242.6</ele><time>2026-07-26T17:56:17Z</time></trkpt>
<trkpt lat="35.200469" lon="-84.853766"><ele>242.3</ele><time>2026-07-26T17:56:19Z</time></trkpt>
<trkpt lat="35.200442" lon="-84.853772"><ele>240.8</ele><time>2026-07-26T17:56:21Z</time></trkpt>
<trkpt lat="35.200411" lon="-84.853773"><ele>242.3</ele><time>2026-07-26T17:56:23Z</time></trkpt>
<trkpt lat="35.200383" lon="-84.853777"><ele>242.0</ele><time>2026-07-26T17:56:25Z</time></trkpt>
<trkpt lat="35.200355" lon="-84.853783"><ele>241.7</ele><time>2026-07-26T17:56:27Z</time></trkpt>
<trkpt lat="35.200327" lon="-84.853786"><ele>242.0</ele><time>2026-07-26T17:56:29Z</time></trkpt>
<trkpt lat="35.200292" lon="-84.85381"><ele>240.8</ele><time>2026-07-26T17:56:32Z</time></trkpt>
<trkpt lat="35.200268" lon="-84.85385"><ele>239.6</ele><time>2026-07-26T17:56:35Z</time></trkpt>
<trkpt lat="35.200263" lon="-84.853885"><ele>238.7</ele><time>2026-07-26T17:56:37Z</time></trkpt>
<trkpt lat="35.200266" lon="-84.853921"><ele>239.0</ele><time>2026-07-26T17:56:39Z</time></trkpt>
<trkpt lat="35.200282" lon="-84.85395"><ele>238.7</ele><time>2026-07-26T17:56:41Z</time></trkpt>
<trkpt lat="35.200303" lon="-84.853971"><ele>238.0</ele><time>2026-07-26T17:56:43Z</time></trkpt>
<trkpt lat="35.200327" lon="-84.853989"><ele>237.4</ele><time>2026-07-26T17:56:45Z</time></trkpt>
<trkpt lat="35.200351" lon="-84.854006"><ele>237.7</ele><time>2026-07-26T17:56:47Z</time></trkpt>
<trkpt lat="35.200375" lon="-84.854025"><ele>238.4</ele><time>2026-07-26T17:56:49Z</time></trkpt>
<trkpt lat="35.200399" lon="-84.854043"><ele>237.1</ele><time>2026-07-26T17:56:51Z</time></trkpt>
<trkpt lat="35.200423" lon="-84.854059"><ele>236.8</ele><time>2026-07-26T17:56:53Z</time></trkpt>
<trkpt lat="35.200444" lon="-84.854084"><ele>237.1</ele><time>2026-07-26T17:56:55Z</time></trkpt>
<trkpt lat="35.200464" lon="-84.854109"><ele>237.4</ele><time>2026-07-26T17:56:57Z</time></trkpt>
<trkpt lat="35.200487" lon="-84.85413"><ele>237.4</ele><time>2026-07-26T17:56:59Z</time></trkpt>
<trkpt lat="35.200502" lon="-84.854158"><ele>238.0</ele><time>2026-07-26T17:57:01Z</time></trkpt>
<trkpt lat="35.200516" lon="-84.854188"><ele>238.4</ele><time>2026-07-26T17:57:03Z</time></trkpt>
<trkpt lat="35.200541" lon="-84.854225"><ele>238.0</ele><time>2026-07-26T17:57:06Z</time></trkpt>
<trkpt lat="35.20056" lon="-84.854251"><ele>237.7</ele><time>2026-07-26T17:57:08Z</time></trkpt>
<trkpt lat="35.20058" lon="-84.854278"><ele>237.7</ele><time>2026-07-26T17:57:10Z</time></trkpt>
<trkpt lat="35.2006" lon="-84.854307"><ele>237.1</ele><time>2026-07-26T17:57:12Z</time></trkpt>
<trkpt lat="35.200618" lon="-84.854333"><ele>237.1</ele><time>2026-07-26T17:57:14Z</time></trkpt>
<trkpt lat="35.200631" lon="-84.85437"><ele>236.2</ele><time>2026-07-26T17:57:16Z</time></trkpt>
<trkpt lat="35.200646" lon="-84.854403"><ele>237.1</ele><time>2026-07-26T17:57:18Z</time></trkpt>
<trkpt lat="35.200664" lon="-84.854433"><ele>238.0</ele><time>2026-07-26T17:57:20Z</time></trkpt>
<trkpt lat="35.200678" lon="-84.854465"><ele>237.7</ele><time>2026-07-26T17:57:22Z</time></trkpt>
<trkpt lat="35.200695" lon="-84.854495"><ele>237.4</ele><time>2026-07-26T17:57:24Z</time></trkpt>
<trkpt lat="35.200709" lon="-84.854524"><ele>237.7</ele><time>2026-07-26T17:57:26Z</time></trkpt>
<trkpt lat="35.200727" lon="-84.85457"><ele>238.0</ele><time>2026-07-26T17:57:29Z</time></trkpt>
<trkpt lat="35.200738" lon="-84.854602"><ele>238.0</ele><time>2026-07-26T17:57:31Z</time></trkpt>
<trkpt lat="35.200755" lon="-84.854631"><ele>238.4</ele><time>2026-07-26T17:57:33Z</time></trkpt>
<trkpt lat="35.200773" lon="-84.854692"><ele>242.0</ele><time>2026-07-26T17:57:35Z</time></trkpt>
<trkpt lat="35.200787" lon="-84.854723"><ele>241.1</ele><time>2026-07-26T17:57:37Z</time></trkpt>
<trkpt lat="35.200808" lon="-84.854769"><ele>242.0</ele><time>2026-07-26T17:57:39Z</time></trkpt>
<trkpt lat="35.200826" lon="-84.854796"><ele>242.6</ele><time>2026-07-26T17:57:41Z</time></trkpt>
<trkpt lat="35.200848" lon="-84.854838"><ele>242.9</ele><time>2026-07-26T17:57:44Z</time></trkpt>
<trkpt lat="35.200864" lon="-84.854886"><ele>242.6</ele><time>2026-07-26T17:57:47Z</time></trkpt>
<trkpt lat="35.200872" lon="-84.854919"><ele>242.0</ele><time>2026-07-26T17:57:49Z</time></trkpt>
<trkpt lat="35.200879" lon="-84.854969"><ele>241.7</ele><time>2026-07-26T17:57:52Z</time></trkpt>
<trkpt lat="35.200883" lon="-84.855006"><ele>242.0</ele><time>2026-07-26T17:57:54Z</time></trkpt>
<trkpt lat="35.20089" lon="-84.85504"><ele>241.1</ele><time>2026-07-26T17:57:56Z</time></trkpt>
<trkpt lat="35.200904" lon="-84.855086"><ele>240.5</ele><time>2026-07-26T17:57:59Z</time></trkpt>
<trkpt lat="35.20092" lon="-84.855127"><ele>239.0</ele><time>2026-07-26T17:58:02Z</time></trkpt>
<trkpt lat="35.200938" lon="-84.85517"><ele>239.0</ele><time>2026-07-26T17:58:05Z</time></trkpt>
<trkpt lat="35.200955" lon="-84.855206"><ele>239.9</ele><time>2026-07-26T17:58:07Z</time></trkpt>
<trkpt lat="35.200983" lon="-84.855217"><ele>239.3</ele><time>2026-07-26T17:58:09Z</time></trkpt>
<trkpt lat="35.201007" lon="-84.855236"><ele>239.3</ele><time>2026-07-26T17:58:11Z</time></trkpt>
<trkpt lat="35.201028" lon="-84.855263"><ele>239.9</ele><time>2026-07-26T17:58:13Z</time></trkpt>
<trkpt lat="35.201048" lon="-84.85529"><ele>240.8</ele><time>2026-07-26T17:58:15Z</time></trkpt>
<trkpt lat="35.201064" lon="-84.855322"><ele>241.1</ele><time>2026-07-26T17:58:17Z</time></trkpt>
<trkpt lat="35.201085" lon="-84.855363"><ele>239.9</ele><time>2026-07-26T17:58:20Z</time></trkpt>
<trkpt lat="35.201112" lon="-84.855399"><ele>239.0</ele><time>2026-07-26T17:58:23Z</time></trkpt>
<trkpt lat="35.201124" lon="-84.855431"><ele>239.6</ele><time>2026-07-26T17:58:25Z</time></trkpt>
<trkpt lat="35.201139" lon="-84.855461"><ele>240.2</ele><time>2026-07-26T17:58:27Z</time></trkpt>
<trkpt lat="35.201153" lon="-84.855492"><ele>240.5</ele><time>2026-07-26T17:58:29Z</time></trkpt>
<trkpt lat="35.201168" lon="-84.855521"><ele>240.5</ele><time>2026-07-26T17:58:31Z</time></trkpt>
<trkpt lat="35.201179" lon="-84.855553"><ele>240.2</ele><time>2026-07-26T17:58:33Z</time></trkpt>
<trkpt lat="35.201194" lon="-84.855583"><ele>241.1</ele><time>2026-07-26T17:58:35Z</time></trkpt>
<trkpt lat="35.201207" lon="-84.855615"><ele>241.4</ele><time>2026-07-26T17:58:37Z</time></trkpt>
<trkpt lat="35.20122" lon="-84.855649"><ele>241.1</ele><time>2026-07-26T17:58:39Z</time></trkpt>
<trkpt lat="35.201238" lon="-84.855691"><ele>239.9</ele><time>2026-07-26T17:58:42Z</time></trkpt>
<trkpt lat="35.201257" lon="-84.855735"><ele>239.9</ele><time>2026-07-26T17:58:45Z</time></trkpt>
<trkpt lat="35.201275" lon="-84.855765"><ele>240.8</ele><time>2026-07-26T17:58:47Z</time></trkpt>
<trkpt lat="35.201289" lon="-84.855797"><ele>240.8</ele><time>2026-07-26T17:58:49Z</time></trkpt>
<trkpt lat="35.201301" lon="-84.855828"><ele>241.1</ele><time>2026-07-26T17:58:51Z</time></trkpt>
<trkpt lat="35.201313" lon="-84.855859"><ele>241.1</ele><time>2026-07-26T17:58:53Z</time></trkpt>
<trkpt lat="35.201323" lon="-84.855894"><ele>242.0</ele><time>2026-07-26T17:58:55Z</time></trkpt>
<trkpt lat="35.20134" lon="-84.855937"><ele>240.2</ele><time>2026-07-26T17:58:58Z</time></trkpt>
<trkpt lat="35.201358" lon="-84.855982"><ele>240.2</ele><time>2026-07-26T17:59:01Z</time></trkpt>
<trkpt lat="35.201373" lon="-84.856013"><ele>239.9</ele><time>2026-07-26T17:59:03Z</time></trkpt>
<trkpt lat="35.201384" lon="-84.856044"><ele>240.2</ele><time>2026-07-26T17:59:05Z</time></trkpt>
<trkpt lat="35.201402" lon="-84.856088"><ele>240.8</ele><time>2026-07-26T17:59:08Z</time></trkpt>
<trkpt lat="35.201412" lon="-84.856121"><ele>240.5</ele><time>2026-07-26T17:59:10Z</time></trkpt>
<trkpt lat="35.201428" lon="-84.856151"><ele>241.4</ele><time>2026-07-26T17:59:12Z</time></trkpt>
<trkpt lat="35.201439" lon="-84.856185"><ele>242.0</ele><time>2026-07-26T17:59:14Z</time></trkpt>
<trkpt lat="35.20145" lon="-84.856216"><ele>242.6</ele><time>2026-07-26T17:59:16Z</time></trkpt>
<trkpt lat="35.201463" lon="-84.856249"><ele>242.9</ele><time>2026-07-26T17:59:18Z</time></trkpt>
<trkpt lat="35.201475" lon="-84.856279"><ele>242.6</ele><time>2026-07-26T17:59:20Z</time></trkpt>
<trkpt lat="35.201487" lon="-84.856311"><ele>242.0</ele><time>2026-07-26T17:59:22Z</time></trkpt>
<trkpt lat="35.201496" lon="-84.856344"><ele>241.7</ele><time>2026-07-26T17:59:24Z</time></trkpt>
<trkpt lat="35.201503" lon="-84.856377"><ele>242.6</ele><time>2026-07-26T17:59:26Z</time></trkpt>
<trkpt lat="35.201519" lon="-84.856421"><ele>242.6</ele><time>2026-07-26T17:59:29Z</time></trkpt>
<trkpt lat="35.201535" lon="-84.856463"><ele>240.5</ele><time>2026-07-26T17:59:32Z</time></trkpt>
<trkpt lat="35.201546" lon="-84.85651"><ele>240.2</ele><time>2026-07-26T17:59:35Z</time></trkpt>
<trkpt lat="35.201564" lon="-84.856556"><ele>240.8</ele><time>2026-07-26T17:59:38Z</time></trkpt>
<trkpt lat="35.201575" lon="-84.856592"><ele>240.8</ele><time>2026-07-26T17:59:40Z</time></trkpt>
<trkpt lat="35.201584" lon="-84.856626"><ele>239.6</ele><time>2026-07-26T17:59:42Z</time></trkpt>
<trkpt lat="35.201595" lon="-84.856658"><ele>240.5</ele><time>2026-07-26T17:59:44Z</time></trkpt>
<trkpt lat="35.201605" lon="-84.856691"><ele>240.5</ele><time>2026-07-26T17:59:46Z</time></trkpt>
<trkpt lat="35.201606" lon="-84.856727"><ele>240.2</ele><time>2026-07-26T17:59:48Z</time></trkpt>
<trkpt lat="35.201601" lon="-84.856763"><ele>241.1</ele><time>2026-07-26T17:59:50Z</time></trkpt>
<trkpt lat="35.201576" lon="-84.856788"><ele>239.6</ele><time>2026-07-26T17:59:52Z</time></trkpt>
<trkpt lat="35.201544" lon="-84.856799"><ele>238.7</ele><time>2026-07-26T17:59:54Z</time></trkpt>
<trkpt lat="35.201512" lon="-84.856813"><ele>240.2</ele><time>2026-07-26T17:59:56Z</time></trkpt>
<trkpt lat="35.201486" lon="-84.856834"><ele>240.2</ele><time>2026-07-26T17:59:58Z</time></trkpt>
<trkpt lat="35.201463" lon="-84.856853"><ele>239.9</ele><time>2026-07-26T18:00:00Z</time></trkpt>
<trkpt lat="35.201439" lon="-84.856869"><ele>241.1</ele><time>2026-07-26T18:00:02Z</time></trkpt>
<trkpt lat="35.201416" lon="-84.85689"><ele>240.8</ele><time>2026-07-26T18:00:04Z</time></trkpt>
<trkpt lat="35.20139" lon="-84.856905"><ele>241.1</ele><time>2026-07-26T18:00:06Z</time></trkpt>
<trkpt lat="35.201351" lon="-84.856918"><ele>241.7</ele><time>2026-07-26T18:00:09Z</time></trkpt>
<trkpt lat="35.201323" lon="-84.85693"><ele>241.7</ele><time>2026-07-26T18:00:11Z</time></trkpt>
<trkpt lat="35.201295" lon="-84.856946"><ele>240.8</ele><time>2026-07-26T18:00:13Z</time></trkpt>
<trkpt lat="35.201255" lon="-84.856958"><ele>240.5</ele><time>2026-07-26T18:00:16Z</time></trkpt>
<trkpt lat="35.201227" lon="-84.856964"><ele>240.2</ele><time>2026-07-26T18:00:18Z</time></trkpt>
<trkpt lat="35.2012" lon="-84.856973"><ele>244.1</ele><time>2026-07-26T18:00:20Z</time></trkpt>
<trkpt lat="35.201186" lon="-84.857003"><ele>241.7</ele><time>2026-07-26T18:00:22Z</time></trkpt>
<trkpt lat="35.201175" lon="-84.857034"><ele>240.2</ele><time>2026-07-26T18:00:24Z</time></trkpt>
<trkpt lat="35.201169" lon="-84.857069"><ele>239.6</ele><time>2026-07-26T18:00:26Z</time></trkpt>
<trkpt lat="35.201164" lon="-84.857102"><ele>238.7</ele><time>2026-07-26T18:00:28Z</time></trkpt>
<trkpt lat="35.201146" lon="-84.857129"><ele>237.7</ele><time>2026-07-26T18:00:30Z</time></trkpt>
<trkpt lat="35.201111" lon="-84.857153"><ele>237.1</ele><time>2026-07-26T18:00:33Z</time></trkpt>
<trkpt lat="35.201077" lon="-84.857185"><ele>239.3</ele><time>2026-07-26T18:00:36Z</time></trkpt>
<trkpt lat="35.201073" lon="-84.857222"><ele>239.6</ele><time>2026-07-26T18:00:38Z</time></trkpt>
<trkpt lat="35.201074" lon="-84.857263"><ele>241.4</ele><time>2026-07-26T18:00:40Z</time></trkpt>
<trkpt lat="35.201069" lon="-84.85731"><ele>242.0</ele><time>2026-07-26T18:00:43Z</time></trkpt>
<trkpt lat="35.201062" lon="-84.85735"><ele>242.3</ele><time>2026-07-26T18:00:45Z</time></trkpt>
<trkpt lat="35.201058" lon="-84.857392"><ele>242.9</ele><time>2026-07-26T18:00:47Z</time></trkpt>
<trkpt lat="35.201065" lon="-84.857438"><ele>242.6</ele><time>2026-07-26T18:00:50Z</time></trkpt>
<trkpt lat="35.201068" lon="-84.857472"><ele>241.4</ele><time>2026-07-26T18:00:52Z</time></trkpt>
<trkpt lat="35.20107" lon="-84.857509"><ele>242.0</ele><time>2026-07-26T18:00:54Z</time></trkpt>
<trkpt lat="35.20107" lon="-84.85755"><ele>242.9</ele><time>2026-07-26T18:00:56Z</time></trkpt>
<trkpt lat="35.201067" lon="-84.857585"><ele>243.8</ele><time>2026-07-26T18:00:58Z</time></trkpt>
<trkpt lat="35.201066" lon="-84.857621"><ele>243.2</ele><time>2026-07-26T18:01:00Z</time></trkpt>
<trkpt lat="35.201075" lon="-84.857657"><ele>243.2</ele><time>2026-07-26T18:01:02Z</time></trkpt>
<trkpt lat="35.201092" lon="-84.85769"><ele>243.2</ele><time>2026-07-26T18:01:04Z</time></trkpt>
<trkpt lat="35.201103" lon="-84.857734"><ele>241.7</ele><time>2026-07-26T18:01:07Z</time></trkpt>
<trkpt lat="35.201105" lon="-84.857771"><ele>242.0</ele><time>2026-07-26T18:01:09Z</time></trkpt>
<trkpt lat="35.201099" lon="-84.857804"><ele>243.5</ele><time>2026-07-26T18:01:11Z</time></trkpt>
<trkpt lat="35.201081" lon="-84.857833"><ele>243.8</ele><time>2026-07-26T18:01:13Z</time></trkpt>
<trkpt lat="35.201058" lon="-84.857861"><ele>242.3</ele><time>2026-07-26T18:01:15Z</time></trkpt>
<trkpt lat="35.201036" lon="-84.857889"><ele>240.8</ele><time>2026-07-26T18:01:17Z</time></trkpt>
<trkpt lat="35.201011" lon="-84.857916"><ele>241.4</ele><time>2026-07-26T18:01:19Z</time></trkpt>
<trkpt lat="35.200987" lon="-84.857939"><ele>241.7</ele><time>2026-07-26T18:01:21Z</time></trkpt>
<trkpt lat="35.200965" lon="-84.857969"><ele>242.6</ele><time>2026-07-26T18:01:23Z</time></trkpt>
<trkpt lat="35.200945" lon="-84.857994"><ele>242.6</ele><time>2026-07-26T18:01:25Z</time></trkpt>
<trkpt lat="35.200928" lon="-84.858022"><ele>242.9</ele><time>2026-07-26T18:01:27Z</time></trkpt>
<trkpt lat="35.2009" lon="-84.858056"><ele>242.9</ele><time>2026-07-26T18:01:30Z</time></trkpt>
<trkpt lat="35.200878" lon="-84.858078"><ele>243.2</ele><time>2026-07-26T18:01:32Z</time></trkpt>
<trkpt lat="35.200853" lon="-84.858098"><ele>242.0</ele><time>2026-07-26T18:01:34Z</time></trkpt>
<trkpt lat="35.200833" lon="-84.858124"><ele>242.6</ele><time>2026-07-26T18:01:36Z</time></trkpt>
<trkpt lat="35.200817" lon="-84.858151"><ele>240.8</ele><time>2026-07-26T18:01:38Z</time></trkpt>
<trkpt lat="35.200788" lon="-84.858183"><ele>240.8</ele><time>2026-07-26T18:01:41Z</time></trkpt>
<trkpt lat="35.200768" lon="-84.858208"><ele>240.8</ele><time>2026-07-26T18:01:43Z</time></trkpt>
<trkpt lat="35.200755" lon="-84.858238"><ele>241.1</ele><time>2026-07-26T18:01:45Z</time></trkpt>
<trkpt lat="35.200737" lon="-84.858266"><ele>240.5</ele><time>2026-07-26T18:01:47Z</time></trkpt>
<trkpt lat="35.200721" lon="-84.858296"><ele>241.1</ele><time>2026-07-26T18:01:49Z</time></trkpt>
<trkpt lat="35.2007" lon="-84.85832"><ele>240.8</ele><time>2026-07-26T18:01:51Z</time></trkpt>
<trkpt lat="35.200674" lon="-84.858341"><ele>240.8</ele><time>2026-07-26T18:01:53Z</time></trkpt>
<trkpt lat="35.200653" lon="-84.858367"><ele>240.8</ele><time>2026-07-26T18:01:55Z</time></trkpt>
<trkpt lat="35.200634" lon="-84.858392"><ele>240.5</ele><time>2026-07-26T18:01:57Z</time></trkpt>
<trkpt lat="35.200617" lon="-84.858419"><ele>241.4</ele><time>2026-07-26T18:01:59Z</time></trkpt>
<trkpt lat="35.200598" lon="-84.858447"><ele>240.2</ele><time>2026-07-26T18:02:01Z</time></trkpt>
<trkpt lat="35.200568" lon="-84.858484"><ele>242.3</ele><time>2026-07-26T18:02:04Z</time></trkpt>
<trkpt lat="35.200545" lon="-84.85851"><ele>242.6</ele><time>2026-07-26T18:02:06Z</time></trkpt>
<trkpt lat="35.200532" lon="-84.858541"><ele>242.9</ele><time>2026-07-26T18:02:08Z</time></trkpt>
<trkpt lat="35.200511" lon="-84.858566"><ele>243.5</ele><time>2026-07-26T18:02:10Z</time></trkpt>
<trkpt lat="35.200482" lon="-84.858592"><ele>242.6</ele><time>2026-07-26T18:02:13Z</time></trkpt>
<trkpt lat="35.200461" lon="-84.858615"><ele>243.5</ele><time>2026-07-26T18:02:15Z</time></trkpt>
<trkpt lat="35.200438" lon="-84.858655"><ele>243.5</ele><time>2026-07-26T18:02:18Z</time></trkpt>
<trkpt lat="35.200417" lon="-84.85868"><ele>242.0</ele><time>2026-07-26T18:02:20Z</time></trkpt>
<trkpt lat="35.20039" lon="-84.858703"><ele>243.2</ele><time>2026-07-26T18:02:22Z</time></trkpt>
<trkpt lat="35.200372" lon="-84.858734"><ele>243.8</ele><time>2026-07-26T18:02:24Z</time></trkpt>
<trkpt lat="35.200337" lon="-84.85874"><ele>242.0</ele><time>2026-07-26T18:02:26Z</time></trkpt>
<trkpt lat="35.200314" lon="-84.858766"><ele>242.0</ele><time>2026-07-26T18:02:28Z</time></trkpt>
<trkpt lat="35.200299" lon="-84.858798"><ele>243.8</ele><time>2026-07-26T18:02:30Z</time></trkpt>
<trkpt lat="35.200278" lon="-84.858826"><ele>243.8</ele><time>2026-07-26T18:02:32Z</time></trkpt>
<trkpt lat="35.20026" lon="-84.858854"><ele>243.2</ele><time>2026-07-26T18:02:34Z</time></trkpt>
<trkpt lat="35.20024" lon="-84.858878"><ele>243.2</ele><time>2026-07-26T18:02:36Z</time></trkpt>
<trkpt lat="35.200223" lon="-84.858904"><ele>243.8</ele><time>2026-07-26T18:02:38Z</time></trkpt>
<trkpt lat="35.200204" lon="-84.858934"><ele>243.8</ele><time>2026-07-26T18:02:40Z</time></trkpt>
<trkpt lat="35.200191" lon="-84.858965"><ele>243.5</ele><time>2026-07-26T18:02:42Z</time></trkpt>
<trkpt lat="35.200175" lon="-84.858997"><ele>244.4</ele><time>2026-07-26T18:02:44Z</time></trkpt>
<trkpt lat="35.200155" lon="-84.85902"><ele>244.1</ele><time>2026-07-26T18:02:46Z</time></trkpt>
<trkpt lat="35.200136" lon="-84.859049"><ele>245.7</ele><time>2026-07-26T18:02:48Z</time></trkpt>
<trkpt lat="35.200118" lon="-84.859074"><ele>246.3</ele><time>2026-07-26T18:02:50Z</time></trkpt>
<trkpt lat="35.200095" lon="-84.859101"><ele>245.7</ele><time>2026-07-26T18:02:52Z</time></trkpt>
<trkpt lat="35.200076" lon="-84.859129"><ele>246.3</ele><time>2026-07-26T18:02:54Z</time></trkpt>
<trkpt lat="35.200057" lon="-84.859153"><ele>246.3</ele><time>2026-07-26T18:02:56Z</time></trkpt>
<trkpt lat="35.20004" lon="-84.859182"><ele>246.0</ele><time>2026-07-26T18:02:58Z</time></trkpt>
<trkpt lat="35.200019" lon="-84.859205"><ele>246.3</ele><time>2026-07-26T18:03:00Z</time></trkpt>
<trkpt lat="35.199999" lon="-84.859233"><ele>246.0</ele><time>2026-07-26T18:03:02Z</time></trkpt>
<trkpt lat="35.199975" lon="-84.859256"><ele>246.3</ele><time>2026-07-26T18:03:04Z</time></trkpt>
<trkpt lat="35.19995" lon="-84.859279"><ele>245.4</ele><time>2026-07-26T18:03:06Z</time></trkpt>
<trkpt lat="35.199922" lon="-84.859317"><ele>245.1</ele><time>2026-07-26T18:03:09Z</time></trkpt>
<trkpt lat="35.1999" lon="-84.859339"><ele>243.8</ele><time>2026-07-26T18:03:11Z</time></trkpt>
<trkpt lat="35.199884" lon="-84.859368"><ele>244.1</ele><time>2026-07-26T18:03:13Z</time></trkpt>
<trkpt lat="35.19986" lon="-84.859392"><ele>244.1</ele><time>2026-07-26T18:03:15Z</time></trkpt>
<trkpt lat="35.199839" lon="-84.859419"><ele>243.8</ele><time>2026-07-26T18:03:17Z</time></trkpt>
<trkpt lat="35.199813" lon="-84.859442"><ele>244.4</ele><time>2026-07-26T18:03:19Z</time></trkpt>
<trkpt lat="35.199789" lon="-84.859465"><ele>244.1</ele><time>2026-07-26T18:03:21Z</time></trkpt>
<trkpt lat="35.199766" lon="-84.859488"><ele>244.1</ele><time>2026-07-26T18:03:23Z</time></trkpt>
<trkpt lat="35.199748" lon="-84.859517"><ele>243.8</ele><time>2026-07-26T18:03:25Z</time></trkpt>
<trkpt lat="35.199731" lon="-84.859544"><ele>245.1</ele><time>2026-07-26T18:03:27Z</time></trkpt>
<trkpt lat="35.199701" lon="-84.859578"><ele>243.5</ele><time>2026-07-26T18:03:30Z</time></trkpt>
<trkpt lat="35.199679" lon="-84.859599"><ele>243.8</ele><time>2026-07-26T18:03:32Z</time></trkpt>
<trkpt lat="35.199659" lon="-84.859622"><ele>243.5</ele><time>2026-07-26T18:03:34Z</time></trkpt>
<trkpt lat="35.199633" lon="-84.859644"><ele>243.5</ele><time>2026-07-26T18:03:36Z</time></trkpt>
<trkpt lat="35.199607" lon="-84.859667"><ele>242.6</ele><time>2026-07-26T18:03:38Z</time></trkpt>
<trkpt lat="35.199578" lon="-84.859683"><ele>241.4</ele><time>2026-07-26T18:03:40Z</time></trkpt>
<trkpt lat="35.199547" lon="-84.859688"><ele>242.3</ele><time>2026-07-26T18:03:42Z</time></trkpt>
<trkpt lat="35.199518" lon="-84.859698"><ele>242.9</ele><time>2026-07-26T18:03:44Z</time></trkpt>
<trkpt lat="35.19949" lon="-84.859714"><ele>243.2</ele><time>2026-07-26T18:03:46Z</time></trkpt>
<trkpt lat="35.199462" lon="-84.859731"><ele>244.1</ele><time>2026-07-26T18:03:48Z</time></trkpt>
<trkpt lat="35.199432" lon="-84.859746"><ele>245.4</ele><time>2026-07-26T18:03:50Z</time></trkpt>
<trkpt lat="35.199407" lon="-84.859767"><ele>244.8</ele><time>2026-07-26T18:03:52Z</time></trkpt>
<trkpt lat="35.199379" lon="-84.859782"><ele>244.1</ele><time>2026-07-26T18:03:54Z</time></trkpt>
<trkpt lat="35.199351" lon="-84.859798"><ele>244.1</ele><time>2026-07-26T18:03:56Z</time></trkpt>
<trkpt lat="35.199321" lon="-84.859828"><ele>244.1</ele><time>2026-07-26T18:03:59Z</time></trkpt>
<trkpt lat="35.199291" lon="-84.85986"><ele>244.1</ele><time>2026-07-26T18:04:02Z</time></trkpt>
<trkpt lat="35.199262" lon="-84.859876"><ele>244.8</ele><time>2026-07-26T18:04:04Z</time></trkpt>
<trkpt lat="35.199236" lon="-84.859894"><ele>245.1</ele><time>2026-07-26T18:04:06Z</time></trkpt>
<trkpt lat="35.199212" lon="-84.859916"><ele>245.4</ele><time>2026-07-26T18:04:08Z</time></trkpt>
<trkpt lat="35.199189" lon="-84.859935"><ele>244.8</ele><time>2026-07-26T18:04:10Z</time></trkpt>
<trkpt lat="35.199165" lon="-84.859955"><ele>244.1</ele><time>2026-07-26T18:04:12Z</time></trkpt>
<trkpt lat="35.199139" lon="-84.859971"><ele>243.5</ele><time>2026-07-26T18:04:14Z</time></trkpt>
<trkpt lat="35.199109" lon="-84.859986"><ele>243.5</ele><time>2026-07-26T18:04:16Z</time></trkpt>
<trkpt lat="35.199081" lon="-84.860002"><ele>244.4</ele><time>2026-07-26T18:04:18Z</time></trkpt>
<trkpt lat="35.199048" lon="-84.860029"><ele>245.4</ele><time>2026-07-26T18:04:21Z</time></trkpt>
<trkpt lat="35.199022" lon="-84.860045"><ele>245.7</ele><time>2026-07-26T18:04:23Z</time></trkpt>
<trkpt lat="35.198997" lon="-84.860062"><ele>246.6</ele><time>2026-07-26T18:04:25Z</time></trkpt>
<trkpt lat="35.198972" lon="-84.86008"><ele>246.6</ele><time>2026-07-26T18:04:27Z</time></trkpt>
<trkpt lat="35.198945" lon="-84.860097"><ele>246.0</ele><time>2026-07-26T18:04:29Z</time></trkpt>
<trkpt lat="35.198917" lon="-84.860119"><ele>244.4</ele><time>2026-07-26T18:04:31Z</time></trkpt>
<trkpt lat="35.198891" lon="-84.860134"><ele>243.2</ele><time>2026-07-26T18:04:33Z</time></trkpt>
<trkpt lat="35.198861" lon="-84.860147"><ele>243.5</ele><time>2026-07-26T18:04:35Z</time></trkpt>
<trkpt lat="35.198833" lon="-84.860163"><ele>243.2</ele><time>2026-07-26T18:04:37Z</time></trkpt>
<trkpt lat="35.198809" lon="-84.86018"><ele>242.0</ele><time>2026-07-26T18:04:39Z</time></trkpt>
<trkpt lat="35.19878" lon="-84.860192"><ele>242.9</ele><time>2026-07-26T18:04:41Z</time></trkpt>
<trkpt lat="35.198751" lon="-84.860209"><ele>243.8</ele><time>2026-07-26T18:04:43Z</time></trkpt>
<trkpt lat="35.198724" lon="-84.860226"><ele>244.8</ele><time>2026-07-26T18:04:45Z</time></trkpt>
<trkpt lat="35.198698" lon="-84.860239"><ele>244.4</ele><time>2026-07-26T18:04:47Z</time></trkpt>
<trkpt lat="35.19866" lon="-84.860256"><ele>243.5</ele><time>2026-07-26T18:04:50Z</time></trkpt>
<trkpt lat="35.198632" lon="-84.860269"><ele>243.2</ele><time>2026-07-26T18:04:52Z</time></trkpt>
<trkpt lat="35.198605" lon="-84.860286"><ele>242.6</ele><time>2026-07-26T18:04:54Z</time></trkpt>
<trkpt lat="35.198579" lon="-84.860303"><ele>243.8</ele><time>2026-07-26T18:04:56Z</time></trkpt>
<trkpt lat="35.198553" lon="-84.860315"><ele>246.0</ele><time>2026-07-26T18:04:58Z</time></trkpt>
<trkpt lat="35.198529" lon="-84.860337"><ele>246.3</ele><time>2026-07-26T18:05:00Z</time></trkpt>
<trkpt lat="35.1985" lon="-84.860354"><ele>245.4</ele><time>2026-07-26T18:05:02Z</time></trkpt>
<trkpt lat="35.198472" lon="-84.860367"><ele>247.5</ele><time>2026-07-26T18:05:04Z</time></trkpt>
<trkpt lat="35.198439" lon="-84.860395"><ele>248.4</ele><time>2026-07-26T18:05:07Z</time></trkpt>
<trkpt lat="35.198411" lon="-84.860405"><ele>248.1</ele><time>2026-07-26T18:05:09Z</time></trkpt>
<trkpt lat="35.198382" lon="-84.860414"><ele>247.2</ele><time>2026-07-26T18:05:11Z</time></trkpt>
<trkpt lat="35.198355" lon="-84.860426"><ele>247.8</ele><time>2026-07-26T18:05:13Z</time></trkpt>
<trkpt lat="35.198327" lon="-84.860438"><ele>247.2</ele><time>2026-07-26T18:05:15Z</time></trkpt>
<trkpt lat="35.198306" lon="-84.860464"><ele>248.4</ele><time>2026-07-26T18:05:17Z</time></trkpt>
<trkpt lat="35.198276" lon="-84.860475"><ele>249.0</ele><time>2026-07-26T18:05:19Z</time></trkpt>
<trkpt lat="35.198246" lon="-84.860485"><ele>247.8</ele><time>2026-07-26T18:05:21Z</time></trkpt>
<trkpt lat="35.198208" lon="-84.860503"><ele>246.3</ele><time>2026-07-26T18:05:24Z</time></trkpt>
<trkpt lat="35.198184" lon="-84.86052"><ele>246.6</ele><time>2026-07-26T18:05:26Z</time></trkpt>
<trkpt lat="35.198157" lon="-84.86054"><ele>245.4</ele><time>2026-07-26T18:05:28Z</time></trkpt>
<trkpt lat="35.19813" lon="-84.860563"><ele>245.7</ele><time>2026-07-26T18:05:30Z</time></trkpt>
<trkpt lat="35.198099" lon="-84.860578"><ele>245.7</ele><time>2026-07-26T18:05:32Z</time></trkpt>
<trkpt lat="35.198071" lon="-84.860594"><ele>244.8</ele><time>2026-07-26T18:05:34Z</time></trkpt>
<trkpt lat="35.198046" lon="-84.86061"><ele>244.1</ele><time>2026-07-26T18:05:36Z</time></trkpt>
<trkpt lat="35.198017" lon="-84.860624"><ele>243.8</ele><time>2026-07-26T18:05:38Z</time></trkpt>
<trkpt lat="35.197992" lon="-84.860644"><ele>243.2</ele><time>2026-07-26T18:05:40Z</time></trkpt>
<trkpt lat="35.197961" lon="-84.860657"><ele>242.3</ele><time>2026-07-26T18:05:42Z</time></trkpt>
<trkpt lat="35.197935" lon="-84.860671"><ele>242.0</ele><time>2026-07-26T18:05:44Z</time></trkpt>
<trkpt lat="35.197904" lon="-84.860679"><ele>242.6</ele><time>2026-07-26T18:05:46Z</time></trkpt>
<trkpt lat="35.197874" lon="-84.86069"><ele>241.7</ele><time>2026-07-26T18:05:48Z</time></trkpt>
<trkpt lat="35.197845" lon="-84.8607"><ele>243.2</ele><time>2026-07-26T18:05:50Z</time></trkpt>
<trkpt lat="35.197816" lon="-84.860717"><ele>242.6</ele><time>2026-07-26T18:05:52Z</time></trkpt>
<trkpt lat="35.197789" lon="-84.86073"><ele>242.3</ele><time>2026-07-26T18:05:54Z</time></trkpt>
<trkpt lat="35.197765" lon="-84.860747"><ele>242.0</ele><time>2026-07-26T18:05:56Z</time></trkpt>
<trkpt lat="35.197738" lon="-84.860765"><ele>242.9</ele><time>2026-07-26T18:05:58Z</time></trkpt>
<trkpt lat="35.197711" lon="-84.860783"><ele>243.5</ele><time>2026-07-26T18:06:00Z</time></trkpt>
<trkpt lat="35.197684" lon="-84.860803"><ele>243.5</ele><time>2026-07-26T18:06:02Z</time></trkpt>
<trkpt lat="35.197656" lon="-84.860814"><ele>242.3</ele><time>2026-07-26T18:06:04Z</time></trkpt>
<trkpt lat="35.197628" lon="-84.860826"><ele>241.4</ele><time>2026-07-26T18:06:06Z</time></trkpt>
<trkpt lat="35.197603" lon="-84.860845"><ele>241.1</ele><time>2026-07-26T18:06:08Z</time></trkpt>
<trkpt lat="35.197576" lon="-84.860863"><ele>242.6</ele><time>2026-07-26T18:06:10Z</time></trkpt>
<trkpt lat="35.197538" lon="-84.860885"><ele>243.5</ele><time>2026-07-26T18:06:13Z</time></trkpt>
<trkpt lat="35.197513" lon="-84.860904"><ele>245.4</ele><time>2026-07-26T18:06:15Z</time></trkpt>
<trkpt lat="35.197486" lon="-84.860922"><ele>245.1</ele><time>2026-07-26T18:06:17Z</time></trkpt>
<trkpt lat="35.197459" lon="-84.860937"><ele>244.4</ele><time>2026-07-26T18:06:19Z</time></trkpt>
<trkpt lat="35.197432" lon="-84.86096"><ele>243.8</ele><time>2026-07-26T18:06:21Z</time></trkpt>
<trkpt lat="35.197407" lon="-84.860977"><ele>242.6</ele><time>2026-07-26T18:06:23Z</time></trkpt>
<trkpt lat="35.197383" lon="-84.861"><ele>242.3</ele><time>2026-07-26T18:06:25Z</time></trkpt>
<trkpt lat="35.197359" lon="-84.861024"><ele>243.2</ele><time>2026-07-26T18:06:27Z</time></trkpt>
<trkpt lat="35.197339" lon="-84.861051"><ele>242.9</ele><time>2026-07-26T18:06:29Z</time></trkpt>
<trkpt lat="35.197312" lon="-84.861072"><ele>242.3</ele><time>2026-07-26T18:06:31Z</time></trkpt>
<trkpt lat="35.19729" lon="-84.861097"><ele>242.0</ele><time>2026-07-26T18:06:33Z</time></trkpt>
<trkpt lat="35.197267" lon="-84.861119"><ele>241.1</ele><time>2026-07-26T18:06:35Z</time></trkpt>
<trkpt lat="35.197243" lon="-84.861143"><ele>240.8</ele><time>2026-07-26T18:06:37Z</time></trkpt>
<trkpt lat="35.197221" lon="-84.861166"><ele>242.6</ele><time>2026-07-26T18:06:39Z</time></trkpt>
<trkpt lat="35.197203" lon="-84.861192"><ele>243.5</ele><time>2026-07-26T18:06:41Z</time></trkpt>
<trkpt lat="35.197184" lon="-84.861219"><ele>243.5</ele><time>2026-07-26T18:06:43Z</time></trkpt>
<trkpt lat="35.197165" lon="-84.861244"><ele>244.8</ele><time>2026-07-26T18:06:45Z</time></trkpt>
<trkpt lat="35.197138" lon="-84.861263"><ele>245.1</ele><time>2026-07-26T18:06:47Z</time></trkpt>
<trkpt lat="35.197116" lon="-84.861285"><ele>246.3</ele><time>2026-07-26T18:06:49Z</time></trkpt>
<trkpt lat="35.197093" lon="-84.861307"><ele>245.7</ele><time>2026-07-26T18:06:51Z</time></trkpt>
<trkpt lat="35.197073" lon="-84.861333"><ele>246.3</ele><time>2026-07-26T18:06:53Z</time></trkpt>
<trkpt lat="35.197049" lon="-84.86135"><ele>246.6</ele><time>2026-07-26T18:06:55Z</time></trkpt>
<trkpt lat="35.197022" lon="-84.861369"><ele>246.9</ele><time>2026-07-26T18:06:57Z</time></trkpt>
<trkpt lat="35.197001" lon="-84.861369"><ele>246.9</ele><time>2026-07-26T18:06:59Z</time></trkpt>
<trkpt lat="35.197005" lon="-84.861367"><ele>247.2</ele><time>2026-07-26T18:07:00Z</time></trkpt>
<trkpt lat="35.196986" lon="-84.861379"><ele>248.1</ele><time>2026-07-26T18:07:07Z</time></trkpt>
<trkpt lat="35.196962" lon="-84.86139"><ele>248.7</ele><time>2026-07-26T18:07:08Z</time></trkpt>
<trkpt lat="35.196929" lon="-84.861417"><ele>247.2</ele><time>2026-07-26T18:07:10Z</time></trkpt>
<trkpt lat="35.19692" lon="-84.861423"><ele>247.8</ele><time>2026-07-26T18:07:11Z</time></trkpt>
<trkpt lat="35.196911" lon="-84.861436"><ele>248.7</ele><time>2026-07-26T18:07:12Z</time></trkpt>
<trkpt lat="35.196896" lon="-84.861469"><ele>248.7</ele><time>2026-07-26T18:07:14Z</time></trkpt>
<trkpt lat="35.19687" lon="-84.861491"><ele>250.9</ele><time>2026-07-26T18:07:16Z</time></trkpt>
<trkpt lat="35.196847" lon="-84.861509"><ele>251.2</ele><time>2026-07-26T18:07:17Z</time></trkpt>
<trkpt lat="35.19682" lon="-84.861535"><ele>250.2</ele><time>2026-07-26T18:07:19Z</time></trkpt>
<trkpt lat="35.196794" lon="-84.861562"><ele>248.1</ele><time>2026-07-26T18:07:21Z</time></trkpt>
<trkpt lat="35.196757" lon="-84.861579"><ele>248.1</ele><time>2026-07-26T18:07:23Z</time></trkpt>
<trkpt lat="35.196719" lon="-84.86159"><ele>248.1</ele><time>2026-07-26T18:07:25Z</time></trkpt>
<trkpt lat="35.196689" lon="-84.861615"><ele>248.1</ele><time>2026-07-26T18:07:27Z</time></trkpt>
<trkpt lat="35.196652" lon="-84.861631"><ele>248.4</ele><time>2026-07-26T18:07:29Z</time></trkpt>
<trkpt lat="35.196624" lon="-84.861656"><ele>248.4</ele><time>2026-07-26T18:07:31Z</time></trkpt>
<trkpt lat="35.196599" lon="-84.861679"><ele>248.4</ele><time>2026-07-26T18:07:33Z</time></trkpt>
<trkpt lat="35.196568" lon="-84.861702"><ele>248.4</ele><time>2026-07-26T18:07:37Z</time></trkpt>
<trkpt lat="35.196541" lon="-84.861721"><ele>248.4</ele><time>2026-07-26T18:07:39Z</time></trkpt>
<trkpt lat="35.196505" lon="-84.861749"><ele>248.4</ele><time>2026-07-26T18:07:42Z</time></trkpt>
<trkpt lat="35.19648" lon="-84.861768"><ele>248.7</ele><time>2026-07-26T18:07:44Z</time></trkpt>
<trkpt lat="35.196458" lon="-84.861789"><ele>248.7</ele><time>2026-07-26T18:07:46Z</time></trkpt>
<trkpt lat="35.196432" lon="-84.861809"><ele>248.7</ele><time>2026-07-26T18:07:48Z</time></trkpt>
<trkpt lat="35.196407" lon="-84.861833"><ele>248.7</ele><time>2026-07-26T18:07:50Z</time></trkpt>
<trkpt lat="35.196378" lon="-84.861853"><ele>248.7</ele><time>2026-07-26T18:07:52Z</time></trkpt>
<trkpt lat="35.196351" lon="-84.861875"><ele>248.4</ele><time>2026-07-26T18:07:54Z</time></trkpt>
<trkpt lat="35.196327" lon="-84.861899"><ele>248.4</ele><time>2026-07-26T18:07:56Z</time></trkpt>
<trkpt lat="35.196306" lon="-84.861924"><ele>248.4</ele><time>2026-07-26T18:07:58Z</time></trkpt>
<trkpt lat="35.19628" lon="-84.861949"><ele>248.4</ele><time>2026-07-26T18:08:00Z</time></trkpt>
<trkpt lat="35.196249" lon="-84.861978"><ele>248.4</ele><time>2026-07-26T18:08:03Z</time></trkpt>
<trkpt lat="35.196225" lon="-84.861998"><ele>248.4</ele><time>2026-07-26T18:08:05Z</time></trkpt>
<trkpt lat="35.196197" lon="-84.862013"><ele>248.4</ele><time>2026-07-26T18:08:07Z</time></trkpt>
<trkpt lat="35.196173" lon="-84.862032"><ele>248.4</ele><time>2026-07-26T18:08:09Z</time></trkpt>
<trkpt lat="35.196143" lon="-84.862053"><ele>248.4</ele><time>2026-07-26T18:08:11Z</time></trkpt>
<trkpt lat="35.196119" lon="-84.862075"><ele>248.4</ele><time>2026-07-26T18:08:13Z</time></trkpt>
<trkpt lat="35.196096" lon="-84.862096"><ele>248.4</ele><time>2026-07-26T18:08:15Z</time></trkpt>
<trkpt lat="35.19607" lon="-84.862115"><ele>248.7</ele><time>2026-07-26T18:08:17Z</time></trkpt>
<trkpt lat="35.196043" lon="-84.862136"><ele>248.7</ele><time>2026-07-26T18:08:19Z</time></trkpt>
<trkpt lat="35.196017" lon="-84.862152"><ele>248.7</ele><time>2026-07-26T18:08:21Z</time></trkpt>
<trkpt lat="35.195987" lon="-84.862163"><ele>248.7</ele><time>2026-07-26T18:08:23Z</time></trkpt>
<trkpt lat="35.195955" lon="-84.862178"><ele>248.7</ele><time>2026-07-26T18:08:25Z</time></trkpt>
<trkpt lat="35.195927" lon="-84.862194"><ele>248.7</ele><time>2026-07-26T18:08:27Z</time></trkpt>
<trkpt lat="35.1959" lon="-84.862212"><ele>248.7</ele><time>2026-07-26T18:08:29Z</time></trkpt>
<trkpt lat="35.195873" lon="-84.86222"><ele>248.7</ele><time>2026-07-26T18:08:31Z</time></trkpt>
<trkpt lat="35.195845" lon="-84.862238"><ele>248.4</ele><time>2026-07-26T18:08:33Z</time></trkpt>
<trkpt lat="35.195825" lon="-84.862269"><ele>251.8</ele><time>2026-07-26T18:08:35Z</time></trkpt>
<trkpt lat="35.1958" lon="-84.862292"><ele>250.5</ele><time>2026-07-26T18:08:37Z</time></trkpt>
<trkpt lat="35.19577" lon="-84.862318"><ele>249.9</ele><time>2026-07-26T18:08:39Z</time></trkpt>
<trkpt lat="35.195744" lon="-84.862343"><ele>247.8</ele><time>2026-07-26T18:08:41Z</time></trkpt>
<trkpt lat="35.19571" lon="-84.862344"><ele>246.9</ele><time>2026-07-26T18:08:43Z</time></trkpt>
<trkpt lat="35.195681" lon="-84.862362"><ele>247.5</ele><time>2026-07-26T18:08:45Z</time></trkpt>
<trkpt lat="35.195654" lon="-84.86238"><ele>248.7</ele><time>2026-07-26T18:08:47Z</time></trkpt>
<trkpt lat="35.19563" lon="-84.862399"><ele>249.0</ele><time>2026-07-26T18:08:49Z</time></trkpt>
<trkpt lat="35.195604" lon="-84.862412"><ele>248.4</ele><time>2026-07-26T18:08:51Z</time></trkpt>
<trkpt lat="35.195585" lon="-84.862436"><ele>249.6</ele><time>2026-07-26T18:08:53Z</time></trkpt>
<trkpt lat="35.195554" lon="-84.862457"><ele>246.3</ele><time>2026-07-26T18:08:56Z</time></trkpt>
<trkpt lat="35.195531" lon="-84.862478"><ele>246.9</ele><time>2026-07-26T18:08:58Z</time></trkpt>
<trkpt lat="35.195506" lon="-84.862498"><ele>246.3</ele><time>2026-07-26T18:09:00Z</time></trkpt>
<trkpt lat="35.195478" lon="-84.862516"><ele>245.1</ele><time>2026-07-26T18:09:02Z</time></trkpt>
<trkpt lat="35.195453" lon="-84.86254"><ele>245.1</ele><time>2026-07-26T18:09:04Z</time></trkpt>
<trkpt lat="35.19543" lon="-84.862561"><ele>244.8</ele><time>2026-07-26T18:09:06Z</time></trkpt>
<trkpt lat="35.195408" lon="-84.862582"><ele>244.8</ele><time>2026-07-26T18:09:08Z</time></trkpt>
<trkpt lat="35.195384" lon="-84.862598"><ele>245.1</ele><time>2026-07-26T18:09:10Z</time></trkpt>
<trkpt lat="35.195363" lon="-84.862622"><ele>245.1</ele><time>2026-07-26T18:09:12Z</time></trkpt>
<trkpt lat="35.195337" lon="-84.86264"><ele>244.4</ele><time>2026-07-26T18:09:14Z</time></trkpt>
<trkpt lat="35.195313" lon="-84.862657"><ele>245.1</ele><time>2026-07-26T18:09:16Z</time></trkpt>
<trkpt lat="35.195279" lon="-84.862684"><ele>245.1</ele><time>2026-07-26T18:09:19Z</time></trkpt>
<trkpt lat="35.195253" lon="-84.8627"><ele>244.8</ele><time>2026-07-26T18:09:21Z</time></trkpt>
<trkpt lat="35.195217" lon="-84.862723"><ele>244.4</ele><time>2026-07-26T18:09:24Z</time></trkpt>
<trkpt lat="35.195191" lon="-84.862743"><ele>244.4</ele><time>2026-07-26T18:09:26Z</time></trkpt>
<trkpt lat="35.195176" lon="-84.862773"><ele>243.2</ele><time>2026-07-26T18:09:28Z</time></trkpt>
<trkpt lat="35.195171" lon="-84.862806"><ele>243.2</ele><time>2026-07-26T18:09:30Z</time></trkpt>
<trkpt lat="35.195176" lon="-84.862842"><ele>242.3</ele><time>2026-07-26T18:09:32Z</time></trkpt>
<trkpt lat="35.195177" lon="-84.862877"><ele>241.1</ele><time>2026-07-26T18:09:34Z</time></trkpt>
<trkpt lat="35.195171" lon="-84.862925"><ele>240.8</ele><time>2026-07-26T18:09:37Z</time></trkpt>
<trkpt lat="35.195166" lon="-84.862977"><ele>239.6</ele><time>2026-07-26T18:09:40Z</time></trkpt>
<trkpt lat="35.19516" lon="-84.863012"><ele>239.9</ele><time>2026-07-26T18:09:42Z</time></trkpt>
<trkpt lat="35.195149" lon="-84.863044"><ele>239.9</ele><time>2026-07-26T18:09:44Z</time></trkpt>
<trkpt lat="35.195139" lon="-84.86308"><ele>239.6</ele><time>2026-07-26T18:09:46Z</time></trkpt>
<trkpt lat="35.195129" lon="-84.863112"><ele>239.9</ele><time>2026-07-26T18:09:48Z</time></trkpt>
<trkpt lat="35.195117" lon="-84.863149"><ele>240.5</ele><time>2026-07-26T18:09:50Z</time></trkpt>
<trkpt lat="35.195102" lon="-84.863186"><ele>242.6</ele><time>2026-07-26T18:09:52Z</time></trkpt>
<trkpt lat="35.195081" lon="-84.863217"><ele>242.3</ele><time>2026-07-26T18:09:54Z</time></trkpt>
<trkpt lat="35.195066" lon="-84.863249"><ele>242.9</ele><time>2026-07-26T18:09:56Z</time></trkpt>
<trkpt lat="35.195047" lon="-84.863278"><ele>242.6</ele><time>2026-07-26T18:09:58Z</time></trkpt>
<trkpt lat="35.195029" lon="-84.863305"><ele>242.9</ele><time>2026-07-26T18:10:00Z</time></trkpt>
<trkpt lat="35.19501" lon="-84.863334"><ele>243.8</ele><time>2026-07-26T18:10:02Z</time></trkpt>
<trkpt lat="35.194986" lon="-84.863356"><ele>243.5</ele><time>2026-07-26T18:10:04Z</time></trkpt>
<trkpt lat="35.19496" lon="-84.863375"><ele>243.8</ele><time>2026-07-26T18:10:06Z</time></trkpt>
<trkpt lat="35.194935" lon="-84.863396"><ele>243.2</ele><time>2026-07-26T18:10:08Z</time></trkpt>
<trkpt lat="35.194912" lon="-84.863417"><ele>242.0</ele><time>2026-07-26T18:10:10Z</time></trkpt>
<trkpt lat="35.194887" lon="-84.863433"><ele>240.8</ele><time>2026-07-26T18:10:12Z</time></trkpt>
<trkpt lat="35.194847" lon="-84.863449"><ele>241.7</ele><time>2026-07-26T18:10:15Z</time></trkpt>
<trkpt lat="35.19482" lon="-84.863461"><ele>240.8</ele><time>2026-07-26T18:10:17Z</time></trkpt>
<trkpt lat="35.19479" lon="-84.86347"><ele>240.5</ele><time>2026-07-26T18:10:19Z</time></trkpt>
<trkpt lat="35.194759" lon="-84.863477"><ele>241.4</ele><time>2026-07-26T18:10:21Z</time></trkpt>
<trkpt lat="35.19473" lon="-84.863484"><ele>241.1</ele><time>2026-07-26T18:10:23Z</time></trkpt>
<trkpt lat="35.194701" lon="-84.86349"><ele>241.7</ele><time>2026-07-26T18:10:25Z</time></trkpt>
<trkpt lat="35.194672" lon="-84.863493"><ele>241.4</ele><time>2026-07-26T18:10:27Z</time></trkpt>
<trkpt lat="35.19464" lon="-84.863493"><ele>242.9</ele><time>2026-07-26T18:10:29Z</time></trkpt>
<trkpt lat="35.194608" lon="-84.863493"><ele>243.5</ele><time>2026-07-26T18:10:31Z</time></trkpt>
<trkpt lat="35.19458" lon="-84.863495"><ele>244.4</ele><time>2026-07-26T18:10:33Z</time></trkpt>
<trkpt lat="35.194552" lon="-84.863501"><ele>243.5</ele><time>2026-07-26T18:10:35Z</time></trkpt>
<trkpt lat="35.194526" lon="-84.863511"><ele>243.2</ele><time>2026-07-26T18:10:37Z</time></trkpt>
<trkpt lat="35.194498" lon="-84.863523"><ele>242.9</ele><time>2026-07-26T18:10:39Z</time></trkpt>
<trkpt lat="35.194471" lon="-84.863532"><ele>243.2</ele><time>2026-07-26T18:10:41Z</time></trkpt>
<trkpt lat="35.194443" lon="-84.863542"><ele>242.3</ele><time>2026-07-26T18:10:43Z</time></trkpt>
<trkpt lat="35.194412" lon="-84.863551"><ele>242.3</ele><time>2026-07-26T18:10:45Z</time></trkpt>
<trkpt lat="35.194379" lon="-84.863554"><ele>242.0</ele><time>2026-07-26T18:10:47Z</time></trkpt>
<trkpt lat="35.194352" lon="-84.863567"><ele>241.7</ele><time>2026-07-26T18:10:49Z</time></trkpt>
<trkpt lat="35.194347" lon="-84.863606"><ele>241.7</ele><time>2026-07-26T18:10:51Z</time></trkpt>
<trkpt lat="35.194355" lon="-84.863645"><ele>241.7</ele><time>2026-07-26T18:10:53Z</time></trkpt>
<trkpt lat="35.194363" lon="-84.863677"><ele>241.4</ele><time>2026-07-26T18:10:55Z</time></trkpt>
<trkpt lat="35.19437" lon="-84.863717"><ele>243.2</ele><time>2026-07-26T18:10:57Z</time></trkpt>
<trkpt lat="35.194366" lon="-84.863756"><ele>243.2</ele><time>2026-07-26T18:10:59Z</time></trkpt>
<trkpt lat="35.194371" lon="-84.863792"><ele>243.5</ele><time>2026-07-26T18:11:01Z</time></trkpt>
<trkpt lat="35.194378" lon="-84.863825"><ele>243.2</ele><time>2026-07-26T18:11:03Z</time></trkpt>
<trkpt lat="35.194394" lon="-84.863856"><ele>244.4</ele><time>2026-07-26T18:11:05Z</time></trkpt>
<trkpt lat="35.194405" lon="-84.863887"><ele>244.4</ele><time>2026-07-26T18:11:07Z</time></trkpt>
<trkpt lat="35.194403" lon="-84.863935"><ele>242.9</ele><time>2026-07-26T18:11:10Z</time></trkpt>
<trkpt lat="35.19437" lon="-84.863963"><ele>243.8</ele><time>2026-07-26T18:11:13Z</time></trkpt>
<trkpt lat="35.194342" lon="-84.863973"><ele>243.8</ele><time>2026-07-26T18:11:15Z</time></trkpt>
<trkpt lat="35.194315" lon="-84.863987"><ele>243.5</ele><time>2026-07-26T18:11:17Z</time></trkpt>
<trkpt lat="35.194286" lon="-84.863999"><ele>242.9</ele><time>2026-07-26T18:11:19Z</time></trkpt>
<trkpt lat="35.194259" lon="-84.864005"><ele>242.3</ele><time>2026-07-26T18:11:21Z</time></trkpt>
<trkpt lat="35.194231" lon="-84.864013"><ele>242.0</ele><time>2026-07-26T18:11:23Z</time></trkpt>
<trkpt lat="35.194203" lon="-84.864024"><ele>241.7</ele><time>2026-07-26T18:11:25Z</time></trkpt>
<trkpt lat="35.194175" lon="-84.864031"><ele>241.4</ele><time>2026-07-26T18:11:27Z</time></trkpt>
<trkpt lat="35.194146" lon="-84.864043"><ele>242.0</ele><time>2026-07-26T18:11:29Z</time></trkpt>
<trkpt lat="35.194119" lon="-84.864056"><ele>242.0</ele><time>2026-07-26T18:11:31Z</time></trkpt>
<trkpt lat="35.194092" lon="-84.86407"><ele>241.4</ele><time>2026-07-26T18:11:33Z</time></trkpt>
<trkpt lat="35.194065" lon="-84.864083"><ele>241.1</ele><time>2026-07-26T18:11:35Z</time></trkpt>
<trkpt lat="35.194038" lon="-84.864094"><ele>240.5</ele><time>2026-07-26T18:11:37Z</time></trkpt>
<trkpt lat="35.194011" lon="-84.864107"><ele>239.9</ele><time>2026-07-26T18:11:39Z</time></trkpt>
<trkpt lat="35.193984" lon="-84.864123"><ele>239.6</ele><time>2026-07-26T18:11:41Z</time></trkpt>
<trkpt lat="35.193957" lon="-84.864136"><ele>239.3</ele><time>2026-07-26T18:11:43Z</time></trkpt>
<trkpt lat="35.193929" lon="-84.864151"><ele>239.6</ele><time>2026-07-26T18:11:45Z</time></trkpt>
<trkpt lat="35.193903" lon="-84.864166"><ele>239.9</ele><time>2026-07-26T18:11:47Z</time></trkpt>
<trkpt lat="35.193873" lon="-84.86418"><ele>240.5</ele><time>2026-07-26T18:11:49Z</time></trkpt>
<trkpt lat="35.193844" lon="-84.864196"><ele>240.8</ele><time>2026-07-26T18:11:51Z</time></trkpt>
<trkpt lat="35.193817" lon="-84.864216"><ele>240.8</ele><time>2026-07-26T18:11:53Z</time></trkpt>
<trkpt lat="35.193789" lon="-84.86423"><ele>241.4</ele><time>2026-07-26T18:11:55Z</time></trkpt>
<trkpt lat="35.193763" lon="-84.864245"><ele>242.0</ele><time>2026-07-26T18:11:57Z</time></trkpt>
<trkpt lat="35.193737" lon="-84.864259"><ele>242.3</ele><time>2026-07-26T18:11:59Z</time></trkpt>
<trkpt lat="35.193712" lon="-84.864279"><ele>241.7</ele><time>2026-07-26T18:12:01Z</time></trkpt>
<trkpt lat="35.193687" lon="-84.864301"><ele>242.0</ele><time>2026-07-26T18:12:03Z</time></trkpt>
<trkpt lat="35.193663" lon="-84.86432"><ele>242.6</ele><time>2026-07-26T18:12:05Z</time></trkpt>
<trkpt lat="35.193638" lon="-84.864339"><ele>241.1</ele><time>2026-07-26T18:12:07Z</time></trkpt>
<trkpt lat="35.193611" lon="-84.864356"><ele>241.7</ele><time>2026-07-26T18:12:09Z</time></trkpt>
<trkpt lat="35.193586" lon="-84.864375"><ele>242.0</ele><time>2026-07-26T18:12:11Z</time></trkpt>
<trkpt lat="35.193559" lon="-84.864393"><ele>241.7</ele><time>2026-07-26T18:12:13Z</time></trkpt>
<trkpt lat="35.193532" lon="-84.864411"><ele>241.7</ele><time>2026-07-26T18:12:15Z</time></trkpt>
<trkpt lat="35.193506" lon="-84.86443"><ele>241.7</ele><time>2026-07-26T18:12:17Z</time></trkpt>
<trkpt lat="35.193477" lon="-84.864445"><ele>241.4</ele><time>2026-07-26T18:12:19Z</time></trkpt>
<trkpt lat="35.193451" lon="-84.864462"><ele>241.7</ele><time>2026-07-26T18:12:21Z</time></trkpt>
<trkpt lat="35.193426" lon="-84.864479"><ele>241.7</ele><time>2026-07-26T18:12:23Z</time></trkpt>
<trkpt lat="35.193399" lon="-84.864492"><ele>242.0</ele><time>2026-07-26T18:12:25Z</time></trkpt>
<trkpt lat="35.193372" lon="-84.864505"><ele>241.4</ele><time>2026-07-26T18:12:27Z</time></trkpt>
<trkpt lat="35.193346" lon="-84.864518"><ele>241.7</ele><time>2026-07-26T18:12:29Z</time></trkpt>
<trkpt lat="35.19332" lon="-84.86453"><ele>241.1</ele><time>2026-07-26T18:12:31Z</time></trkpt>
<trkpt lat="35.193283" lon="-84.864551"><ele>240.8</ele><time>2026-07-26T18:12:34Z</time></trkpt>
<trkpt lat="35.193257" lon="-84.864566"><ele>240.8</ele><time>2026-07-26T18:12:36Z</time></trkpt>
<trkpt lat="35.193229" lon="-84.864578"><ele>241.1</ele><time>2026-07-26T18:12:38Z</time></trkpt>
<trkpt lat="35.193201" lon="-84.864592"><ele>240.8</ele><time>2026-07-26T18:12:40Z</time></trkpt>
<trkpt lat="35.193174" lon="-84.864606"><ele>241.1</ele><time>2026-07-26T18:12:42Z</time></trkpt>
<trkpt lat="35.193149" lon="-84.86462"><ele>240.5</ele><time>2026-07-26T18:12:44Z</time></trkpt>
<trkpt lat="35.193121" lon="-84.864636"><ele>240.8</ele><time>2026-07-26T18:12:46Z</time></trkpt>
<trkpt lat="35.193095" lon="-84.864653"><ele>240.5</ele><time>2026-07-26T18:12:48Z</time></trkpt>
<trkpt lat="35.193068" lon="-84.864668"><ele>241.4</ele><time>2026-07-26T18:12:50Z</time></trkpt>
<trkpt lat="35.193042" lon="-84.864683"><ele>241.4</ele><time>2026-07-26T18:12:52Z</time></trkpt>
<trkpt lat="35.193015" lon="-84.864697"><ele>240.5</ele><time>2026-07-26T18:12:54Z</time></trkpt>
<trkpt lat="35.192988" lon="-84.864709"><ele>240.5</ele><time>2026-07-26T18:12:56Z</time></trkpt>
<trkpt lat="35.192958" lon="-84.864723"><ele>240.5</ele><time>2026-07-26T18:12:58Z</time></trkpt>
<trkpt lat="35.192927" lon="-84.864738"><ele>240.8</ele><time>2026-07-26T18:13:00Z</time></trkpt>
<trkpt lat="35.1929" lon="-84.864755"><ele>241.7</ele><time>2026-07-26T18:13:02Z</time></trkpt>
<trkpt lat="35.192874" lon="-84.86477"><ele>241.4</ele><time>2026-07-26T18:13:04Z</time></trkpt>
<trkpt lat="35.192847" lon="-84.864785"><ele>240.5</ele><time>2026-07-26T18:13:06Z</time></trkpt>
<trkpt lat="35.192823" lon="-84.864805"><ele>240.5</ele><time>2026-07-26T18:13:08Z</time></trkpt>
<trkpt lat="35.192796" lon="-84.864816"><ele>240.5</ele><time>2026-07-26T18:13:10Z</time></trkpt>
<trkpt lat="35.19277" lon="-84.864829"><ele>241.1</ele><time>2026-07-26T18:13:12Z</time></trkpt>
<trkpt lat="35.192743" lon="-84.864846"><ele>242.0</ele><time>2026-07-26T18:13:14Z</time></trkpt>
<trkpt lat="35.192717" lon="-84.864861"><ele>242.6</ele><time>2026-07-26T18:13:16Z</time></trkpt>
<trkpt lat="35.19269" lon="-84.864876"><ele>242.6</ele><time>2026-07-26T18:13:18Z</time></trkpt>
<trkpt lat="35.192663" lon="-84.864894"><ele>242.6</ele><time>2026-07-26T18:13:20Z</time></trkpt>
<trkpt lat="35.192635" lon="-84.864907"><ele>242.9</ele><time>2026-07-26T18:13:22Z</time></trkpt>
<trkpt lat="35.192608" lon="-84.864923"><ele>240.8</ele><time>2026-07-26T18:13:24Z</time></trkpt>
<trkpt lat="35.19258" lon="-84.864934"><ele>240.2</ele><time>2026-07-26T18:13:26Z</time></trkpt>
<trkpt lat="35.19255" lon="-84.864945"><ele>240.2</ele><time>2026-07-26T18:13:28Z</time></trkpt>
<trkpt lat="35.192523" lon="-84.864957"><ele>240.2</ele><time>2026-07-26T18:13:30Z</time></trkpt>
<trkpt lat="35.1925" lon="-84.864978"><ele>241.1</ele><time>2026-07-26T18:13:32Z</time></trkpt>
<trkpt lat="35.19247" lon="-84.864985"><ele>241.4</ele><time>2026-07-26T18:13:34Z</time></trkpt>
<trkpt lat="35.192441" lon="-84.865"><ele>241.7</ele><time>2026-07-26T18:13:36Z</time></trkpt>
<trkpt lat="35.192413" lon="-84.865011"><ele>242.3</ele><time>2026-07-26T18:13:38Z</time></trkpt>
<trkpt lat="35.192373" lon="-84.865026"><ele>242.3</ele><time>2026-07-26T18:13:41Z</time></trkpt>
<trkpt lat="35.192344" lon="-84.865033"><ele>241.7</ele><time>2026-07-26T18:13:43Z</time></trkpt>
<trkpt lat="35.192315" lon="-84.865041"><ele>242.0</ele><time>2026-07-26T18:13:45Z</time></trkpt>
<trkpt lat="35.192286" lon="-84.865044"><ele>242.0</ele><time>2026-07-26T18:13:47Z</time></trkpt>
<trkpt lat="35.192256" lon="-84.865046"><ele>241.7</ele><time>2026-07-26T18:13:49Z</time></trkpt>
<trkpt lat="35.192227" lon="-84.865042"><ele>242.0</ele><time>2026-07-26T18:13:51Z</time></trkpt>
<trkpt lat="35.192198" lon="-84.865045"><ele>242.0</ele><time>2026-07-26T18:13:53Z</time></trkpt>
<trkpt lat="35.192168" lon="-84.865057"><ele>241.1</ele><time>2026-07-26T18:13:55Z</time></trkpt>
<trkpt lat="35.192138" lon="-84.865067"><ele>241.7</ele><time>2026-07-26T18:13:57Z</time></trkpt>
<trkpt lat="35.192108" lon="-84.865074"><ele>242.3</ele><time>2026-07-26T18:13:59Z</time></trkpt>
<trkpt lat="35.192078" lon="-84.865077"><ele>242.0</ele><time>2026-07-26T18:14:01Z</time></trkpt>
<trkpt lat="35.19205" lon="-84.865082"><ele>241.1</ele><time>2026-07-26T18:14:03Z</time></trkpt>
<trkpt lat="35.192024" lon="-84.865093"><ele>240.5</ele><time>2026-07-26T18:14:05Z</time></trkpt>
<trkpt lat="35.191996" lon="-84.865096"><ele>240.5</ele><time>2026-07-26T18:14:07Z</time></trkpt>
<trkpt lat="35.191968" lon="-84.865102"><ele>241.1</ele><time>2026-07-26T18:14:09Z</time></trkpt>
<trkpt lat="35.19194" lon="-84.86511"><ele>241.4</ele><time>2026-07-26T18:14:11Z</time></trkpt>
<trkpt lat="35.191901" lon="-84.865125"><ele>239.3</ele><time>2026-07-26T18:14:14Z</time></trkpt>
<trkpt lat="35.191877" lon="-84.865142"><ele>238.7</ele><time>2026-07-26T18:14:16Z</time></trkpt>
<trkpt lat="35.191852" lon="-84.865158"><ele>236.5</ele><time>2026-07-26T18:14:18Z</time></trkpt>
<trkpt lat="35.191823" lon="-84.865174"><ele>235.6</ele><time>2026-07-26T18:14:20Z</time></trkpt>
<trkpt lat="35.191796" lon="-84.865192"><ele>235.0</ele><time>2026-07-26T18:14:22Z</time></trkpt>
<trkpt lat="35.191772" lon="-84.865219"><ele>236.2</ele><time>2026-07-26T18:14:24Z</time></trkpt>
<trkpt lat="35.191743" lon="-84.865246"><ele>238.4</ele><time>2026-07-26T18:14:26Z</time></trkpt>
<trkpt lat="35.19172" lon="-84.865274"><ele>239.3</ele><time>2026-07-26T18:14:28Z</time></trkpt>
<trkpt lat="35.191695" lon="-84.865293"><ele>238.4</ele><time>2026-07-26T18:14:30Z</time></trkpt>
<trkpt lat="35.191673" lon="-84.865316"><ele>236.5</ele><time>2026-07-26T18:14:32Z</time></trkpt>
<trkpt lat="35.191654" lon="-84.865342"><ele>238.0</ele><time>2026-07-26T18:14:34Z</time></trkpt>
<trkpt lat="35.191629" lon="-84.865364"><ele>238.4</ele><time>2026-07-26T18:14:36Z</time></trkpt>
<trkpt lat="35.191605" lon="-84.865381"><ele>238.0</ele><time>2026-07-26T18:14:38Z</time></trkpt>
<trkpt lat="35.191582" lon="-84.865405"><ele>238.4</ele><time>2026-07-26T18:14:40Z</time></trkpt>
<trkpt lat="35.191562" lon="-84.865436"><ele>238.4</ele><time>2026-07-26T18:14:42Z</time></trkpt>
<trkpt lat="35.191539" lon="-84.865459"><ele>238.7</ele><time>2026-07-26T18:14:44Z</time></trkpt>
<trkpt lat="35.191514" lon="-84.865479"><ele>238.4</ele><time>2026-07-26T18:14:46Z</time></trkpt>
<trkpt lat="35.19149" lon="-84.865503"><ele>239.6</ele><time>2026-07-26T18:14:48Z</time></trkpt>
<trkpt lat="35.191461" lon="-84.865515"><ele>239.9</ele><time>2026-07-26T18:14:50Z</time></trkpt>
<trkpt lat="35.191446" lon="-84.86555"><ele>239.3</ele><time>2026-07-26T18:14:52Z</time></trkpt>
<trkpt lat="35.191431" lon="-84.86558"><ele>239.3</ele><time>2026-07-26T18:14:54Z</time></trkpt>
<trkpt lat="35.191422" lon="-84.865614"><ele>239.0</ele><time>2026-07-26T18:14:56Z</time></trkpt>
<trkpt lat="35.191411" lon="-84.865644"><ele>240.2</ele><time>2026-07-26T18:14:58Z</time></trkpt>
<trkpt lat="35.191389" lon="-84.865687"><ele>240.2</ele><time>2026-07-26T18:15:01Z</time></trkpt>
<trkpt lat="35.191376" lon="-84.865721"><ele>240.5</ele><time>2026-07-26T18:15:03Z</time></trkpt>
<trkpt lat="35.191358" lon="-84.865752"><ele>240.5</ele><time>2026-07-26T18:15:05Z</time></trkpt>
<trkpt lat="35.191338" lon="-84.865782"><ele>241.1</ele><time>2026-07-26T18:15:07Z</time></trkpt>
<trkpt lat="35.191323" lon="-84.865814"><ele>241.7</ele><time>2026-07-26T18:15:09Z</time></trkpt>
<trkpt lat="35.191305" lon="-84.865844"><ele>241.7</ele><time>2026-07-26T18:15:11Z</time></trkpt>
<trkpt lat="35.191287" lon="-84.865873"><ele>243.2</ele><time>2026-07-26T18:15:13Z</time></trkpt>
<trkpt lat="35.191263" lon="-84.8659"><ele>242.3</ele><time>2026-07-26T18:15:15Z</time></trkpt>
<trkpt lat="35.191239" lon="-84.865928"><ele>242.6</ele><time>2026-07-26T18:15:17Z</time></trkpt>
<trkpt lat="35.191219" lon="-84.865956"><ele>243.2</ele><time>2026-07-26T18:15:19Z</time></trkpt>
<trkpt lat="35.191196" lon="-84.865981"><ele>242.6</ele><time>2026-07-26T18:15:21Z</time></trkpt>
<trkpt lat="35.191171" lon="-84.866003"><ele>242.9</ele><time>2026-07-26T18:15:23Z</time></trkpt>
<trkpt lat="35.191145" lon="-84.866022"><ele>242.3</ele><time>2026-07-26T18:15:25Z</time></trkpt>
<trkpt lat="35.191119" lon="-84.866042"><ele>242.0</ele><time>2026-07-26T18:15:27Z</time></trkpt>
<trkpt lat="35.191096" lon="-84.866064"><ele>242.3</ele><time>2026-07-26T18:15:29Z</time></trkpt>
<trkpt lat="35.19107" lon="-84.866084"><ele>242.9</ele><time>2026-07-26T18:15:31Z</time></trkpt>
<trkpt lat="35.191045" lon="-84.866101"><ele>243.5</ele><time>2026-07-26T18:15:33Z</time></trkpt>
<trkpt lat="35.191019" lon="-84.866119"><ele>243.8</ele><time>2026-07-26T18:15:35Z</time></trkpt>
<trkpt lat="35.19099" lon="-84.866135"><ele>244.1</ele><time>2026-07-26T18:15:37Z</time></trkpt>
<trkpt lat="35.190964" lon="-84.866154"><ele>244.1</ele><time>2026-07-26T18:15:39Z</time></trkpt>
<trkpt lat="35.190927" lon="-84.866174"><ele>244.4</ele><time>2026-07-26T18:15:42Z</time></trkpt>
<trkpt lat="35.1909" lon="-84.866186"><ele>243.5</ele><time>2026-07-26T18:15:44Z</time></trkpt>
<trkpt lat="35.190876" lon="-84.866203"><ele>243.5</ele><time>2026-07-26T18:15:46Z</time></trkpt>
<trkpt lat="35.190872" lon="-84.866248"><ele>244.1</ele><time>2026-07-26T18:15:48Z</time></trkpt>
<trkpt lat="35.190885" lon="-84.866288"><ele>244.1</ele><time>2026-07-26T18:15:50Z</time></trkpt>
<trkpt lat="35.1909" lon="-84.866324"><ele>245.4</ele><time>2026-07-26T18:15:52Z</time></trkpt>
<trkpt lat="35.190913" lon="-84.86636"><ele>244.4</ele><time>2026-07-26T18:15:54Z</time></trkpt>
<trkpt lat="35.190921" lon="-84.866397"><ele>243.5</ele><time>2026-07-26T18:15:56Z</time></trkpt>
<trkpt lat="35.190912" lon="-84.866434"><ele>244.4</ele><time>2026-07-26T18:15:58Z</time></trkpt>
<trkpt lat="35.190894" lon="-84.866467"><ele>244.8</ele><time>2026-07-26T18:16:00Z</time></trkpt>
<trkpt lat="35.190873" lon="-84.866494"><ele>245.1</ele><time>2026-07-26T18:16:02Z</time></trkpt>
<trkpt lat="35.190852" lon="-84.866519"><ele>245.1</ele><time>2026-07-26T18:16:04Z</time></trkpt>
<trkpt lat="35.190831" lon="-84.866545"><ele>245.4</ele><time>2026-07-26T18:16:06Z</time></trkpt>
<trkpt lat="35.190802" lon="-84.866563"><ele>245.7</ele><time>2026-07-26T18:16:08Z</time></trkpt>
<trkpt lat="35.190777" lon="-84.866582"><ele>244.8</ele><time>2026-07-26T18:16:10Z</time></trkpt>
<trkpt lat="35.19076" lon="-84.866612"><ele>244.4</ele><time>2026-07-26T18:16:12Z</time></trkpt>
<trkpt lat="35.190734" lon="-84.866637"><ele>245.1</ele><time>2026-07-26T18:16:14Z</time></trkpt>
<trkpt lat="35.190714" lon="-84.866664"><ele>244.8</ele><time>2026-07-26T18:16:16Z</time></trkpt>
<trkpt lat="35.190706" lon="-84.866698"><ele>244.1</ele><time>2026-07-26T18:16:18Z</time></trkpt>
<trkpt lat="35.190732" lon="-84.866721"><ele>245.1</ele><time>2026-07-26T18:16:20Z</time></trkpt>
<trkpt lat="35.190755" lon="-84.866754"><ele>243.8</ele><time>2026-07-26T18:16:22Z</time></trkpt>
<trkpt lat="35.190755" lon="-84.866772"><ele>245.7</ele><time>2026-07-26T18:16:23Z</time></trkpt>
<trkpt lat="35.190777" lon="-84.866762"><ele>243.5</ele><time>2026-07-26T18:16:24Z</time></trkpt>
<trkpt lat="35.190789" lon="-84.866755"><ele>243.5</ele><time>2026-07-26T18:16:25Z</time></trkpt>
<trkpt lat="35.190791" lon="-84.866756"><ele>243.2</ele><time>2026-07-26T18:16:26Z</time></trkpt>
<trkpt lat="35.190821" lon="-84.866742"><ele>242.6</ele><time>2026-07-26T18:16:27Z</time></trkpt>
<trkpt lat="35.190841" lon="-84.866743"><ele>242.3</ele><time>2026-07-26T18:16:28Z</time></trkpt>
<trkpt lat="35.190851" lon="-84.866741"><ele>242.6</ele><time>2026-07-26T18:16:29Z</time></trkpt>
<trkpt lat="35.190857" lon="-84.86674"><ele>242.6</ele><time>2026-07-26T18:16:30Z</time></trkpt>
<trkpt lat="35.190873" lon="-84.866735"><ele>242.9</ele><time>2026-07-26T18:16:31Z</time></trkpt>
<trkpt lat="35.190882" lon="-84.866731"><ele>242.6</ele><time>2026-07-26T18:16:32Z</time></trkpt>
<trkpt lat="35.19089" lon="-84.866726"><ele>240.8</ele><time>2026-07-26T18:16:40Z</time></trkpt>
<trkpt lat="35.190906" lon="-84.866717"><ele>241.1</ele><time>2026-07-26T18:16:41Z</time></trkpt>
<trkpt lat="35.190908" lon="-84.866714"><ele>239.9</ele><time>2026-07-26T18:16:42Z</time></trkpt>
<trkpt lat="35.190911" lon="-84.866712"><ele>239.9</ele><time>2026-07-26T18:16:47Z</time></trkpt>
<trkpt lat="35.190914" lon="-84.866712"><ele>239.3</ele><time>2026-07-26T18:16:48Z</time></trkpt>
<trkpt lat="35.190924" lon="-84.866719"><ele>239.0</ele><time>2026-07-26T18:16:51Z</time></trkpt>
<trkpt lat="35.190919" lon="-84.866718"><ele>239.0</ele><time>2026-07-26T18:16:52Z</time></trkpt>
<trkpt lat="35.190912" lon="-84.866721"><ele>238.7</ele><time>2026-07-26T18:17:09Z</time></trkpt>
<trkpt lat="35.19091" lon="-84.866723"><ele>238.7</ele><time>2026-07-26T18:17:10Z</time></trkpt>
<trkpt lat="35.190905" lon="-84.866724"><ele>238.7</ele><time>2026-07-26T18:17:11Z</time></trkpt>
<trkpt lat="35.190902" lon="-84.866725"><ele>239.0</ele><time>2026-07-26T18:17:12Z</time></trkpt>
<trkpt lat="35.190891" lon="-84.866731"><ele>238.4</ele><time>2026-07-26T18:17:18Z</time></trkpt>
<trkpt lat="35.190888" lon="-84.866726"><ele>238.4</ele><time>2026-07-26T18:17:19Z</time></trkpt>
<trkpt lat="35.190873" lon="-84.866713"><ele>237.7</ele><time>2026-07-26T18:17:21Z</time></trkpt>
<trkpt lat="35.190855" lon="-84.866703"><ele>237.7</ele><time>2026-07-26T18:17:22Z</time></trkpt>
<trkpt lat="35.190842" lon="-84.866707"><ele>238.0</ele><time>2026-07-26T18:17:27Z</time></trkpt>
<trkpt lat="35.190839" lon="-84.866712"><ele>237.4</ele><time>2026-07-26T18:17:28Z</time></trkpt>
<trkpt lat="35.19084" lon="-84.866715"><ele>236.8</ele><time>2026-07-26T18:17:29Z</time></trkpt>
<trkpt lat="35.190839" lon="-84.866717"><ele>236.8</ele><time>2026-07-26T18:17:33Z</time></trkpt>
<trkpt lat="35.190832" lon="-84.86672"><ele>237.1</ele><time>2026-07-26T18:17:34Z</time></trkpt>
<trkpt lat="35.19083" lon="-84.866724"><ele>236.8</ele><time>2026-07-26T18:17:35Z</time></trkpt>
<trkpt lat="35.190835" lon="-84.866726"><ele>236.8</ele><time>2026-07-26T18:17:36Z</time></trkpt>
<trkpt lat="35.190829" lon="-84.866722"><ele>236.2</ele><time>2026-07-26T18:17:37Z</time></trkpt>
<trkpt lat="35.190793" lon="-84.866717"><ele>238.4</ele><time>2026-07-26T18:17:39Z</time></trkpt>
<trkpt lat="35.190752" lon="-84.866691"><ele>239.3</ele><time>2026-07-26T18:17:41Z</time></trkpt>
<trkpt lat="35.190724" lon="-84.866648"><ele>239.3</ele><time>2026-07-26T18:17:43Z</time></trkpt>
<trkpt lat="35.190695" lon="-84.866611"><ele>240.2</ele><time>2026-07-26T18:17:45Z</time></trkpt>
<trkpt lat="35.190664" lon="-84.86658"><ele>242.0</ele><time>2026-07-26T18:17:47Z</time></trkpt>
<trkpt lat="35.190655" lon="-84.866547"><ele>242.0</ele><time>2026-07-26T18:17:49Z</time></trkpt>
<trkpt lat="35.190649" lon="-84.866498"><ele>241.7</ele><time>2026-07-26T18:17:52Z</time></trkpt>
<trkpt lat="35.190646" lon="-84.866457"><ele>242.0</ele><time>2026-07-26T18:17:54Z</time></trkpt>
<trkpt lat="35.190637" lon="-84.866422"><ele>241.7</ele><time>2026-07-26T18:17:56Z</time></trkpt>
<trkpt lat="35.190623" lon="-84.866393"><ele>241.1</ele><time>2026-07-26T18:17:58Z</time></trkpt>
<trkpt lat="35.19061" lon="-84.866359"><ele>240.8</ele><time>2026-07-26T18:18:00Z</time></trkpt>
<trkpt lat="35.190595" lon="-84.866329"><ele>240.8</ele><time>2026-07-26T18:18:02Z</time></trkpt>
<trkpt lat="35.19058" lon="-84.866299"><ele>241.4</ele><time>2026-07-26T18:18:04Z</time></trkpt>
<trkpt lat="35.190553" lon="-84.866282"><ele>242.6</ele><time>2026-07-26T18:18:06Z</time></trkpt>
<trkpt lat="35.190523" lon="-84.866272"><ele>244.8</ele><time>2026-07-26T18:18:08Z</time></trkpt>
<trkpt lat="35.190483" lon="-84.866275"><ele>244.8</ele><time>2026-07-26T18:18:11Z</time></trkpt>
<trkpt lat="35.190451" lon="-84.866271"><ele>246.6</ele><time>2026-07-26T18:18:14Z</time></trkpt>
<trkpt lat="35.190465" lon="-84.866267"><ele>244.8</ele><time>2026-07-26T18:18:15Z</time></trkpt>
<trkpt lat="35.190471" lon="-84.866262"><ele>244.8</ele><time>2026-07-26T18:18:22Z</time></trkpt>
<trkpt lat="35.190467" lon="-84.866259"><ele>244.8</ele><time>2026-07-26T18:18:23Z</time></trkpt>
<trkpt lat="35.190427" lon="-84.866284"><ele>242.6</ele><time>2026-07-26T18:18:27Z</time></trkpt>
<trkpt lat="35.1904" lon="-84.866284"><ele>242.6</ele><time>2026-07-26T18:18:29Z</time></trkpt>
<trkpt lat="35.190359" lon="-84.866283"><ele>242.9</ele><time>2026-07-26T18:18:32Z</time></trkpt>
<trkpt lat="35.190329" lon="-84.866283"><ele>242.3</ele><time>2026-07-26T18:18:34Z</time></trkpt>
<trkpt lat="35.190295" lon="-84.866291"><ele>242.3</ele><time>2026-07-26T18:18:37Z</time></trkpt>
<trkpt lat="35.190264" lon="-84.866312"><ele>242.6</ele><time>2026-07-26T18:18:40Z</time></trkpt>
<trkpt lat="35.190232" lon="-84.866327"><ele>242.9</ele><time>2026-07-26T18:18:43Z</time></trkpt>
<trkpt lat="35.190201" lon="-84.866343"><ele>242.0</ele><time>2026-07-26T18:18:46Z</time></trkpt>
<trkpt lat="35.190169" lon="-84.866353"><ele>241.1</ele><time>2026-07-26T18:18:49Z</time></trkpt>
<trkpt lat="35.190141" lon="-84.866357"><ele>241.7</ele><time>2026-07-26T18:18:51Z</time></trkpt>
<trkpt lat="35.190106" lon="-84.866376"><ele>242.3</ele><time>2026-07-26T18:18:54Z</time></trkpt>
<trkpt lat="35.190076" lon="-84.866386"><ele>242.3</ele><time>2026-07-26T18:18:57Z</time></trkpt>
<trkpt lat="35.190043" lon="-84.866388"><ele>242.6</ele><time>2026-07-26T18:19:00Z</time></trkpt>
<trkpt lat="35.190014" lon="-84.866397"><ele>242.0</ele><time>2026-07-26T18:19:03Z</time></trkpt>
<trkpt lat="35.189986" lon="-84.866411"><ele>243.2</ele><time>2026-07-26T18:19:06Z</time></trkpt>
<trkpt lat="35.189948" lon="-84.866414"><ele>244.1</ele><time>2026-07-26T18:19:09Z</time></trkpt>
<trkpt lat="35.189918" lon="-84.866421"><ele>243.8</ele><time>2026-07-26T18:19:11Z</time></trkpt>
<trkpt lat="35.189882" lon="-84.866434"><ele>243.8</ele><time>2026-07-26T18:19:14Z</time></trkpt>
<trkpt lat="35.189855" lon="-84.866449"><ele>244.1</ele><time>2026-07-26T18:19:17Z</time></trkpt>
<trkpt lat="35.18982" lon="-84.866456"><ele>243.5</ele><time>2026-07-26T18:19:20Z</time></trkpt>
<trkpt lat="35.189783" lon="-84.866466"><ele>243.8</ele><time>2026-07-26T18:19:23Z</time></trkpt>
<trkpt lat="35.189754" lon="-84.866489"><ele>244.1</ele><time>2026-07-26T18:19:26Z</time></trkpt>
<trkpt lat="35.189724" lon="-84.866505"><ele>244.1</ele><time>2026-07-26T18:19:29Z</time></trkpt>
<trkpt lat="35.189695" lon="-84.866525"><ele>245.4</ele><time>2026-07-26T18:19:32Z</time></trkpt>
<trkpt lat="35.189665" lon="-84.866543"><ele>245.4</ele><time>2026-07-26T18:19:35Z</time></trkpt>
<trkpt lat="35.189637" lon="-84.86656"><ele>245.4</ele><time>2026-07-26T18:19:38Z</time></trkpt>
<trkpt lat="35.189605" lon="-84.866574"><ele>244.4</ele><time>2026-07-26T18:19:41Z</time></trkpt>
<trkpt lat="35.189572" lon="-84.866594"><ele>244.4</ele><time>2026-07-26T18:19:44Z</time></trkpt>
<trkpt lat="35.189539" lon="-84.866604"><ele>244.8</ele><time>2026-07-26T18:19:47Z</time></trkpt>
<trkpt lat="35.189508" lon="-84.866611"><ele>244.1</ele><time>2026-07-26T18:19:50Z</time></trkpt>
<trkpt lat="35.189471" lon="-84.866598"><ele>243.5</ele><time>2026-07-26T18:19:53Z</time></trkpt>
<trkpt lat="35.189443" lon="-84.866569"><ele>243.2</ele><time>2026-07-26T18:19:56Z</time></trkpt>
<trkpt lat="35.189413" lon="-84.866535"><ele>242.6</ele><time>2026-07-26T18:19:59Z</time></trkpt>
<trkpt lat="35.189384" lon="-84.866502"><ele>242.9</ele><time>2026-07-26T18:20:02Z</time></trkpt>
<trkpt lat="35.189362" lon="-84.866474"><ele>242.9</ele><time>2026-07-26T18:20:04Z</time></trkpt>
<trkpt lat="35.189342" lon="-84.866442"><ele>242.9</ele><time>2026-07-26T18:20:06Z</time></trkpt>
<trkpt lat="35.189324" lon="-84.86641"><ele>242.9</ele><time>2026-07-26T18:20:08Z</time></trkpt>
<trkpt lat="35.189301" lon="-84.866387"><ele>242.6</ele><time>2026-07-26T18:20:10Z</time></trkpt>
<trkpt lat="35.189278" lon="-84.866367"><ele>241.7</ele><time>2026-07-26T18:20:12Z</time></trkpt>
<trkpt lat="35.189249" lon="-84.866358"><ele>242.3</ele><time>2026-07-26T18:20:14Z</time></trkpt>
<trkpt lat="35.18922" lon="-84.866354"><ele>242.9</ele><time>2026-07-26T18:20:16Z</time></trkpt>
<trkpt lat="35.18919" lon="-84.866364"><ele>243.8</ele><time>2026-07-26T18:20:18Z</time></trkpt>
<trkpt lat="35.189163" lon="-84.866381"><ele>244.4</ele><time>2026-07-26T18:20:20Z</time></trkpt>
<trkpt lat="35.189137" lon="-84.866401"><ele>243.8</ele><time>2026-07-26T18:20:22Z</time></trkpt>
<trkpt lat="35.189107" lon="-84.866415"><ele>243.8</ele><time>2026-07-26T18:20:24Z</time></trkpt>
<trkpt lat="35.189081" lon="-84.866436"><ele>244.1</ele><time>2026-07-26T18:20:26Z</time></trkpt>
<trkpt lat="35.189054" lon="-84.866457"><ele>244.4</ele><time>2026-07-26T18:20:28Z</time></trkpt>
<trkpt lat="35.189029" lon="-84.866478"><ele>243.8</ele><time>2026-07-26T18:20:30Z</time></trkpt>
<trkpt lat="35.18901" lon="-84.866508"><ele>245.1</ele><time>2026-07-26T18:20:32Z</time></trkpt>
<trkpt lat="35.188981" lon="-84.866532"><ele>246.0</ele><time>2026-07-26T18:20:34Z</time></trkpt>
<trkpt lat="35.188954" lon="-84.866554"><ele>244.8</ele><time>2026-07-26T18:20:36Z</time></trkpt>
<trkpt lat="35.188926" lon="-84.866574"><ele>243.8</ele><time>2026-07-26T18:20:38Z</time></trkpt>
<trkpt lat="35.188894" lon="-84.866587"><ele>243.2</ele><time>2026-07-26T18:20:40Z</time></trkpt>
<trkpt lat="35.188873" lon="-84.866618"><ele>242.6</ele><time>2026-07-26T18:20:42Z</time></trkpt>
<trkpt lat="35.188851" lon="-84.866643"><ele>243.2</ele><time>2026-07-26T18:20:44Z</time></trkpt>
<trkpt lat="35.188828" lon="-84.866668"><ele>242.6</ele><time>2026-07-26T18:20:46Z</time></trkpt>
<trkpt lat="35.18881" lon="-84.866697"><ele>242.0</ele><time>2026-07-26T18:20:48Z</time></trkpt>
<trkpt lat="35.188791" lon="-84.866727"><ele>241.7</ele><time>2026-07-26T18:20:50Z</time></trkpt>
<trkpt lat="35.188776" lon="-84.866758"><ele>242.3</ele><time>2026-07-26T18:20:52Z</time></trkpt>
<trkpt lat="35.188754" lon="-84.866782"><ele>243.2</ele><time>2026-07-26T18:20:54Z</time></trkpt>
<trkpt lat="35.188733" lon="-84.866807"><ele>243.5</ele><time>2026-07-26T18:20:56Z</time></trkpt>
<trkpt lat="35.188709" lon="-84.866832"><ele>244.1</ele><time>2026-07-26T18:20:58Z</time></trkpt>
<trkpt lat="35.188688" lon="-84.866861"><ele>245.1</ele><time>2026-07-26T18:21:00Z</time></trkpt>
<trkpt lat="35.188666" lon="-84.866886"><ele>245.4</ele><time>2026-07-26T18:21:02Z</time></trkpt>
<trkpt lat="35.188643" lon="-84.866916"><ele>243.8</ele><time>2026-07-26T18:21:04Z</time></trkpt>
<trkpt lat="35.188619" lon="-84.866947"><ele>243.2</ele><time>2026-07-26T18:21:06Z</time></trkpt>
<trkpt lat="35.188594" lon="-84.86697"><ele>244.1</ele><time>2026-07-26T18:21:08Z</time></trkpt>
<trkpt lat="35.188563" lon="-84.866984"><ele>245.4</ele><time>2026-07-26T18:21:10Z</time></trkpt>
<trkpt lat="35.188533" lon="-84.866996"><ele>246.0</ele><time>2026-07-26T18:21:12Z</time></trkpt>
<trkpt lat="35.18851" lon="-84.867026"><ele>246.3</ele><time>2026-07-26T18:21:14Z</time></trkpt>
<trkpt lat="35.188484" lon="-84.867048"><ele>246.3</ele><time>2026-07-26T18:21:16Z</time></trkpt>
<trkpt lat="35.188461" lon="-84.867072"><ele>246.3</ele><time>2026-07-26T18:21:18Z</time></trkpt>
<trkpt lat="35.188432" lon="-84.867086"><ele>246.3</ele><time>2026-07-26T18:21:20Z</time></trkpt>
<trkpt lat="35.188406" lon="-84.867108"><ele>245.7</ele><time>2026-07-26T18:21:22Z</time></trkpt>
<trkpt lat="35.188382" lon="-84.867133"><ele>246.9</ele><time>2026-07-26T18:21:24Z</time></trkpt>
<trkpt lat="35.188354" lon="-84.867152"><ele>247.8</ele><time>2026-07-26T18:21:26Z</time></trkpt>
<trkpt lat="35.188327" lon="-84.867169"><ele>247.5</ele><time>2026-07-26T18:21:28Z</time></trkpt>
<trkpt lat="35.188302" lon="-84.867188"><ele>247.2</ele><time>2026-07-26T18:21:30Z</time></trkpt>
<trkpt lat="35.188273" lon="-84.867201"><ele>247.8</ele><time>2026-07-26T18:21:32Z</time></trkpt>
<trkpt lat="35.188246" lon="-84.867217"><ele>247.2</ele><time>2026-07-26T18:21:34Z</time></trkpt>
<trkpt lat="35.188218" lon="-84.867231"><ele>247.2</ele><time>2026-07-26T18:21:36Z</time></trkpt>
<trkpt lat="35.18819" lon="-84.867244"><ele>247.5</ele><time>2026-07-26T18:21:38Z</time></trkpt>
<trkpt lat="35.188166" lon="-84.867264"><ele>246.0</ele><time>2026-07-26T18:21:40Z</time></trkpt>
<trkpt lat="35.18814" lon="-84.867277"><ele>246.0</ele><time>2026-07-26T18:21:42Z</time></trkpt>
<trkpt lat="35.188111" lon="-84.867294"><ele>246.6</ele><time>2026-07-26T18:21:44Z</time></trkpt>
<trkpt lat="35.188083" lon="-84.867308"><ele>246.0</ele><time>2026-07-26T18:21:46Z</time></trkpt>
<trkpt lat="35.188053" lon="-84.867322"><ele>246.0</ele><time>2026-07-26T18:21:48Z</time></trkpt>
<trkpt lat="35.188024" lon="-84.867337"><ele>246.3</ele><time>2026-07-26T18:21:50Z</time></trkpt>
<trkpt lat="35.187995" lon="-84.86735"><ele>246.6</ele><time>2026-07-26T18:21:52Z</time></trkpt>
<trkpt lat="35.187967" lon="-84.867362"><ele>246.3</ele><time>2026-07-26T18:21:54Z</time></trkpt>
<trkpt lat="35.187939" lon="-84.867375"><ele>246.3</ele><time>2026-07-26T18:21:56Z</time></trkpt>
<trkpt lat="35.187911" lon="-84.867389"><ele>246.0</ele><time>2026-07-26T18:21:58Z</time></trkpt>
<trkpt lat="35.187884" lon="-84.867403"><ele>245.7</ele><time>2026-07-26T18:22:00Z</time></trkpt>
<trkpt lat="35.187845" lon="-84.867424"><ele>245.1</ele><time>2026-07-26T18:22:03Z</time></trkpt>
<trkpt lat="35.187819" lon="-84.867444"><ele>244.8</ele><time>2026-07-26T18:22:05Z</time></trkpt>
<trkpt lat="35.187792" lon="-84.867461"><ele>244.8</ele><time>2026-07-26T18:22:07Z</time></trkpt>
<trkpt lat="35.187764" lon="-84.867473"><ele>245.1</ele><time>2026-07-26T18:22:09Z</time></trkpt>
<trkpt lat="35.187737" lon="-84.867489"><ele>245.1</ele><time>2026-07-26T18:22:11Z</time></trkpt>
<trkpt lat="35.187714" lon="-84.86751"><ele>244.4</ele><time>2026-07-26T18:22:13Z</time></trkpt>
<trkpt lat="35.187686" lon="-84.867519"><ele>243.8</ele><time>2026-07-26T18:22:15Z</time></trkpt>
<trkpt lat="35.187663" lon="-84.867543"><ele>242.6</ele><time>2026-07-26T18:22:17Z</time></trkpt>
<trkpt lat="35.187637" lon="-84.867563"><ele>242.3</ele><time>2026-07-26T18:22:19Z</time></trkpt>
<trkpt lat="35.187609" lon="-84.867579"><ele>242.3</ele><time>2026-07-26T18:22:21Z</time></trkpt>
<trkpt lat="35.187585" lon="-84.867603"><ele>241.7</ele><time>2026-07-26T18:22:23Z</time></trkpt>
<trkpt lat="35.187555" lon="-84.867614"><ele>241.1</ele><time>2026-07-26T18:22:25Z</time></trkpt>
<trkpt lat="35.187528" lon="-84.867626"><ele>240.8</ele><time>2026-07-26T18:22:27Z</time></trkpt>
<trkpt lat="35.1875" lon="-84.867628"><ele>242.3</ele><time>2026-07-26T18:22:29Z</time></trkpt>
<trkpt lat="35.187473" lon="-84.867633"><ele>242.9</ele><time>2026-07-26T18:22:31Z</time></trkpt>
<trkpt lat="35.187444" lon="-84.867642"><ele>243.2</ele><time>2026-07-26T18:22:33Z</time></trkpt>
<trkpt lat="35.18742" lon="-84.867662"><ele>242.0</ele><time>2026-07-26T18:22:35Z</time></trkpt>
<trkpt lat="35.187399" lon="-84.867685"><ele>243.8</ele><time>2026-07-26T18:22:37Z</time></trkpt>
<trkpt lat="35.187376" lon="-84.867704"><ele>244.1</ele><time>2026-07-26T18:22:39Z</time></trkpt>
<trkpt lat="35.187352" lon="-84.867723"><ele>243.8</ele><time>2026-07-26T18:22:41Z</time></trkpt>
<trkpt lat="35.187326" lon="-84.867743"><ele>243.8</ele><time>2026-07-26T18:22:43Z</time></trkpt>
<trkpt lat="35.187303" lon="-84.867767"><ele>242.0</ele><time>2026-07-26T18:22:45Z</time></trkpt>
<trkpt lat="35.187275" lon="-84.867782"><ele>242.6</ele><time>2026-07-26T18:22:47Z</time></trkpt>
<trkpt lat="35.187248" lon="-84.867806"><ele>242.0</ele><time>2026-07-26T18:22:49Z</time></trkpt>
<trkpt lat="35.187219" lon="-84.867827"><ele>242.3</ele><time>2026-07-26T18:22:51Z</time></trkpt>
<trkpt lat="35.187189" lon="-84.86784"><ele>242.9</ele><time>2026-07-26T18:22:53Z</time></trkpt>
<trkpt lat="35.187164" lon="-84.867857"><ele>242.9</ele><time>2026-07-26T18:22:55Z</time></trkpt>
<trkpt lat="35.18714" lon="-84.867872"><ele>243.2</ele><time>2026-07-26T18:22:57Z</time></trkpt>
<trkpt lat="35.187114" lon="-84.867887"><ele>242.9</ele><time>2026-07-26T18:22:59Z</time></trkpt>
<trkpt lat="35.187089" lon="-84.867903"><ele>243.2</ele><time>2026-07-26T18:23:01Z</time></trkpt>
<trkpt lat="35.187062" lon="-84.867919"><ele>244.1</ele><time>2026-07-26T18:23:03Z</time></trkpt>
<trkpt lat="35.187035" lon="-84.867934"><ele>244.4</ele><time>2026-07-26T18:23:05Z</time></trkpt>
<trkpt lat="35.187011" lon="-84.86795"><ele>244.1</ele><time>2026-07-26T18:23:07Z</time></trkpt>
<trkpt lat="35.186986" lon="-84.867964"><ele>243.8</ele><time>2026-07-26T18:23:09Z</time></trkpt>
<trkpt lat="35.186961" lon="-84.867983"><ele>243.2</ele><time>2026-07-26T18:23:11Z</time></trkpt>
<trkpt lat="35.186937" lon="-84.868001"><ele>243.2</ele><time>2026-07-26T18:23:13Z</time></trkpt>
<trkpt lat="35.186911" lon="-84.868018"><ele>243.5</ele><time>2026-07-26T18:23:15Z</time></trkpt>
<trkpt lat="35.18689" lon="-84.868043"><ele>244.1</ele><time>2026-07-26T18:23:17Z</time></trkpt>
<trkpt lat="35.186867" lon="-84.868064"><ele>244.8</ele><time>2026-07-26T18:23:19Z</time></trkpt>
<trkpt lat="35.186843" lon="-84.868086"><ele>244.4</ele><time>2026-07-26T18:23:21Z</time></trkpt>
<trkpt lat="35.186821" lon="-84.868105"><ele>244.8</ele><time>2026-07-26T18:23:23Z</time></trkpt>
<trkpt lat="35.186797" lon="-84.868122"><ele>245.1</ele><time>2026-07-26T18:23:25Z</time></trkpt>
<trkpt lat="35.186773" lon="-84.868141"><ele>244.8</ele><time>2026-07-26T18:23:27Z</time></trkpt>
<trkpt lat="35.186749" lon="-84.868162"><ele>244.4</ele><time>2026-07-26T18:23:29Z</time></trkpt>
<trkpt lat="35.186725" lon="-84.868184"><ele>244.8</ele><time>2026-07-26T18:23:31Z</time></trkpt>
<trkpt lat="35.1867" lon="-84.868203"><ele>242.0</ele><time>2026-07-26T18:23:33Z</time></trkpt>
<trkpt lat="35.186678" lon="-84.868226"><ele>243.2</ele><time>2026-07-26T18:23:35Z</time></trkpt>
<trkpt lat="35.186656" lon="-84.868252"><ele>242.3</ele><time>2026-07-26T18:23:37Z</time></trkpt>
<trkpt lat="35.186629" lon="-84.868267"><ele>242.9</ele><time>2026-07-26T18:23:39Z</time></trkpt>
<trkpt lat="35.186602" lon="-84.868282"><ele>243.2</ele><time>2026-07-26T18:23:41Z</time></trkpt>
<trkpt lat="35.186574" lon="-84.868299"><ele>244.1</ele><time>2026-07-26T18:23:43Z</time></trkpt>
<trkpt lat="35.186547" lon="-84.868314"><ele>243.8</ele><time>2026-07-26T18:23:45Z</time></trkpt>
<trkpt lat="35.186525" lon="-84.868333"><ele>242.9</ele><time>2026-07-26T18:23:47Z</time></trkpt>
<trkpt lat="35.186489" lon="-84.868358"><ele>242.3</ele><time>2026-07-26T18:23:50Z</time></trkpt>
<trkpt lat="35.186465" lon="-84.868375"><ele>242.9</ele><time>2026-07-26T18:23:52Z</time></trkpt>
<trkpt lat="35.186431" lon="-84.8684"><ele>243.8</ele><time>2026-07-26T18:23:55Z</time></trkpt>
<trkpt lat="35.186405" lon="-84.868416"><ele>243.5</ele><time>2026-07-26T18:23:57Z</time></trkpt>
<trkpt lat="35.186379" lon="-84.868432"><ele>243.8</ele><time>2026-07-26T18:23:59Z</time></trkpt>
<trkpt lat="35.186353" lon="-84.868448"><ele>244.4</ele><time>2026-07-26T18:24:01Z</time></trkpt>
<trkpt lat="35.186326" lon="-84.868461"><ele>244.4</ele><time>2026-07-26T18:24:03Z</time></trkpt>
<trkpt lat="35.186289" lon="-84.868482"><ele>244.8</ele><time>2026-07-26T18:24:06Z</time></trkpt>
<trkpt lat="35.186255" lon="-84.868507"><ele>244.1</ele><time>2026-07-26T18:24:09Z</time></trkpt>
<trkpt lat="35.186228" lon="-84.868534"><ele>243.5</ele><time>2026-07-26T18:24:11Z</time></trkpt>
<trkpt lat="35.186194" lon="-84.868545"><ele>245.1</ele><time>2026-07-26T18:24:13Z</time></trkpt>
<trkpt lat="35.186162" lon="-84.868568"><ele>244.8</ele><time>2026-07-26T18:24:17Z</time></trkpt>
<trkpt lat="35.18613" lon="-84.868601"><ele>244.8</ele><time>2026-07-26T18:24:19Z</time></trkpt>
<trkpt lat="35.186104" lon="-84.86863"><ele>243.5</ele><time>2026-07-26T18:24:21Z</time></trkpt>
<trkpt lat="35.186075" lon="-84.868652"><ele>243.5</ele><time>2026-07-26T18:24:23Z</time></trkpt>
<trkpt lat="35.186053" lon="-84.868679"><ele>243.5</ele><time>2026-07-26T18:24:25Z</time></trkpt>
<trkpt lat="35.186023" lon="-84.868694"><ele>244.1</ele><time>2026-07-26T18:24:27Z</time></trkpt>
<trkpt lat="35.185994" lon="-84.868693"><ele>245.7</ele><time>2026-07-26T18:24:29Z</time></trkpt>
<trkpt lat="35.185959" lon="-84.868721"><ele>246.3</ele><time>2026-07-26T18:24:32Z</time></trkpt>
<trkpt lat="35.185922" lon="-84.86875"><ele>246.0</ele><time>2026-07-26T18:24:35Z</time></trkpt>
<trkpt lat="35.185894" lon="-84.868772"><ele>246.3</ele><time>2026-07-26T18:24:37Z</time></trkpt>
<trkpt lat="35.18587" lon="-84.868795"><ele>247.8</ele><time>2026-07-26T18:24:39Z</time></trkpt>
<trkpt lat="35.185847" lon="-84.868816"><ele>248.1</ele><time>2026-07-26T18:24:41Z</time></trkpt>
<trkpt lat="35.18582" lon="-84.86885"><ele>246.3</ele><time>2026-07-26T18:24:44Z</time></trkpt>
<trkpt lat="35.185797" lon="-84.868891"><ele>245.7</ele><time>2026-07-26T18:24:47Z</time></trkpt>
<trkpt lat="35.185778" lon="-84.868916"><ele>245.4</ele><time>2026-07-26T18:24:49Z</time></trkpt>
<trkpt lat="35.185757" lon="-84.868939"><ele>246.3</ele><time>2026-07-26T18:24:51Z</time></trkpt>
<trkpt lat="35.185732" lon="-84.868963"><ele>246.0</ele><time>2026-07-26T18:24:53Z</time></trkpt>
<trkpt lat="35.18571" lon="-84.868987"><ele>247.2</ele><time>2026-07-26T18:24:55Z</time></trkpt>
<trkpt lat="35.185685" lon="-84.86901"><ele>246.3</ele><time>2026-07-26T18:24:57Z</time></trkpt>
<trkpt lat="35.185663" lon="-84.869036"><ele>246.3</ele><time>2026-07-26T18:24:59Z</time></trkpt>
<trkpt lat="35.18564" lon="-84.869055"><ele>246.3</ele><time>2026-07-26T18:25:01Z</time></trkpt>
<trkpt lat="35.185613" lon="-84.869072"><ele>246.3</ele><time>2026-07-26T18:25:03Z</time></trkpt>
<trkpt lat="35.185587" lon="-84.869082"><ele>246.6</ele><time>2026-07-26T18:25:05Z</time></trkpt>
<trkpt lat="35.185551" lon="-84.869105"><ele>246.6</ele><time>2026-07-26T18:25:08Z</time></trkpt>
<trkpt lat="35.185514" lon="-84.86912"><ele>246.3</ele><time>2026-07-26T18:25:11Z</time></trkpt>
<trkpt lat="35.185488" lon="-84.869134"><ele>246.9</ele><time>2026-07-26T18:25:13Z</time></trkpt>
<trkpt lat="35.185462" lon="-84.869146"><ele>247.2</ele><time>2026-07-26T18:25:15Z</time></trkpt>
<trkpt lat="35.185435" lon="-84.869159"><ele>246.3</ele><time>2026-07-26T18:25:17Z</time></trkpt>
<trkpt lat="35.185412" lon="-84.86918"><ele>246.0</ele><time>2026-07-26T18:25:19Z</time></trkpt>
<trkpt lat="35.185389" lon="-84.8692"><ele>246.6</ele><time>2026-07-26T18:25:21Z</time></trkpt>
<trkpt lat="35.185365" lon="-84.869222"><ele>245.4</ele><time>2026-07-26T18:25:23Z</time></trkpt>
<trkpt lat="35.18534" lon="-84.869243"><ele>245.7</ele><time>2026-07-26T18:25:25Z</time></trkpt>
<trkpt lat="35.185322" lon="-84.869274"><ele>244.1</ele><time>2026-07-26T18:25:27Z</time></trkpt>
<trkpt lat="35.185289" lon="-84.8693"><ele>244.8</ele><time>2026-07-26T18:25:30Z</time></trkpt>
<trkpt lat="35.185265" lon="-84.869316"><ele>245.1</ele><time>2026-07-26T18:25:32Z</time></trkpt>
<trkpt lat="35.185233" lon="-84.869345"><ele>245.4</ele><time>2026-07-26T18:25:35Z</time></trkpt>
<trkpt lat="35.185201" lon="-84.869376"><ele>246.0</ele><time>2026-07-26T18:25:38Z</time></trkpt>
<trkpt lat="35.185167" lon="-84.869404"><ele>246.0</ele><time>2026-07-26T18:25:41Z</time></trkpt>
<trkpt lat="35.185135" lon="-84.869435"><ele>245.7</ele><time>2026-07-26T18:25:44Z</time></trkpt>
<trkpt lat="35.18511" lon="-84.869457"><ele>246.0</ele><time>2026-07-26T18:25:46Z</time></trkpt>
<trkpt lat="35.185088" lon="-84.869478"><ele>246.0</ele><time>2026-07-26T18:25:48Z</time></trkpt>
<trkpt lat="35.185056" lon="-84.869506"><ele>247.2</ele><time>2026-07-26T18:25:51Z</time></trkpt>
<trkpt lat="35.185024" lon="-84.869535"><ele>247.5</ele><time>2026-07-26T18:25:54Z</time></trkpt>
<trkpt lat="35.184996" lon="-84.869568"><ele>246.0</ele><time>2026-07-26T18:25:57Z</time></trkpt>
<trkpt lat="35.184973" lon="-84.869589"><ele>246.0</ele><time>2026-07-26T18:25:59Z</time></trkpt>
<trkpt lat="35.184942" lon="-84.869623"><ele>246.0</ele><time>2026-07-26T18:26:02Z</time></trkpt>
<trkpt lat="35.184914" lon="-84.869657"><ele>245.7</ele><time>2026-07-26T18:26:05Z</time></trkpt>
<trkpt lat="35.184887" lon="-84.869693"><ele>244.8</ele><time>2026-07-26T18:26:08Z</time></trkpt>
<trkpt lat="35.184861" lon="-84.869706"><ele>245.7</ele><time>2026-07-26T18:26:10Z</time></trkpt>
<trkpt lat="35.184839" lon="-84.869728"><ele>244.1</ele><time>2026-07-26T18:26:12Z</time></trkpt>
<trkpt lat="35.184813" lon="-84.869748"><ele>244.8</ele><time>2026-07-26T18:26:14Z</time></trkpt>
<trkpt lat="35.184792" lon="-84.869771"><ele>245.4</ele><time>2026-07-26T18:26:16Z</time></trkpt>
<trkpt lat="35.184759" lon="-84.869801"><ele>246.0</ele><time>2026-07-26T18:26:19Z</time></trkpt>
<trkpt lat="35.184728" lon="-84.869826"><ele>246.9</ele><time>2026-07-26T18:26:22Z</time></trkpt>
<trkpt lat="35.184692" lon="-84.869851"><ele>246.3</ele><time>2026-07-26T18:26:25Z</time></trkpt>
<trkpt lat="35.18467" lon="-84.869873"><ele>246.3</ele><time>2026-07-26T18:26:27Z</time></trkpt>
<trkpt lat="35.184648" lon="-84.869894"><ele>246.0</ele><time>2026-07-26T18:26:29Z</time></trkpt>
<trkpt lat="35.184627" lon="-84.869916"><ele>246.0</ele><time>2026-07-26T18:26:31Z</time></trkpt>
<trkpt lat="35.184595" lon="-84.869946"><ele>246.0</ele><time>2026-07-26T18:26:34Z</time></trkpt>
<trkpt lat="35.184572" lon="-84.869967"><ele>246.3</ele><time>2026-07-26T18:26:36Z</time></trkpt>
<trkpt lat="35.184547" lon="-84.869984"><ele>245.4</ele><time>2026-07-26T18:26:38Z</time></trkpt>
<trkpt lat="35.184526" lon="-84.870008"><ele>245.4</ele><time>2026-07-26T18:26:40Z</time></trkpt>
<trkpt lat="35.184503" lon="-84.870031"><ele>246.3</ele><time>2026-07-26T18:26:42Z</time></trkpt>
<trkpt lat="35.184468" lon="-84.870058"><ele>246.6</ele><time>2026-07-26T18:26:45Z</time></trkpt>
<trkpt lat="35.184445" lon="-84.870077"><ele>246.9</ele><time>2026-07-26T18:26:47Z</time></trkpt>
<trkpt lat="35.184411" lon="-84.870105"><ele>246.3</ele><time>2026-07-26T18:26:50Z</time></trkpt>
<trkpt lat="35.184387" lon="-84.870124"><ele>246.6</ele><time>2026-07-26T18:26:52Z</time></trkpt>
<trkpt lat="35.184362" lon="-84.870143"><ele>246.6</ele><time>2026-07-26T18:26:54Z</time></trkpt>
<trkpt lat="35.184339" lon="-84.870164"><ele>245.7</ele><time>2026-07-26T18:26:56Z</time></trkpt>
<trkpt lat="35.184302" lon="-84.870183"><ele>246.0</ele><time>2026-07-26T18:26:59Z</time></trkpt>
<trkpt lat="35.184267" lon="-84.870205"><ele>246.6</ele><time>2026-07-26T18:27:02Z</time></trkpt>
<trkpt lat="35.184242" lon="-84.870221"><ele>246.9</ele><time>2026-07-26T18:27:04Z</time></trkpt>
<trkpt lat="35.184216" lon="-84.870239"><ele>246.3</ele><time>2026-07-26T18:27:06Z</time></trkpt>
<trkpt lat="35.184192" lon="-84.870263"><ele>246.3</ele><time>2026-07-26T18:27:08Z</time></trkpt>
<trkpt lat="35.184166" lon="-84.870276"><ele>246.3</ele><time>2026-07-26T18:27:10Z</time></trkpt>
<trkpt lat="35.18413" lon="-84.870302"><ele>248.1</ele><time>2026-07-26T18:27:13Z</time></trkpt>
<trkpt lat="35.184094" lon="-84.870327"><ele>246.6</ele><time>2026-07-26T18:27:16Z</time></trkpt>
<trkpt lat="35.184071" lon="-84.870352"><ele>246.3</ele><time>2026-07-26T18:27:18Z</time></trkpt>
<trkpt lat="35.184039" lon="-84.87038"><ele>247.2</ele><time>2026-07-26T18:27:21Z</time></trkpt>
<trkpt lat="35.184004" lon="-84.870408"><ele>247.5</ele><time>2026-07-26T18:27:24Z</time></trkpt>
<trkpt lat="35.18398" lon="-84.870427"><ele>246.9</ele><time>2026-07-26T18:27:26Z</time></trkpt>
<trkpt lat="35.183956" lon="-84.870447"><ele>247.2</ele><time>2026-07-26T18:27:28Z</time></trkpt>
<trkpt lat="35.183933" lon="-84.870469"><ele>246.3</ele><time>2026-07-26T18:27:30Z</time></trkpt>
<trkpt lat="35.18391" lon="-84.870491"><ele>246.6</ele><time>2026-07-26T18:27:32Z</time></trkpt>
<trkpt lat="35.183889" lon="-84.870513"><ele>247.5</ele><time>2026-07-26T18:27:34Z</time></trkpt>
<trkpt lat="35.183866" lon="-84.870536"><ele>247.8</ele><time>2026-07-26T18:27:36Z</time></trkpt>
<trkpt lat="35.183845" lon="-84.870559"><ele>248.1</ele><time>2026-07-26T18:27:38Z</time></trkpt>
<trkpt lat="35.183826" lon="-84.870584"><ele>247.5</ele><time>2026-07-26T18:27:40Z</time></trkpt>
<trkpt lat="35.183805" lon="-84.870609"><ele>247.8</ele><time>2026-07-26T18:27:42Z</time></trkpt>
<trkpt lat="35.183782" lon="-84.870631"><ele>247.5</ele><time>2026-07-26T18:27:44Z</time></trkpt>
<trkpt lat="35.18376" lon="-84.870655"><ele>247.8</ele><time>2026-07-26T18:27:46Z</time></trkpt>
<trkpt lat="35.183739" lon="-84.870682"><ele>247.2</ele><time>2026-07-26T18:27:48Z</time></trkpt>
<trkpt lat="35.183721" lon="-84.870711"><ele>247.8</ele><time>2026-07-26T18:27:50Z</time></trkpt>
<trkpt lat="35.183703" lon="-84.870737"><ele>247.8</ele><time>2026-07-26T18:27:52Z</time></trkpt>
<trkpt lat="35.183682" lon="-84.870763"><ele>248.1</ele><time>2026-07-26T18:27:54Z</time></trkpt>
<trkpt lat="35.183666" lon="-84.870792"><ele>247.8</ele><time>2026-07-26T18:27:56Z</time></trkpt>
<trkpt lat="35.18365" lon="-84.87082"><ele>247.5</ele><time>2026-07-26T18:27:58Z</time></trkpt>
<trkpt lat="35.183632" lon="-84.870846"><ele>247.8</ele><time>2026-07-26T18:28:00Z</time></trkpt>
<trkpt lat="35.183617" lon="-84.870876"><ele>247.5</ele><time>2026-07-26T18:28:02Z</time></trkpt>
<trkpt lat="35.183606" lon="-84.870908"><ele>247.2</ele><time>2026-07-26T18:28:04Z</time></trkpt>
<trkpt lat="35.183594" lon="-84.870939"><ele>246.3</ele><time>2026-07-26T18:28:06Z</time></trkpt>
<trkpt lat="35.183581" lon="-84.870971"><ele>245.7</ele><time>2026-07-26T18:28:08Z</time></trkpt>
<trkpt lat="35.18357" lon="-84.871002"><ele>245.7</ele><time>2026-07-26T18:28:10Z</time></trkpt>
<trkpt lat="35.183557" lon="-84.871032"><ele>245.4</ele><time>2026-07-26T18:28:12Z</time></trkpt>
<trkpt lat="35.183543" lon="-84.871061"><ele>244.1</ele><time>2026-07-26T18:28:14Z</time></trkpt>
<trkpt lat="35.18353" lon="-84.871092"><ele>245.1</ele><time>2026-07-26T18:28:16Z</time></trkpt>
<trkpt lat="35.183512" lon="-84.87112"><ele>245.4</ele><time>2026-07-26T18:28:18Z</time></trkpt>
<trkpt lat="35.183495" lon="-84.871152"><ele>244.8</ele><time>2026-07-26T18:28:20Z</time></trkpt>
<trkpt lat="35.18348" lon="-84.871182"><ele>245.4</ele><time>2026-07-26T18:28:22Z</time></trkpt>
<trkpt lat="35.183466" lon="-84.871211"><ele>245.4</ele><time>2026-07-26T18:28:24Z</time></trkpt>
<trkpt lat="35.18345" lon="-84.871239"><ele>245.4</ele><time>2026-07-26T18:28:26Z</time></trkpt>
<trkpt lat="35.183435" lon="-84.871268"><ele>245.1</ele><time>2026-07-26T18:28:28Z</time></trkpt>
<trkpt lat="35.183419" lon="-84.871297"><ele>245.7</ele><time>2026-07-26T18:28:30Z</time></trkpt>
<trkpt lat="35.183407" lon="-84.871328"><ele>245.4</ele><time>2026-07-26T18:28:32Z</time></trkpt>
<trkpt lat="35.183393" lon="-84.871357"><ele>245.7</ele><time>2026-07-26T18:28:34Z</time></trkpt>
<trkpt lat="35.183379" lon="-84.871388"><ele>246.0</ele><time>2026-07-26T18:28:36Z</time></trkpt>
<trkpt lat="35.183365" lon="-84.871417"><ele>246.3</ele><time>2026-07-26T18:28:38Z</time></trkpt>
<trkpt lat="35.183352" lon="-84.871451"><ele>246.6</ele><time>2026-07-26T18:28:40Z</time></trkpt>
<trkpt lat="35.183336" lon="-84.871482"><ele>246.6</ele><time>2026-07-26T18:28:42Z</time></trkpt>
<trkpt lat="35.183322" lon="-84.871513"><ele>246.3</ele><time>2026-07-26T18:28:44Z</time></trkpt>
<trkpt lat="35.183306" lon="-84.871544"><ele>246.9</ele><time>2026-07-26T18:28:46Z</time></trkpt>
<trkpt lat="35.183291" lon="-84.871574"><ele>246.6</ele><time>2026-07-26T18:28:48Z</time></trkpt>
<trkpt lat="35.183273" lon="-84.871602"><ele>246.6</ele><time>2026-07-26T18:28:50Z</time></trkpt>
<trkpt lat="35.183249" lon="-84.871629"><ele>247.8</ele><time>2026-07-26T18:28:52Z</time></trkpt>
<trkpt lat="35.183234" lon="-84.871662"><ele>249.6</ele><time>2026-07-26T18:28:54Z</time></trkpt>
<trkpt lat="35.183215" lon="-84.871689"><ele>248.7</ele><time>2026-07-26T18:28:56Z</time></trkpt>
<trkpt lat="35.183196" lon="-84.871716"><ele>249.3</ele><time>2026-07-26T18:28:58Z</time></trkpt>
<trkpt lat="35.183184" lon="-84.871746"><ele>249.3</ele><time>2026-07-26T18:29:00Z</time></trkpt>
<trkpt lat="35.183158" lon="-84.871786"><ele>250.2</ele><time>2026-07-26T18:29:03Z</time></trkpt>
<trkpt lat="35.183137" lon="-84.871813"><ele>250.2</ele><time>2026-07-26T18:29:05Z</time></trkpt>
<trkpt lat="35.183119" lon="-84.871841"><ele>249.6</ele><time>2026-07-26T18:29:07Z</time></trkpt>
<trkpt lat="35.183101" lon="-84.87187"><ele>249.0</ele><time>2026-07-26T18:29:09Z</time></trkpt>
<trkpt lat="35.183081" lon="-84.871897"><ele>249.0</ele><time>2026-07-26T18:29:11Z</time></trkpt>
<trkpt lat="35.183057" lon="-84.87192"><ele>249.3</ele><time>2026-07-26T18:29:13Z</time></trkpt>
<trkpt lat="35.183034" lon="-84.87194"><ele>249.9</ele><time>2026-07-26T18:29:15Z</time></trkpt>
<trkpt lat="35.183013" lon="-84.871963"><ele>249.3</ele><time>2026-07-26T18:29:17Z</time></trkpt>
<trkpt lat="35.182989" lon="-84.87199"><ele>249.6</ele><time>2026-07-26T18:29:19Z</time></trkpt>
<trkpt lat="35.182968" lon="-84.872013"><ele>249.3</ele><time>2026-07-26T18:29:21Z</time></trkpt>
<trkpt lat="35.182943" lon="-84.872035"><ele>248.7</ele><time>2026-07-26T18:29:23Z</time></trkpt>
<trkpt lat="35.18292" lon="-84.872058"><ele>248.4</ele><time>2026-07-26T18:29:25Z</time></trkpt>
<trkpt lat="35.182898" lon="-84.872078"><ele>248.7</ele><time>2026-07-26T18:29:27Z</time></trkpt>
<trkpt lat="35.182875" lon="-84.872098"><ele>248.7</ele><time>2026-07-26T18:29:29Z</time></trkpt>
<trkpt lat="35.182853" lon="-84.87212"><ele>248.4</ele><time>2026-07-26T18:29:31Z</time></trkpt>
<trkpt lat="35.182832" lon="-84.872146"><ele>248.1</ele><time>2026-07-26T18:29:33Z</time></trkpt>
<trkpt lat="35.182811" lon="-84.872169"><ele>247.8</ele><time>2026-07-26T18:29:35Z</time></trkpt>
<trkpt lat="35.182792" lon="-84.872195"><ele>248.1</ele><time>2026-07-26T18:29:37Z</time></trkpt>
<trkpt lat="35.182773" lon="-84.872224"><ele>248.7</ele><time>2026-07-26T18:29:39Z</time></trkpt>
<trkpt lat="35.18276" lon="-84.872257"><ele>248.4</ele><time>2026-07-26T18:29:41Z</time></trkpt>
<trkpt lat="35.182737" lon="-84.872298"><ele>247.2</ele><time>2026-07-26T18:29:44Z</time></trkpt>
<trkpt lat="35.182715" lon="-84.872339"><ele>247.2</ele><time>2026-07-26T18:29:47Z</time></trkpt>
<trkpt lat="35.182698" lon="-84.872367"><ele>246.3</ele><time>2026-07-26T18:29:49Z</time></trkpt>
<trkpt lat="35.182681" lon="-84.872396"><ele>246.3</ele><time>2026-07-26T18:29:51Z</time></trkpt>
<trkpt lat="35.182662" lon="-84.87242"><ele>246.3</ele><time>2026-07-26T18:29:53Z</time></trkpt>
<trkpt lat="35.182632" lon="-84.872456"><ele>245.7</ele><time>2026-07-26T18:29:56Z</time></trkpt>
<trkpt lat="35.182609" lon="-84.872476"><ele>245.4</ele><time>2026-07-26T18:29:58Z</time></trkpt>
<trkpt lat="35.182587" lon="-84.872499"><ele>245.7</ele><time>2026-07-26T18:30:00Z</time></trkpt>
<trkpt lat="35.182567" lon="-84.872523"><ele>245.4</ele><time>2026-07-26T18:30:02Z</time></trkpt>
<trkpt lat="35.182547" lon="-84.87255"><ele>245.1</ele><time>2026-07-26T18:30:04Z</time></trkpt>
<trkpt lat="35.182527" lon="-84.872574"><ele>245.1</ele><time>2026-07-26T18:30:06Z</time></trkpt>
<trkpt lat="35.182505" lon="-84.872598"><ele>245.1</ele><time>2026-07-26T18:30:08Z</time></trkpt>
<trkpt lat="35.182485" lon="-84.872622"><ele>245.1</ele><time>2026-07-26T18:30:10Z</time></trkpt>
<trkpt lat="35.182463" lon="-84.872644"><ele>245.4</ele><time>2026-07-26T18:30:12Z</time></trkpt>
<trkpt lat="35.182438" lon="-84.872662"><ele>245.4</ele><time>2026-07-26T18:30:14Z</time></trkpt>
<trkpt lat="35.182402" lon="-84.872682"><ele>245.1</ele><time>2026-07-26T18:30:17Z</time></trkpt>
<trkpt lat="35.182379" lon="-84.872702"><ele>244.8</ele><time>2026-07-26T18:30:19Z</time></trkpt>
<trkpt lat="35.182357" lon="-84.872722"><ele>244.8</ele><time>2026-07-26T18:30:21Z</time></trkpt>
<trkpt lat="35.182322" lon="-84.872748"><ele>244.4</ele><time>2026-07-26T18:30:24Z</time></trkpt>
<trkpt lat="35.182297" lon="-84.872766"><ele>243.8</ele><time>2026-07-26T18:30:26Z</time></trkpt>
<trkpt lat="35.182272" lon="-84.872786"><ele>243.5</ele><time>2026-07-26T18:30:28Z</time></trkpt>
<trkpt lat="35.18225" lon="-84.872811"><ele>240.5</ele><time>2026-07-26T18:30:30Z</time></trkpt>
<trkpt lat="35.182232" lon="-84.87284"><ele>242.3</ele><time>2026-07-26T18:30:32Z</time></trkpt>
<trkpt lat="35.182211" lon="-84.872867"><ele>243.5</ele><time>2026-07-26T18:30:34Z</time></trkpt>
<trkpt lat="35.182187" lon="-84.872888"><ele>243.8</ele><time>2026-07-26T18:30:36Z</time></trkpt>
<trkpt lat="35.182151" lon="-84.872908"><ele>244.1</ele><time>2026-07-26T18:30:39Z</time></trkpt>
<trkpt lat="35.182113" lon="-84.872907"><ele>244.4</ele><time>2026-07-26T18:30:42Z</time></trkpt>
<trkpt lat="35.182111" lon="-84.872893"><ele>243.5</ele><time>2026-07-26T18:30:46Z</time></trkpt>
<trkpt lat="35.182114" lon="-84.872897"><ele>243.5</ele><time>2026-07-26T18:30:47Z</time></trkpt>
<trkpt lat="35.182115" lon="-84.872898"><ele>243.5</ele><time>2026-07-26T18:30:48Z</time></trkpt>
<trkpt lat="35.182115" lon="-84.872903"><ele>243.2</ele><time>2026-07-26T18:30:49Z</time></trkpt>
<trkpt lat="35.182108" lon="-84.872913"><ele>243.5</ele><time>2026-07-26T18:30:51Z</time></trkpt>
<trkpt lat="35.182111" lon="-84.872915"><ele>243.5</ele><time>2026-07-26T18:30:52Z</time></trkpt>
<trkpt lat="35.182107" lon="-84.872918"><ele>243.5</ele><time>2026-07-26T18:30:53Z</time></trkpt>
<trkpt lat="35.182095" lon="-84.872921"><ele>243.8</ele><time>2026-07-26T18:30:56Z</time></trkpt>
<trkpt lat="35.182098" lon="-84.87292"><ele>243.8</ele><time>2026-07-26T18:30:57Z</time></trkpt>
<trkpt lat="35.182094" lon="-84.87292"><ele>243.5</ele><time>2026-07-26T18:30:58Z</time></trkpt>
<trkpt lat="35.182078" lon="-84.872918"><ele>244.4</ele><time>2026-07-26T18:31:01Z</time></trkpt>
<trkpt lat="35.182081" lon="-84.872919"><ele>244.4</ele><time>2026-07-26T18:31:02Z</time></trkpt>
<trkpt lat="35.18208" lon="-84.872919"><ele>244.1</ele><time>2026-07-26T18:31:03Z</time></trkpt>
<trkpt lat="35.182057" lon="-84.872899"><ele>245.1</ele><time>2026-07-26T18:31:06Z</time></trkpt>
<trkpt lat="35.182075" lon="-84.872865"><ele>245.4</ele><time>2026-07-26T18:31:09Z</time></trkpt>
<trkpt lat="35.18208" lon="-84.872866"><ele>245.1</ele><time>2026-07-26T18:31:10Z</time></trkpt>
<trkpt lat="35.182087" lon="-84.872856"><ele>244.8</ele><time>2026-07-26T18:31:11Z</time></trkpt>
<trkpt lat="35.182113" lon="-84.872834"><ele>245.1</ele><time>2026-07-26T18:31:14Z</time></trkpt>
<trkpt lat="35.182116" lon="-84.872837"><ele>245.4</ele><time>2026-07-26T18:31:15Z</time></trkpt>
<trkpt lat="35.182118" lon="-84.87284"><ele>245.4</ele><time>2026-07-26T18:31:16Z</time></trkpt>
<trkpt lat="35.182121" lon="-84.872838"><ele>244.8</ele><time>2026-07-26T18:31:17Z</time></trkpt>
<trkpt lat="35.182148" lon="-84.872837"><ele>244.8</ele><time>2026-07-26T18:31:21Z</time></trkpt>
<trkpt lat="35.182147" lon="-84.872841"><ele>244.8</ele><time>2026-07-26T18:31:22Z</time></trkpt>
<trkpt lat="35.182148" lon="-84.872843"><ele>244.8</ele><time>2026-07-26T18:31:23Z</time></trkpt>
<trkpt lat="35.182148" lon="-84.872843"><ele>244.8</ele><time>2026-07-26T18:31:24Z</time></trkpt>
<trkpt lat="35.182149" lon="-84.872844"><ele>244.8</ele><time>2026-07-26T18:31:25Z</time></trkpt>
<trkpt lat="35.182147" lon="-84.872847"><ele>244.8</ele><time>2026-07-26T18:31:26Z</time></trkpt>
<trkpt lat="35.182111" lon="-84.87284"><ele>244.8</ele><time>2026-07-26T18:31:29Z</time></trkpt>
<trkpt lat="35.182086" lon="-84.87287"><ele>244.4</ele><time>2026-07-26T18:31:32Z</time></trkpt>
<trkpt lat="35.182076" lon="-84.872902"><ele>244.1</ele><time>2026-07-26T18:31:34Z</time></trkpt>
<trkpt lat="35.182066" lon="-84.872935"><ele>244.8</ele><time>2026-07-26T18:31:36Z</time></trkpt>
<trkpt lat="35.18204" lon="-84.872966"><ele>245.1</ele><time>2026-07-26T18:31:39Z</time></trkpt>
<trkpt lat="35.182002" lon="-84.872977"><ele>245.7</ele><time>2026-07-26T18:31:42Z</time></trkpt>
<trkpt lat="35.181974" lon="-84.872985"><ele>246.0</ele><time>2026-07-26T18:31:44Z</time></trkpt>
<trkpt lat="35.181948" lon="-84.873"><ele>246.0</ele><time>2026-07-26T18:31:46Z</time></trkpt>
<trkpt lat="35.181923" lon="-84.873016"><ele>246.0</ele><time>2026-07-26T18:31:48Z</time></trkpt>
<trkpt lat="35.181893" lon="-84.873029"><ele>246.9</ele><time>2026-07-26T18:31:50Z</time></trkpt>
<trkpt lat="35.181866" lon="-84.873046"><ele>246.6</ele><time>2026-07-26T18:31:52Z</time></trkpt>
<trkpt lat="35.181854" lon="-84.873056"><ele>246.6</ele><time>2026-07-26T18:31:53Z</time></trkpt>
<trkpt lat="35.181867" lon="-84.873051"><ele>246.3</ele><time>2026-07-26T18:31:54Z</time></trkpt>
<trkpt lat="35.181872" lon="-84.873049"><ele>246.3</ele><time>2026-07-26T18:32:02Z</time></trkpt>
<trkpt lat="35.18187" lon="-84.873049"><ele>246.3</ele><time>2026-07-26T18:32:03Z</time></trkpt>
<trkpt lat="35.181846" lon="-84.87308"><ele>246.0</ele><time>2026-07-26T18:32:06Z</time></trkpt>
<trkpt lat="35.181819" lon="-84.873098"><ele>246.6</ele><time>2026-07-26T18:32:08Z</time></trkpt>
<trkpt lat="35.181787" lon="-84.873113"><ele>245.7</ele><time>2026-07-26T18:32:11Z</time></trkpt>
<trkpt lat="35.181752" lon="-84.873133"><ele>246.0</ele><time>2026-07-26T18:32:14Z</time></trkpt>
<trkpt lat="35.181717" lon="-84.873147"><ele>246.0</ele><time>2026-07-26T18:32:17Z</time></trkpt>
<trkpt lat="35.181684" lon="-84.873158"><ele>246.3</ele><time>2026-07-26T18:32:20Z</time></trkpt>
<trkpt lat="35.181659" lon="-84.873183"><ele>246.0</ele><time>2026-07-26T18:32:23Z</time></trkpt>
<trkpt lat="35.181626" lon="-84.873201"><ele>246.3</ele><time>2026-07-26T18:32:29Z</time></trkpt>
<trkpt lat="35.181597" lon="-84.873211"><ele>246.3</ele><time>2026-07-26T18:32:32Z</time></trkpt>
<trkpt lat="35.181581" lon="-84.873223"><ele>247.2</ele><time>2026-07-26T18:32:35Z</time></trkpt>
<trkpt lat="35.181581" lon="-84.873226"><ele>246.9</ele><time>2026-07-26T18:32:36Z</time></trkpt>
<trkpt lat="35.181582" lon="-84.873227"><ele>246.6</ele><time>2026-07-26T18:32:41Z</time></trkpt>
<trkpt lat="35.181581" lon="-84.873227"><ele>246.3</ele><time>2026-07-26T18:32:42Z</time></trkpt>
<trkpt lat="35.181579" lon="-84.873226"><ele>245.4</ele><time>2026-07-26T18:32:43Z</time></trkpt>
<trkpt lat="35.181579" lon="-84.873225"><ele>245.4</ele><time>2026-07-26T18:32:44Z</time></trkpt>
<trkpt lat="35.18158" lon="-84.873224"><ele>245.4</ele><time>2026-07-26T18:32:47Z</time></trkpt>
<trkpt lat="35.181584" lon="-84.873222"><ele>245.4</ele><time>2026-07-26T18:32:48Z</time></trkpt>
<trkpt lat="35.181587" lon="-84.87322"><ele>245.4</ele><time>2026-07-26T18:32:49Z</time></trkpt>
<trkpt lat="35.181588" lon="-84.873219"><ele>245.4</ele><time>2026-07-26T18:32:51Z</time></trkpt>
<trkpt lat="35.181587" lon="-84.873218"><ele>245.4</ele><time>2026-07-26T18:32:52Z</time></trkpt>
<trkpt lat="35.181586" lon="-84.873219"><ele>245.4</ele><time>2026-07-26T18:32:53Z</time></trkpt>
<trkpt lat="35.181585" lon="-84.87322"><ele>245.4</ele><time>2026-07-26T18:32:54Z</time></trkpt>
<trkpt lat="35.181586" lon="-84.873219"><ele>245.1</ele><time>2026-07-26T18:32:55Z</time></trkpt>
<trkpt lat="35.181587" lon="-84.873219"><ele>245.1</ele><time>2026-07-26T18:32:56Z</time></trkpt>
<trkpt lat="35.181587" lon="-84.873219"><ele>245.1</ele><time>2026-07-26T18:33:02Z</time></trkpt>
<trkpt lat="35.181583" lon="-84.873217"><ele>245.1</ele><time>2026-07-26T18:33:03Z</time></trkpt>
<trkpt lat="35.181566" lon="-84.87325"><ele>245.7</ele><time>2026-07-26T18:33:07Z</time></trkpt>
<trkpt lat="35.181576" lon="-84.873252"><ele>245.4</ele><time>2026-07-26T18:33:08Z</time></trkpt>
<trkpt lat="35.181581" lon="-84.873254"><ele>245.4</ele><time>2026-07-26T18:33:11Z</time></trkpt>
<trkpt lat="35.181584" lon="-84.873252"><ele>245.4</ele><time>2026-07-26T18:33:12Z</time></trkpt>
<trkpt lat="35.181582" lon="-84.873255"><ele>245.7</ele><time>2026-07-26T18:33:13Z</time></trkpt>
<trkpt lat="35.181581" lon="-84.873256"><ele>245.4</ele><time>2026-07-26T18:33:16Z</time></trkpt>
<trkpt lat="35.18157" lon="-84.873218"><ele>243.8</ele><time>2026-07-26T18:33:17Z</time></trkpt>
<trkpt lat="35.181527" lon="-84.873216"><ele>244.1</ele><time>2026-07-26T18:33:21Z</time></trkpt>
<trkpt lat="35.181492" lon="-84.873234"><ele>244.8</ele><time>2026-07-26T18:33:23Z</time></trkpt>
<trkpt lat="35.181462" lon="-84.873246"><ele>245.1</ele><time>2026-07-26T18:33:24Z</time></trkpt>
<trkpt lat="35.18144" lon="-84.873266"><ele>244.8</ele><time>2026-07-26T18:33:26Z</time></trkpt>
<trkpt lat="35.181418" lon="-84.873293"><ele>244.8</ele><time>2026-07-26T18:33:28Z</time></trkpt>
<trkpt lat="35.181384" lon="-84.873313"><ele>246.0</ele><time>2026-07-26T18:33:30Z</time></trkpt>
<trkpt lat="35.18135" lon="-84.873338"><ele>246.0</ele><time>2026-07-26T18:33:33Z</time></trkpt>
<trkpt lat="35.181321" lon="-84.873371"><ele>246.0</ele><time>2026-07-26T18:33:36Z</time></trkpt>
<trkpt lat="35.181295" lon="-84.873381"><ele>246.9</ele><time>2026-07-26T18:33:38Z</time></trkpt>
<trkpt lat="35.18126" lon="-84.873397"><ele>247.2</ele><time>2026-07-26T18:33:42Z</time></trkpt>
<trkpt lat="35.181229" lon="-84.873415"><ele>247.2</ele><time>2026-07-26T18:33:45Z</time></trkpt>
<trkpt lat="35.181202" lon="-84.873429"><ele>247.5</ele><time>2026-07-26T18:33:47Z</time></trkpt>
<trkpt lat="35.181174" lon="-84.873446"><ele>246.6</ele><time>2026-07-26T18:33:49Z</time></trkpt>
<trkpt lat="35.181148" lon="-84.873462"><ele>246.9</ele><time>2026-07-26T18:33:51Z</time></trkpt>
<trkpt lat="35.181122" lon="-84.87348"><ele>246.6</ele><time>2026-07-26T18:33:54Z</time></trkpt>
<trkpt lat="35.181086" lon="-84.873502"><ele>246.9</ele><time>2026-07-26T18:33:57Z</time></trkpt>
<trkpt lat="35.181046" lon="-84.873518"><ele>247.5</ele><time>2026-07-26T18:34:00Z</time></trkpt>
<trkpt lat="35.181017" lon="-84.873528"><ele>247.8</ele><time>2026-07-26T18:34:02Z</time></trkpt>
<trkpt lat="35.18099" lon="-84.873539"><ele>248.4</ele><time>2026-07-26T18:34:04Z</time></trkpt>
<trkpt lat="35.180951" lon="-84.873554"><ele>248.7</ele><time>2026-07-26T18:34:07Z</time></trkpt>
<trkpt lat="35.180923" lon="-84.873565"><ele>249.0</ele><time>2026-07-26T18:34:09Z</time></trkpt>
<trkpt lat="35.180896" lon="-84.873576"><ele>248.4</ele><time>2026-07-26T18:34:11Z</time></trkpt>
<trkpt lat="35.18087" lon="-84.87359"><ele>248.1</ele><time>2026-07-26T18:34:13Z</time></trkpt>
<trkpt lat="35.180844" lon="-84.873604"><ele>248.1</ele><time>2026-07-26T18:34:15Z</time></trkpt>
<trkpt lat="35.180803" lon="-84.873619"><ele>248.1</ele><time>2026-07-26T18:34:18Z</time></trkpt>
<trkpt lat="35.180767" lon="-84.873645"><ele>247.8</ele><time>2026-07-26T18:34:21Z</time></trkpt>
<trkpt lat="35.180745" lon="-84.873673"><ele>246.9</ele><time>2026-07-26T18:34:23Z</time></trkpt>
<trkpt lat="35.180712" lon="-84.873689"><ele>247.2</ele><time>2026-07-26T18:34:26Z</time></trkpt>
<trkpt lat="35.180688" lon="-84.873705"><ele>247.8</ele><time>2026-07-26T18:34:28Z</time></trkpt>
<trkpt lat="35.18066" lon="-84.873717"><ele>248.1</ele><time>2026-07-26T18:34:30Z</time></trkpt>
<trkpt lat="35.180623" lon="-84.87374"><ele>247.5</ele><time>2026-07-26T18:34:33Z</time></trkpt>
<trkpt lat="35.180599" lon="-84.873759"><ele>247.2</ele><time>2026-07-26T18:34:35Z</time></trkpt>
<trkpt lat="35.180571" lon="-84.87378"><ele>247.2</ele><time>2026-07-26T18:34:37Z</time></trkpt>
<trkpt lat="35.180546" lon="-84.873804"><ele>246.9</ele><time>2026-07-26T18:34:39Z</time></trkpt>
<trkpt lat="35.180522" lon="-84.873822"><ele>246.6</ele><time>2026-07-26T18:34:41Z</time></trkpt>
<trkpt lat="35.180483" lon="-84.873839"><ele>247.2</ele><time>2026-07-26T18:34:44Z</time></trkpt>
<trkpt lat="35.180445" lon="-84.873856"><ele>246.9</ele><time>2026-07-26T18:34:47Z</time></trkpt>
<trkpt lat="35.180419" lon="-84.873871"><ele>247.5</ele><time>2026-07-26T18:34:49Z</time></trkpt>
<trkpt lat="35.180393" lon="-84.873887"><ele>247.2</ele><time>2026-07-26T18:34:51Z</time></trkpt>
<trkpt lat="35.180365" lon="-84.873902"><ele>247.2</ele><time>2026-07-26T18:34:53Z</time></trkpt>
<trkpt lat="35.180337" lon="-84.873913"><ele>247.2</ele><time>2026-07-26T18:34:55Z</time></trkpt>
<trkpt lat="35.180309" lon="-84.873924"><ele>247.5</ele><time>2026-07-26T18:34:57Z</time></trkpt>
<trkpt lat="35.180282" lon="-84.873938"><ele>247.5</ele><time>2026-07-26T18:34:59Z</time></trkpt>
<trkpt lat="35.180252" lon="-84.87395"><ele>247.2</ele><time>2026-07-26T18:35:01Z</time></trkpt>
<trkpt lat="35.180224" lon="-84.873961"><ele>246.9</ele><time>2026-07-26T18:35:03Z</time></trkpt>
<trkpt lat="35.180195" lon="-84.873962"><ele>246.9</ele><time>2026-07-26T18:35:05Z</time></trkpt>
<trkpt lat="35.180171" lon="-84.873981"><ele>245.4</ele><time>2026-07-26T18:35:07Z</time></trkpt>
<trkpt lat="35.180143" lon="-84.873991"><ele>246.0</ele><time>2026-07-26T18:35:09Z</time></trkpt>
<trkpt lat="35.180116" lon="-84.873999"><ele>245.1</ele><time>2026-07-26T18:35:11Z</time></trkpt>
<trkpt lat="35.180087" lon="-84.874009"><ele>245.4</ele><time>2026-07-26T18:35:13Z</time></trkpt>
<trkpt lat="35.180059" lon="-84.874022"><ele>246.3</ele><time>2026-07-26T18:35:15Z</time></trkpt>
<trkpt lat="35.180032" lon="-84.874039"><ele>246.6</ele><time>2026-07-26T18:35:17Z</time></trkpt>
<trkpt lat="35.179999" lon="-84.874069"><ele>246.0</ele><time>2026-07-26T18:35:20Z</time></trkpt>
<trkpt lat="35.179966" lon="-84.874098"><ele>245.7</ele><time>2026-07-26T18:35:23Z</time></trkpt>
<trkpt lat="35.179928" lon="-84.87412"><ele>245.7</ele><time>2026-07-26T18:35:26Z</time></trkpt>
<trkpt lat="35.179903" lon="-84.874135"><ele>246.0</ele><time>2026-07-26T18:35:28Z</time></trkpt>
<trkpt lat="35.179867" lon="-84.874148"><ele>246.3</ele><time>2026-07-26T18:35:31Z</time></trkpt>
<trkpt lat="35.179826" lon="-84.874156"><ele>246.3</ele><time>2026-07-26T18:35:34Z</time></trkpt>
<trkpt lat="35.179798" lon="-84.874172"><ele>247.5</ele><time>2026-07-26T18:35:36Z</time></trkpt>
<trkpt lat="35.179771" lon="-84.874185"><ele>247.2</ele><time>2026-07-26T18:35:38Z</time></trkpt>
<trkpt lat="35.179734" lon="-84.874207"><ele>247.2</ele><time>2026-07-26T18:35:41Z</time></trkpt>
<trkpt lat="35.179706" lon="-84.874221"><ele>247.8</ele><time>2026-07-26T18:35:43Z</time></trkpt>
<trkpt lat="35.179678" lon="-84.87423"><ele>248.1</ele><time>2026-07-26T18:35:45Z</time></trkpt>
<trkpt lat="35.179638" lon="-84.874248"><ele>248.4</ele><time>2026-07-26T18:35:48Z</time></trkpt>
<trkpt lat="35.179609" lon="-84.874249"><ele>249.0</ele><time>2026-07-26T18:35:50Z</time></trkpt>
<trkpt lat="35.179579" lon="-84.874251"><ele>249.6</ele><time>2026-07-26T18:35:52Z</time></trkpt>
<trkpt lat="35.179548" lon="-84.874245"><ele>250.2</ele><time>2026-07-26T18:35:54Z</time></trkpt>
<trkpt lat="35.179519" lon="-84.874242"><ele>249.6</ele><time>2026-07-26T18:35:56Z</time></trkpt>
<trkpt lat="35.179477" lon="-84.87424"><ele>248.7</ele><time>2026-07-26T18:35:59Z</time></trkpt>
<trkpt lat="35.179447" lon="-84.874244"><ele>247.8</ele><time>2026-07-26T18:36:01Z</time></trkpt>
<trkpt lat="35.179419" lon="-84.874264"><ele>246.9</ele><time>2026-07-26T18:36:03Z</time></trkpt>
<trkpt lat="35.179398" lon="-84.874288"><ele>246.0</ele><time>2026-07-26T18:36:05Z</time></trkpt>
<trkpt lat="35.179376" lon="-84.874315"><ele>245.7</ele><time>2026-07-26T18:36:07Z</time></trkpt>
<trkpt lat="35.179352" lon="-84.874335"><ele>245.7</ele><time>2026-07-26T18:36:09Z</time></trkpt>
<trkpt lat="35.179324" lon="-84.87435"><ele>246.3</ele><time>2026-07-26T18:36:11Z</time></trkpt>
<trkpt lat="35.179297" lon="-84.874363"><ele>246.3</ele><time>2026-07-26T18:36:13Z</time></trkpt>
<trkpt lat="35.17927" lon="-84.874371"><ele>247.2</ele><time>2026-07-26T18:36:15Z</time></trkpt>
<trkpt lat="35.179239" lon="-84.87439"><ele>245.7</ele><time>2026-07-26T18:36:18Z</time></trkpt>
<trkpt lat="35.179214" lon="-84.874421"><ele>247.2</ele><time>2026-07-26T18:36:21Z</time></trkpt>
<trkpt lat="35.17919" lon="-84.874443"><ele>248.1</ele><time>2026-07-26T18:36:23Z</time></trkpt>
<trkpt lat="35.179149" lon="-84.87446"><ele>248.7</ele><time>2026-07-26T18:36:25Z</time></trkpt>
<trkpt lat="35.179121" lon="-84.874465"><ele>247.8</ele><time>2026-07-26T18:36:27Z</time></trkpt>
<trkpt lat="35.179091" lon="-84.874471"><ele>247.8</ele><time>2026-07-26T18:36:29Z</time></trkpt>
<trkpt lat="35.17906" lon="-84.874483"><ele>248.7</ele><time>2026-07-26T18:36:31Z</time></trkpt>
<trkpt lat="35.179036" lon="-84.874513"><ele>248.7</ele><time>2026-07-26T18:36:33Z</time></trkpt>
<trkpt lat="35.17901" lon="-84.874546"><ele>249.0</ele><time>2026-07-26T18:36:35Z</time></trkpt>
<trkpt lat="35.178982" lon="-84.874557"><ele>248.7</ele><time>2026-07-26T18:36:37Z</time></trkpt>
<trkpt lat="35.17895" lon="-84.874565"><ele>249.6</ele><time>2026-07-26T18:36:39Z</time></trkpt>
<trkpt lat="35.178916" lon="-84.874561"><ele>249.0</ele><time>2026-07-26T18:36:41Z</time></trkpt>
<trkpt lat="35.178879" lon="-84.874573"><ele>248.4</ele><time>2026-07-26T18:36:44Z</time></trkpt>
<trkpt lat="35.178846" lon="-84.874599"><ele>246.9</ele><time>2026-07-26T18:36:47Z</time></trkpt>
<trkpt lat="35.178817" lon="-84.874614"><ele>246.9</ele><time>2026-07-26T18:36:49Z</time></trkpt>
<trkpt lat="35.178788" lon="-84.874631"><ele>246.0</ele><time>2026-07-26T18:36:51Z</time></trkpt>
<trkpt lat="35.178759" lon="-84.874634"><ele>245.7</ele><time>2026-07-26T18:36:53Z</time></trkpt>
<trkpt lat="35.178731" lon="-84.874644"><ele>245.7</ele><time>2026-07-26T18:36:55Z</time></trkpt>
<trkpt lat="35.178701" lon="-84.874657"><ele>245.4</ele><time>2026-07-26T18:36:57Z</time></trkpt>
<trkpt lat="35.178668" lon="-84.874665"><ele>244.1</ele><time>2026-07-26T18:36:59Z</time></trkpt>
<trkpt lat="35.17864" lon="-84.874681"><ele>244.1</ele><time>2026-07-26T18:37:01Z</time></trkpt>
<trkpt lat="35.178606" lon="-84.874693"><ele>243.8</ele><time>2026-07-26T18:37:03Z</time></trkpt>
<trkpt lat="35.178578" lon="-84.874703"><ele>243.8</ele><time>2026-07-26T18:37:05Z</time></trkpt>
<trkpt lat="35.17855" lon="-84.874715"><ele>243.5</ele><time>2026-07-26T18:37:07Z</time></trkpt>
<trkpt lat="35.178523" lon="-84.874737"><ele>243.2</ele><time>2026-07-26T18:37:09Z</time></trkpt>
<trkpt lat="35.178502" lon="-84.874769"><ele>243.2</ele><time>2026-07-26T18:37:11Z</time></trkpt>
<trkpt lat="35.178489" lon="-84.874804"><ele>244.8</ele><time>2026-07-26T18:37:13Z</time></trkpt>
<trkpt lat="35.178471" lon="-84.874833"><ele>245.1</ele><time>2026-07-26T18:37:15Z</time></trkpt>
<trkpt lat="35.178443" lon="-84.87485"><ele>245.4</ele><time>2026-07-26T18:37:17Z</time></trkpt>
<trkpt lat="35.178413" lon="-84.874867"><ele>246.6</ele><time>2026-07-26T18:37:19Z</time></trkpt>
<trkpt lat="35.178384" lon="-84.874881"><ele>246.6</ele><time>2026-07-26T18:37:21Z</time></trkpt>
<trkpt lat="35.178355" lon="-84.874893"><ele>246.6</ele><time>2026-07-26T18:37:23Z</time></trkpt>
<trkpt lat="35.178328" lon="-84.874916"><ele>247.2</ele><time>2026-07-26T18:37:25Z</time></trkpt>
<trkpt lat="35.178302" lon="-84.874934"><ele>248.7</ele><time>2026-07-26T18:37:27Z</time></trkpt>
<trkpt lat="35.178274" lon="-84.874945"><ele>247.5</ele><time>2026-07-26T18:37:29Z</time></trkpt>
<trkpt lat="35.178244" lon="-84.874953"><ele>246.9</ele><time>2026-07-26T18:37:31Z</time></trkpt>
<trkpt lat="35.178215" lon="-84.874963"><ele>246.3</ele><time>2026-07-26T18:37:33Z</time></trkpt>
<trkpt lat="35.178189" lon="-84.87498"><ele>246.0</ele><time>2026-07-26T18:37:35Z</time></trkpt>
<trkpt lat="35.178149" lon="-84.874998"><ele>244.1</ele><time>2026-07-26T18:37:38Z</time></trkpt>
<trkpt lat="35.178118" lon="-84.875013"><ele>244.1</ele><time>2026-07-26T18:37:40Z</time></trkpt>
<trkpt lat="35.178088" lon="-84.875024"><ele>245.1</ele><time>2026-07-26T18:37:42Z</time></trkpt>
<trkpt lat="35.178064" lon="-84.87505"><ele>245.1</ele><time>2026-07-26T18:37:44Z</time></trkpt>
<trkpt lat="35.178039" lon="-84.87507"><ele>245.4</ele><time>2026-07-26T18:37:46Z</time></trkpt>
<trkpt lat="35.17801" lon="-84.875082"><ele>246.6</ele><time>2026-07-26T18:37:48Z</time></trkpt>
<trkpt lat="35.177982" lon="-84.875094"><ele>246.0</ele><time>2026-07-26T18:37:50Z</time></trkpt>
<trkpt lat="35.177954" lon="-84.875106"><ele>247.5</ele><time>2026-07-26T18:37:52Z</time></trkpt>
<trkpt lat="35.177928" lon="-84.87512"><ele>245.7</ele><time>2026-07-26T18:37:54Z</time></trkpt>
<trkpt lat="35.177902" lon="-84.875134"><ele>245.1</ele><time>2026-07-26T18:37:56Z</time></trkpt>
<trkpt lat="35.177873" lon="-84.875148"><ele>244.8</ele><time>2026-07-26T18:37:58Z</time></trkpt>
<trkpt lat="35.177848" lon="-84.875163"><ele>245.7</ele><time>2026-07-26T18:38:00Z</time></trkpt>
<trkpt lat="35.177822" lon="-84.875178"><ele>246.3</ele><time>2026-07-26T18:38:02Z</time></trkpt>
<trkpt lat="35.177793" lon="-84.875195"><ele>246.0</ele><time>2026-07-26T18:38:04Z</time></trkpt>
<trkpt lat="35.177768" lon="-84.875211"><ele>245.1</ele><time>2026-07-26T18:38:06Z</time></trkpt>
<trkpt lat="35.17774" lon="-84.875221"><ele>245.1</ele><time>2026-07-26T18:38:08Z</time></trkpt>
<trkpt lat="35.177713" lon="-84.875235"><ele>245.1</ele><time>2026-07-26T18:38:10Z</time></trkpt>
<trkpt lat="35.177685" lon="-84.875246"><ele>245.1</ele><time>2026-07-26T18:38:12Z</time></trkpt>
<trkpt lat="35.177654" lon="-84.875259"><ele>245.7</ele><time>2026-07-26T18:38:14Z</time></trkpt>
<trkpt lat="35.177627" lon="-84.875279"><ele>246.9</ele><time>2026-07-26T18:38:16Z</time></trkpt>
<trkpt lat="35.177595" lon="-84.875293"><ele>245.4</ele><time>2026-07-26T18:38:18Z</time></trkpt>
<trkpt lat="35.177565" lon="-84.875309"><ele>245.1</ele><time>2026-07-26T18:38:20Z</time></trkpt>
<trkpt lat="35.17754" lon="-84.875325"><ele>245.7</ele><time>2026-07-26T18:38:22Z</time></trkpt>
<trkpt lat="35.177505" lon="-84.875344"><ele>246.6</ele><time>2026-07-26T18:38:25Z</time></trkpt>
<trkpt lat="35.177469" lon="-84.87536"><ele>245.7</ele><time>2026-07-26T18:38:28Z</time></trkpt>
<trkpt lat="35.177442" lon="-84.875373"><ele>245.4</ele><time>2026-07-26T18:38:30Z</time></trkpt>
<trkpt lat="35.177414" lon="-84.875378"><ele>244.1</ele><time>2026-07-26T18:38:32Z</time></trkpt>
<trkpt lat="35.177386" lon="-84.875388"><ele>244.8</ele><time>2026-07-26T18:38:34Z</time></trkpt>
<trkpt lat="35.177361" lon="-84.875405"><ele>244.4</ele><time>2026-07-26T18:38:36Z</time></trkpt>
<trkpt lat="35.177336" lon="-84.875419"><ele>245.1</ele><time>2026-07-26T18:38:38Z</time></trkpt>
<trkpt lat="35.177307" lon="-84.875424"><ele>244.4</ele><time>2026-07-26T18:38:40Z</time></trkpt>
<trkpt lat="35.177281" lon="-84.875432"><ele>244.4</ele><time>2026-07-26T18:38:42Z</time></trkpt>
<trkpt lat="35.177252" lon="-84.875442"><ele>243.2</ele><time>2026-07-26T18:38:44Z</time></trkpt>
<trkpt lat="35.177224" lon="-84.875455"><ele>243.8</ele><time>2026-07-26T18:38:46Z</time></trkpt>
<trkpt lat="35.1772" lon="-84.875478"><ele>243.8</ele><time>2026-07-26T18:38:48Z</time></trkpt>
<trkpt lat="35.177183" lon="-84.87551"><ele>244.1</ele><time>2026-07-26T18:38:50Z</time></trkpt>
<trkpt lat="35.177179" lon="-84.875548"><ele>244.4</ele><time>2026-07-26T18:38:52Z</time></trkpt>
<trkpt lat="35.17719" lon="-84.875587"><ele>246.3</ele><time>2026-07-26T18:38:54Z</time></trkpt>
<trkpt lat="35.177212" lon="-84.875617"><ele>246.6</ele><time>2026-07-26T18:38:56Z</time></trkpt>
<trkpt lat="35.177236" lon="-84.875646"><ele>246.0</ele><time>2026-07-26T18:38:58Z</time></trkpt>
<trkpt lat="35.177255" lon="-84.875676"><ele>246.0</ele><time>2026-07-26T18:39:00Z</time></trkpt>
<trkpt lat="35.177257" lon="-84.875711"><ele>246.6</ele><time>2026-07-26T18:39:02Z</time></trkpt>
<trkpt lat="35.177238" lon="-84.875743"><ele>248.7</ele><time>2026-07-26T18:39:04Z</time></trkpt>
<trkpt lat="35.177212" lon="-84.875762"><ele>248.4</ele><time>2026-07-26T18:39:06Z</time></trkpt>
<trkpt lat="35.177185" lon="-84.87578"><ele>248.1</ele><time>2026-07-26T18:39:08Z</time></trkpt>
<trkpt lat="35.177157" lon="-84.875787"><ele>246.9</ele><time>2026-07-26T18:39:10Z</time></trkpt>
<trkpt lat="35.177128" lon="-84.875797"><ele>246.0</ele><time>2026-07-26T18:39:12Z</time></trkpt>
<trkpt lat="35.177093" lon="-84.87582"><ele>246.6</ele><time>2026-07-26T18:39:15Z</time></trkpt>
<trkpt lat="35.17706" lon="-84.875847"><ele>246.9</ele><time>2026-07-26T18:39:18Z</time></trkpt>
<trkpt lat="35.177033" lon="-84.875861"><ele>246.6</ele><time>2026-07-26T18:39:20Z</time></trkpt>
<trkpt lat="35.176999" lon="-84.875885"><ele>246.3</ele><time>2026-07-26T18:39:23Z</time></trkpt>
<trkpt lat="35.176961" lon="-84.875908"><ele>245.1</ele><time>2026-07-26T18:39:26Z</time></trkpt>
<trkpt lat="35.176938" lon="-84.875927"><ele>244.4</ele><time>2026-07-26T18:39:28Z</time></trkpt>
<trkpt lat="35.176908" lon="-84.875959"><ele>244.8</ele><time>2026-07-26T18:39:31Z</time></trkpt>
<trkpt lat="35.176887" lon="-84.875981"><ele>245.4</ele><time>2026-07-26T18:39:33Z</time></trkpt>
<trkpt lat="35.176865" lon="-84.876003"><ele>245.7</ele><time>2026-07-26T18:39:35Z</time></trkpt>
<trkpt lat="35.176841" lon="-84.876024"><ele>245.4</ele><time>2026-07-26T18:39:37Z</time></trkpt>
<trkpt lat="35.176817" lon="-84.876042"><ele>244.8</ele><time>2026-07-26T18:39:39Z</time></trkpt>
<trkpt lat="35.176791" lon="-84.876054"><ele>243.8</ele><time>2026-07-26T18:39:41Z</time></trkpt>
<trkpt lat="35.176767" lon="-84.876071"><ele>244.4</ele><time>2026-07-26T18:39:43Z</time></trkpt>
<trkpt lat="35.17673" lon="-84.876095"><ele>245.4</ele><time>2026-07-26T18:39:46Z</time></trkpt>
<trkpt lat="35.176707" lon="-84.876113"><ele>245.4</ele><time>2026-07-26T18:39:48Z</time></trkpt>
<trkpt lat="35.176669" lon="-84.876136"><ele>245.7</ele><time>2026-07-26T18:39:51Z</time></trkpt>
<trkpt lat="35.176644" lon="-84.876154"><ele>244.8</ele><time>2026-07-26T18:39:53Z</time></trkpt>
<trkpt lat="35.176622" lon="-84.876176"><ele>245.7</ele><time>2026-07-26T18:39:55Z</time></trkpt>
<trkpt lat="35.176597" lon="-84.876189"><ele>245.7</ele><time>2026-07-26T18:39:57Z</time></trkpt>
<trkpt lat="35.176571" lon="-84.876203"><ele>245.1</ele><time>2026-07-26T18:39:59Z</time></trkpt>
<trkpt lat="35.176545" lon="-84.876214"><ele>245.4</ele><time>2026-07-26T18:40:01Z</time></trkpt>
<trkpt lat="35.176507" lon="-84.876232"><ele>245.7</ele><time>2026-07-26T18:40:04Z</time></trkpt>
<trkpt lat="35.176482" lon="-84.876247"><ele>246.3</ele><time>2026-07-26T18:40:06Z</time></trkpt>
<trkpt lat="35.176456" lon="-84.876262"><ele>245.7</ele><time>2026-07-26T18:40:08Z</time></trkpt>
<trkpt lat="35.176431" lon="-84.876281"><ele>245.1</ele><time>2026-07-26T18:40:10Z</time></trkpt>
<trkpt lat="35.176395" lon="-84.876301"><ele>245.1</ele><time>2026-07-26T18:40:13Z</time></trkpt>
<trkpt lat="35.176368" lon="-84.876311"><ele>245.4</ele><time>2026-07-26T18:40:15Z</time></trkpt>
<trkpt lat="35.176341" lon="-84.876326"><ele>245.1</ele><time>2026-07-26T18:40:17Z</time></trkpt>
<trkpt lat="35.176304" lon="-84.876347"><ele>245.4</ele><time>2026-07-26T18:40:20Z</time></trkpt>
<trkpt lat="35.176279" lon="-84.876361"><ele>246.6</ele><time>2026-07-26T18:40:22Z</time></trkpt>
<trkpt lat="35.176255" lon="-84.876379"><ele>246.0</ele><time>2026-07-26T18:40:24Z</time></trkpt>
<trkpt lat="35.17623" lon="-84.876394"><ele>246.3</ele><time>2026-07-26T18:40:26Z</time></trkpt>
<trkpt lat="35.176191" lon="-84.876413"><ele>246.3</ele><time>2026-07-26T18:40:29Z</time></trkpt>
<trkpt lat="35.176164" lon="-84.876421"><ele>245.7</ele><time>2026-07-26T18:40:31Z</time></trkpt>
<trkpt lat="35.176136" lon="-84.876433"><ele>246.0</ele><time>2026-07-26T18:40:33Z</time></trkpt>
<trkpt lat="35.17611" lon="-84.876447"><ele>245.1</ele><time>2026-07-26T18:40:35Z</time></trkpt>
<trkpt lat="35.176082" lon="-84.876461"><ele>245.1</ele><time>2026-07-26T18:40:37Z</time></trkpt>
<trkpt lat="35.176056" lon="-84.876479"><ele>244.8</ele><time>2026-07-26T18:40:39Z</time></trkpt>
<trkpt lat="35.176028" lon="-84.876493"><ele>244.1</ele><time>2026-07-26T18:40:41Z</time></trkpt>
<trkpt lat="35.176" lon="-84.876508"><ele>244.4</ele><time>2026-07-26T18:40:43Z</time></trkpt>
<trkpt lat="35.17597" lon="-84.876528"><ele>244.1</ele><time>2026-07-26T18:40:45Z</time></trkpt>
<trkpt lat="35.175939" lon="-84.876551"><ele>245.4</ele><time>2026-07-26T18:40:47Z</time></trkpt>
<trkpt lat="35.175907" lon="-84.876565"><ele>244.4</ele><time>2026-07-26T18:40:49Z</time></trkpt>
<trkpt lat="35.175875" lon="-84.876578"><ele>244.1</ele><time>2026-07-26T18:40:51Z</time></trkpt>
<trkpt lat="35.175847" lon="-84.876594"><ele>244.8</ele><time>2026-07-26T18:40:53Z</time></trkpt>
<trkpt lat="35.175818" lon="-84.876611"><ele>244.4</ele><time>2026-07-26T18:40:55Z</time></trkpt>
<trkpt lat="35.17579" lon="-84.87663"><ele>243.8</ele><time>2026-07-26T18:40:57Z</time></trkpt>
<trkpt lat="35.17576" lon="-84.876643"><ele>244.4</ele><time>2026-07-26T18:40:59Z</time></trkpt>
<trkpt lat="35.175732" lon="-84.87666"><ele>244.4</ele><time>2026-07-26T18:41:01Z</time></trkpt>
<trkpt lat="35.175703" lon="-84.876678"><ele>244.8</ele><time>2026-07-26T18:41:03Z</time></trkpt>
<trkpt lat="35.175673" lon="-84.876696"><ele>244.8</ele><time>2026-07-26T18:41:05Z</time></trkpt>
<trkpt lat="35.175649" lon="-84.876719"><ele>243.8</ele><time>2026-07-26T18:41:07Z</time></trkpt>
<trkpt lat="35.17562" lon="-84.876732"><ele>244.1</ele><time>2026-07-26T18:41:09Z</time></trkpt>
<trkpt lat="35.17559" lon="-84.876744"><ele>243.5</ele><time>2026-07-26T18:41:11Z</time></trkpt>
<trkpt lat="35.175561" lon="-84.876757"><ele>243.2</ele><time>2026-07-26T18:41:13Z</time></trkpt>
<trkpt lat="35.175531" lon="-84.876772"><ele>243.8</ele><time>2026-07-26T18:41:15Z</time></trkpt>
<trkpt lat="35.175504" lon="-84.876787"><ele>245.1</ele><time>2026-07-26T18:41:17Z</time></trkpt>
<trkpt lat="35.175477" lon="-84.876803"><ele>244.8</ele><time>2026-07-26T18:41:19Z</time></trkpt>
<trkpt lat="35.175451" lon="-84.876821"><ele>245.7</ele><time>2026-07-26T18:41:21Z</time></trkpt>
<trkpt lat="35.175424" lon="-84.876838"><ele>247.2</ele><time>2026-07-26T18:41:23Z</time></trkpt>
<trkpt lat="35.175397" lon="-84.876856"><ele>248.1</ele><time>2026-07-26T18:41:25Z</time></trkpt>
<trkpt lat="35.175369" lon="-84.876875"><ele>249.0</ele><time>2026-07-26T18:41:27Z</time></trkpt>
<trkpt lat="35.175341" lon="-84.876887"><ele>249.3</ele><time>2026-07-26T18:41:29Z</time></trkpt>
<trkpt lat="35.175315" lon="-84.876902"><ele>249.9</ele><time>2026-07-26T18:41:31Z</time></trkpt>
<trkpt lat="35.175287" lon="-84.876913"><ele>249.0</ele><time>2026-07-26T18:41:33Z</time></trkpt>
<trkpt lat="35.17526" lon="-84.876922"><ele>247.8</ele><time>2026-07-26T18:41:35Z</time></trkpt>
<trkpt lat="35.175231" lon="-84.876933"><ele>247.8</ele><time>2026-07-26T18:41:37Z</time></trkpt>
<trkpt lat="35.175201" lon="-84.876945"><ele>246.6</ele><time>2026-07-26T18:41:39Z</time></trkpt>
<trkpt lat="35.175173" lon="-84.876956"><ele>246.6</ele><time>2026-07-26T18:41:41Z</time></trkpt>
<trkpt lat="35.175144" lon="-84.876973"><ele>246.3</ele><time>2026-07-26T18:41:43Z</time></trkpt>
<trkpt lat="35.175115" lon="-84.876981"><ele>244.4</ele><time>2026-07-26T18:41:45Z</time></trkpt>
<trkpt lat="35.175087" lon="-84.876995"><ele>243.8</ele><time>2026-07-26T18:41:47Z</time></trkpt>
<trkpt lat="35.175062" lon="-84.87701"><ele>243.5</ele><time>2026-07-26T18:41:49Z</time></trkpt>
<trkpt lat="35.175034" lon="-84.877009"><ele>243.5</ele><time>2026-07-26T18:41:51Z</time></trkpt>
<trkpt lat="35.175" lon="-84.877011"><ele>244.4</ele><time>2026-07-26T18:41:53Z</time></trkpt>
<trkpt lat="35.174974" lon="-84.877037"><ele>243.5</ele><time>2026-07-26T18:41:55Z</time></trkpt>
<trkpt lat="35.174949" lon="-84.877061"><ele>242.9</ele><time>2026-07-26T18:41:57Z</time></trkpt>
<trkpt lat="35.174927" lon="-84.877082"><ele>242.3</ele><time>2026-07-26T18:41:59Z</time></trkpt>
<trkpt lat="35.174904" lon="-84.87711"><ele>242.9</ele><time>2026-07-26T18:42:01Z</time></trkpt>
<trkpt lat="35.174879" lon="-84.877131"><ele>243.5</ele><time>2026-07-26T18:42:03Z</time></trkpt>
<trkpt lat="35.174852" lon="-84.877149"><ele>242.6</ele><time>2026-07-26T18:42:05Z</time></trkpt>
<trkpt lat="35.174825" lon="-84.877166"><ele>242.9</ele><time>2026-07-26T18:42:07Z</time></trkpt>
<trkpt lat="35.174801" lon="-84.877187"><ele>243.8</ele><time>2026-07-26T18:42:09Z</time></trkpt>
<trkpt lat="35.17478" lon="-84.877209"><ele>245.7</ele><time>2026-07-26T18:42:11Z</time></trkpt>
<trkpt lat="35.174755" lon="-84.877227"><ele>245.7</ele><time>2026-07-26T18:42:13Z</time></trkpt>
<trkpt lat="35.174729" lon="-84.877245"><ele>245.7</ele><time>2026-07-26T18:42:15Z</time></trkpt>
<trkpt lat="35.174701" lon="-84.877259"><ele>244.4</ele><time>2026-07-26T18:42:17Z</time></trkpt>
<trkpt lat="35.174677" lon="-84.877282"><ele>244.8</ele><time>2026-07-26T18:42:19Z</time></trkpt>
<trkpt lat="35.174654" lon="-84.877307"><ele>246.3</ele><time>2026-07-26T18:42:21Z</time></trkpt>
<trkpt lat="35.17463" lon="-84.877332"><ele>246.9</ele><time>2026-07-26T18:42:23Z</time></trkpt>
<trkpt lat="35.174605" lon="-84.877353"><ele>246.0</ele><time>2026-07-26T18:42:25Z</time></trkpt>
<trkpt lat="35.174577" lon="-84.877369"><ele>246.3</ele><time>2026-07-26T18:42:27Z</time></trkpt>
<trkpt lat="35.174553" lon="-84.877389"><ele>246.9</ele><time>2026-07-26T18:42:29Z</time></trkpt>
<trkpt lat="35.174529" lon="-84.87741"><ele>246.9</ele><time>2026-07-26T18:42:31Z</time></trkpt>
<trkpt lat="35.174506" lon="-84.877435"><ele>246.9</ele><time>2026-07-26T18:42:33Z</time></trkpt>
<trkpt lat="35.174478" lon="-84.877446"><ele>246.0</ele><time>2026-07-26T18:42:35Z</time></trkpt>
<trkpt lat="35.174452" lon="-84.877459"><ele>246.6</ele><time>2026-07-26T18:42:37Z</time></trkpt>
<trkpt lat="35.174423" lon="-84.877469"><ele>246.9</ele><time>2026-07-26T18:42:39Z</time></trkpt>
<trkpt lat="35.174397" lon="-84.877479"><ele>246.3</ele><time>2026-07-26T18:42:41Z</time></trkpt>
<trkpt lat="35.17437" lon="-84.877496"><ele>246.0</ele><time>2026-07-26T18:42:43Z</time></trkpt>
<trkpt lat="35.17434" lon="-84.877511"><ele>246.0</ele><time>2026-07-26T18:42:45Z</time></trkpt>
<trkpt lat="35.174312" lon="-84.877523"><ele>246.6</ele><time>2026-07-26T18:42:47Z</time></trkpt>
<trkpt lat="35.174285" lon="-84.877539"><ele>246.6</ele><time>2026-07-26T18:42:49Z</time></trkpt>
<trkpt lat="35.17426" lon="-84.877556"><ele>247.2</ele><time>2026-07-26T18:42:51Z</time></trkpt>
<trkpt lat="35.174221" lon="-84.877573"><ele>248.4</ele><time>2026-07-26T18:42:54Z</time></trkpt>
<trkpt lat="35.174196" lon="-84.877586"><ele>248.4</ele><time>2026-07-26T18:42:56Z</time></trkpt>
<trkpt lat="35.17417" lon="-84.877601"><ele>249.0</ele><time>2026-07-26T18:42:58Z</time></trkpt>
<trkpt lat="35.174143" lon="-84.877615"><ele>248.4</ele><time>2026-07-26T18:43:00Z</time></trkpt>
<trkpt lat="35.174118" lon="-84.877631"><ele>245.4</ele><time>2026-07-26T18:43:02Z</time></trkpt>
<trkpt lat="35.174094" lon="-84.877649"><ele>245.4</ele><time>2026-07-26T18:43:04Z</time></trkpt>
<trkpt lat="35.174068" lon="-84.87766"><ele>246.0</ele><time>2026-07-26T18:43:06Z</time></trkpt>
<trkpt lat="35.174041" lon="-84.877666"><ele>246.0</ele><time>2026-07-26T18:43:08Z</time></trkpt>
<trkpt lat="35.174002" lon="-84.877682"><ele>244.8</ele><time>2026-07-26T18:43:11Z</time></trkpt>
<trkpt lat="35.173964" lon="-84.877699"><ele>242.6</ele><time>2026-07-26T18:43:14Z</time></trkpt>
<trkpt lat="35.173929" lon="-84.877716"><ele>242.6</ele><time>2026-07-26T18:43:17Z</time></trkpt>
<trkpt lat="35.1739" lon="-84.877722"><ele>243.5</ele><time>2026-07-26T18:43:19Z</time></trkpt>
<trkpt lat="35.173873" lon="-84.877737"><ele>244.1</ele><time>2026-07-26T18:43:21Z</time></trkpt>
<trkpt lat="35.173847" lon="-84.877756"><ele>244.4</ele><time>2026-07-26T18:43:23Z</time></trkpt>
<trkpt lat="35.17382" lon="-84.877775"><ele>243.8</ele><time>2026-07-26T18:43:25Z</time></trkpt>
<trkpt lat="35.173793" lon="-84.877793"><ele>244.4</ele><time>2026-07-26T18:43:27Z</time></trkpt>
<trkpt lat="35.173766" lon="-84.877806"><ele>245.4</ele><time>2026-07-26T18:43:29Z</time></trkpt>
<trkpt lat="35.17374" lon="-84.877819"><ele>246.0</ele><time>2026-07-26T18:43:31Z</time></trkpt>
<trkpt lat="35.173714" lon="-84.877833"><ele>245.1</ele><time>2026-07-26T18:43:33Z</time></trkpt>
<trkpt lat="35.17369" lon="-84.87785"><ele>246.0</ele><time>2026-07-26T18:43:35Z</time></trkpt>
<trkpt lat="35.173665" lon="-84.877867"><ele>245.4</ele><time>2026-07-26T18:43:37Z</time></trkpt>
<trkpt lat="35.173638" lon="-84.877882"><ele>245.4</ele><time>2026-07-26T18:43:39Z</time></trkpt>
<trkpt lat="35.173613" lon="-84.877899"><ele>245.7</ele><time>2026-07-26T18:43:41Z</time></trkpt>
<trkpt lat="35.173588" lon="-84.877917"><ele>246.0</ele><time>2026-07-26T18:43:43Z</time></trkpt>
<trkpt lat="35.173562" lon="-84.877934"><ele>246.3</ele><time>2026-07-26T18:43:45Z</time></trkpt>
<trkpt lat="35.173536" lon="-84.87795"><ele>246.3</ele><time>2026-07-26T18:43:47Z</time></trkpt>
<trkpt lat="35.17351" lon="-84.877966"><ele>246.6</ele><time>2026-07-26T18:43:49Z</time></trkpt>
<trkpt lat="35.173483" lon="-84.877981"><ele>246.9</ele><time>2026-07-26T18:43:51Z</time></trkpt>
<trkpt lat="35.173446" lon="-84.877999"><ele>247.2</ele><time>2026-07-26T18:43:54Z</time></trkpt>
<trkpt lat="35.173419" lon="-84.878011"><ele>247.8</ele><time>2026-07-26T18:43:56Z</time></trkpt>
<trkpt lat="35.173392" lon="-84.878025"><ele>247.5</ele><time>2026-07-26T18:43:58Z</time></trkpt>
<trkpt lat="35.173364" lon="-84.878045"><ele>247.5</ele><time>2026-07-26T18:44:00Z</time></trkpt>
<trkpt lat="35.173338" lon="-84.878065"><ele>248.1</ele><time>2026-07-26T18:44:02Z</time></trkpt>
<trkpt lat="35.173311" lon="-84.878084"><ele>247.5</ele><time>2026-07-26T18:44:04Z</time></trkpt>
<trkpt lat="35.173283" lon="-84.878094"><ele>247.5</ele><time>2026-07-26T18:44:06Z</time></trkpt>
<trkpt lat="35.173258" lon="-84.878124"><ele>248.1</ele><time>2026-07-26T18:44:08Z</time></trkpt>
<trkpt lat="35.173234" lon="-84.878142"><ele>246.6</ele><time>2026-07-26T18:44:10Z</time></trkpt>
<trkpt lat="35.173211" lon="-84.878162"><ele>247.8</ele><time>2026-07-26T18:44:12Z</time></trkpt>
<trkpt lat="35.173182" lon="-84.878193"><ele>249.3</ele><time>2026-07-26T18:44:15Z</time></trkpt>
<trkpt lat="35.173152" lon="-84.878209"><ele>249.3</ele><time>2026-07-26T18:44:17Z</time></trkpt>
<trkpt lat="35.17312" lon="-84.878217"><ele>249.0</ele><time>2026-07-26T18:44:19Z</time></trkpt>
<trkpt lat="35.173089" lon="-84.878229"><ele>248.4</ele><time>2026-07-26T18:44:21Z</time></trkpt>
<trkpt lat="35.173057" lon="-84.878244"><ele>249.0</ele><time>2026-07-26T18:44:23Z</time></trkpt>
<trkpt lat="35.173026" lon="-84.878259"><ele>248.4</ele><time>2026-07-26T18:44:25Z</time></trkpt>
<trkpt lat="35.172998" lon="-84.878279"><ele>248.4</ele><time>2026-07-26T18:44:27Z</time></trkpt>
<trkpt lat="35.172966" lon="-84.878297"><ele>247.8</ele><time>2026-07-26T18:44:29Z</time></trkpt>
<trkpt lat="35.172941" lon="-84.878312"><ele>247.8</ele><time>2026-07-26T18:44:31Z</time></trkpt>
<trkpt lat="35.172913" lon="-84.878341"><ele>249.0</ele><time>2026-07-26T18:44:34Z</time></trkpt>
<trkpt lat="35.172882" lon="-84.878374"><ele>249.9</ele><time>2026-07-26T18:44:37Z</time></trkpt>
<trkpt lat="35.172858" lon="-84.878391"><ele>250.2</ele><time>2026-07-26T18:44:39Z</time></trkpt>
<trkpt lat="35.172835" lon="-84.878411"><ele>251.2</ele><time>2026-07-26T18:44:41Z</time></trkpt>
<trkpt lat="35.172805" lon="-84.878424"><ele>249.6</ele><time>2026-07-26T18:44:43Z</time></trkpt>
<trkpt lat="35.172771" lon="-84.878429"><ele>248.4</ele><time>2026-07-26T18:44:45Z</time></trkpt>
<trkpt lat="35.172733" lon="-84.878429"><ele>248.1</ele><time>2026-07-26T18:44:47Z</time></trkpt>
<trkpt lat="35.172704" lon="-84.878431"><ele>247.2</ele><time>2026-07-26T18:44:48Z</time></trkpt>
<trkpt lat="35.172652" lon="-84.878446"><ele>246.0</ele><time>2026-07-26T18:44:50Z</time></trkpt>
<trkpt lat="35.1726" lon="-84.878467"><ele>245.7</ele><time>2026-07-26T18:44:52Z</time></trkpt>
<trkpt lat="35.172552" lon="-84.878496"><ele>243.2</ele><time>2026-07-26T18:44:54Z</time></trkpt>
<trkpt lat="35.172531" lon="-84.878529"><ele>243.5</ele><time>2026-07-26T18:44:55Z</time></trkpt>
<trkpt lat="35.172514" lon="-84.878559"><ele>243.5</ele><time>2026-07-26T18:44:56Z</time></trkpt>
<trkpt lat="35.172495" lon="-84.878587"><ele>244.8</ele><time>2026-07-26T18:44:57Z</time></trkpt>
<trkpt lat="35.172471" lon="-84.878613"><ele>245.1</ele><time>2026-07-26T18:44:58Z</time></trkpt>
<trkpt lat="35.172427" lon="-84.878651"><ele>245.4</ele><time>2026-07-26T18:45:00Z</time></trkpt>
<trkpt lat="35.172383" lon="-84.878681"><ele>246.3</ele><time>2026-07-26T18:45:02Z</time></trkpt>
<trkpt lat="35.172353" lon="-84.878702"><ele>246.3</ele><time>2026-07-26T18:45:04Z</time></trkpt>
<trkpt lat="35.172326" lon="-84.87872"><ele>246.9</ele><time>2026-07-26T18:45:06Z</time></trkpt>
<trkpt lat="35.172299" lon="-84.878742"><ele>248.1</ele><time>2026-07-26T18:45:08Z</time></trkpt>
<trkpt lat="35.172273" lon="-84.878754"><ele>247.5</ele><time>2026-07-26T18:45:10Z</time></trkpt>
<trkpt lat="35.172241" lon="-84.87877"><ele>246.9</ele><time>2026-07-26T18:45:12Z</time></trkpt>
<trkpt lat="35.172211" lon="-84.878787"><ele>247.5</ele><time>2026-07-26T18:45:14Z</time></trkpt>
<trkpt lat="35.172182" lon="-84.878802"><ele>248.1</ele><time>2026-07-26T18:45:16Z</time></trkpt>
<trkpt lat="35.172153" lon="-84.878815"><ele>249.0</ele><time>2026-07-26T18:45:18Z</time></trkpt>
<trkpt lat="35.172123" lon="-84.878829"><ele>250.9</ele><time>2026-07-26T18:45:20Z</time></trkpt>
<trkpt lat="35.172095" lon="-84.878838"><ele>251.2</ele><time>2026-07-26T18:45:22Z</time></trkpt>
<trkpt lat="35.172066" lon="-84.878846"><ele>251.5</ele><time>2026-07-26T18:45:24Z</time></trkpt>
<trkpt lat="35.172036" lon="-84.878853"><ele>252.4</ele><time>2026-07-26T18:45:26Z</time></trkpt>
<trkpt lat="35.172006" lon="-84.878863"><ele>252.7</ele><time>2026-07-26T18:45:28Z</time></trkpt>
<trkpt lat="35.171976" lon="-84.878874"><ele>253.0</ele><time>2026-07-26T18:45:30Z</time></trkpt>
<trkpt lat="35.171945" lon="-84.878886"><ele>253.6</ele><time>2026-07-26T18:45:32Z</time></trkpt>
<trkpt lat="35.171912" lon="-84.87888"><ele>251.8</ele><time>2026-07-26T18:45:34Z</time></trkpt>
<trkpt lat="35.171884" lon="-84.878893"><ele>250.2</ele><time>2026-07-26T18:45:36Z</time></trkpt>
<trkpt lat="35.171852" lon="-84.878897"><ele>249.9</ele><time>2026-07-26T18:45:38Z</time></trkpt>
<trkpt lat="35.17182" lon="-84.878899"><ele>250.9</ele><time>2026-07-26T18:45:40Z</time></trkpt>
<trkpt lat="35.171788" lon="-84.878897"><ele>250.9</ele><time>2026-07-26T18:45:42Z</time></trkpt>
<trkpt lat="35.171758" lon="-84.878903"><ele>253.3</ele><time>2026-07-26T18:45:44Z</time></trkpt>
<trkpt lat="35.171731" lon="-84.878935"><ele>251.8</ele><time>2026-07-26T18:45:46Z</time></trkpt>
<trkpt lat="35.171706" lon="-84.878971"><ele>250.9</ele><time>2026-07-26T18:45:48Z</time></trkpt>
<trkpt lat="35.171678" lon="-84.878993"><ele>249.3</ele><time>2026-07-26T18:45:50Z</time></trkpt>
<trkpt lat="35.17165" lon="-84.87901"><ele>247.2</ele><time>2026-07-26T18:45:52Z</time></trkpt>
<trkpt lat="35.171624" lon="-84.87903"><ele>247.2</ele><time>2026-07-26T18:45:54Z</time></trkpt>
<trkpt lat="35.171596" lon="-84.879044"><ele>247.5</ele><time>2026-07-26T18:45:56Z</time></trkpt>
<trkpt lat="35.171568" lon="-84.879061"><ele>247.2</ele><time>2026-07-26T18:45:58Z</time></trkpt>
<trkpt lat="35.171542" lon="-84.879076"><ele>247.2</ele><time>2026-07-26T18:46:00Z</time></trkpt>
<trkpt lat="35.171513" lon="-84.879087"><ele>247.8</ele><time>2026-07-26T18:46:02Z</time></trkpt>
<trkpt lat="35.171482" lon="-84.879099"><ele>248.1</ele><time>2026-07-26T18:46:04Z</time></trkpt>
<trkpt lat="35.171453" lon="-84.879113"><ele>246.9</ele><time>2026-07-26T18:46:06Z</time></trkpt>
<trkpt lat="35.171423" lon="-84.879125"><ele>246.6</ele><time>2026-07-26T18:46:08Z</time></trkpt>
<trkpt lat="35.171395" lon="-84.879144"><ele>247.2</ele><time>2026-07-26T18:46:10Z</time></trkpt>
<trkpt lat="35.171361" lon="-84.879139"><ele>247.5</ele><time>2026-07-26T18:46:12Z</time></trkpt>
<trkpt lat="35.171324" lon="-84.879156"><ele>247.5</ele><time>2026-07-26T18:46:15Z</time></trkpt>
<trkpt lat="35.171296" lon="-84.879169"><ele>246.9</ele><time>2026-07-26T18:46:17Z</time></trkpt>
<trkpt lat="35.171269" lon="-84.879185"><ele>247.2</ele><time>2026-07-26T18:46:19Z</time></trkpt>
<trkpt lat="35.171244" lon="-84.879202"><ele>247.2</ele><time>2026-07-26T18:46:21Z</time></trkpt>
<trkpt lat="35.171216" lon="-84.879213"><ele>247.5</ele><time>2026-07-26T18:46:23Z</time></trkpt>
<trkpt lat="35.171186" lon="-84.879227"><ele>247.8</ele><time>2026-07-26T18:46:25Z</time></trkpt>
<trkpt lat="35.171156" lon="-84.879241"><ele>248.4</ele><time>2026-07-26T18:46:27Z</time></trkpt>
<trkpt lat="35.171128" lon="-84.879256"><ele>248.7</ele><time>2026-07-26T18:46:29Z</time></trkpt>
<trkpt lat="35.171099" lon="-84.879269"><ele>249.0</ele><time>2026-07-26T18:46:31Z</time></trkpt>
<trkpt lat="35.171069" lon="-84.879282"><ele>249.0</ele><time>2026-07-26T18:46:33Z</time></trkpt>
<trkpt lat="35.171039" lon="-84.879296"><ele>249.0</ele><time>2026-07-26T18:46:35Z</time></trkpt>
<trkpt lat="35.171011" lon="-84.879309"><ele>249.3</ele><time>2026-07-26T18:46:37Z</time></trkpt>
<trkpt lat="35.170984" lon="-84.879323"><ele>249.6</ele><time>2026-07-26T18:46:39Z</time></trkpt>
<trkpt lat="35.170958" lon="-84.879334"><ele>249.6</ele><time>2026-07-26T18:46:41Z</time></trkpt>
<trkpt lat="35.170928" lon="-84.879347"><ele>249.9</ele><time>2026-07-26T18:46:43Z</time></trkpt>
<trkpt lat="35.170899" lon="-84.879355"><ele>249.3</ele><time>2026-07-26T18:46:45Z</time></trkpt>
<trkpt lat="35.170868" lon="-84.87936"><ele>249.6</ele><time>2026-07-26T18:46:47Z</time></trkpt>
<trkpt lat="35.170838" lon="-84.879372"><ele>249.6</ele><time>2026-07-26T18:46:49Z</time></trkpt>
<trkpt lat="35.170814" lon="-84.8794"><ele>248.4</ele><time>2026-07-26T18:46:51Z</time></trkpt>
<trkpt lat="35.170777" lon="-84.879411"><ele>248.1</ele><time>2026-07-26T18:46:54Z</time></trkpt>
<trkpt lat="35.170749" lon="-84.879417"><ele>247.5</ele><time>2026-07-26T18:46:56Z</time></trkpt>
<trkpt lat="35.170719" lon="-84.879429"><ele>246.9</ele><time>2026-07-26T18:46:58Z</time></trkpt>
<trkpt lat="35.170688" lon="-84.879442"><ele>247.2</ele><time>2026-07-26T18:47:00Z</time></trkpt>
<trkpt lat="35.170662" lon="-84.879457"><ele>246.9</ele><time>2026-07-26T18:47:02Z</time></trkpt>
<trkpt lat="35.170627" lon="-84.879468"><ele>247.5</ele><time>2026-07-26T18:47:04Z</time></trkpt>
<trkpt lat="35.170596" lon="-84.879485"><ele>248.4</ele><time>2026-07-26T18:47:06Z</time></trkpt>
<trkpt lat="35.170569" lon="-84.879498"><ele>248.4</ele><time>2026-07-26T18:47:08Z</time></trkpt>
<trkpt lat="35.170537" lon="-84.879513"><ele>248.7</ele><time>2026-07-26T18:47:10Z</time></trkpt>
<trkpt lat="35.170507" lon="-84.879528"><ele>249.6</ele><time>2026-07-26T18:47:12Z</time></trkpt>
<trkpt lat="35.170476" lon="-84.879536"><ele>251.2</ele><time>2026-07-26T18:47:14Z</time></trkpt>
<trkpt lat="35.170446" lon="-84.879531"><ele>250.9</ele><time>2026-07-26T18:47:16Z</time></trkpt>
<trkpt lat="35.170419" lon="-84.879519"><ele>250.5</ele><time>2026-07-26T18:47:18Z</time></trkpt>
<trkpt lat="35.170393" lon="-84.879501"><ele>249.6</ele><time>2026-07-26T18:47:20Z</time></trkpt>
<trkpt lat="35.170366" lon="-84.879477"><ele>249.6</ele><time>2026-07-26T18:47:22Z</time></trkpt>
<trkpt lat="35.170343" lon="-84.879454"><ele>249.0</ele><time>2026-07-26T18:47:24Z</time></trkpt>
<trkpt lat="35.170317" lon="-84.879436"><ele>249.0</ele><time>2026-07-26T18:47:26Z</time></trkpt>
<trkpt lat="35.170289" lon="-84.87942"><ele>249.0</ele><time>2026-07-26T18:47:28Z</time></trkpt>
<trkpt lat="35.170261" lon="-84.879398"><ele>247.2</ele><time>2026-07-26T18:47:30Z</time></trkpt>
<trkpt lat="35.170236" lon="-84.879372"><ele>247.5</ele><time>2026-07-26T18:47:32Z</time></trkpt>
<trkpt lat="35.170211" lon="-84.879345"><ele>247.5</ele><time>2026-07-26T18:47:34Z</time></trkpt>
<trkpt lat="35.170191" lon="-84.879314"><ele>246.6</ele><time>2026-07-26T18:47:36Z</time></trkpt>
<trkpt lat="35.170155" lon="-84.879288"><ele>246.9</ele><time>2026-07-26T18:47:39Z</time></trkpt>
<trkpt lat="35.170121" lon="-84.879295"><ele>246.9</ele><time>2026-07-26T18:47:41Z</time></trkpt>
<trkpt lat="35.170086" lon="-84.879314"><ele>247.5</ele><time>2026-07-26T18:47:43Z</time></trkpt>
<trkpt lat="35.170057" lon="-84.879333"><ele>246.9</ele><time>2026-07-26T18:47:45Z</time></trkpt>
<trkpt lat="35.170029" lon="-84.879353"><ele>246.3</ele><time>2026-07-26T18:47:47Z</time></trkpt>
<trkpt lat="35.170001" lon="-84.879368"><ele>246.9</ele><time>2026-07-26T18:47:49Z</time></trkpt>
<trkpt lat="35.169974" lon="-84.879386"><ele>248.4</ele><time>2026-07-26T18:47:51Z</time></trkpt>
<trkpt lat="35.169944" lon="-84.8794"><ele>247.8</ele><time>2026-07-26T18:47:53Z</time></trkpt>
<trkpt lat="35.169916" lon="-84.879419"><ele>246.9</ele><time>2026-07-26T18:47:55Z</time></trkpt>
<trkpt lat="35.169891" lon="-84.879438"><ele>247.2</ele><time>2026-07-26T18:47:57Z</time></trkpt>
<trkpt lat="35.169864" lon="-84.879442"><ele>245.7</ele><time>2026-07-26T18:47:59Z</time></trkpt>
<trkpt lat="35.169835" lon="-84.879446"><ele>245.7</ele><time>2026-07-26T18:48:01Z</time></trkpt>
<trkpt lat="35.169806" lon="-84.879454"><ele>244.8</ele><time>2026-07-26T18:48:03Z</time></trkpt>
<trkpt lat="35.16978" lon="-84.879476"><ele>245.4</ele><time>2026-07-26T18:48:05Z</time></trkpt>
<trkpt lat="35.169752" lon="-84.879492"><ele>246.0</ele><time>2026-07-26T18:48:07Z</time></trkpt>
<trkpt lat="35.169718" lon="-84.879497"><ele>246.3</ele><time>2026-07-26T18:48:09Z</time></trkpt>
<trkpt lat="35.16969" lon="-84.879521"><ele>245.7</ele><time>2026-07-26T18:48:11Z</time></trkpt>
<trkpt lat="35.16966" lon="-84.879535"><ele>246.9</ele><time>2026-07-26T18:48:13Z</time></trkpt>
<trkpt lat="35.169628" lon="-84.879541"><ele>248.7</ele><time>2026-07-26T18:48:15Z</time></trkpt>
<trkpt lat="35.1696" lon="-84.879561"><ele>248.4</ele><time>2026-07-26T18:48:17Z</time></trkpt>
<trkpt lat="35.169574" lon="-84.879578"><ele>250.5</ele><time>2026-07-26T18:48:19Z</time></trkpt>
<trkpt lat="35.169545" lon="-84.879588"><ele>252.1</ele><time>2026-07-26T18:48:21Z</time></trkpt>
<trkpt lat="35.169514" lon="-84.879595"><ele>252.4</ele><time>2026-07-26T18:48:23Z</time></trkpt>
<trkpt lat="35.169482" lon="-84.879607"><ele>252.7</ele><time>2026-07-26T18:48:25Z</time></trkpt>
<trkpt lat="35.16945" lon="-84.8796"><ele>253.3</ele><time>2026-07-26T18:48:27Z</time></trkpt>
<trkpt lat="35.169419" lon="-84.879608"><ele>253.0</ele><time>2026-07-26T18:48:29Z</time></trkpt>
<trkpt lat="35.169389" lon="-84.879616"><ele>253.6</ele><time>2026-07-26T18:48:31Z</time></trkpt>
<trkpt lat="35.169357" lon="-84.879616"><ele>254.2</ele><time>2026-07-26T18:48:33Z</time></trkpt>
<trkpt lat="35.169326" lon="-84.879604"><ele>253.0</ele><time>2026-07-26T18:48:35Z</time></trkpt>
<trkpt lat="35.169298" lon="-84.879597"><ele>253.6</ele><time>2026-07-26T18:48:37Z</time></trkpt>
<trkpt lat="35.169267" lon="-84.879593"><ele>252.1</ele><time>2026-07-26T18:48:41Z</time></trkpt>
<trkpt lat="35.169234" lon="-84.879584"><ele>252.4</ele><time>2026-07-26T18:48:44Z</time></trkpt>
<trkpt lat="35.169198" lon="-84.879589"><ele>252.1</ele><time>2026-07-26T18:48:47Z</time></trkpt>
<trkpt lat="35.169168" lon="-84.879588"><ele>252.4</ele><time>2026-07-26T18:48:49Z</time></trkpt>
<trkpt lat="35.169141" lon="-84.8796"><ele>252.4</ele><time>2026-07-26T18:48:51Z</time></trkpt>
<trkpt lat="35.169111" lon="-84.879614"><ele>252.7</ele><time>2026-07-26T18:48:53Z</time></trkpt>
<trkpt lat="35.16908" lon="-84.879627"><ele>252.4</ele><time>2026-07-26T18:48:55Z</time></trkpt>
<trkpt lat="35.169054" lon="-84.879644"><ele>251.5</ele><time>2026-07-26T18:48:57Z</time></trkpt>
<trkpt lat="35.169017" lon="-84.87966"><ele>251.2</ele><time>2026-07-26T18:48:59Z</time></trkpt>
<trkpt lat="35.168976" lon="-84.879668"><ele>250.2</ele><time>2026-07-26T18:49:02Z</time></trkpt>
<trkpt lat="35.168945" lon="-84.87967"><ele>250.2</ele><time>2026-07-26T18:49:04Z</time></trkpt>
<trkpt lat="35.168905" lon="-84.879658"><ele>250.2</ele><time>2026-07-26T18:49:07Z</time></trkpt>
<trkpt lat="35.168871" lon="-84.879653"><ele>250.5</ele><time>2026-07-26T18:49:09Z</time></trkpt>
<trkpt lat="35.168839" lon="-84.879645"><ele>250.5</ele><time>2026-07-26T18:49:11Z</time></trkpt>
<trkpt lat="35.168809" lon="-84.879641"><ele>250.9</ele><time>2026-07-26T18:49:13Z</time></trkpt>
<trkpt lat="35.168776" lon="-84.879641"><ele>251.2</ele><time>2026-07-26T18:49:15Z</time></trkpt>
<trkpt lat="35.168748" lon="-84.879633"><ele>250.2</ele><time>2026-07-26T18:49:17Z</time></trkpt>
<trkpt lat="35.168706" lon="-84.879631"><ele>249.9</ele><time>2026-07-26T18:49:20Z</time></trkpt>
<trkpt lat="35.168678" lon="-84.879626"><ele>250.2</ele><time>2026-07-26T18:49:22Z</time></trkpt>
<trkpt lat="35.168637" lon="-84.879623"><ele>250.2</ele><time>2026-07-26T18:49:25Z</time></trkpt>
<trkpt lat="35.168605" lon="-84.879622"><ele>250.2</ele><time>2026-07-26T18:49:27Z</time></trkpt>
<trkpt lat="35.168574" lon="-84.879622"><ele>249.6</ele><time>2026-07-26T18:49:29Z</time></trkpt>
<trkpt lat="35.168542" lon="-84.879621"><ele>251.2</ele><time>2026-07-26T18:49:31Z</time></trkpt>
<trkpt lat="35.16851" lon="-84.879621"><ele>251.8</ele><time>2026-07-26T18:49:33Z</time></trkpt>
<trkpt lat="35.168484" lon="-84.87961"><ele>252.1</ele><time>2026-07-26T18:49:35Z</time></trkpt>
<trkpt lat="35.168449" lon="-84.879587"><ele>252.1</ele><time>2026-07-26T18:49:38Z</time></trkpt>
<trkpt lat="35.168421" lon="-84.879583"><ele>251.8</ele><time>2026-07-26T18:49:40Z</time></trkpt>
<trkpt lat="35.168379" lon="-84.879577"><ele>251.8</ele><time>2026-07-26T18:49:43Z</time></trkpt>
<trkpt lat="35.168352" lon="-84.879587"><ele>250.9</ele><time>2026-07-26T18:49:45Z</time></trkpt>
<trkpt lat="35.168323" lon="-84.879589"><ele>251.8</ele><time>2026-07-26T18:49:47Z</time></trkpt>
<trkpt lat="35.168293" lon="-84.879594"><ele>251.5</ele><time>2026-07-26T18:49:49Z</time></trkpt>
<trkpt lat="35.168262" lon="-84.879591"><ele>251.8</ele><time>2026-07-26T18:49:51Z</time></trkpt>
<trkpt lat="35.168233" lon="-84.879594"><ele>251.8</ele><time>2026-07-26T18:49:53Z</time></trkpt>
<trkpt lat="35.168201" lon="-84.879597"><ele>249.9</ele><time>2026-07-26T18:49:55Z</time></trkpt>
<trkpt lat="35.16817" lon="-84.879601"><ele>249.9</ele><time>2026-07-26T18:49:57Z</time></trkpt>
<trkpt lat="35.16814" lon="-84.879605"><ele>251.2</ele><time>2026-07-26T18:49:59Z</time></trkpt>
<trkpt lat="35.168114" lon="-84.879617"><ele>253.0</ele><time>2026-07-26T18:50:01Z</time></trkpt>
<trkpt lat="35.168078" lon="-84.879634"><ele>253.6</ele><time>2026-07-26T18:50:04Z</time></trkpt>
<trkpt lat="35.168054" lon="-84.879655"><ele>253.0</ele><time>2026-07-26T18:50:06Z</time></trkpt>
<trkpt lat="35.168037" lon="-84.879687"><ele>253.3</ele><time>2026-07-26T18:50:08Z</time></trkpt>
<trkpt lat="35.168028" lon="-84.879723"><ele>252.4</ele><time>2026-07-26T18:50:10Z</time></trkpt>
<trkpt lat="35.168016" lon="-84.879756"><ele>253.0</ele><time>2026-07-26T18:50:12Z</time></trkpt>
<trkpt lat="35.167995" lon="-84.879784"><ele>252.4</ele><time>2026-07-26T18:50:14Z</time></trkpt>
<trkpt lat="35.167975" lon="-84.879811"><ele>252.7</ele><time>2026-07-26T18:50:16Z</time></trkpt>
<trkpt lat="35.167958" lon="-84.87984"><ele>252.7</ele><time>2026-07-26T18:50:18Z</time></trkpt>
<trkpt lat="35.167934" lon="-84.87986"><ele>251.8</ele><time>2026-07-26T18:50:20Z</time></trkpt>
<trkpt lat="35.167912" lon="-84.879886"><ele>252.1</ele><time>2026-07-26T18:50:22Z</time></trkpt>
<trkpt lat="35.16789" lon="-84.879912"><ele>252.7</ele><time>2026-07-26T18:50:24Z</time></trkpt>
<trkpt lat="35.167867" lon="-84.879938"><ele>253.0</ele><time>2026-07-26T18:50:26Z</time></trkpt>
<trkpt lat="35.167839" lon="-84.879959"><ele>253.3</ele><time>2026-07-26T18:50:28Z</time></trkpt>
<trkpt lat="35.16781" lon="-84.879978"><ele>253.9</ele><time>2026-07-26T18:50:30Z</time></trkpt>
<trkpt lat="35.167782" lon="-84.87999"><ele>253.3</ele><time>2026-07-26T18:50:32Z</time></trkpt>
<trkpt lat="35.167754" lon="-84.88"><ele>253.0</ele><time>2026-07-26T18:50:34Z</time></trkpt>
<trkpt lat="35.167724" lon="-84.88001"><ele>253.9</ele><time>2026-07-26T18:50:36Z</time></trkpt>
<trkpt lat="35.167695" lon="-84.880021"><ele>254.2</ele><time>2026-07-26T18:50:38Z</time></trkpt>
<trkpt lat="35.167667" lon="-84.880033"><ele>253.9</ele><time>2026-07-26T18:50:40Z</time></trkpt>
<trkpt lat="35.167639" lon="-84.880048"><ele>253.6</ele><time>2026-07-26T18:50:42Z</time></trkpt>
<trkpt lat="35.167612" lon="-84.880062"><ele>252.7</ele><time>2026-07-26T18:50:44Z</time></trkpt>
<trkpt lat="35.167584" lon="-84.880078"><ele>252.1</ele><time>2026-07-26T18:50:46Z</time></trkpt>
<trkpt lat="35.167555" lon="-84.880093"><ele>252.7</ele><time>2026-07-26T18:50:48Z</time></trkpt>
<trkpt lat="35.167525" lon="-84.880103"><ele>253.0</ele><time>2026-07-26T18:50:50Z</time></trkpt>
<trkpt lat="35.167487" lon="-84.880123"><ele>252.4</ele><time>2026-07-26T18:50:53Z</time></trkpt>
<trkpt lat="35.167457" lon="-84.880136"><ele>252.7</ele><time>2026-07-26T18:50:55Z</time></trkpt>
<trkpt lat="35.16743" lon="-84.880153"><ele>253.6</ele><time>2026-07-26T18:50:57Z</time></trkpt>
<trkpt lat="35.1674" lon="-84.880166"><ele>253.6</ele><time>2026-07-26T18:50:59Z</time></trkpt>
<trkpt lat="35.167372" lon="-84.88018"><ele>253.0</ele><time>2026-07-26T18:51:01Z</time></trkpt>
<trkpt lat="35.167346" lon="-84.880192"><ele>252.7</ele><time>2026-07-26T18:51:03Z</time></trkpt>
<trkpt lat="35.16732" lon="-84.880204"><ele>251.8</ele><time>2026-07-26T18:51:05Z</time></trkpt>
<trkpt lat="35.167291" lon="-84.880217"><ele>251.5</ele><time>2026-07-26T18:51:07Z</time></trkpt>
<trkpt lat="35.167259" lon="-84.880224"><ele>251.8</ele><time>2026-07-26T18:51:09Z</time></trkpt>
<trkpt lat="35.167232" lon="-84.880238"><ele>252.4</ele><time>2026-07-26T18:51:11Z</time></trkpt>
<trkpt lat="35.167204" lon="-84.880251"><ele>253.3</ele><time>2026-07-26T18:51:13Z</time></trkpt>
<trkpt lat="35.167177" lon="-84.880264"><ele>254.2</ele><time>2026-07-26T18:51:15Z</time></trkpt>
<trkpt lat="35.167154" lon="-84.880285"><ele>253.9</ele><time>2026-07-26T18:51:17Z</time></trkpt>
<trkpt lat="35.167129" lon="-84.880307"><ele>253.0</ele><time>2026-07-26T18:51:19Z</time></trkpt>
<trkpt lat="35.1671" lon="-84.880327"><ele>253.6</ele><time>2026-07-26T18:51:21Z</time></trkpt>
<trkpt lat="35.167074" lon="-84.880346"><ele>254.5</ele><time>2026-07-26T18:51:23Z</time></trkpt>
<trkpt lat="35.167047" lon="-84.880359"><ele>254.8</ele><time>2026-07-26T18:51:25Z</time></trkpt>
<trkpt lat="35.16702" lon="-84.880372"><ele>254.8</ele><time>2026-07-26T18:51:27Z</time></trkpt>
<trkpt lat="35.166983" lon="-84.880387"><ele>254.5</ele><time>2026-07-26T18:51:30Z</time></trkpt>
<trkpt lat="35.166958" lon="-84.880401"><ele>253.9</ele><time>2026-07-26T18:51:32Z</time></trkpt>
<trkpt lat="35.166931" lon="-84.880418"><ele>253.9</ele><time>2026-07-26T18:51:34Z</time></trkpt>
<trkpt lat="35.166905" lon="-84.880438"><ele>254.2</ele><time>2026-07-26T18:51:36Z</time></trkpt>
<trkpt lat="35.166879" lon="-84.880454"><ele>254.2</ele><time>2026-07-26T18:51:38Z</time></trkpt>
<trkpt lat="35.166841" lon="-84.880474"><ele>254.5</ele><time>2026-07-26T18:51:41Z</time></trkpt>
<trkpt lat="35.166814" lon="-84.880487"><ele>253.9</ele><time>2026-07-26T18:51:43Z</time></trkpt>
<trkpt lat="35.166787" lon="-84.880501"><ele>253.6</ele><time>2026-07-26T18:51:45Z</time></trkpt>
<trkpt lat="35.166756" lon="-84.880506"><ele>252.4</ele><time>2026-07-26T18:51:47Z</time></trkpt>
<trkpt lat="35.166729" lon="-84.880518"><ele>252.7</ele><time>2026-07-26T18:51:49Z</time></trkpt>
<trkpt lat="35.166702" lon="-84.880537"><ele>253.0</ele><time>2026-07-26T18:51:51Z</time></trkpt>
<trkpt lat="35.166677" lon="-84.880557"><ele>253.9</ele><time>2026-07-26T18:51:53Z</time></trkpt>
<trkpt lat="35.166649" lon="-84.880573"><ele>253.6</ele><time>2026-07-26T18:51:55Z</time></trkpt>
<trkpt lat="35.166623" lon="-84.88059"><ele>252.4</ele><time>2026-07-26T18:51:57Z</time></trkpt>
<trkpt lat="35.166587" lon="-84.880604"><ele>249.6</ele><time>2026-07-26T18:52:00Z</time></trkpt>
<trkpt lat="35.166561" lon="-84.880624"><ele>250.2</ele><time>2026-07-26T18:52:02Z</time></trkpt>
<trkpt lat="35.166535" lon="-84.880642"><ele>251.8</ele><time>2026-07-26T18:52:04Z</time></trkpt>
<trkpt lat="35.166508" lon="-84.880656"><ele>252.1</ele><time>2026-07-26T18:52:06Z</time></trkpt>
<trkpt lat="35.166481" lon="-84.880672"><ele>252.1</ele><time>2026-07-26T18:52:08Z</time></trkpt>
<trkpt lat="35.166454" lon="-84.880688"><ele>253.0</ele><time>2026-07-26T18:52:10Z</time></trkpt>
<trkpt lat="35.166431" lon="-84.88071"><ele>253.0</ele><time>2026-07-26T18:52:12Z</time></trkpt>
<trkpt lat="35.166407" lon="-84.880726"><ele>252.1</ele><time>2026-07-26T18:52:14Z</time></trkpt>
<trkpt lat="35.166379" lon="-84.880733"><ele>252.1</ele><time>2026-07-26T18:52:16Z</time></trkpt>
<trkpt lat="35.166349" lon="-84.880739"><ele>251.2</ele><time>2026-07-26T18:52:18Z</time></trkpt>
<trkpt lat="35.16632" lon="-84.880749"><ele>251.5</ele><time>2026-07-26T18:52:20Z</time></trkpt>
<trkpt lat="35.166281" lon="-84.880766"><ele>250.5</ele><time>2026-07-26T18:52:23Z</time></trkpt>
<trkpt lat="35.166255" lon="-84.880784"><ele>250.9</ele><time>2026-07-26T18:52:25Z</time></trkpt>
<trkpt lat="35.166219" lon="-84.880765"><ele>250.2</ele><time>2026-07-26T18:52:28Z</time></trkpt>
<trkpt lat="35.166193" lon="-84.880801"><ele>248.7</ele><time>2026-07-26T18:52:30Z</time></trkpt>
<trkpt lat="35.166159" lon="-84.880812"><ele>248.7</ele><time>2026-07-26T18:52:32Z</time></trkpt>
<trkpt lat="35.166123" lon="-84.880817"><ele>249.0</ele><time>2026-07-26T18:52:34Z</time></trkpt>
<trkpt lat="35.166092" lon="-84.880832"><ele>249.3</ele><time>2026-07-26T18:52:36Z</time></trkpt>
<trkpt lat="35.166067" lon="-84.880849"><ele>249.6</ele><time>2026-07-26T18:52:38Z</time></trkpt>
<trkpt lat="35.166041" lon="-84.880867"><ele>249.0</ele><time>2026-07-26T18:52:40Z</time></trkpt>
<trkpt lat="35.166015" lon="-84.88088"><ele>247.8</ele><time>2026-07-26T18:52:42Z</time></trkpt>
<trkpt lat="35.165991" lon="-84.880897"><ele>248.1</ele><time>2026-07-26T18:52:44Z</time></trkpt>
<trkpt lat="35.165959" lon="-84.88092"><ele>247.5</ele><time>2026-07-26T18:52:47Z</time></trkpt>
<trkpt lat="35.165934" lon="-84.880935"><ele>247.5</ele><time>2026-07-26T18:52:49Z</time></trkpt>
<trkpt lat="35.165907" lon="-84.880956"><ele>247.5</ele><time>2026-07-26T18:52:51Z</time></trkpt>
<trkpt lat="35.16588" lon="-84.880973"><ele>248.7</ele><time>2026-07-26T18:52:53Z</time></trkpt>
<trkpt lat="35.165854" lon="-84.880989"><ele>249.9</ele><time>2026-07-26T18:52:55Z</time></trkpt>
<trkpt lat="35.165825" lon="-84.880999"><ele>249.6</ele><time>2026-07-26T18:52:57Z</time></trkpt>
<trkpt lat="35.165799" lon="-84.881019"><ele>249.6</ele><time>2026-07-26T18:52:59Z</time></trkpt>
<trkpt lat="35.165773" lon="-84.881032"><ele>250.5</ele><time>2026-07-26T18:53:01Z</time></trkpt>
<trkpt lat="35.165744" lon="-84.881042"><ele>250.9</ele><time>2026-07-26T18:53:03Z</time></trkpt>
<trkpt lat="35.165716" lon="-84.88105"><ele>250.2</ele><time>2026-07-26T18:53:05Z</time></trkpt>
<trkpt lat="35.165685" lon="-84.881061"><ele>251.8</ele><time>2026-07-26T18:53:07Z</time></trkpt>
<trkpt lat="35.165653" lon="-84.881085"><ele>251.5</ele><time>2026-07-26T18:53:09Z</time></trkpt>
<trkpt lat="35.16563" lon="-84.881108"><ele>251.5</ele><time>2026-07-26T18:53:11Z</time></trkpt>
<trkpt lat="35.165604" lon="-84.88113"><ele>250.9</ele><time>2026-07-26T18:53:13Z</time></trkpt>
<trkpt lat="35.165585" lon="-84.881159"><ele>251.2</ele><time>2026-07-26T18:53:15Z</time></trkpt>
<trkpt lat="35.16555" lon="-84.881172"><ele>251.2</ele><time>2026-07-26T18:53:18Z</time></trkpt>
<trkpt lat="35.165549" lon="-84.881131"><ele>252.7</ele><time>2026-07-26T18:53:19Z</time></trkpt>
<trkpt lat="35.165571" lon="-84.881108"><ele>252.7</ele><time>2026-07-26T18:53:20Z</time></trkpt>
<trkpt lat="35.165604" lon="-84.881093"><ele>253.0</ele><time>2026-07-26T18:53:22Z</time></trkpt>
<trkpt lat="35.165633" lon="-84.881083"><ele>250.5</ele><time>2026-07-26T18:53:24Z</time></trkpt>
<trkpt lat="35.165662" lon="-84.881067"><ele>249.3</ele><time>2026-07-26T18:53:26Z</time></trkpt>
<trkpt lat="35.165689" lon="-84.881055"><ele>249.0</ele><time>2026-07-26T18:53:28Z</time></trkpt>
<trkpt lat="35.16572" lon="-84.881047"><ele>249.0</ele><time>2026-07-26T18:53:30Z</time></trkpt>
<trkpt lat="35.16575" lon="-84.881038"><ele>249.3</ele><time>2026-07-26T18:53:32Z</time></trkpt>
<trkpt lat="35.16578" lon="-84.881026"><ele>249.3</ele><time>2026-07-26T18:53:34Z</time></trkpt>
<trkpt lat="35.165809" lon="-84.881014"><ele>250.2</ele><time>2026-07-26T18:53:36Z</time></trkpt>
<trkpt lat="35.165835" lon="-84.881003"><ele>249.6</ele><time>2026-07-26T18:53:38Z</time></trkpt>
<trkpt lat="35.165861" lon="-84.880987"><ele>250.9</ele><time>2026-07-26T18:53:40Z</time></trkpt>
<trkpt lat="35.165886" lon="-84.880972"><ele>250.9</ele><time>2026-07-26T18:53:42Z</time></trkpt>
<trkpt lat="35.165912" lon="-84.880955"><ele>251.2</ele><time>2026-07-26T18:53:44Z</time></trkpt>
<trkpt lat="35.165939" lon="-84.880939"><ele>250.5</ele><time>2026-07-26T18:53:46Z</time></trkpt>
<trkpt lat="35.165965" lon="-84.880921"><ele>250.5</ele><time>2026-07-26T18:53:48Z</time></trkpt>
<trkpt lat="35.165994" lon="-84.880912"><ele>250.2</ele><time>2026-07-26T18:53:50Z</time></trkpt>
<trkpt lat="35.16602" lon="-84.880899"><ele>249.9</ele><time>2026-07-26T18:53:52Z</time></trkpt>
<trkpt lat="35.166044" lon="-84.880879"><ele>250.5</ele><time>2026-07-26T18:53:54Z</time></trkpt>
<trkpt lat="35.166068" lon="-84.880861"><ele>250.2</ele><time>2026-07-26T18:53:56Z</time></trkpt>
<trkpt lat="35.166107" lon="-84.880845"><ele>249.3</ele><time>2026-07-26T18:53:59Z</time></trkpt>
<trkpt lat="35.166135" lon="-84.880839"><ele>249.0</ele><time>2026-07-26T18:54:01Z</time></trkpt>
<trkpt lat="35.166161" lon="-84.880825"><ele>249.3</ele><time>2026-07-26T18:54:03Z</time></trkpt>
<trkpt lat="35.166188" lon="-84.880808"><ele>248.7</ele><time>2026-07-26T18:54:05Z</time></trkpt>
<trkpt lat="35.166213" lon="-84.880793"><ele>248.7</ele><time>2026-07-26T18:54:07Z</time></trkpt>
<trkpt lat="35.166244" lon="-84.880789"><ele>247.8</ele><time>2026-07-26T18:54:09Z</time></trkpt>
<trkpt lat="35.166272" lon="-84.880778"><ele>246.9</ele><time>2026-07-26T18:54:11Z</time></trkpt>
<trkpt lat="35.166305" lon="-84.880753"><ele>246.6</ele><time>2026-07-26T18:54:14Z</time></trkpt>
<trkpt lat="35.166341" lon="-84.880745"><ele>246.9</ele><time>2026-07-26T18:54:16Z</time></trkpt>
<trkpt lat="35.166376" lon="-84.880728"><ele>247.5</ele><time>2026-07-26T18:54:18Z</time></trkpt>
<trkpt lat="35.166409" lon="-84.880706"><ele>247.8</ele><time>2026-07-26T18:54:20Z</time></trkpt>
<trkpt lat="35.166442" lon="-84.880689"><ele>248.1</ele><time>2026-07-26T18:54:22Z</time></trkpt>
<trkpt lat="35.166483" lon="-84.880679"><ele>248.7</ele><time>2026-07-26T18:54:24Z</time></trkpt>
<trkpt lat="35.166515" lon="-84.880666"><ele>248.4</ele><time>2026-07-26T18:54:26Z</time></trkpt>
<trkpt lat="35.166556" lon="-84.880644"><ele>247.8</ele><time>2026-07-26T18:54:29Z</time></trkpt>
<trkpt lat="35.166586" lon="-84.880629"><ele>247.2</ele><time>2026-07-26T18:54:31Z</time></trkpt>
<trkpt lat="35.166613" lon="-84.880615"><ele>247.8</ele><time>2026-07-26T18:54:33Z</time></trkpt>
<trkpt lat="35.166643" lon="-84.880597"><ele>247.8</ele><time>2026-07-26T18:54:35Z</time></trkpt>
<trkpt lat="35.166669" lon="-84.880584"><ele>247.8</ele><time>2026-07-26T18:54:37Z</time></trkpt>
<trkpt lat="35.166695" lon="-84.880567"><ele>247.5</ele><time>2026-07-26T18:54:39Z</time></trkpt>
<trkpt lat="35.166722" lon="-84.880548"><ele>247.5</ele><time>2026-07-26T18:54:41Z</time></trkpt>
<trkpt lat="35.166749" lon="-84.880536"><ele>246.6</ele><time>2026-07-26T18:54:43Z</time></trkpt>
<trkpt lat="35.166786" lon="-84.880516"><ele>249.0</ele><time>2026-07-26T18:54:46Z</time></trkpt>
<trkpt lat="35.166824" lon="-84.880505"><ele>249.0</ele><time>2026-07-26T18:54:49Z</time></trkpt>
<trkpt lat="35.166854" lon="-84.880491"><ele>249.0</ele><time>2026-07-26T18:54:51Z</time></trkpt>
<trkpt lat="35.166881" lon="-84.880473"><ele>248.7</ele><time>2026-07-26T18:54:53Z</time></trkpt>
<trkpt lat="35.166908" lon="-84.880458"><ele>248.4</ele><time>2026-07-26T18:54:55Z</time></trkpt>
<trkpt lat="35.166935" lon="-84.88044"><ele>249.0</ele><time>2026-07-26T18:54:57Z</time></trkpt>
<trkpt lat="35.166964" lon="-84.880423"><ele>249.0</ele><time>2026-07-26T18:54:59Z</time></trkpt>
<trkpt lat="35.166992" lon="-84.880413"><ele>246.6</ele><time>2026-07-26T18:55:01Z</time></trkpt>
<trkpt lat="35.16702" lon="-84.880397"><ele>247.2</ele><time>2026-07-26T18:55:03Z</time></trkpt>
<trkpt lat="35.167048" lon="-84.88038"><ele>246.3</ele><time>2026-07-26T18:55:05Z</time></trkpt>
<trkpt lat="35.167078" lon="-84.880366"><ele>246.0</ele><time>2026-07-26T18:55:07Z</time></trkpt>
<trkpt lat="35.167102" lon="-84.88035"><ele>245.1</ele><time>2026-07-26T18:55:09Z</time></trkpt>
<trkpt lat="35.167127" lon="-84.880331"><ele>245.4</ele><time>2026-07-26T18:55:11Z</time></trkpt>
<trkpt lat="35.167154" lon="-84.880309"><ele>246.9</ele><time>2026-07-26T18:55:13Z</time></trkpt>
<trkpt lat="35.167183" lon="-84.880295"><ele>247.5</ele><time>2026-07-26T18:55:15Z</time></trkpt>
<trkpt lat="35.167211" lon="-84.880282"><ele>247.8</ele><time>2026-07-26T18:55:17Z</time></trkpt>
<trkpt lat="35.16724" lon="-84.88027"><ele>247.5</ele><time>2026-07-26T18:55:19Z</time></trkpt>
<trkpt lat="35.167269" lon="-84.880261"><ele>247.2</ele><time>2026-07-26T18:55:21Z</time></trkpt>
<trkpt lat="35.167298" lon="-84.880251"><ele>247.8</ele><time>2026-07-26T18:55:23Z</time></trkpt>
<trkpt lat="35.167327" lon="-84.880239"><ele>247.8</ele><time>2026-07-26T18:55:25Z</time></trkpt>
<trkpt lat="35.167355" lon="-84.880226"><ele>249.3</ele><time>2026-07-26T18:55:27Z</time></trkpt>
<trkpt lat="35.167383" lon="-84.880212"><ele>249.9</ele><time>2026-07-26T18:55:29Z</time></trkpt>
<trkpt lat="35.167413" lon="-84.880202"><ele>249.3</ele><time>2026-07-26T18:55:31Z</time></trkpt>
<trkpt lat="35.167441" lon="-84.880192"><ele>249.0</ele><time>2026-07-26T18:55:33Z</time></trkpt>
<trkpt lat="35.167479" lon="-84.880178"><ele>250.2</ele><time>2026-07-26T18:55:36Z</time></trkpt>
<trkpt lat="35.167509" lon="-84.88017"><ele>251.2</ele><time>2026-07-26T18:55:38Z</time></trkpt>
<trkpt lat="35.167536" lon="-84.880158"><ele>252.1</ele><time>2026-07-26T18:55:40Z</time></trkpt>
<trkpt lat="35.167563" lon="-84.880146"><ele>251.5</ele><time>2026-07-26T18:55:42Z</time></trkpt>
<trkpt lat="35.167587" lon="-84.880124"><ele>252.4</ele><time>2026-07-26T18:55:44Z</time></trkpt>
<trkpt lat="35.167622" lon="-84.8801"><ele>252.4</ele><time>2026-07-26T18:55:47Z</time></trkpt>
<trkpt lat="35.167658" lon="-84.880075"><ele>251.8</ele><time>2026-07-26T18:55:50Z</time></trkpt>
<trkpt lat="35.167683" lon="-84.880061"><ele>251.8</ele><time>2026-07-26T18:55:52Z</time></trkpt>
<trkpt lat="35.167708" lon="-84.880045"><ele>250.2</ele><time>2026-07-26T18:55:54Z</time></trkpt>
<trkpt lat="35.167735" lon="-84.880028"><ele>250.2</ele><time>2026-07-26T18:55:56Z</time></trkpt>
<trkpt lat="35.167762" lon="-84.880019"><ele>250.5</ele><time>2026-07-26T18:55:58Z</time></trkpt>
<trkpt lat="35.167789" lon="-84.880005"><ele>250.2</ele><time>2026-07-26T18:56:00Z</time></trkpt>
<trkpt lat="35.167814" lon="-84.87999"><ele>250.5</ele><time>2026-07-26T18:56:02Z</time></trkpt>
<trkpt lat="35.167841" lon="-84.879958"><ele>251.2</ele><time>2026-07-26T18:56:05Z</time></trkpt>
<trkpt lat="35.167871" lon="-84.879926"><ele>251.2</ele><time>2026-07-26T18:56:08Z</time></trkpt>
<trkpt lat="35.167891" lon="-84.879899"><ele>251.2</ele><time>2026-07-26T18:56:10Z</time></trkpt>
<trkpt lat="35.167913" lon="-84.879873"><ele>251.2</ele><time>2026-07-26T18:56:12Z</time></trkpt>
<trkpt lat="35.167933" lon="-84.879846"><ele>251.2</ele><time>2026-07-26T18:56:14Z</time></trkpt>
<trkpt lat="35.167955" lon="-84.879821"><ele>251.5</ele><time>2026-07-26T18:56:16Z</time></trkpt>
<trkpt lat="35.167979" lon="-84.879801"><ele>251.5</ele><time>2026-07-26T18:56:18Z</time></trkpt>
<trkpt lat="35.168008" lon="-84.879789"><ele>252.1</ele><time>2026-07-26T18:56:20Z</time></trkpt>
<trkpt lat="35.168022" lon="-84.879783"><ele>252.4</ele><time>2026-07-26T18:56:21Z</time></trkpt>
<trkpt lat="35.16802" lon="-84.879783"><ele>252.1</ele><time>2026-07-26T18:56:22Z</time></trkpt>
<trkpt lat="35.168019" lon="-84.879783"><ele>252.1</ele><time>2026-07-26T18:56:23Z</time></trkpt>
<trkpt lat="35.168025" lon="-84.879768"><ele>252.1</ele><time>2026-07-26T18:56:24Z</time></trkpt>
<trkpt lat="35.168033" lon="-84.879743"><ele>252.1</ele><time>2026-07-26T18:56:27Z</time></trkpt>
<trkpt lat="35.168036" lon="-84.879748"><ele>252.1</ele><time>2026-07-26T18:56:28Z</time></trkpt>
<trkpt lat="35.168036" lon="-84.87975"><ele>252.1</ele><time>2026-07-26T18:56:29Z</time></trkpt>
<trkpt lat="35.168037" lon="-84.879751"><ele>251.8</ele><time>2026-07-26T18:56:30Z</time></trkpt>
<trkpt lat="35.16806" lon="-84.879714"><ele>253.0</ele><time>2026-07-26T18:56:34Z</time></trkpt>
<trkpt lat="35.168083" lon="-84.879681"><ele>253.3</ele><time>2026-07-26T18:56:36Z</time></trkpt>
<trkpt lat="35.16811" lon="-84.879649"><ele>253.3</ele><time>2026-07-26T18:56:39Z</time></trkpt>
<trkpt lat="35.168099" lon="-84.879662"><ele>253.9</ele><time>2026-07-26T18:56:40Z</time></trkpt>
<trkpt lat="35.168098" lon="-84.879666"><ele>253.9</ele><time>2026-07-26T18:56:42Z</time></trkpt>
<trkpt lat="35.168113" lon="-84.879663"><ele>254.2</ele><time>2026-07-26T18:56:43Z</time></trkpt>
<trkpt lat="35.168145" lon="-84.879662"><ele>253.9</ele><time>2026-07-26T18:56:45Z</time></trkpt>
<trkpt lat="35.168171" lon="-84.879679"><ele>253.6</ele><time>2026-07-26T18:56:48Z</time></trkpt>
<trkpt lat="35.16814" lon="-84.879672"><ele>253.3</ele><time>2026-07-26T18:56:49Z</time></trkpt>
<trkpt lat="35.16814" lon="-84.879667"><ele>253.3</ele><time>2026-07-26T18:56:50Z</time></trkpt>
<trkpt lat="35.168132" lon="-84.87963"><ele>254.2</ele><time>2026-07-26T18:56:52Z</time></trkpt>
<trkpt lat="35.168132" lon="-84.879611"><ele>254.5</ele><time>2026-07-26T18:56:54Z</time></trkpt>
<trkpt lat="35.168132" lon="-84.879624"><ele>254.5</ele><time>2026-07-26T18:56:55Z</time></trkpt>
<trkpt lat="35.168133" lon="-84.879627"><ele>254.2</ele><time>2026-07-26T18:56:56Z</time></trkpt>
<trkpt lat="35.168136" lon="-84.879626"><ele>254.8</ele><time>2026-07-26T18:56:57Z</time></trkpt>
<trkpt lat="35.168164" lon="-84.879603"><ele>255.7</ele><time>2026-07-26T18:57:01Z</time></trkpt>
<trkpt lat="35.168175" lon="-84.879599"><ele>254.8</ele><time>2026-07-26T18:57:02Z</time></trkpt>
<trkpt lat="35.168182" lon="-84.879597"><ele>254.8</ele><time>2026-07-26T18:57:03Z</time></trkpt>
<trkpt lat="35.168187" lon="-84.879594"><ele>254.5</ele><time>2026-07-26T18:57:05Z</time></trkpt>
<trkpt lat="35.168189" lon="-84.879596"><ele>254.5</ele><time>2026-07-26T18:57:06Z</time></trkpt>
<trkpt lat="35.168215" lon="-84.879615"><ele>254.8</ele><time>2026-07-26T18:57:09Z</time></trkpt>
<trkpt lat="35.168245" lon="-84.879606"><ele>255.1</ele><time>2026-07-26T18:57:11Z</time></trkpt>
<trkpt lat="35.168277" lon="-84.8796"><ele>254.2</ele><time>2026-07-26T18:57:13Z</time></trkpt>
<trkpt lat="35.168307" lon="-84.879584"><ele>253.0</ele><time>2026-07-26T18:57:15Z</time></trkpt>
<trkpt lat="35.16834" lon="-84.879571"><ele>252.1</ele><time>2026-07-26T18:57:17Z</time></trkpt>
<trkpt lat="35.168375" lon="-84.879565"><ele>252.4</ele><time>2026-07-26T18:57:19Z</time></trkpt>
<trkpt lat="35.168414" lon="-84.879571"><ele>250.5</ele><time>2026-07-26T18:57:21Z</time></trkpt>
<trkpt lat="35.168441" lon="-84.879575"><ele>251.2</ele><time>2026-07-26T18:57:22Z</time></trkpt>
<trkpt lat="35.168477" lon="-84.879584"><ele>251.2</ele><time>2026-07-26T18:57:24Z</time></trkpt>
<trkpt lat="35.168512" lon="-84.879593"><ele>250.5</ele><time>2026-07-26T18:57:26Z</time></trkpt>
<trkpt lat="35.168541" lon="-84.879595"><ele>250.9</ele><time>2026-07-26T18:57:28Z</time></trkpt>
<trkpt lat="35.168569" lon="-84.879601"><ele>251.2</ele><time>2026-07-26T18:57:30Z</time></trkpt>
<trkpt lat="35.168612" lon="-84.879603"><ele>250.5</ele><time>2026-07-26T18:57:33Z</time></trkpt>
<trkpt lat="35.168646" lon="-84.879612"><ele>250.2</ele><time>2026-07-26T18:57:35Z</time></trkpt>
<trkpt lat="35.16868" lon="-84.87962"><ele>249.6</ele><time>2026-07-26T18:57:37Z</time></trkpt>
<trkpt lat="35.168716" lon="-84.87962"><ele>249.6</ele><time>2026-07-26T18:57:39Z</time></trkpt>
<trkpt lat="35.168748" lon="-84.879623"><ele>249.3</ele><time>2026-07-26T18:57:41Z</time></trkpt>
<trkpt lat="35.168785" lon="-84.879635"><ele>251.8</ele><time>2026-07-26T18:57:44Z</time></trkpt>
<trkpt lat="35.168824" lon="-84.879646"><ele>251.2</ele><time>2026-07-26T18:57:47Z</time></trkpt>
<trkpt lat="35.168863" lon="-84.87965"><ele>250.5</ele><time>2026-07-26T18:57:50Z</time></trkpt>
<trkpt lat="35.1689" lon="-84.879656"><ele>250.2</ele><time>2026-07-26T18:57:53Z</time></trkpt>
<trkpt lat="35.16893" lon="-84.879658"><ele>250.5</ele><time>2026-07-26T18:57:55Z</time></trkpt>
<trkpt lat="35.16896" lon="-84.879661"><ele>249.9</ele><time>2026-07-26T18:57:57Z</time></trkpt>
<trkpt lat="35.168988" lon="-84.879664"><ele>249.9</ele><time>2026-07-26T18:57:59Z</time></trkpt>
<trkpt lat="35.169029" lon="-84.879656"><ele>250.2</ele><time>2026-07-26T18:58:02Z</time></trkpt>
<trkpt lat="35.169058" lon="-84.879643"><ele>249.0</ele><time>2026-07-26T18:58:04Z</time></trkpt>
<trkpt lat="35.169092" lon="-84.879612"><ele>250.2</ele><time>2026-07-26T18:58:07Z</time></trkpt>
<trkpt lat="35.169117" lon="-84.879592"><ele>250.2</ele><time>2026-07-26T18:58:09Z</time></trkpt>
<trkpt lat="35.169145" lon="-84.879577"><ele>250.5</ele><time>2026-07-26T18:58:11Z</time></trkpt>
<trkpt lat="35.169177" lon="-84.879567"><ele>250.2</ele><time>2026-07-26T18:58:13Z</time></trkpt>
<trkpt lat="35.169203" lon="-84.879553"><ele>251.8</ele><time>2026-07-26T18:58:15Z</time></trkpt>
<trkpt lat="35.169232" lon="-84.879543"><ele>252.1</ele><time>2026-07-26T18:58:17Z</time></trkpt>
<trkpt lat="35.169261" lon="-84.879538"><ele>251.5</ele><time>2026-07-26T18:58:19Z</time></trkpt>
<trkpt lat="35.169299" lon="-84.879533"><ele>250.5</ele><time>2026-07-26T18:58:22Z</time></trkpt>
<trkpt lat="35.169305" lon="-84.879534"><ele>250.9</ele><time>2026-07-26T18:58:23Z</time></trkpt>
<trkpt lat="35.169301" lon="-84.879532"><ele>249.3</ele><time>2026-07-26T18:58:24Z</time></trkpt>
<trkpt lat="35.169297" lon="-84.879532"><ele>249.0</ele><time>2026-07-26T18:58:27Z</time></trkpt>
<trkpt lat="35.169299" lon="-84.879529"><ele>249.0</ele><time>2026-07-26T18:58:28Z</time></trkpt>
<trkpt lat="35.169299" lon="-84.879526"><ele>249.0</ele><time>2026-07-26T18:58:29Z</time></trkpt>
<trkpt lat="35.169298" lon="-84.879525"><ele>249.0</ele><time>2026-07-26T18:58:30Z</time></trkpt>
<trkpt lat="35.169303" lon="-84.879528"><ele>248.7</ele><time>2026-07-26T18:58:31Z</time></trkpt>
<trkpt lat="35.169317" lon="-84.87954"><ele>249.9</ele><time>2026-07-26T18:58:34Z</time></trkpt>
<trkpt lat="35.169314" lon="-84.879539"><ele>249.9</ele><time>2026-07-26T18:58:35Z</time></trkpt>
<trkpt lat="35.169314" lon="-84.879539"><ele>249.9</ele><time>2026-07-26T18:58:36Z</time></trkpt>
<trkpt lat="35.169316" lon="-84.879541"><ele>249.9</ele><time>2026-07-26T18:58:37Z</time></trkpt>
<trkpt lat="35.169354" lon="-84.879559"><ele>250.5</ele><time>2026-07-26T18:58:40Z</time></trkpt>
<trkpt lat="35.169381" lon="-84.879572"><ele>249.9</ele><time>2026-07-26T18:58:42Z</time></trkpt>
<trkpt lat="35.169414" lon="-84.879578"><ele>249.9</ele><time>2026-07-26T18:58:45Z</time></trkpt>
<trkpt lat="35.169454" lon="-84.879589"><ele>250.9</ele><time>2026-07-26T18:58:48Z</time></trkpt>
<trkpt lat="35.169488" lon="-84.879599"><ele>250.2</ele><time>2026-07-26T18:58:51Z</time></trkpt>
<trkpt lat="35.169528" lon="-84.879593"><ele>249.3</ele><time>2026-07-26T18:58:54Z</time></trkpt>
<trkpt lat="35.169564" lon="-84.87958"><ele>249.3</ele><time>2026-07-26T18:58:57Z</time></trkpt>
<trkpt lat="35.169592" lon="-84.879567"><ele>249.0</ele><time>2026-07-26T18:58:59Z</time></trkpt>
<trkpt lat="35.169628" lon="-84.879549"><ele>248.7</ele><time>2026-07-26T18:59:02Z</time></trkpt>
<trkpt lat="35.169664" lon="-84.879539"><ele>250.2</ele><time>2026-07-26T18:59:04Z</time></trkpt>
<trkpt lat="35.169693" lon="-84.879528"><ele>250.9</ele><time>2026-07-26T18:59:06Z</time></trkpt>
<trkpt lat="35.169728" lon="-84.879511"><ele>250.5</ele><time>2026-07-26T18:59:09Z</time></trkpt>
<trkpt lat="35.169762" lon="-84.879496"><ele>249.6</ele><time>2026-07-26T18:59:12Z</time></trkpt>
<trkpt lat="35.169801" lon="-84.879486"><ele>248.7</ele><time>2026-07-26T18:59:15Z</time></trkpt>
<trkpt lat="35.169834" lon="-84.87947"><ele>249.3</ele><time>2026-07-26T18:59:17Z</time></trkpt>
<trkpt lat="35.169861" lon="-84.879452"><ele>249.9</ele><time>2026-07-26T18:59:19Z</time></trkpt>
<trkpt lat="35.169893" lon="-84.87944"><ele>251.2</ele><time>2026-07-26T18:59:21Z</time></trkpt>
<trkpt lat="35.169922" lon="-84.87943"><ele>249.9</ele><time>2026-07-26T18:59:23Z</time></trkpt>
<trkpt lat="35.169952" lon="-84.879421"><ele>249.0</ele><time>2026-07-26T18:59:25Z</time></trkpt>
<trkpt lat="35.169977" lon="-84.879393"><ele>248.4</ele><time>2026-07-26T18:59:27Z</time></trkpt>
<trkpt lat="35.170011" lon="-84.879363"><ele>247.5</ele><time>2026-07-26T18:59:30Z</time></trkpt>
<trkpt lat="35.170043" lon="-84.879353"><ele>246.9</ele><time>2026-07-26T18:59:32Z</time></trkpt>
<trkpt lat="35.170073" lon="-84.879348"><ele>245.7</ele><time>2026-07-26T18:59:34Z</time></trkpt>
<trkpt lat="35.1701" lon="-84.879334"><ele>245.7</ele><time>2026-07-26T18:59:36Z</time></trkpt>
<trkpt lat="35.170129" lon="-84.87932"><ele>245.7</ele><time>2026-07-26T18:59:38Z</time></trkpt>
<trkpt lat="35.170157" lon="-84.879308"><ele>245.1</ele><time>2026-07-26T18:59:40Z</time></trkpt>
<trkpt lat="35.1702" lon="-84.879314"><ele>246.0</ele><time>2026-07-26T18:59:43Z</time></trkpt>
<trkpt lat="35.17023" lon="-84.879338"><ele>246.0</ele><time>2026-07-26T18:59:45Z</time></trkpt>
<trkpt lat="35.170255" lon="-84.879368"><ele>246.0</ele><time>2026-07-26T18:59:47Z</time></trkpt>
<trkpt lat="35.170278" lon="-84.879388"><ele>246.0</ele><time>2026-07-26T18:59:49Z</time></trkpt>
<trkpt lat="35.170305" lon="-84.87941"><ele>246.3</ele><time>2026-07-26T18:59:51Z</time></trkpt>
<trkpt lat="35.170335" lon="-84.879429"><ele>246.3</ele><time>2026-07-26T18:59:54Z</time></trkpt>
<trkpt lat="35.170366" lon="-84.879455"><ele>246.6</ele><time>2026-07-26T18:59:57Z</time></trkpt>
<trkpt lat="35.170404" lon="-84.879476"><ele>246.6</ele><time>2026-07-26T19:00:00Z</time></trkpt>
<trkpt lat="35.170442" lon="-84.879489"><ele>246.6</ele><time>2026-07-26T19:00:03Z</time></trkpt>
<trkpt lat="35.17047" lon="-84.879499"><ele>245.7</ele><time>2026-07-26T19:00:05Z</time></trkpt>
<trkpt lat="35.170506" lon="-84.87951"><ele>245.7</ele><time>2026-07-26T19:00:08Z</time></trkpt>
<trkpt lat="35.170535" lon="-84.879514"><ele>246.3</ele><time>2026-07-26T19:00:10Z</time></trkpt>
<trkpt lat="35.170562" lon="-84.879502"><ele>247.2</ele><time>2026-07-26T19:00:12Z</time></trkpt>
<trkpt lat="35.170598" lon="-84.879482"><ele>247.2</ele><time>2026-07-26T19:00:15Z</time></trkpt>
<trkpt lat="35.170634" lon="-84.879465"><ele>247.2</ele><time>2026-07-26T19:00:18Z</time></trkpt>
<trkpt lat="35.170668" lon="-84.879446"><ele>247.2</ele><time>2026-07-26T19:00:21Z</time></trkpt>
<trkpt lat="35.170703" lon="-84.879433"><ele>247.8</ele><time>2026-07-26T19:00:24Z</time></trkpt>
<trkpt lat="35.17073" lon="-84.879423"><ele>247.5</ele><time>2026-07-26T19:00:26Z</time></trkpt>
<trkpt lat="35.17077" lon="-84.879408"><ele>247.8</ele><time>2026-07-26T19:00:29Z</time></trkpt>
<trkpt lat="35.170799" lon="-84.8794"><ele>247.8</ele><time>2026-07-26T19:00:31Z</time></trkpt>
<trkpt lat="35.170827" lon="-84.879392"><ele>248.1</ele><time>2026-07-26T19:00:33Z</time></trkpt>
<trkpt lat="35.170854" lon="-84.879385"><ele>247.5</ele><time>2026-07-26T19:00:35Z</time></trkpt>
<trkpt lat="35.170889" lon="-84.879365"><ele>247.2</ele><time>2026-07-26T19:00:38Z</time></trkpt>
<trkpt lat="35.170926" lon="-84.879343"><ele>245.7</ele><time>2026-07-26T19:00:41Z</time></trkpt>
<trkpt lat="35.170953" lon="-84.879331"><ele>246.0</ele><time>2026-07-26T19:00:43Z</time></trkpt>
<trkpt lat="35.17097" lon="-84.879304"><ele>246.3</ele><time>2026-07-26T19:00:45Z</time></trkpt>
<trkpt lat="35.171005" lon="-84.879278"><ele>248.4</ele><time>2026-07-26T19:00:48Z</time></trkpt>
<trkpt lat="35.171034" lon="-84.879274"><ele>248.4</ele><time>2026-07-26T19:00:50Z</time></trkpt>
<trkpt lat="35.171069" lon="-84.879275"><ele>247.5</ele><time>2026-07-26T19:00:52Z</time></trkpt>
<trkpt lat="35.171099" lon="-84.879268"><ele>246.9</ele><time>2026-07-26T19:00:54Z</time></trkpt>
<trkpt lat="35.17113" lon="-84.879256"><ele>246.6</ele><time>2026-07-26T19:00:56Z</time></trkpt>
<trkpt lat="35.171162" lon="-84.879242"><ele>246.9</ele><time>2026-07-26T19:00:58Z</time></trkpt>
<trkpt lat="35.171188" lon="-84.879229"><ele>246.9</ele><time>2026-07-26T19:01:00Z</time></trkpt>
<trkpt lat="35.171215" lon="-84.87922"><ele>246.3</ele><time>2026-07-26T19:01:02Z</time></trkpt>
<trkpt lat="35.171242" lon="-84.879209"><ele>246.3</ele><time>2026-07-26T19:01:04Z</time></trkpt>
<trkpt lat="35.171269" lon="-84.879198"><ele>246.3</ele><time>2026-07-26T19:01:06Z</time></trkpt>
<trkpt lat="35.171305" lon="-84.879175"><ele>245.7</ele><time>2026-07-26T19:01:09Z</time></trkpt>
<trkpt lat="35.171334" lon="-84.879161"><ele>246.0</ele><time>2026-07-26T19:01:11Z</time></trkpt>
<trkpt lat="35.171363" lon="-84.879147"><ele>246.3</ele><time>2026-07-26T19:01:13Z</time></trkpt>
<trkpt lat="35.171391" lon="-84.879136"><ele>246.0</ele><time>2026-07-26T19:01:15Z</time></trkpt>
<trkpt lat="35.171417" lon="-84.879124"><ele>246.6</ele><time>2026-07-26T19:01:17Z</time></trkpt>
<trkpt lat="35.171445" lon="-84.879114"><ele>246.6</ele><time>2026-07-26T19:01:19Z</time></trkpt>
<trkpt lat="35.171474" lon="-84.879107"><ele>246.3</ele><time>2026-07-26T19:01:21Z</time></trkpt>
<trkpt lat="35.171504" lon="-84.879099"><ele>247.2</ele><time>2026-07-26T19:01:23Z</time></trkpt>
<trkpt lat="35.171532" lon="-84.879091"><ele>247.8</ele><time>2026-07-26T19:01:25Z</time></trkpt>
<trkpt lat="35.171559" lon="-84.879082"><ele>247.2</ele><time>2026-07-26T19:01:27Z</time></trkpt>
<trkpt lat="35.171586" lon="-84.879068"><ele>246.9</ele><time>2026-07-26T19:01:29Z</time></trkpt>
<trkpt lat="35.171612" lon="-84.87905"><ele>246.6</ele><time>2026-07-26T19:01:31Z</time></trkpt>
<trkpt lat="35.171637" lon="-84.879033"><ele>246.6</ele><time>2026-07-26T19:01:33Z</time></trkpt>
<trkpt lat="35.171673" lon="-84.879011"><ele>246.0</ele><time>2026-07-26T19:01:36Z</time></trkpt>
<trkpt lat="35.171701" lon="-84.878999"><ele>246.0</ele><time>2026-07-26T19:01:38Z</time></trkpt>
<trkpt lat="35.171726" lon="-84.878985"><ele>245.4</ele><time>2026-07-26T19:01:40Z</time></trkpt>
<trkpt lat="35.171754" lon="-84.878971"><ele>244.4</ele><time>2026-07-26T19:01:42Z</time></trkpt>
<trkpt lat="35.17179" lon="-84.878961"><ele>245.4</ele><time>2026-07-26T19:01:44Z</time></trkpt>
<trkpt lat="35.171829" lon="-84.878947"><ele>245.4</ele><time>2026-07-26T19:01:47Z</time></trkpt>
<trkpt lat="35.171856" lon="-84.878934"><ele>245.4</ele><time>2026-07-26T19:01:49Z</time></trkpt>
<trkpt lat="35.171895" lon="-84.878928"><ele>245.1</ele><time>2026-07-26T19:01:52Z</time></trkpt>
<trkpt lat="35.171923" lon="-84.878922"><ele>244.1</ele><time>2026-07-26T19:01:54Z</time></trkpt>
<trkpt lat="35.17195" lon="-84.878906"><ele>243.5</ele><time>2026-07-26T19:01:56Z</time></trkpt>
<trkpt lat="35.171988" lon="-84.878887"><ele>243.8</ele><time>2026-07-26T19:01:59Z</time></trkpt>
<trkpt lat="35.172013" lon="-84.878871"><ele>244.8</ele><time>2026-07-26T19:02:01Z</time></trkpt>
<trkpt lat="35.172047" lon="-84.878852"><ele>246.0</ele><time>2026-07-26T19:02:04Z</time></trkpt>
<trkpt lat="35.172083" lon="-84.878835"><ele>246.6</ele><time>2026-07-26T19:02:07Z</time></trkpt>
<trkpt lat="35.172119" lon="-84.878816"><ele>246.3</ele><time>2026-07-26T19:02:10Z</time></trkpt>
<trkpt lat="35.172146" lon="-84.878807"><ele>246.3</ele><time>2026-07-26T19:02:12Z</time></trkpt>
<trkpt lat="35.172174" lon="-84.878798"><ele>246.6</ele><time>2026-07-26T19:02:14Z</time></trkpt>
<trkpt lat="35.172201" lon="-84.878787"><ele>246.9</ele><time>2026-07-26T19:02:16Z</time></trkpt>
<trkpt lat="35.172229" lon="-84.878776"><ele>246.9</ele><time>2026-07-26T19:02:18Z</time></trkpt>
<trkpt lat="35.172257" lon="-84.878759"><ele>246.9</ele><time>2026-07-26T19:02:20Z</time></trkpt>
<trkpt lat="35.172284" lon="-84.878746"><ele>247.2</ele><time>2026-07-26T19:02:22Z</time></trkpt>
<trkpt lat="35.17231" lon="-84.878733"><ele>247.5</ele><time>2026-07-26T19:02:24Z</time></trkpt>
<trkpt lat="35.172346" lon="-84.878712"><ele>247.5</ele><time>2026-07-26T19:02:27Z</time></trkpt>
<trkpt lat="35.172383" lon="-84.878692"><ele>248.1</ele><time>2026-07-26T19:02:30Z</time></trkpt>
<trkpt lat="35.172415" lon="-84.878671"><ele>248.1</ele><time>2026-07-26T19:02:33Z</time></trkpt>
<trkpt lat="35.172437" lon="-84.87865"><ele>247.5</ele><time>2026-07-26T19:02:35Z</time></trkpt>
<trkpt lat="35.172457" lon="-84.878626"><ele>247.5</ele><time>2026-07-26T19:02:37Z</time></trkpt>
<trkpt lat="35.172479" lon="-84.878604"><ele>247.5</ele><time>2026-07-26T19:02:39Z</time></trkpt>
<trkpt lat="35.17251" lon="-84.878577"><ele>246.6</ele><time>2026-07-26T19:02:42Z</time></trkpt>
<trkpt lat="35.172546" lon="-84.878557"><ele>245.7</ele><time>2026-07-26T19:02:45Z</time></trkpt>
<trkpt lat="35.172582" lon="-84.878531"><ele>247.2</ele><time>2026-07-26T19:02:48Z</time></trkpt>
<trkpt lat="35.172608" lon="-84.878518"><ele>246.6</ele><time>2026-07-26T19:02:50Z</time></trkpt>
<trkpt lat="35.172635" lon="-84.878503"><ele>247.2</ele><time>2026-07-26T19:02:52Z</time></trkpt>
<trkpt lat="35.17266" lon="-84.878488"><ele>247.5</ele><time>2026-07-26T19:02:54Z</time></trkpt>
<trkpt lat="35.172694" lon="-84.878463"><ele>246.9</ele><time>2026-07-26T19:02:57Z</time></trkpt>
<trkpt lat="35.172732" lon="-84.878458"><ele>247.5</ele><time>2026-07-26T19:03:00Z</time></trkpt>
<trkpt lat="35.172745" lon="-84.878469"><ele>247.2</ele><time>2026-07-26T19:03:02Z</time></trkpt>
<trkpt lat="35.172745" lon="-84.878471"><ele>247.5</ele><time>2026-07-26T19:03:03Z</time></trkpt>
<trkpt lat="35.172743" lon="-84.878472"><ele>247.5</ele><time>2026-07-26T19:03:07Z</time></trkpt>
<trkpt lat="35.172751" lon="-84.878466"><ele>247.5</ele><time>2026-07-26T19:03:08Z</time></trkpt>
<trkpt lat="35.172769" lon="-84.87843"><ele>246.9</ele><time>2026-07-26T19:03:11Z</time></trkpt>
<trkpt lat="35.172791" lon="-84.8784"><ele>245.7</ele><time>2026-07-26T19:03:15Z</time></trkpt>
<trkpt lat="35.172824" lon="-84.87837"><ele>245.7</ele><time>2026-07-26T19:03:18Z</time></trkpt>
<trkpt lat="35.172851" lon="-84.878357"><ele>245.4</ele><time>2026-07-26T19:03:20Z</time></trkpt>
<trkpt lat="35.172881" lon="-84.878343"><ele>245.4</ele><time>2026-07-26T19:03:22Z</time></trkpt>
<trkpt lat="35.172902" lon="-84.87832"><ele>245.7</ele><time>2026-07-26T19:03:25Z</time></trkpt>
<trkpt lat="35.172928" lon="-84.878301"><ele>245.7</ele><time>2026-07-26T19:03:28Z</time></trkpt>
<trkpt lat="35.172953" lon="-84.87828"><ele>246.0</ele><time>2026-07-26T19:03:30Z</time></trkpt>
<trkpt lat="35.172985" lon="-84.878262"><ele>246.3</ele><time>2026-07-26T19:03:32Z</time></trkpt>
<trkpt lat="35.173017" lon="-84.878252"><ele>247.2</ele><time>2026-07-26T19:03:34Z</time></trkpt>
<trkpt lat="35.173047" lon="-84.878234"><ele>247.5</ele><time>2026-07-26T19:03:36Z</time></trkpt>
<trkpt lat="35.173075" lon="-84.878217"><ele>247.5</ele><time>2026-07-26T19:03:38Z</time></trkpt>
<trkpt lat="35.173101" lon="-84.878199"><ele>248.1</ele><time>2026-07-26T19:03:40Z</time></trkpt>
<trkpt lat="35.173127" lon="-84.878185"><ele>248.4</ele><time>2026-07-26T19:03:42Z</time></trkpt>
<trkpt lat="35.173155" lon="-84.878174"><ele>248.4</ele><time>2026-07-26T19:03:44Z</time></trkpt>
<trkpt lat="35.173191" lon="-84.878156"><ele>249.3</ele><time>2026-07-26T19:03:47Z</time></trkpt>
<trkpt lat="35.17322" lon="-84.878138"><ele>249.3</ele><time>2026-07-26T19:03:50Z</time></trkpt>
<trkpt lat="35.173255" lon="-84.878119"><ele>248.4</ele><time>2026-07-26T19:03:53Z</time></trkpt>
<trkpt lat="35.17329" lon="-84.878096"><ele>247.2</ele><time>2026-07-26T19:03:56Z</time></trkpt>
<trkpt lat="35.173315" lon="-84.878076"><ele>247.2</ele><time>2026-07-26T19:03:58Z</time></trkpt>
<trkpt lat="35.173339" lon="-84.878058"><ele>246.9</ele><time>2026-07-26T19:04:00Z</time></trkpt>
<trkpt lat="35.173364" lon="-84.878041"><ele>246.3</ele><time>2026-07-26T19:04:02Z</time></trkpt>
<trkpt lat="35.173396" lon="-84.878015"><ele>246.3</ele><time>2026-07-26T19:04:05Z</time></trkpt>
<trkpt lat="35.173431" lon="-84.877999"><ele>245.7</ele><time>2026-07-26T19:04:08Z</time></trkpt>
<trkpt lat="35.173469" lon="-84.877987"><ele>245.7</ele><time>2026-07-26T19:04:11Z</time></trkpt>
<trkpt lat="35.173495" lon="-84.877968"><ele>246.6</ele><time>2026-07-26T19:04:13Z</time></trkpt>
<trkpt lat="35.173523" lon="-84.877953"><ele>246.9</ele><time>2026-07-26T19:04:15Z</time></trkpt>
<trkpt lat="35.173559" lon="-84.877932"><ele>246.0</ele><time>2026-07-26T19:04:18Z</time></trkpt>
<trkpt lat="35.173592" lon="-84.877901"><ele>246.0</ele><time>2026-07-26T19:04:21Z</time></trkpt>
<trkpt lat="35.173618" lon="-84.877886"><ele>246.3</ele><time>2026-07-26T19:04:23Z</time></trkpt>
<trkpt lat="35.173654" lon="-84.877866"><ele>244.4</ele><time>2026-07-26T19:04:26Z</time></trkpt>
<trkpt lat="35.17368" lon="-84.877848"><ele>245.1</ele><time>2026-07-26T19:04:28Z</time></trkpt>
<trkpt lat="35.173706" lon="-84.877835"><ele>244.4</ele><time>2026-07-26T19:04:30Z</time></trkpt>
<trkpt lat="35.173741" lon="-84.877813"><ele>243.8</ele><time>2026-07-26T19:04:33Z</time></trkpt>
<trkpt lat="35.173767" lon="-84.877802"><ele>244.4</ele><time>2026-07-26T19:04:35Z</time></trkpt>
<trkpt lat="35.173794" lon="-84.87779"><ele>244.4</ele><time>2026-07-26T19:04:37Z</time></trkpt>
<trkpt lat="35.17383" lon="-84.877773"><ele>245.1</ele><time>2026-07-26T19:04:40Z</time></trkpt>
<trkpt lat="35.173866" lon="-84.877751"><ele>245.4</ele><time>2026-07-26T19:04:43Z</time></trkpt>
<trkpt lat="35.173893" lon="-84.877735"><ele>246.0</ele><time>2026-07-26T19:04:45Z</time></trkpt>
<trkpt lat="35.17392" lon="-84.877723"><ele>246.0</ele><time>2026-07-26T19:04:47Z</time></trkpt>
<trkpt lat="35.173947" lon="-84.877708"><ele>246.3</ele><time>2026-07-26T19:04:49Z</time></trkpt>
<trkpt lat="35.173973" lon="-84.877694"><ele>246.0</ele><time>2026-07-26T19:04:51Z</time></trkpt>
<trkpt lat="35.174" lon="-84.877681"><ele>246.0</ele><time>2026-07-26T19:04:53Z</time></trkpt>
<trkpt lat="35.174025" lon="-84.877666"><ele>245.7</ele><time>2026-07-26T19:04:55Z</time></trkpt>
<trkpt lat="35.174049" lon="-84.877646"><ele>246.6</ele><time>2026-07-26T19:04:57Z</time></trkpt>
<trkpt lat="35.174075" lon="-84.877627"><ele>247.5</ele><time>2026-07-26T19:04:59Z</time></trkpt>
<trkpt lat="35.174106" lon="-84.877608"><ele>248.7</ele><time>2026-07-26T19:05:01Z</time></trkpt>
<trkpt lat="35.174133" lon="-84.877597"><ele>248.1</ele><time>2026-07-26T19:05:03Z</time></trkpt>
<trkpt lat="35.17417" lon="-84.877586"><ele>248.4</ele><time>2026-07-26T19:05:06Z</time></trkpt>
<trkpt lat="35.174207" lon="-84.87757"><ele>249.9</ele><time>2026-07-26T19:05:09Z</time></trkpt>
<trkpt lat="35.174246" lon="-84.877552"><ele>249.6</ele><time>2026-07-26T19:05:12Z</time></trkpt>
<trkpt lat="35.174271" lon="-84.877536"><ele>248.4</ele><time>2026-07-26T19:05:14Z</time></trkpt>
<trkpt lat="35.174297" lon="-84.877521"><ele>247.8</ele><time>2026-07-26T19:05:16Z</time></trkpt>
<trkpt lat="35.174332" lon="-84.877505"><ele>246.9</ele><time>2026-07-26T19:05:19Z</time></trkpt>
<trkpt lat="35.174366" lon="-84.877487"><ele>247.2</ele><time>2026-07-26T19:05:22Z</time></trkpt>
<trkpt lat="35.174402" lon="-84.877471"><ele>246.9</ele><time>2026-07-26T19:05:25Z</time></trkpt>
<trkpt lat="35.174438" lon="-84.877448"><ele>246.0</ele><time>2026-07-26T19:05:28Z</time></trkpt>
<trkpt lat="35.174465" lon="-84.87744"><ele>246.6</ele><time>2026-07-26T19:05:30Z</time></trkpt>
<trkpt lat="35.174488" lon="-84.877422"><ele>246.3</ele><time>2026-07-26T19:05:32Z</time></trkpt>
<trkpt lat="35.174524" lon="-84.877402"><ele>245.7</ele><time>2026-07-26T19:05:35Z</time></trkpt>
<trkpt lat="35.174558" lon="-84.877374"><ele>245.4</ele><time>2026-07-26T19:05:38Z</time></trkpt>
<trkpt lat="35.174583" lon="-84.877356"><ele>245.4</ele><time>2026-07-26T19:05:40Z</time></trkpt>
<trkpt lat="35.174609" lon="-84.877341"><ele>246.3</ele><time>2026-07-26T19:05:42Z</time></trkpt>
<trkpt lat="35.174634" lon="-84.877325"><ele>246.6</ele><time>2026-07-26T19:05:44Z</time></trkpt>
<trkpt lat="35.174658" lon="-84.877308"><ele>246.0</ele><time>2026-07-26T19:05:46Z</time></trkpt>
<trkpt lat="35.17468" lon="-84.877286"><ele>245.7</ele><time>2026-07-26T19:05:48Z</time></trkpt>
<trkpt lat="35.174713" lon="-84.877261"><ele>244.8</ele><time>2026-07-26T19:05:51Z</time></trkpt>
<trkpt lat="35.174739" lon="-84.877244"><ele>246.0</ele><time>2026-07-26T19:05:53Z</time></trkpt>
<trkpt lat="35.174767" lon="-84.877229"><ele>246.0</ele><time>2026-07-26T19:05:55Z</time></trkpt>
<trkpt lat="35.174793" lon="-84.877213"><ele>245.7</ele><time>2026-07-26T19:05:57Z</time></trkpt>
<trkpt lat="35.174819" lon="-84.877198"><ele>246.3</ele><time>2026-07-26T19:05:59Z</time></trkpt>
<trkpt lat="35.174842" lon="-84.877181"><ele>246.3</ele><time>2026-07-26T19:06:01Z</time></trkpt>
<trkpt lat="35.174876" lon="-84.877159"><ele>246.0</ele><time>2026-07-26T19:06:04Z</time></trkpt>
<trkpt lat="35.174901" lon="-84.877141"><ele>245.7</ele><time>2026-07-26T19:06:06Z</time></trkpt>
<trkpt lat="35.174924" lon="-84.877123"><ele>244.8</ele><time>2026-07-26T19:06:08Z</time></trkpt>
<trkpt lat="35.174948" lon="-84.877105"><ele>244.4</ele><time>2026-07-26T19:06:10Z</time></trkpt>
<trkpt lat="35.174972" lon="-84.877088"><ele>244.4</ele><time>2026-07-26T19:06:12Z</time></trkpt>
<trkpt lat="35.174999" lon="-84.877074"><ele>245.1</ele><time>2026-07-26T19:06:14Z</time></trkpt>
<trkpt lat="35.175028" lon="-84.877058"><ele>245.4</ele><time>2026-07-26T19:06:16Z</time></trkpt>
<trkpt lat="35.175054" lon="-84.87704"><ele>245.1</ele><time>2026-07-26T19:06:18Z</time></trkpt>
<trkpt lat="35.175083" lon="-84.877027"><ele>245.4</ele><time>2026-07-26T19:06:20Z</time></trkpt>
<trkpt lat="35.175111" lon="-84.87702"><ele>245.1</ele><time>2026-07-26T19:06:22Z</time></trkpt>
<trkpt lat="35.175139" lon="-84.877012"><ele>244.1</ele><time>2026-07-26T19:06:24Z</time></trkpt>
<trkpt lat="35.175166" lon="-84.876999"><ele>244.4</ele><time>2026-07-26T19:06:26Z</time></trkpt>
<trkpt lat="35.17519" lon="-84.876979"><ele>244.8</ele><time>2026-07-26T19:06:28Z</time></trkpt>
<trkpt lat="35.175214" lon="-84.876962"><ele>246.3</ele><time>2026-07-26T19:06:30Z</time></trkpt>
<trkpt lat="35.175238" lon="-84.876945"><ele>246.0</ele><time>2026-07-26T19:06:32Z</time></trkpt>
<trkpt lat="35.175273" lon="-84.876927"><ele>245.1</ele><time>2026-07-26T19:06:35Z</time></trkpt>
<trkpt lat="35.175308" lon="-84.876908"><ele>245.1</ele><time>2026-07-26T19:06:38Z</time></trkpt>
<trkpt lat="35.175347" lon="-84.876891"><ele>245.7</ele><time>2026-07-26T19:06:41Z</time></trkpt>
<trkpt lat="35.175381" lon="-84.876872"><ele>246.6</ele><time>2026-07-26T19:06:44Z</time></trkpt>
<trkpt lat="35.175415" lon="-84.87685"><ele>246.0</ele><time>2026-07-26T19:06:47Z</time></trkpt>
<trkpt lat="35.175441" lon="-84.876838"><ele>246.0</ele><time>2026-07-26T19:06:49Z</time></trkpt>
<trkpt lat="35.175466" lon="-84.876823"><ele>245.7</ele><time>2026-07-26T19:06:51Z</time></trkpt>
<trkpt lat="35.175494" lon="-84.876811"><ele>245.4</ele><time>2026-07-26T19:06:53Z</time></trkpt>
<trkpt lat="35.175531" lon="-84.876789"><ele>245.4</ele><time>2026-07-26T19:06:56Z</time></trkpt>
<trkpt lat="35.175566" lon="-84.876765"><ele>245.7</ele><time>2026-07-26T19:06:59Z</time></trkpt>
<trkpt lat="35.175592" lon="-84.876749"><ele>246.3</ele><time>2026-07-26T19:07:01Z</time></trkpt>
<trkpt lat="35.175618" lon="-84.876735"><ele>246.6</ele><time>2026-07-26T19:07:03Z</time></trkpt>
<trkpt lat="35.175646" lon="-84.876728"><ele>246.3</ele><time>2026-07-26T19:07:05Z</time></trkpt>
<trkpt lat="35.175669" lon="-84.876711"><ele>246.6</ele><time>2026-07-26T19:07:07Z</time></trkpt>
<trkpt lat="35.175706" lon="-84.876693"><ele>245.7</ele><time>2026-07-26T19:07:10Z</time></trkpt>
<trkpt lat="35.175742" lon="-84.876671"><ele>245.1</ele><time>2026-07-26T19:07:13Z</time></trkpt>
<trkpt lat="35.175775" lon="-84.876646"><ele>245.7</ele><time>2026-07-26T19:07:16Z</time></trkpt>
<trkpt lat="35.175801" lon="-84.876633"><ele>246.0</ele><time>2026-07-26T19:07:18Z</time></trkpt>
<trkpt lat="35.175827" lon="-84.876619"><ele>246.9</ele><time>2026-07-26T19:07:20Z</time></trkpt>
<trkpt lat="35.175862" lon="-84.876597"><ele>246.3</ele><time>2026-07-26T19:07:23Z</time></trkpt>
<trkpt lat="35.175897" lon="-84.876571"><ele>246.3</ele><time>2026-07-26T19:07:26Z</time></trkpt>
<trkpt lat="35.175935" lon="-84.87655"><ele>246.3</ele><time>2026-07-26T19:07:29Z</time></trkpt>
<trkpt lat="35.175971" lon="-84.876533"><ele>245.7</ele><time>2026-07-26T19:07:32Z</time></trkpt>
<trkpt lat="35.176005" lon="-84.876511"><ele>245.7</ele><time>2026-07-26T19:07:35Z</time></trkpt>
<trkpt lat="35.176038" lon="-84.876488"><ele>246.0</ele><time>2026-07-26T19:07:38Z</time></trkpt>
<trkpt lat="35.176062" lon="-84.876471"><ele>246.0</ele><time>2026-07-26T19:07:40Z</time></trkpt>
<trkpt lat="35.176098" lon="-84.87645"><ele>245.1</ele><time>2026-07-26T19:07:43Z</time></trkpt>
<trkpt lat="35.176133" lon="-84.87643"><ele>245.7</ele><time>2026-07-26T19:07:46Z</time></trkpt>
<trkpt lat="35.17616" lon="-84.876416"><ele>246.3</ele><time>2026-07-26T19:07:48Z</time></trkpt>
<trkpt lat="35.176186" lon="-84.876403"><ele>246.3</ele><time>2026-07-26T19:07:50Z</time></trkpt>
<trkpt lat="35.176224" lon="-84.876383"><ele>246.0</ele><time>2026-07-26T19:07:53Z</time></trkpt>
<trkpt lat="35.17625" lon="-84.876374"><ele>246.3</ele><time>2026-07-26T19:07:55Z</time></trkpt>
<trkpt lat="35.176276" lon="-84.876362"><ele>246.6</ele><time>2026-07-26T19:07:57Z</time></trkpt>
<trkpt lat="35.176313" lon="-84.87634"><ele>246.3</ele><time>2026-07-26T19:08:00Z</time></trkpt>
<trkpt lat="35.176339" lon="-84.876324"><ele>246.0</ele><time>2026-07-26T19:08:02Z</time></trkpt>
<trkpt lat="35.176366" lon="-84.87631"><ele>245.7</ele><time>2026-07-26T19:08:04Z</time></trkpt>
<trkpt lat="35.176392" lon="-84.876297"><ele>245.7</ele><time>2026-07-26T19:08:06Z</time></trkpt>
<trkpt lat="35.176426" lon="-84.876267"><ele>244.4</ele><time>2026-07-26T19:08:09Z</time></trkpt>
<trkpt lat="35.176451" lon="-84.876251"><ele>246.0</ele><time>2026-07-26T19:08:11Z</time></trkpt>
<trkpt lat="35.176476" lon="-84.876235"><ele>246.0</ele><time>2026-07-26T19:08:13Z</time></trkpt>
<trkpt lat="35.176503" lon="-84.876225"><ele>245.1</ele><time>2026-07-26T19:08:15Z</time></trkpt>
<trkpt lat="35.176531" lon="-84.876215"><ele>245.4</ele><time>2026-07-26T19:08:17Z</time></trkpt>
<trkpt lat="35.17657" lon="-84.876204"><ele>245.4</ele><time>2026-07-26T19:08:20Z</time></trkpt>
<trkpt lat="35.176596" lon="-84.876188"><ele>245.7</ele><time>2026-07-26T19:08:22Z</time></trkpt>
<trkpt lat="35.176621" lon="-84.876171"><ele>246.0</ele><time>2026-07-26T19:08:24Z</time></trkpt>
<trkpt lat="35.176657" lon="-84.876153"><ele>246.0</ele><time>2026-07-26T19:08:27Z</time></trkpt>
<trkpt lat="35.176692" lon="-84.876126"><ele>246.9</ele><time>2026-07-26T19:08:30Z</time></trkpt>
<trkpt lat="35.176718" lon="-84.876115"><ele>246.3</ele><time>2026-07-26T19:08:32Z</time></trkpt>
<trkpt lat="35.176742" lon="-84.876099"><ele>246.6</ele><time>2026-07-26T19:08:34Z</time></trkpt>
<trkpt lat="35.176778" lon="-84.876083"><ele>246.3</ele><time>2026-07-26T19:08:37Z</time></trkpt>
<trkpt lat="35.176803" lon="-84.876066"><ele>246.6</ele><time>2026-07-26T19:08:39Z</time></trkpt>
<trkpt lat="35.176839" lon="-84.876045"><ele>246.0</ele><time>2026-07-26T19:08:42Z</time></trkpt>
<trkpt lat="35.176872" lon="-84.876021"><ele>245.4</ele><time>2026-07-26T19:08:45Z</time></trkpt>
<trkpt lat="35.1769" lon="-84.875986"><ele>245.1</ele><time>2026-07-26T19:08:48Z</time></trkpt>
<trkpt lat="35.176933" lon="-84.875959"><ele>245.4</ele><time>2026-07-26T19:08:51Z</time></trkpt>
<trkpt lat="35.17696" lon="-84.875927"><ele>245.1</ele><time>2026-07-26T19:08:54Z</time></trkpt>
<trkpt lat="35.176991" lon="-84.875897"><ele>243.2</ele><time>2026-07-26T19:08:57Z</time></trkpt>
<trkpt lat="35.177015" lon="-84.875879"><ele>243.8</ele><time>2026-07-26T19:08:59Z</time></trkpt>
<trkpt lat="35.177041" lon="-84.875867"><ele>244.8</ele><time>2026-07-26T19:09:01Z</time></trkpt>
<trkpt lat="35.177067" lon="-84.87585"><ele>245.4</ele><time>2026-07-26T19:09:03Z</time></trkpt>
<trkpt lat="35.177091" lon="-84.875827"><ele>246.6</ele><time>2026-07-26T19:09:05Z</time></trkpt>
<trkpt lat="35.177119" lon="-84.875812"><ele>248.1</ele><time>2026-07-26T19:09:07Z</time></trkpt>
<trkpt lat="35.177149" lon="-84.8758"><ele>249.0</ele><time>2026-07-26T19:09:09Z</time></trkpt>
<trkpt lat="35.177173" lon="-84.875783"><ele>249.3</ele><time>2026-07-26T19:09:11Z</time></trkpt>
<trkpt lat="35.177195" lon="-84.875762"><ele>248.7</ele><time>2026-07-26T19:09:13Z</time></trkpt>
<trkpt lat="35.177222" lon="-84.875745"><ele>249.0</ele><time>2026-07-26T19:09:15Z</time></trkpt>
<trkpt lat="35.177248" lon="-84.875729"><ele>249.0</ele><time>2026-07-26T19:09:17Z</time></trkpt>
<trkpt lat="35.177275" lon="-84.875691"><ele>248.1</ele><time>2026-07-26T19:09:20Z</time></trkpt>
<trkpt lat="35.177266" lon="-84.875647"><ele>247.2</ele><time>2026-07-26T19:09:22Z</time></trkpt>
<trkpt lat="35.177246" lon="-84.87561"><ele>247.5</ele><time>2026-07-26T19:09:24Z</time></trkpt>
<trkpt lat="35.177225" lon="-84.875576"><ele>247.2</ele><time>2026-07-26T19:09:26Z</time></trkpt>
<trkpt lat="35.177207" lon="-84.875525"><ele>246.9</ele><time>2026-07-26T19:09:29Z</time></trkpt>
<trkpt lat="35.177197" lon="-84.87549"><ele>247.5</ele><time>2026-07-26T19:09:31Z</time></trkpt>
<trkpt lat="35.177224" lon="-84.875459"><ele>250.5</ele><time>2026-07-26T19:09:33Z</time></trkpt>
<trkpt lat="35.177245" lon="-84.875432"><ele>248.7</ele><time>2026-07-26T19:09:35Z</time></trkpt>
<trkpt lat="35.177272" lon="-84.875416"><ele>248.7</ele><time>2026-07-26T19:09:37Z</time></trkpt>
<trkpt lat="35.177308" lon="-84.875416"><ele>249.0</ele><time>2026-07-26T19:09:39Z</time></trkpt>
<trkpt lat="35.17734" lon="-84.875403"><ele>247.2</ele><time>2026-07-26T19:09:42Z</time></trkpt>
<trkpt lat="35.177373" lon="-84.875383"><ele>244.4</ele><time>2026-07-26T19:09:46Z</time></trkpt>
<trkpt lat="35.177402" lon="-84.875368"><ele>243.8</ele><time>2026-07-26T19:09:49Z</time></trkpt>
<trkpt lat="35.177434" lon="-84.875352"><ele>243.5</ele><time>2026-07-26T19:09:52Z</time></trkpt>
<trkpt lat="35.17747" lon="-84.875334"><ele>243.8</ele><time>2026-07-26T19:09:55Z</time></trkpt>
<trkpt lat="35.177504" lon="-84.875316"><ele>243.2</ele><time>2026-07-26T19:09:58Z</time></trkpt>
<trkpt lat="35.177534" lon="-84.875291"><ele>243.2</ele><time>2026-07-26T19:10:01Z</time></trkpt>
<trkpt lat="35.177568" lon="-84.875266"><ele>240.8</ele><time>2026-07-26T19:10:04Z</time></trkpt>
<trkpt lat="35.177606" lon="-84.87525"><ele>239.3</ele><time>2026-07-26T19:10:07Z</time></trkpt>
<trkpt lat="35.177643" lon="-84.875238"><ele>236.5</ele><time>2026-07-26T19:10:10Z</time></trkpt>
<trkpt lat="35.17767" lon="-84.875223"><ele>236.2</ele><time>2026-07-26T19:10:12Z</time></trkpt>
<trkpt lat="35.177696" lon="-84.875211"><ele>235.6</ele><time>2026-07-26T19:10:14Z</time></trkpt>
<trkpt lat="35.177734" lon="-84.875192"><ele>235.6</ele><time>2026-07-26T19:10:17Z</time></trkpt>
<trkpt lat="35.17776" lon="-84.875176"><ele>236.5</ele><time>2026-07-26T19:10:19Z</time></trkpt>
<trkpt lat="35.177796" lon="-84.875158"><ele>236.2</ele><time>2026-07-26T19:10:22Z</time></trkpt>
<trkpt lat="35.177823" lon="-84.875143"><ele>237.1</ele><time>2026-07-26T19:10:24Z</time></trkpt>
<trkpt lat="35.177858" lon="-84.875126"><ele>239.0</ele><time>2026-07-26T19:10:26Z</time></trkpt>
<trkpt lat="35.177885" lon="-84.875114"><ele>239.3</ele><time>2026-07-26T19:10:28Z</time></trkpt>
<trkpt lat="35.177913" lon="-84.875099"><ele>240.2</ele><time>2026-07-26T19:10:30Z</time></trkpt>
<trkpt lat="35.177945" lon="-84.875086"><ele>240.2</ele><time>2026-07-26T19:10:32Z</time></trkpt>
<trkpt lat="35.177983" lon="-84.87507"><ele>240.8</ele><time>2026-07-26T19:10:35Z</time></trkpt>
<trkpt lat="35.178013" lon="-84.875053"><ele>239.0</ele><time>2026-07-26T19:10:37Z</time></trkpt>
<trkpt lat="35.178041" lon="-84.875032"><ele>238.4</ele><time>2026-07-26T19:10:39Z</time></trkpt>
<trkpt lat="35.178068" lon="-84.875011"><ele>238.4</ele><time>2026-07-26T19:10:41Z</time></trkpt>
<trkpt lat="35.178096" lon="-84.874993"><ele>239.0</ele><time>2026-07-26T19:10:43Z</time></trkpt>
<trkpt lat="35.17813" lon="-84.874979"><ele>239.9</ele><time>2026-07-26T19:10:45Z</time></trkpt>
<trkpt lat="35.178168" lon="-84.874964"><ele>241.1</ele><time>2026-07-26T19:10:47Z</time></trkpt>
<trkpt lat="35.178194" lon="-84.874948"><ele>240.2</ele><time>2026-07-26T19:10:49Z</time></trkpt>
<trkpt lat="35.17822" lon="-84.874934"><ele>239.6</ele><time>2026-07-26T19:10:51Z</time></trkpt>
<trkpt lat="35.17825" lon="-84.874922"><ele>239.9</ele><time>2026-07-26T19:10:53Z</time></trkpt>
<trkpt lat="35.178282" lon="-84.874912"><ele>238.4</ele><time>2026-07-26T19:10:55Z</time></trkpt>
<trkpt lat="35.178319" lon="-84.874908"><ele>238.7</ele><time>2026-07-26T19:10:57Z</time></trkpt>
<trkpt lat="35.178349" lon="-84.874898"><ele>238.7</ele><time>2026-07-26T19:10:59Z</time></trkpt>
<trkpt lat="35.17838" lon="-84.874887"><ele>239.6</ele><time>2026-07-26T19:11:01Z</time></trkpt>
<trkpt lat="35.178409" lon="-84.874875"><ele>240.2</ele><time>2026-07-26T19:11:03Z</time></trkpt>
<trkpt lat="35.178435" lon="-84.874862"><ele>240.8</ele><time>2026-07-26T19:11:05Z</time></trkpt>
<trkpt lat="35.178466" lon="-84.874847"><ele>241.7</ele><time>2026-07-26T19:11:07Z</time></trkpt>
<trkpt lat="35.178492" lon="-84.874828"><ele>241.4</ele><time>2026-07-26T19:11:09Z</time></trkpt>
<trkpt lat="35.178514" lon="-84.874798"><ele>241.7</ele><time>2026-07-26T19:11:11Z</time></trkpt>
<trkpt lat="35.178525" lon="-84.874765"><ele>240.8</ele><time>2026-07-26T19:11:13Z</time></trkpt>
<trkpt lat="35.178538" lon="-84.874732"><ele>241.1</ele><time>2026-07-26T19:11:15Z</time></trkpt>
<trkpt lat="35.178559" lon="-84.874711"><ele>241.1</ele><time>2026-07-26T19:11:17Z</time></trkpt>
<trkpt lat="35.17859" lon="-84.874708"><ele>240.5</ele><time>2026-07-26T19:11:19Z</time></trkpt>
<trkpt lat="35.17863" lon="-84.874703"><ele>241.1</ele><time>2026-07-26T19:11:22Z</time></trkpt>
<trkpt lat="35.178668" lon="-84.87469"><ele>241.1</ele><time>2026-07-26T19:11:25Z</time></trkpt>
<trkpt lat="35.178698" lon="-84.874685"><ele>241.1</ele><time>2026-07-26T19:11:27Z</time></trkpt>
<trkpt lat="35.178727" lon="-84.874677"><ele>240.8</ele><time>2026-07-26T19:11:29Z</time></trkpt>
<trkpt lat="35.178759" lon="-84.874661"><ele>242.0</ele><time>2026-07-26T19:11:31Z</time></trkpt>
<trkpt lat="35.178786" lon="-84.874648"><ele>241.4</ele><time>2026-07-26T19:11:33Z</time></trkpt>
<trkpt lat="35.178825" lon="-84.874632"><ele>241.1</ele><time>2026-07-26T19:11:36Z</time></trkpt>
<trkpt lat="35.178851" lon="-84.874615"><ele>241.4</ele><time>2026-07-26T19:11:38Z</time></trkpt>
<trkpt lat="35.17889" lon="-84.874599"><ele>242.3</ele><time>2026-07-26T19:11:41Z</time></trkpt>
<trkpt lat="35.178916" lon="-84.874584"><ele>242.9</ele><time>2026-07-26T19:11:43Z</time></trkpt>
<trkpt lat="35.178943" lon="-84.874554"><ele>242.3</ele><time>2026-07-26T19:11:46Z</time></trkpt>
<trkpt lat="35.178982" lon="-84.874544"><ele>241.4</ele><time>2026-07-26T19:11:49Z</time></trkpt>
<trkpt lat="35.17902" lon="-84.874529"><ele>239.3</ele><time>2026-07-26T19:11:52Z</time></trkpt>
<trkpt lat="35.179044" lon="-84.874512"><ele>238.4</ele><time>2026-07-26T19:11:54Z</time></trkpt>
<trkpt lat="35.179071" lon="-84.874495"><ele>239.3</ele><time>2026-07-26T19:11:56Z</time></trkpt>
<trkpt lat="35.179101" lon="-84.874476"><ele>239.9</ele><time>2026-07-26T19:11:58Z</time></trkpt>
<trkpt lat="35.179129" lon="-84.874458"><ele>241.4</ele><time>2026-07-26T19:12:00Z</time></trkpt>
<trkpt lat="35.179165" lon="-84.874438"><ele>243.2</ele><time>2026-07-26T19:12:03Z</time></trkpt>
<trkpt lat="35.179189" lon="-84.874421"><ele>242.0</ele><time>2026-07-26T19:12:05Z</time></trkpt>
<trkpt lat="35.179218" lon="-84.874408"><ele>242.0</ele><time>2026-07-26T19:12:07Z</time></trkpt>
<trkpt lat="35.179245" lon="-84.874395"><ele>242.6</ele><time>2026-07-26T19:12:09Z</time></trkpt>
<trkpt lat="35.179272" lon="-84.874377"><ele>243.8</ele><time>2026-07-26T19:12:11Z</time></trkpt>
<trkpt lat="35.179308" lon="-84.874356"><ele>243.2</ele><time>2026-07-26T19:12:14Z</time></trkpt>
<trkpt lat="35.179344" lon="-84.874344"><ele>242.9</ele><time>2026-07-26T19:12:17Z</time></trkpt>
<trkpt lat="35.179382" lon="-84.87433"><ele>242.0</ele><time>2026-07-26T19:12:20Z</time></trkpt>
<trkpt lat="35.179416" lon="-84.874308"><ele>241.7</ele><time>2026-07-26T19:12:23Z</time></trkpt>
<trkpt lat="35.179443" lon="-84.874274"><ele>242.9</ele><time>2026-07-26T19:12:26Z</time></trkpt>
<trkpt lat="35.179466" lon="-84.874255"><ele>243.8</ele><time>2026-07-26T19:12:28Z</time></trkpt>
<trkpt lat="35.179506" lon="-84.874249"><ele>242.9</ele><time>2026-07-26T19:12:31Z</time></trkpt>
<trkpt lat="35.179534" lon="-84.874249"><ele>242.0</ele><time>2026-07-26T19:12:33Z</time></trkpt>
<trkpt lat="35.179576" lon="-84.874247"><ele>242.0</ele><time>2026-07-26T19:12:36Z</time></trkpt>
<trkpt lat="35.179603" lon="-84.874248"><ele>241.1</ele><time>2026-07-26T19:12:38Z</time></trkpt>
<trkpt lat="35.179633" lon="-84.874248"><ele>241.1</ele><time>2026-07-26T19:12:40Z</time></trkpt>
<trkpt lat="35.17966" lon="-84.874244"><ele>241.7</ele><time>2026-07-26T19:12:42Z</time></trkpt>
<trkpt lat="35.179689" lon="-84.874238"><ele>242.6</ele><time>2026-07-26T19:12:44Z</time></trkpt>
<trkpt lat="35.179727" lon="-84.874218"><ele>242.0</ele><time>2026-07-26T19:12:47Z</time></trkpt>
<trkpt lat="35.179763" lon="-84.874194"><ele>241.7</ele><time>2026-07-26T19:12:50Z</time></trkpt>
<trkpt lat="35.179789" lon="-84.874181"><ele>241.4</ele><time>2026-07-26T19:12:52Z</time></trkpt>
<trkpt lat="35.179813" lon="-84.874163"><ele>241.4</ele><time>2026-07-26T19:12:54Z</time></trkpt>
<trkpt lat="35.179838" lon="-84.874146"><ele>241.1</ele><time>2026-07-26T19:12:56Z</time></trkpt>
<trkpt lat="35.179875" lon="-84.874125"><ele>241.4</ele><time>2026-07-26T19:12:59Z</time></trkpt>
<trkpt lat="35.179901" lon="-84.87411"><ele>241.7</ele><time>2026-07-26T19:13:01Z</time></trkpt>
<trkpt lat="35.179923" lon="-84.874089"><ele>242.3</ele><time>2026-07-26T19:13:03Z</time></trkpt>
<trkpt lat="35.179949" lon="-84.874074"><ele>242.3</ele><time>2026-07-26T19:13:05Z</time></trkpt>
<trkpt lat="35.179976" lon="-84.874061"><ele>242.0</ele><time>2026-07-26T19:13:07Z</time></trkpt>
<trkpt lat="35.18" lon="-84.874043"><ele>241.7</ele><time>2026-07-26T19:13:09Z</time></trkpt>
<trkpt lat="35.180026" lon="-84.874032"><ele>240.2</ele><time>2026-07-26T19:13:11Z</time></trkpt>
<trkpt lat="35.180054" lon="-84.874014"><ele>241.1</ele><time>2026-07-26T19:13:13Z</time></trkpt>
<trkpt lat="35.18008" lon="-84.873996"><ele>242.0</ele><time>2026-07-26T19:13:15Z</time></trkpt>
<trkpt lat="35.180109" lon="-84.873986"><ele>242.3</ele><time>2026-07-26T19:13:17Z</time></trkpt>
<trkpt lat="35.180137" lon="-84.873973"><ele>242.9</ele><time>2026-07-26T19:13:19Z</time></trkpt>
<trkpt lat="35.180165" lon="-84.873959"><ele>243.5</ele><time>2026-07-26T19:13:21Z</time></trkpt>
<trkpt lat="35.180194" lon="-84.873947"><ele>242.6</ele><time>2026-07-26T19:13:23Z</time></trkpt>
<trkpt lat="35.180233" lon="-84.873938"><ele>241.4</ele><time>2026-07-26T19:13:26Z</time></trkpt>
<trkpt lat="35.180261" lon="-84.873925"><ele>241.4</ele><time>2026-07-26T19:13:28Z</time></trkpt>
<trkpt lat="35.180288" lon="-84.87391"><ele>242.3</ele><time>2026-07-26T19:13:30Z</time></trkpt>
<trkpt lat="35.180315" lon="-84.873898"><ele>242.0</ele><time>2026-07-26T19:13:32Z</time></trkpt>
<trkpt lat="35.180345" lon="-84.873887"><ele>242.6</ele><time>2026-07-26T19:13:34Z</time></trkpt>
<trkpt lat="35.180377" lon="-84.873869"><ele>242.3</ele><time>2026-07-26T19:13:36Z</time></trkpt>
<trkpt lat="35.180406" lon="-84.873853"><ele>242.3</ele><time>2026-07-26T19:13:38Z</time></trkpt>
<trkpt lat="35.180435" lon="-84.873837"><ele>242.6</ele><time>2026-07-26T19:13:40Z</time></trkpt>
<trkpt lat="35.180474" lon="-84.873817"><ele>242.3</ele><time>2026-07-26T19:13:43Z</time></trkpt>
<trkpt lat="35.180502" lon="-84.873805"><ele>241.7</ele><time>2026-07-26T19:13:45Z</time></trkpt>
<trkpt lat="35.180529" lon="-84.873791"><ele>241.1</ele><time>2026-07-26T19:13:47Z</time></trkpt>
<trkpt lat="35.180565" lon="-84.873764"><ele>241.1</ele><time>2026-07-26T19:13:50Z</time></trkpt>
<trkpt lat="35.180593" lon="-84.873748"><ele>240.8</ele><time>2026-07-26T19:13:52Z</time></trkpt>
<trkpt lat="35.180621" lon="-84.873734"><ele>241.4</ele><time>2026-07-26T19:13:54Z</time></trkpt>
<trkpt lat="35.18065" lon="-84.873714"><ele>243.2</ele><time>2026-07-26T19:13:56Z</time></trkpt>
<trkpt lat="35.180679" lon="-84.873702"><ele>242.6</ele><time>2026-07-26T19:13:58Z</time></trkpt>
<trkpt lat="35.180706" lon="-84.873689"><ele>242.0</ele><time>2026-07-26T19:14:00Z</time></trkpt>
<trkpt lat="35.180734" lon="-84.873676"><ele>241.4</ele><time>2026-07-26T19:14:02Z</time></trkpt>
<trkpt lat="35.18076" lon="-84.873656"><ele>241.7</ele><time>2026-07-26T19:14:04Z</time></trkpt>
<trkpt lat="35.180786" lon="-84.873637"><ele>242.0</ele><time>2026-07-26T19:14:06Z</time></trkpt>
<trkpt lat="35.180812" lon="-84.873618"><ele>242.3</ele><time>2026-07-26T19:14:08Z</time></trkpt>
<trkpt lat="35.18084" lon="-84.8736"><ele>242.0</ele><time>2026-07-26T19:14:10Z</time></trkpt>
<trkpt lat="35.180866" lon="-84.873586"><ele>241.1</ele><time>2026-07-26T19:14:12Z</time></trkpt>
<trkpt lat="35.180892" lon="-84.873573"><ele>241.4</ele><time>2026-07-26T19:14:14Z</time></trkpt>
<trkpt lat="35.18092" lon="-84.873559"><ele>242.0</ele><time>2026-07-26T19:14:16Z</time></trkpt>
<trkpt lat="35.180946" lon="-84.873541"><ele>242.3</ele><time>2026-07-26T19:14:18Z</time></trkpt>
<trkpt lat="35.180973" lon="-84.873529"><ele>241.7</ele><time>2026-07-26T19:14:20Z</time></trkpt>
<trkpt lat="35.181001" lon="-84.873517"><ele>242.0</ele><time>2026-07-26T19:14:22Z</time></trkpt>
<trkpt lat="35.181028" lon="-84.873504"><ele>241.1</ele><time>2026-07-26T19:14:24Z</time></trkpt>
<trkpt lat="35.181067" lon="-84.873488"><ele>240.8</ele><time>2026-07-26T19:14:27Z</time></trkpt>
<trkpt lat="35.181093" lon="-84.873476"><ele>241.4</ele><time>2026-07-26T19:14:29Z</time></trkpt>
<trkpt lat="35.18112" lon="-84.873462"><ele>242.0</ele><time>2026-07-26T19:14:31Z</time></trkpt>
<trkpt lat="35.181146" lon="-84.873449"><ele>242.0</ele><time>2026-07-26T19:14:33Z</time></trkpt>
<trkpt lat="35.181182" lon="-84.873424"><ele>242.9</ele><time>2026-07-26T19:14:36Z</time></trkpt>
<trkpt lat="35.18121" lon="-84.873413"><ele>242.6</ele><time>2026-07-26T19:14:38Z</time></trkpt>
<trkpt lat="35.181236" lon="-84.8734"><ele>242.3</ele><time>2026-07-26T19:14:40Z</time></trkpt>
<trkpt lat="35.181263" lon="-84.873383"><ele>242.6</ele><time>2026-07-26T19:14:42Z</time></trkpt>
<trkpt lat="35.181291" lon="-84.873367"><ele>243.5</ele><time>2026-07-26T19:14:44Z</time></trkpt>
<trkpt lat="35.18132" lon="-84.873347"><ele>245.4</ele><time>2026-07-26T19:14:46Z</time></trkpt>
<trkpt lat="35.181347" lon="-84.873332"><ele>245.4</ele><time>2026-07-26T19:14:48Z</time></trkpt>
<trkpt lat="35.181381" lon="-84.87331"><ele>246.0</ele><time>2026-07-26T19:14:51Z</time></trkpt>
<trkpt lat="35.181411" lon="-84.87328"><ele>246.9</ele><time>2026-07-26T19:14:54Z</time></trkpt>
<trkpt lat="35.181434" lon="-84.873259"><ele>247.5</ele><time>2026-07-26T19:14:56Z</time></trkpt>
<trkpt lat="35.181458" lon="-84.87324"><ele>247.5</ele><time>2026-07-26T19:14:58Z</time></trkpt>
<trkpt lat="35.181485" lon="-84.873225"><ele>247.5</ele><time>2026-07-26T19:15:00Z</time></trkpt>
<trkpt lat="35.181513" lon="-84.873217"><ele>247.5</ele><time>2026-07-26T19:15:02Z</time></trkpt>
<trkpt lat="35.181553" lon="-84.873201"><ele>247.2</ele><time>2026-07-26T19:15:05Z</time></trkpt>
<trkpt lat="35.181578" lon="-84.873186"><ele>246.3</ele><time>2026-07-26T19:15:07Z</time></trkpt>
<trkpt lat="35.181606" lon="-84.873181"><ele>246.0</ele><time>2026-07-26T19:15:09Z</time></trkpt>
<trkpt lat="35.181634" lon="-84.87317"><ele>246.6</ele><time>2026-07-26T19:15:11Z</time></trkpt>
<trkpt lat="35.181661" lon="-84.873158"><ele>247.2</ele><time>2026-07-26T19:15:13Z</time></trkpt>
<trkpt lat="35.181687" lon="-84.873147"><ele>247.8</ele><time>2026-07-26T19:15:15Z</time></trkpt>
<trkpt lat="35.181715" lon="-84.873133"><ele>248.1</ele><time>2026-07-26T19:15:17Z</time></trkpt>
<trkpt lat="35.181742" lon="-84.87312"><ele>248.1</ele><time>2026-07-26T19:15:19Z</time></trkpt>
<trkpt lat="35.18177" lon="-84.873109"><ele>248.1</ele><time>2026-07-26T19:15:21Z</time></trkpt>
<trkpt lat="35.181798" lon="-84.873097"><ele>248.7</ele><time>2026-07-26T19:15:23Z</time></trkpt>
<trkpt lat="35.181825" lon="-84.873079"><ele>248.7</ele><time>2026-07-26T19:15:25Z</time></trkpt>
<trkpt lat="35.181852" lon="-84.873062"><ele>248.7</ele><time>2026-07-26T19:15:27Z</time></trkpt>
<trkpt lat="35.181877" lon="-84.873043"><ele>249.0</ele><time>2026-07-26T19:15:29Z</time></trkpt>
<trkpt lat="35.181902" lon="-84.873024"><ele>249.3</ele><time>2026-07-26T19:15:31Z</time></trkpt>
<trkpt lat="35.181928" lon="-84.873005"><ele>250.2</ele><time>2026-07-26T19:15:33Z</time></trkpt>
<trkpt lat="35.181956" lon="-84.872991"><ele>249.9</ele><time>2026-07-26T19:15:35Z</time></trkpt>
<trkpt lat="35.181995" lon="-84.872971"><ele>250.2</ele><time>2026-07-26T19:15:38Z</time></trkpt>
<trkpt lat="35.182022" lon="-84.872957"><ele>250.5</ele><time>2026-07-26T19:15:40Z</time></trkpt>
<trkpt lat="35.182051" lon="-84.872948"><ele>250.2</ele><time>2026-07-26T19:15:42Z</time></trkpt>
<trkpt lat="35.182092" lon="-84.872942"><ele>249.6</ele><time>2026-07-26T19:15:45Z</time></trkpt>
<trkpt lat="35.18212" lon="-84.872933"><ele>249.3</ele><time>2026-07-26T19:15:47Z</time></trkpt>
<trkpt lat="35.182156" lon="-84.872913"><ele>249.0</ele><time>2026-07-26T19:15:50Z</time></trkpt>
<trkpt lat="35.182183" lon="-84.872879"><ele>249.0</ele><time>2026-07-26T19:15:53Z</time></trkpt>
<trkpt lat="35.182201" lon="-84.87284"><ele>249.3</ele><time>2026-07-26T19:15:56Z</time></trkpt>
<trkpt lat="35.1822" lon="-84.87283"><ele>249.3</ele><time>2026-07-26T19:15:57Z</time></trkpt>
<trkpt lat="35.182198" lon="-84.872827"><ele>249.3</ele><time>2026-07-26T19:16:02Z</time></trkpt>
<trkpt lat="35.182201" lon="-84.872825"><ele>249.0</ele><time>2026-07-26T19:16:03Z</time></trkpt>
<trkpt lat="35.182232" lon="-84.872824"><ele>248.1</ele><time>2026-07-26T19:16:06Z</time></trkpt>
<trkpt lat="35.182254" lon="-84.872802"><ele>248.4</ele><time>2026-07-26T19:16:08Z</time></trkpt>
<trkpt lat="35.182279" lon="-84.872778"><ele>248.7</ele><time>2026-07-26T19:16:10Z</time></trkpt>
<trkpt lat="35.182298" lon="-84.87274"><ele>249.0</ele><time>2026-07-26T19:16:13Z</time></trkpt>
<trkpt lat="35.182317" lon="-84.872711"><ele>249.0</ele><time>2026-07-26T19:16:16Z</time></trkpt>
<trkpt lat="35.182335" lon="-84.872674"><ele>248.4</ele><time>2026-07-26T19:16:18Z</time></trkpt>
<trkpt lat="35.182365" lon="-84.872652"><ele>248.4</ele><time>2026-07-26T19:16:20Z</time></trkpt>
<trkpt lat="35.182394" lon="-84.872652"><ele>247.8</ele><time>2026-07-26T19:16:21Z</time></trkpt>
<trkpt lat="35.182427" lon="-84.872651"><ele>247.8</ele><time>2026-07-26T19:16:22Z</time></trkpt>
<trkpt lat="35.182465" lon="-84.87264"><ele>248.1</ele><time>2026-07-26T19:16:24Z</time></trkpt>
<trkpt lat="35.182498" lon="-84.872651"><ele>246.9</ele><time>2026-07-26T19:16:25Z</time></trkpt>
<trkpt lat="35.18256" lon="-84.872677"><ele>246.0</ele><time>2026-07-26T19:16:27Z</time></trkpt>
<trkpt lat="35.18259" lon="-84.872691"><ele>245.7</ele><time>2026-07-26T19:16:28Z</time></trkpt>
<trkpt lat="35.182607" lon="-84.872656"><ele>246.0</ele><time>2026-07-26T19:16:31Z</time></trkpt>
<trkpt lat="35.182608" lon="-84.87262"><ele>246.0</ele><time>2026-07-26T19:16:32Z</time></trkpt>
<trkpt lat="35.182596" lon="-84.872589"><ele>245.7</ele><time>2026-07-26T19:16:33Z</time></trkpt>
<trkpt lat="35.182582" lon="-84.872556"><ele>244.4</ele><time>2026-07-26T19:16:35Z</time></trkpt>
<trkpt lat="35.1826" lon="-84.872521"><ele>244.8</ele><time>2026-07-26T19:16:38Z</time></trkpt>
<trkpt lat="35.18262" lon="-84.872493"><ele>244.1</ele><time>2026-07-26T19:16:40Z</time></trkpt>
<trkpt lat="35.182645" lon="-84.872459"><ele>245.1</ele><time>2026-07-26T19:16:42Z</time></trkpt>
<trkpt lat="35.182662" lon="-84.872426"><ele>243.8</ele><time>2026-07-26T19:16:44Z</time></trkpt>
<trkpt lat="35.182678" lon="-84.872395"><ele>243.8</ele><time>2026-07-26T19:16:46Z</time></trkpt>
<trkpt lat="35.182696" lon="-84.87237"><ele>244.1</ele><time>2026-07-26T19:16:48Z</time></trkpt>
<trkpt lat="35.18272" lon="-84.87233"><ele>244.8</ele><time>2026-07-26T19:16:51Z</time></trkpt>
<trkpt lat="35.182745" lon="-84.87229"><ele>245.4</ele><time>2026-07-26T19:16:54Z</time></trkpt>
<trkpt lat="35.182767" lon="-84.872249"><ele>246.0</ele><time>2026-07-26T19:16:57Z</time></trkpt>
<trkpt lat="35.18279" lon="-84.872209"><ele>246.3</ele><time>2026-07-26T19:17:00Z</time></trkpt>
<trkpt lat="35.182813" lon="-84.872184"><ele>246.3</ele><time>2026-07-26T19:17:02Z</time></trkpt>
<trkpt lat="35.182845" lon="-84.87215"><ele>246.9</ele><time>2026-07-26T19:17:05Z</time></trkpt>
<trkpt lat="35.182872" lon="-84.872115"><ele>246.9</ele><time>2026-07-26T19:17:08Z</time></trkpt>
<trkpt lat="35.182896" lon="-84.872093"><ele>246.3</ele><time>2026-07-26T19:17:10Z</time></trkpt>
<trkpt lat="35.182922" lon="-84.872068"><ele>246.3</ele><time>2026-07-26T19:17:12Z</time></trkpt>
<trkpt lat="35.182943" lon="-84.872045"><ele>245.4</ele><time>2026-07-26T19:17:14Z</time></trkpt>
<trkpt lat="35.182965" lon="-84.872025"><ele>246.3</ele><time>2026-07-26T19:17:16Z</time></trkpt>
<trkpt lat="35.18299" lon="-84.872009"><ele>246.3</ele><time>2026-07-26T19:17:18Z</time></trkpt>
<trkpt lat="35.18302" lon="-84.871977"><ele>246.6</ele><time>2026-07-26T19:17:21Z</time></trkpt>
<trkpt lat="35.183039" lon="-84.871951"><ele>247.2</ele><time>2026-07-26T19:17:23Z</time></trkpt>
<trkpt lat="35.183059" lon="-84.871926"><ele>248.1</ele><time>2026-07-26T19:17:25Z</time></trkpt>
<trkpt lat="35.18309" lon="-84.871892"><ele>247.5</ele><time>2026-07-26T19:17:28Z</time></trkpt>
<trkpt lat="35.18312" lon="-84.871861"><ele>248.1</ele><time>2026-07-26T19:17:31Z</time></trkpt>
<trkpt lat="35.183136" lon="-84.871832"><ele>248.4</ele><time>2026-07-26T19:17:33Z</time></trkpt>
<trkpt lat="35.183142" lon="-84.871796"><ele>249.0</ele><time>2026-07-26T19:17:35Z</time></trkpt>
<trkpt lat="35.183148" lon="-84.871763"><ele>248.4</ele><time>2026-07-26T19:17:37Z</time></trkpt>
<trkpt lat="35.183172" lon="-84.87174"><ele>248.4</ele><time>2026-07-26T19:17:39Z</time></trkpt>
<trkpt lat="35.183199" lon="-84.871719"><ele>248.1</ele><time>2026-07-26T19:17:41Z</time></trkpt>
<trkpt lat="35.183229" lon="-84.8717"><ele>247.5</ele><time>2026-07-26T19:17:43Z</time></trkpt>
<trkpt lat="35.183247" lon="-84.871674"><ele>246.3</ele><time>2026-07-26T19:17:45Z</time></trkpt>
<trkpt lat="35.183267" lon="-84.87163"><ele>244.4</ele><time>2026-07-26T19:17:48Z</time></trkpt>
<trkpt lat="35.183281" lon="-84.871598"><ele>244.1</ele><time>2026-07-26T19:17:50Z</time></trkpt>
<trkpt lat="35.183295" lon="-84.871568"><ele>244.4</ele><time>2026-07-26T19:17:52Z</time></trkpt>
<trkpt lat="35.183313" lon="-84.871522"><ele>243.5</ele><time>2026-07-26T19:17:55Z</time></trkpt>
<trkpt lat="35.183329" lon="-84.87149"><ele>243.8</ele><time>2026-07-26T19:17:57Z</time></trkpt>
<trkpt lat="35.183344" lon="-84.871461"><ele>242.9</ele><time>2026-07-26T19:17:59Z</time></trkpt>
<trkpt lat="35.183361" lon="-84.871432"><ele>242.6</ele><time>2026-07-26T19:18:01Z</time></trkpt>
<trkpt lat="35.183382" lon="-84.871392"><ele>243.2</ele><time>2026-07-26T19:18:04Z</time></trkpt>
<trkpt lat="35.183398" lon="-84.871361"><ele>244.1</ele><time>2026-07-26T19:18:06Z</time></trkpt>
<trkpt lat="35.183412" lon="-84.871331"><ele>244.1</ele><time>2026-07-26T19:18:08Z</time></trkpt>
<trkpt lat="35.183432" lon="-84.871287"><ele>243.8</ele><time>2026-07-26T19:18:11Z</time></trkpt>
<trkpt lat="35.183448" lon="-84.871241"><ele>244.4</ele><time>2026-07-26T19:18:14Z</time></trkpt>
<trkpt lat="35.183461" lon="-84.871209"><ele>244.1</ele><time>2026-07-26T19:18:16Z</time></trkpt>
<trkpt lat="35.183475" lon="-84.871179"><ele>243.8</ele><time>2026-07-26T19:18:18Z</time></trkpt>
<trkpt lat="35.183491" lon="-84.871148"><ele>243.8</ele><time>2026-07-26T19:18:20Z</time></trkpt>
<trkpt lat="35.183505" lon="-84.871117"><ele>244.8</ele><time>2026-07-26T19:18:22Z</time></trkpt>
<trkpt lat="35.183523" lon="-84.87109"><ele>243.2</ele><time>2026-07-26T19:18:24Z</time></trkpt>
<trkpt lat="35.18354" lon="-84.871061"><ele>242.3</ele><time>2026-07-26T19:18:26Z</time></trkpt>
<trkpt lat="35.183551" lon="-84.871028"><ele>242.6</ele><time>2026-07-26T19:18:28Z</time></trkpt>
<trkpt lat="35.183565" lon="-84.870999"><ele>242.3</ele><time>2026-07-26T19:18:30Z</time></trkpt>
<trkpt lat="35.183581" lon="-84.870969"><ele>242.0</ele><time>2026-07-26T19:18:32Z</time></trkpt>
<trkpt lat="35.1836" lon="-84.87094"><ele>242.0</ele><time>2026-07-26T19:18:34Z</time></trkpt>
<trkpt lat="35.183619" lon="-84.870913"><ele>242.3</ele><time>2026-07-26T19:18:36Z</time></trkpt>
<trkpt lat="35.183637" lon="-84.870882"><ele>242.3</ele><time>2026-07-26T19:18:38Z</time></trkpt>
<trkpt lat="35.183652" lon="-84.870853"><ele>242.0</ele><time>2026-07-26T19:18:40Z</time></trkpt>
<trkpt lat="35.183666" lon="-84.87082"><ele>242.9</ele><time>2026-07-26T19:18:42Z</time></trkpt>
<trkpt lat="35.183679" lon="-84.870788"><ele>242.0</ele><time>2026-07-26T19:18:44Z</time></trkpt>
<trkpt lat="35.183698" lon="-84.870758"><ele>242.6</ele><time>2026-07-26T19:18:46Z</time></trkpt>
<trkpt lat="35.183721" lon="-84.870732"><ele>242.6</ele><time>2026-07-26T19:18:48Z</time></trkpt>
<trkpt lat="35.183741" lon="-84.870703"><ele>242.6</ele><time>2026-07-26T19:18:50Z</time></trkpt>
<trkpt lat="35.18376" lon="-84.870675"><ele>243.5</ele><time>2026-07-26T19:18:52Z</time></trkpt>
<trkpt lat="35.18378" lon="-84.870646"><ele>243.5</ele><time>2026-07-26T19:18:54Z</time></trkpt>
<trkpt lat="35.1838" lon="-84.870617"><ele>243.2</ele><time>2026-07-26T19:18:56Z</time></trkpt>
<trkpt lat="35.183819" lon="-84.870588"><ele>242.6</ele><time>2026-07-26T19:18:58Z</time></trkpt>
<trkpt lat="35.183839" lon="-84.870565"><ele>243.2</ele><time>2026-07-26T19:19:00Z</time></trkpt>
<trkpt lat="35.183862" lon="-84.870543"><ele>244.1</ele><time>2026-07-26T19:19:02Z</time></trkpt>
<trkpt lat="35.183885" lon="-84.870525"><ele>244.1</ele><time>2026-07-26T19:19:04Z</time></trkpt>
<trkpt lat="35.183909" lon="-84.870503"><ele>244.1</ele><time>2026-07-26T19:19:06Z</time></trkpt>
<trkpt lat="35.183934" lon="-84.870486"><ele>243.2</ele><time>2026-07-26T19:19:08Z</time></trkpt>
<trkpt lat="35.183954" lon="-84.87046"><ele>243.8</ele><time>2026-07-26T19:19:10Z</time></trkpt>
<trkpt lat="35.183977" lon="-84.870441"><ele>243.2</ele><time>2026-07-26T19:19:12Z</time></trkpt>
<trkpt lat="35.184001" lon="-84.870422"><ele>243.5</ele><time>2026-07-26T19:19:14Z</time></trkpt>
<trkpt lat="35.184025" lon="-84.870401"><ele>243.5</ele><time>2026-07-26T19:19:16Z</time></trkpt>
<trkpt lat="35.184048" lon="-84.870379"><ele>243.8</ele><time>2026-07-26T19:19:18Z</time></trkpt>
<trkpt lat="35.184073" lon="-84.870363"><ele>244.4</ele><time>2026-07-26T19:19:20Z</time></trkpt>
<trkpt lat="35.184097" lon="-84.870339"><ele>245.4</ele><time>2026-07-26T19:19:22Z</time></trkpt>
<trkpt lat="35.184124" lon="-84.870319"><ele>245.7</ele><time>2026-07-26T19:19:24Z</time></trkpt>
<trkpt lat="35.184157" lon="-84.870294"><ele>245.1</ele><time>2026-07-26T19:19:27Z</time></trkpt>
<trkpt lat="35.18418" lon="-84.870272"><ele>245.1</ele><time>2026-07-26T19:19:29Z</time></trkpt>
<trkpt lat="35.184202" lon="-84.870251"><ele>244.8</ele><time>2026-07-26T19:19:31Z</time></trkpt>
<trkpt lat="35.184228" lon="-84.87023"><ele>244.4</ele><time>2026-07-26T19:19:33Z</time></trkpt>
<trkpt lat="35.184256" lon="-84.870218"><ele>244.1</ele><time>2026-07-26T19:19:35Z</time></trkpt>
<trkpt lat="35.184283" lon="-84.870204"><ele>245.1</ele><time>2026-07-26T19:19:37Z</time></trkpt>
<trkpt lat="35.184311" lon="-84.870192"><ele>243.2</ele><time>2026-07-26T19:19:39Z</time></trkpt>
<trkpt lat="35.184338" lon="-84.870178"><ele>241.7</ele><time>2026-07-26T19:19:41Z</time></trkpt>
<trkpt lat="35.184362" lon="-84.870162"><ele>241.4</ele><time>2026-07-26T19:19:43Z</time></trkpt>
<trkpt lat="35.184385" lon="-84.870141"><ele>240.8</ele><time>2026-07-26T19:19:45Z</time></trkpt>
<trkpt lat="35.184408" lon="-84.870116"><ele>240.5</ele><time>2026-07-26T19:19:47Z</time></trkpt>
<trkpt lat="35.184432" lon="-84.870097"><ele>239.6</ele><time>2026-07-26T19:19:49Z</time></trkpt>
<trkpt lat="35.18446" lon="-84.870084"><ele>239.9</ele><time>2026-07-26T19:19:51Z</time></trkpt>
<trkpt lat="35.184485" lon="-84.870063"><ele>239.0</ele><time>2026-07-26T19:19:53Z</time></trkpt>
<trkpt lat="35.184507" lon="-84.87004"><ele>239.0</ele><time>2026-07-26T19:19:55Z</time></trkpt>
<trkpt lat="35.184535" lon="-84.870006"><ele>238.7</ele><time>2026-07-26T19:19:58Z</time></trkpt>
<trkpt lat="35.184558" lon="-84.869986"><ele>239.0</ele><time>2026-07-26T19:20:00Z</time></trkpt>
<trkpt lat="35.184576" lon="-84.869958"><ele>240.5</ele><time>2026-07-26T19:20:02Z</time></trkpt>
<trkpt lat="35.184598" lon="-84.869938"><ele>240.5</ele><time>2026-07-26T19:20:04Z</time></trkpt>
<trkpt lat="35.184626" lon="-84.869924"><ele>241.1</ele><time>2026-07-26T19:20:06Z</time></trkpt>
<trkpt lat="35.184648" lon="-84.869897"><ele>241.7</ele><time>2026-07-26T19:20:08Z</time></trkpt>
<trkpt lat="35.184672" lon="-84.869874"><ele>242.3</ele><time>2026-07-26T19:20:10Z</time></trkpt>
<trkpt lat="35.184696" lon="-84.869855"><ele>241.7</ele><time>2026-07-26T19:20:12Z</time></trkpt>
<trkpt lat="35.184731" lon="-84.869828"><ele>242.6</ele><time>2026-07-26T19:20:15Z</time></trkpt>
<trkpt lat="35.184766" lon="-84.869801"><ele>242.0</ele><time>2026-07-26T19:20:18Z</time></trkpt>
<trkpt lat="35.1848" lon="-84.869771"><ele>242.9</ele><time>2026-07-26T19:20:21Z</time></trkpt>
<trkpt lat="35.184824" lon="-84.869754"><ele>242.3</ele><time>2026-07-26T19:20:23Z</time></trkpt>
<trkpt lat="35.184851" lon="-84.869731"><ele>244.8</ele><time>2026-07-26T19:20:25Z</time></trkpt>
<trkpt lat="35.184873" lon="-84.869709"><ele>242.9</ele><time>2026-07-26T19:20:27Z</time></trkpt>
<trkpt lat="35.184894" lon="-84.869684"><ele>242.6</ele><time>2026-07-26T19:20:29Z</time></trkpt>
<trkpt lat="35.184913" lon="-84.869658"><ele>243.2</ele><time>2026-07-26T19:20:31Z</time></trkpt>
<trkpt lat="35.184945" lon="-84.869626"><ele>243.8</ele><time>2026-07-26T19:20:34Z</time></trkpt>
<trkpt lat="35.184966" lon="-84.869603"><ele>243.5</ele><time>2026-07-26T19:20:36Z</time></trkpt>
<trkpt lat="35.184989" lon="-84.869584"><ele>243.5</ele><time>2026-07-26T19:20:38Z</time></trkpt>
<trkpt lat="35.185013" lon="-84.869562"><ele>243.2</ele><time>2026-07-26T19:20:40Z</time></trkpt>
<trkpt lat="35.185035" lon="-84.869537"><ele>244.4</ele><time>2026-07-26T19:20:42Z</time></trkpt>
<trkpt lat="35.185056" lon="-84.869513"><ele>244.4</ele><time>2026-07-26T19:20:44Z</time></trkpt>
<trkpt lat="35.185086" lon="-84.869508"><ele>244.4</ele><time>2026-07-26T19:20:47Z</time></trkpt>
<trkpt lat="35.185087" lon="-84.869516"><ele>243.5</ele><time>2026-07-26T19:20:49Z</time></trkpt>
<trkpt lat="35.185085" lon="-84.869518"><ele>243.5</ele><time>2026-07-26T19:20:50Z</time></trkpt>
<trkpt lat="35.185084" lon="-84.869519"><ele>243.5</ele><time>2026-07-26T19:20:51Z</time></trkpt>
<trkpt lat="35.185082" lon="-84.869517"><ele>243.2</ele><time>2026-07-26T19:20:52Z</time></trkpt>
<trkpt lat="35.185077" lon="-84.869519"><ele>243.2</ele><time>2026-07-26T19:20:53Z</time></trkpt>
<trkpt lat="35.185075" lon="-84.86952"><ele>243.2</ele><time>2026-07-26T19:20:58Z</time></trkpt>
<trkpt lat="35.185076" lon="-84.869513"><ele>243.2</ele><time>2026-07-26T19:20:59Z</time></trkpt>
<trkpt lat="35.185093" lon="-84.869484"><ele>243.2</ele><time>2026-07-26T19:21:01Z</time></trkpt>
<trkpt lat="35.185112" lon="-84.869457"><ele>243.8</ele><time>2026-07-26T19:21:03Z</time></trkpt>
<trkpt lat="35.185143" lon="-84.869429"><ele>242.9</ele><time>2026-07-26T19:21:06Z</time></trkpt>
<trkpt lat="35.185176" lon="-84.869399"><ele>242.3</ele><time>2026-07-26T19:21:09Z</time></trkpt>
<trkpt lat="35.185198" lon="-84.86938"><ele>242.9</ele><time>2026-07-26T19:21:11Z</time></trkpt>
<trkpt lat="35.185221" lon="-84.869357"><ele>243.8</ele><time>2026-07-26T19:21:13Z</time></trkpt>
<trkpt lat="35.185239" lon="-84.86933"><ele>245.4</ele><time>2026-07-26T19:21:15Z</time></trkpt>
<trkpt lat="35.185256" lon="-84.869297"><ele>245.7</ele><time>2026-07-26T19:21:17Z</time></trkpt>
<trkpt lat="35.185282" lon="-84.869275"><ele>245.1</ele><time>2026-07-26T19:21:19Z</time></trkpt>
<trkpt lat="35.185309" lon="-84.869257"><ele>245.4</ele><time>2026-07-26T19:21:21Z</time></trkpt>
<trkpt lat="35.185337" lon="-84.869236"><ele>246.3</ele><time>2026-07-26T19:21:23Z</time></trkpt>
<trkpt lat="35.185361" lon="-84.869214"><ele>246.6</ele><time>2026-07-26T19:21:25Z</time></trkpt>
<trkpt lat="35.185394" lon="-84.869186"><ele>247.2</ele><time>2026-07-26T19:21:28Z</time></trkpt>
<trkpt lat="35.185419" lon="-84.869168"><ele>247.5</ele><time>2026-07-26T19:21:30Z</time></trkpt>
<trkpt lat="35.185453" lon="-84.86915"><ele>247.5</ele><time>2026-07-26T19:21:32Z</time></trkpt>
<trkpt lat="35.185478" lon="-84.869132"><ele>248.4</ele><time>2026-07-26T19:21:34Z</time></trkpt>
<trkpt lat="35.185517" lon="-84.869111"><ele>248.7</ele><time>2026-07-26T19:21:37Z</time></trkpt>
<trkpt lat="35.185544" lon="-84.8691"><ele>248.1</ele><time>2026-07-26T19:21:39Z</time></trkpt>
<trkpt lat="35.185574" lon="-84.869094"><ele>248.1</ele><time>2026-07-26T19:21:41Z</time></trkpt>
<trkpt lat="35.185612" lon="-84.869077"><ele>246.9</ele><time>2026-07-26T19:21:44Z</time></trkpt>
<trkpt lat="35.185637" lon="-84.869062"><ele>245.4</ele><time>2026-07-26T19:21:46Z</time></trkpt>
<trkpt lat="35.185673" lon="-84.869041"><ele>243.8</ele><time>2026-07-26T19:21:49Z</time></trkpt>
<trkpt lat="35.185696" lon="-84.869023"><ele>244.1</ele><time>2026-07-26T19:21:51Z</time></trkpt>
<trkpt lat="35.185729" lon="-84.868996"><ele>244.4</ele><time>2026-07-26T19:21:54Z</time></trkpt>
<trkpt lat="35.185761" lon="-84.868967"><ele>244.4</ele><time>2026-07-26T19:21:57Z</time></trkpt>
<trkpt lat="35.185787" lon="-84.868946"><ele>246.6</ele><time>2026-07-26T19:21:59Z</time></trkpt>
<trkpt lat="35.185804" lon="-84.868916"><ele>246.9</ele><time>2026-07-26T19:22:01Z</time></trkpt>
<trkpt lat="35.185818" lon="-84.868886"><ele>246.3</ele><time>2026-07-26T19:22:03Z</time></trkpt>
<trkpt lat="35.185838" lon="-84.868859"><ele>246.0</ele><time>2026-07-26T19:22:05Z</time></trkpt>
<trkpt lat="35.185862" lon="-84.868833"><ele>247.2</ele><time>2026-07-26T19:22:07Z</time></trkpt>
<trkpt lat="35.185882" lon="-84.868804"><ele>248.7</ele><time>2026-07-26T19:22:09Z</time></trkpt>
<trkpt lat="35.185906" lon="-84.868775"><ele>248.7</ele><time>2026-07-26T19:22:11Z</time></trkpt>
<trkpt lat="35.185929" lon="-84.868753"><ele>249.0</ele><time>2026-07-26T19:22:13Z</time></trkpt>
<trkpt lat="35.185952" lon="-84.868728"><ele>248.7</ele><time>2026-07-26T19:22:15Z</time></trkpt>
<trkpt lat="35.185972" lon="-84.868702"><ele>249.0</ele><time>2026-07-26T19:22:17Z</time></trkpt>
<trkpt lat="35.186008" lon="-84.868686"><ele>248.4</ele><time>2026-07-26T19:22:20Z</time></trkpt>
<trkpt lat="35.186031" lon="-84.868667"><ele>247.5</ele><time>2026-07-26T19:22:22Z</time></trkpt>
<trkpt lat="35.186068" lon="-84.868652"><ele>245.4</ele><time>2026-07-26T19:22:25Z</time></trkpt>
<trkpt lat="35.186091" lon="-84.868633"><ele>247.5</ele><time>2026-07-26T19:22:27Z</time></trkpt>
<trkpt lat="35.186107" lon="-84.868601"><ele>247.5</ele><time>2026-07-26T19:22:29Z</time></trkpt>
<trkpt lat="35.186137" lon="-84.868572"><ele>246.3</ele><time>2026-07-26T19:22:32Z</time></trkpt>
<trkpt lat="35.186166" lon="-84.868547"><ele>245.7</ele><time>2026-07-26T19:22:35Z</time></trkpt>
<trkpt lat="35.186198" lon="-84.868529"><ele>244.1</ele><time>2026-07-26T19:22:38Z</time></trkpt>
<trkpt lat="35.186232" lon="-84.868513"><ele>242.9</ele><time>2026-07-26T19:22:41Z</time></trkpt>
<trkpt lat="35.18626" lon="-84.868501"><ele>242.6</ele><time>2026-07-26T19:22:43Z</time></trkpt>
<trkpt lat="35.186292" lon="-84.868484"><ele>243.2</ele><time>2026-07-26T19:22:45Z</time></trkpt>
<trkpt lat="35.186339" lon="-84.868469"><ele>244.1</ele><time>2026-07-26T19:22:48Z</time></trkpt>
<trkpt lat="35.186372" lon="-84.868457"><ele>244.1</ele><time>2026-07-26T19:22:50Z</time></trkpt>
<trkpt lat="35.186398" lon="-84.868446"><ele>243.8</ele><time>2026-07-26T19:22:52Z</time></trkpt>
<trkpt lat="35.186434" lon="-84.868425"><ele>243.2</ele><time>2026-07-26T19:22:55Z</time></trkpt>
<trkpt lat="35.186469" lon="-84.868399"><ele>242.6</ele><time>2026-07-26T19:22:58Z</time></trkpt>
<trkpt lat="35.186501" lon="-84.868369"><ele>241.4</ele><time>2026-07-26T19:23:01Z</time></trkpt>
<trkpt lat="35.186523" lon="-84.86834"><ele>241.7</ele><time>2026-07-26T19:23:03Z</time></trkpt>
<trkpt lat="35.18656" lon="-84.868317"><ele>243.5</ele><time>2026-07-26T19:23:06Z</time></trkpt>
<trkpt lat="35.186582" lon="-84.868297"><ele>242.9</ele><time>2026-07-26T19:23:08Z</time></trkpt>
<trkpt lat="35.186607" lon="-84.868283"><ele>243.5</ele><time>2026-07-26T19:23:10Z</time></trkpt>
<trkpt lat="35.186629" lon="-84.86826"><ele>242.6</ele><time>2026-07-26T19:23:12Z</time></trkpt>
<trkpt lat="35.18665" lon="-84.868233"><ele>242.3</ele><time>2026-07-26T19:23:14Z</time></trkpt>
<trkpt lat="35.186673" lon="-84.868213"><ele>241.4</ele><time>2026-07-26T19:23:16Z</time></trkpt>
<trkpt lat="35.186693" lon="-84.86819"><ele>241.4</ele><time>2026-07-26T19:23:18Z</time></trkpt>
<trkpt lat="35.186725" lon="-84.868164"><ele>239.6</ele><time>2026-07-26T19:23:21Z</time></trkpt>
<trkpt lat="35.186755" lon="-84.86813"><ele>238.7</ele><time>2026-07-26T19:23:24Z</time></trkpt>
<trkpt lat="35.186778" lon="-84.868109"><ele>239.3</ele><time>2026-07-26T19:23:26Z</time></trkpt>
<trkpt lat="35.186799" lon="-84.868087"><ele>240.5</ele><time>2026-07-26T19:23:28Z</time></trkpt>
<trkpt lat="35.186831" lon="-84.868055"><ele>241.1</ele><time>2026-07-26T19:23:31Z</time></trkpt>
<trkpt lat="35.186862" lon="-84.868028"><ele>241.1</ele><time>2026-07-26T19:23:34Z</time></trkpt>
<trkpt lat="35.186886" lon="-84.86801"><ele>240.2</ele><time>2026-07-26T19:23:36Z</time></trkpt>
<trkpt lat="35.186921" lon="-84.867985"><ele>239.9</ele><time>2026-07-26T19:23:39Z</time></trkpt>
<trkpt lat="35.186953" lon="-84.867967"><ele>240.8</ele><time>2026-07-26T19:23:41Z</time></trkpt>
<trkpt lat="35.186978" lon="-84.867948"><ele>240.2</ele><time>2026-07-26T19:23:43Z</time></trkpt>
<trkpt lat="35.187014" lon="-84.867927"><ele>239.9</ele><time>2026-07-26T19:23:46Z</time></trkpt>
<trkpt lat="35.187051" lon="-84.867905"><ele>239.3</ele><time>2026-07-26T19:23:49Z</time></trkpt>
<trkpt lat="35.187075" lon="-84.867887"><ele>239.6</ele><time>2026-07-26T19:23:51Z</time></trkpt>
<trkpt lat="35.187096" lon="-84.867862"><ele>240.5</ele><time>2026-07-26T19:23:53Z</time></trkpt>
<trkpt lat="35.187121" lon="-84.867845"><ele>240.5</ele><time>2026-07-26T19:23:55Z</time></trkpt>
<trkpt lat="35.187149" lon="-84.86783"><ele>239.6</ele><time>2026-07-26T19:23:57Z</time></trkpt>
<trkpt lat="35.187173" lon="-84.867812"><ele>238.7</ele><time>2026-07-26T19:23:59Z</time></trkpt>
<trkpt lat="35.18721" lon="-84.867791"><ele>238.0</ele><time>2026-07-26T19:24:02Z</time></trkpt>
<trkpt lat="35.187235" lon="-84.867776"><ele>238.0</ele><time>2026-07-26T19:24:04Z</time></trkpt>
<trkpt lat="35.187258" lon="-84.867758"><ele>237.7</ele><time>2026-07-26T19:24:06Z</time></trkpt>
<trkpt lat="35.187294" lon="-84.867734"><ele>238.0</ele><time>2026-07-26T19:24:09Z</time></trkpt>
<trkpt lat="35.187321" lon="-84.86772"><ele>237.7</ele><time>2026-07-26T19:24:11Z</time></trkpt>
<trkpt lat="35.187348" lon="-84.867703"><ele>238.7</ele><time>2026-07-26T19:24:13Z</time></trkpt>
<trkpt lat="35.187373" lon="-84.867688"><ele>239.0</ele><time>2026-07-26T19:24:15Z</time></trkpt>
<trkpt lat="35.187404" lon="-84.867667"><ele>240.5</ele><time>2026-07-26T19:24:17Z</time></trkpt>
<trkpt lat="35.187436" lon="-84.867658"><ele>241.4</ele><time>2026-07-26T19:24:19Z</time></trkpt>
<trkpt lat="35.187462" lon="-84.867645"><ele>240.5</ele><time>2026-07-26T19:24:21Z</time></trkpt>
<trkpt lat="35.187493" lon="-84.867634"><ele>240.8</ele><time>2026-07-26T19:24:23Z</time></trkpt>
<trkpt lat="35.18752" lon="-84.867622"><ele>240.8</ele><time>2026-07-26T19:24:25Z</time></trkpt>
<trkpt lat="35.187543" lon="-84.867601"><ele>240.5</ele><time>2026-07-26T19:24:27Z</time></trkpt>
<trkpt lat="35.187578" lon="-84.867579"><ele>241.4</ele><time>2026-07-26T19:24:30Z</time></trkpt>
<trkpt lat="35.187617" lon="-84.867566"><ele>239.6</ele><time>2026-07-26T19:24:33Z</time></trkpt>
<trkpt lat="35.187643" lon="-84.867553"><ele>239.0</ele><time>2026-07-26T19:24:35Z</time></trkpt>
<trkpt lat="35.187669" lon="-84.867538"><ele>239.0</ele><time>2026-07-26T19:24:37Z</time></trkpt>
<trkpt lat="35.187705" lon="-84.867519"><ele>239.0</ele><time>2026-07-26T19:24:40Z</time></trkpt>
<trkpt lat="35.187731" lon="-84.867507"><ele>239.0</ele><time>2026-07-26T19:24:42Z</time></trkpt>
<trkpt lat="35.187758" lon="-84.867489"><ele>239.6</ele><time>2026-07-26T19:24:44Z</time></trkpt>
<trkpt lat="35.187787" lon="-84.867468"><ele>239.6</ele><time>2026-07-26T19:24:46Z</time></trkpt>
<trkpt lat="35.187815" lon="-84.867451"><ele>239.6</ele><time>2026-07-26T19:24:48Z</time></trkpt>
<trkpt lat="35.187843" lon="-84.867435"><ele>239.9</ele><time>2026-07-26T19:24:50Z</time></trkpt>
<trkpt lat="35.187868" lon="-84.86742"><ele>239.9</ele><time>2026-07-26T19:24:52Z</time></trkpt>
<trkpt lat="35.187894" lon="-84.867406"><ele>240.2</ele><time>2026-07-26T19:24:54Z</time></trkpt>
<trkpt lat="35.187919" lon="-84.867394"><ele>240.2</ele><time>2026-07-26T19:24:56Z</time></trkpt>
<trkpt lat="35.187956" lon="-84.867372"><ele>240.2</ele><time>2026-07-26T19:24:59Z</time></trkpt>
<trkpt lat="35.187981" lon="-84.867356"><ele>239.9</ele><time>2026-07-26T19:25:01Z</time></trkpt>
<trkpt lat="35.188007" lon="-84.867344"><ele>240.5</ele><time>2026-07-26T19:25:03Z</time></trkpt>
<trkpt lat="35.188033" lon="-84.867331"><ele>240.5</ele><time>2026-07-26T19:25:05Z</time></trkpt>
<trkpt lat="35.188059" lon="-84.867319"><ele>240.2</ele><time>2026-07-26T19:25:07Z</time></trkpt>
<trkpt lat="35.188087" lon="-84.867307"><ele>240.5</ele><time>2026-07-26T19:25:09Z</time></trkpt>
<trkpt lat="35.188114" lon="-84.867292"><ele>241.4</ele><time>2026-07-26T19:25:11Z</time></trkpt>
<trkpt lat="35.18814" lon="-84.867279"><ele>242.3</ele><time>2026-07-26T19:25:13Z</time></trkpt>
<trkpt lat="35.188169" lon="-84.867271"><ele>242.0</ele><time>2026-07-26T19:25:15Z</time></trkpt>
<trkpt lat="35.188196" lon="-84.867261"><ele>241.1</ele><time>2026-07-26T19:25:17Z</time></trkpt>
<trkpt lat="35.188222" lon="-84.867248"><ele>241.1</ele><time>2026-07-26T19:25:19Z</time></trkpt>
<trkpt lat="35.188259" lon="-84.867231"><ele>240.8</ele><time>2026-07-26T19:25:22Z</time></trkpt>
<trkpt lat="35.188286" lon="-84.867219"><ele>240.5</ele><time>2026-07-26T19:25:24Z</time></trkpt>
<trkpt lat="35.188311" lon="-84.867202"><ele>241.1</ele><time>2026-07-26T19:25:26Z</time></trkpt>
<trkpt lat="35.188337" lon="-84.867189"><ele>240.2</ele><time>2026-07-26T19:25:28Z</time></trkpt>
<trkpt lat="35.18836" lon="-84.867169"><ele>239.9</ele><time>2026-07-26T19:25:30Z</time></trkpt>
<trkpt lat="35.188384" lon="-84.86715"><ele>240.2</ele><time>2026-07-26T19:25:32Z</time></trkpt>
<trkpt lat="35.188405" lon="-84.867127"><ele>239.9</ele><time>2026-07-26T19:25:34Z</time></trkpt>
<trkpt lat="35.188426" lon="-84.867104"><ele>239.9</ele><time>2026-07-26T19:25:36Z</time></trkpt>
<trkpt lat="35.188458" lon="-84.867072"><ele>239.9</ele><time>2026-07-26T19:25:39Z</time></trkpt>
<trkpt lat="35.18849" lon="-84.867041"><ele>239.0</ele><time>2026-07-26T19:25:42Z</time></trkpt>
<trkpt lat="35.188512" lon="-84.86702"><ele>239.3</ele><time>2026-07-26T19:25:44Z</time></trkpt>
<trkpt lat="35.18854" lon="-84.866984"><ele>238.7</ele><time>2026-07-26T19:25:47Z</time></trkpt>
<trkpt lat="35.188562" lon="-84.866959"><ele>239.6</ele><time>2026-07-26T19:25:49Z</time></trkpt>
<trkpt lat="35.188593" lon="-84.866926"><ele>238.4</ele><time>2026-07-26T19:25:52Z</time></trkpt>
<trkpt lat="35.188614" lon="-84.866905"><ele>239.0</ele><time>2026-07-26T19:25:54Z</time></trkpt>
<trkpt lat="35.188634" lon="-84.866879"><ele>238.7</ele><time>2026-07-26T19:25:56Z</time></trkpt>
<trkpt lat="35.188654" lon="-84.866854"><ele>239.0</ele><time>2026-07-26T19:25:58Z</time></trkpt>
<trkpt lat="35.188675" lon="-84.866832"><ele>239.6</ele><time>2026-07-26T19:26:00Z</time></trkpt>
<trkpt lat="35.188696" lon="-84.866806"><ele>239.6</ele><time>2026-07-26T19:26:02Z</time></trkpt>
<trkpt lat="35.188716" lon="-84.866777"><ele>240.5</ele><time>2026-07-26T19:26:04Z</time></trkpt>
<trkpt lat="35.188734" lon="-84.866748"><ele>240.5</ele><time>2026-07-26T19:26:06Z</time></trkpt>
<trkpt lat="35.188754" lon="-84.866723"><ele>240.2</ele><time>2026-07-26T19:26:08Z</time></trkpt>
<trkpt lat="35.188775" lon="-84.866694"><ele>240.8</ele><time>2026-07-26T19:26:10Z</time></trkpt>
<trkpt lat="35.188798" lon="-84.866668"><ele>241.4</ele><time>2026-07-26T19:26:12Z</time></trkpt>
<trkpt lat="35.18882" lon="-84.866639"><ele>242.3</ele><time>2026-07-26T19:26:14Z</time></trkpt>
<trkpt lat="35.188839" lon="-84.866613"><ele>241.4</ele><time>2026-07-26T19:26:16Z</time></trkpt>
<trkpt lat="35.188864" lon="-84.866593"><ele>241.7</ele><time>2026-07-26T19:26:18Z</time></trkpt>
<trkpt lat="35.188888" lon="-84.866573"><ele>241.7</ele><time>2026-07-26T19:26:20Z</time></trkpt>
<trkpt lat="35.188909" lon="-84.866551"><ele>241.4</ele><time>2026-07-26T19:26:22Z</time></trkpt>
<trkpt lat="35.188934" lon="-84.866532"><ele>241.4</ele><time>2026-07-26T19:26:24Z</time></trkpt>
<trkpt lat="35.188969" lon="-84.866506"><ele>240.8</ele><time>2026-07-26T19:26:27Z</time></trkpt>
<trkpt lat="35.189003" lon="-84.866479"><ele>239.9</ele><time>2026-07-26T19:26:30Z</time></trkpt>
<trkpt lat="35.189025" lon="-84.866459"><ele>239.9</ele><time>2026-07-26T19:26:32Z</time></trkpt>
<trkpt lat="35.18905" lon="-84.866439"><ele>240.5</ele><time>2026-07-26T19:26:34Z</time></trkpt>
<trkpt lat="35.189077" lon="-84.866425"><ele>240.8</ele><time>2026-07-26T19:26:36Z</time></trkpt>
<trkpt lat="35.189103" lon="-84.866408"><ele>241.4</ele><time>2026-07-26T19:26:38Z</time></trkpt>
<trkpt lat="35.189126" lon="-84.866391"><ele>242.0</ele><time>2026-07-26T19:26:40Z</time></trkpt>
<trkpt lat="35.18916" lon="-84.866362"><ele>242.0</ele><time>2026-07-26T19:26:43Z</time></trkpt>
<trkpt lat="35.189183" lon="-84.866344"><ele>241.4</ele><time>2026-07-26T19:26:45Z</time></trkpt>
<trkpt lat="35.189208" lon="-84.866327"><ele>241.7</ele><time>2026-07-26T19:26:47Z</time></trkpt>
<trkpt lat="35.189246" lon="-84.86631"><ele>241.7</ele><time>2026-07-26T19:26:50Z</time></trkpt>
<trkpt lat="35.189274" lon="-84.866307"><ele>241.7</ele><time>2026-07-26T19:26:52Z</time></trkpt>
<trkpt lat="35.189296" lon="-84.866329"><ele>240.8</ele><time>2026-07-26T19:26:54Z</time></trkpt>
<trkpt lat="35.189313" lon="-84.866361"><ele>240.5</ele><time>2026-07-26T19:26:56Z</time></trkpt>
<trkpt lat="35.189325" lon="-84.866394"><ele>241.4</ele><time>2026-07-26T19:26:58Z</time></trkpt>
<trkpt lat="35.189339" lon="-84.866426"><ele>242.0</ele><time>2026-07-26T19:27:00Z</time></trkpt>
<trkpt lat="35.189352" lon="-84.866458"><ele>242.9</ele><time>2026-07-26T19:27:02Z</time></trkpt>
<trkpt lat="35.18937" lon="-84.866486"><ele>243.2</ele><time>2026-07-26T19:27:04Z</time></trkpt>
<trkpt lat="35.18939" lon="-84.866511"><ele>243.8</ele><time>2026-07-26T19:27:06Z</time></trkpt>
<trkpt lat="35.189406" lon="-84.86654"><ele>245.4</ele><time>2026-07-26T19:27:08Z</time></trkpt>
<trkpt lat="35.189424" lon="-84.86657"><ele>245.7</ele><time>2026-07-26T19:27:10Z</time></trkpt>
<trkpt lat="35.189444" lon="-84.866596"><ele>245.1</ele><time>2026-07-26T19:27:12Z</time></trkpt>
<trkpt lat="35.189468" lon="-84.866616"><ele>245.1</ele><time>2026-07-26T19:27:14Z</time></trkpt>
<trkpt lat="35.189501" lon="-84.866622"><ele>244.4</ele><time>2026-07-26T19:27:16Z</time></trkpt>
<trkpt lat="35.189532" lon="-84.86662"><ele>243.5</ele><time>2026-07-26T19:27:18Z</time></trkpt>
<trkpt lat="35.18956" lon="-84.866611"><ele>242.6</ele><time>2026-07-26T19:27:20Z</time></trkpt>
<trkpt lat="35.189586" lon="-84.866593"><ele>241.4</ele><time>2026-07-26T19:27:22Z</time></trkpt>
<trkpt lat="35.189611" lon="-84.866577"><ele>241.7</ele><time>2026-07-26T19:27:24Z</time></trkpt>
<trkpt lat="35.189634" lon="-84.866559"><ele>241.7</ele><time>2026-07-26T19:27:26Z</time></trkpt>
<trkpt lat="35.189669" lon="-84.866535"><ele>241.1</ele><time>2026-07-26T19:27:29Z</time></trkpt>
<trkpt lat="35.189704" lon="-84.86651"><ele>240.2</ele><time>2026-07-26T19:27:32Z</time></trkpt>
<trkpt lat="35.189728" lon="-84.866494"><ele>240.8</ele><time>2026-07-26T19:27:34Z</time></trkpt>
<trkpt lat="35.189764" lon="-84.866472"><ele>240.2</ele><time>2026-07-26T19:27:37Z</time></trkpt>
<trkpt lat="35.189802" lon="-84.86646"><ele>239.9</ele><time>2026-07-26T19:27:40Z</time></trkpt>
<trkpt lat="35.189828" lon="-84.866449"><ele>239.6</ele><time>2026-07-26T19:27:42Z</time></trkpt>
<trkpt lat="35.189856" lon="-84.866443"><ele>239.0</ele><time>2026-07-26T19:27:44Z</time></trkpt>
<trkpt lat="35.189885" lon="-84.866433"><ele>239.0</ele><time>2026-07-26T19:27:46Z</time></trkpt>
<trkpt lat="35.189912" lon="-84.866425"><ele>238.7</ele><time>2026-07-26T19:27:48Z</time></trkpt>
<trkpt lat="35.189939" lon="-84.866416"><ele>239.9</ele><time>2026-07-26T19:27:50Z</time></trkpt>
<trkpt lat="35.189976" lon="-84.866397"><ele>239.6</ele><time>2026-07-26T19:27:53Z</time></trkpt>
<trkpt lat="35.190002" lon="-84.866386"><ele>239.9</ele><time>2026-07-26T19:27:55Z</time></trkpt>
<trkpt lat="35.190033" lon="-84.866382"><ele>239.3</ele><time>2026-07-26T19:27:57Z</time></trkpt>
<trkpt lat="35.19006" lon="-84.866377"><ele>237.4</ele><time>2026-07-26T19:27:59Z</time></trkpt>
<trkpt lat="35.190099" lon="-84.866357"><ele>237.1</ele><time>2026-07-26T19:28:02Z</time></trkpt>
<trkpt lat="35.190126" lon="-84.866343"><ele>236.5</ele><time>2026-07-26T19:28:04Z</time></trkpt>
<trkpt lat="35.190163" lon="-84.866327"><ele>236.2</ele><time>2026-07-26T19:28:07Z</time></trkpt>
<trkpt lat="35.190201" lon="-84.866307"><ele>235.6</ele><time>2026-07-26T19:28:10Z</time></trkpt>
<trkpt lat="35.19023" lon="-84.866299"><ele>235.6</ele><time>2026-07-26T19:28:12Z</time></trkpt>
<trkpt lat="35.19027" lon="-84.866299"><ele>237.4</ele><time>2026-07-26T19:28:15Z</time></trkpt>
<trkpt lat="35.190309" lon="-84.866297"><ele>239.3</ele><time>2026-07-26T19:28:18Z</time></trkpt>
<trkpt lat="35.190338" lon="-84.866294"><ele>239.6</ele><time>2026-07-26T19:28:20Z</time></trkpt>
<trkpt lat="35.19037" lon="-84.866289"><ele>239.9</ele><time>2026-07-26T19:28:22Z</time></trkpt>
<trkpt lat="35.190402" lon="-84.866283"><ele>239.9</ele><time>2026-07-26T19:28:24Z</time></trkpt>
<trkpt lat="35.19043" lon="-84.866277"><ele>239.0</ele><time>2026-07-26T19:28:26Z</time></trkpt>
<trkpt lat="35.190458" lon="-84.866274"><ele>239.9</ele><time>2026-07-26T19:28:28Z</time></trkpt>
<trkpt lat="35.190487" lon="-84.866264"><ele>239.0</ele><time>2026-07-26T19:28:30Z</time></trkpt>
<trkpt lat="35.190518" lon="-84.866271"><ele>239.6</ele><time>2026-07-26T19:28:32Z</time></trkpt>
<trkpt lat="35.190548" lon="-84.86627"><ele>239.3</ele><time>2026-07-26T19:28:34Z</time></trkpt>
<trkpt lat="35.190577" lon="-84.86627"><ele>239.9</ele><time>2026-07-26T19:28:36Z</time></trkpt>
<trkpt lat="35.190605" lon="-84.866271"><ele>239.9</ele><time>2026-07-26T19:28:38Z</time></trkpt>
<trkpt lat="35.190635" lon="-84.866269"><ele>240.5</ele><time>2026-07-26T19:28:40Z</time></trkpt>
<trkpt lat="35.190675" lon="-84.86626"><ele>239.9</ele><time>2026-07-26T19:28:43Z</time></trkpt>
<trkpt lat="35.190716" lon="-84.866249"><ele>240.5</ele><time>2026-07-26T19:28:46Z</time></trkpt>
<trkpt lat="35.190746" lon="-84.866242"><ele>241.7</ele><time>2026-07-26T19:28:48Z</time></trkpt>
<trkpt lat="35.190783" lon="-84.86623"><ele>241.4</ele><time>2026-07-26T19:28:51Z</time></trkpt>
<trkpt lat="35.190824" lon="-84.866218"><ele>240.8</ele><time>2026-07-26T19:28:54Z</time></trkpt>
<trkpt lat="35.190851" lon="-84.866208"><ele>240.5</ele><time>2026-07-26T19:28:56Z</time></trkpt>
<trkpt lat="35.19088" lon="-84.866196"><ele>240.5</ele><time>2026-07-26T19:28:58Z</time></trkpt>
<trkpt lat="35.190906" lon="-84.866185"><ele>240.5</ele><time>2026-07-26T19:29:00Z</time></trkpt>
<trkpt lat="35.190933" lon="-84.86617"><ele>239.6</ele><time>2026-07-26T19:29:02Z</time></trkpt>
<trkpt lat="35.190959" lon="-84.866157"><ele>239.3</ele><time>2026-07-26T19:29:04Z</time></trkpt>
<trkpt lat="35.190996" lon="-84.866137"><ele>239.0</ele><time>2026-07-26T19:29:07Z</time></trkpt>
<trkpt lat="35.191031" lon="-84.866115"><ele>239.9</ele><time>2026-07-26T19:29:10Z</time></trkpt>
<trkpt lat="35.191054" lon="-84.866096"><ele>240.2</ele><time>2026-07-26T19:29:12Z</time></trkpt>
<trkpt lat="35.191076" lon="-84.866073"><ele>240.8</ele><time>2026-07-26T19:29:14Z</time></trkpt>
<trkpt lat="35.191096" lon="-84.866046"><ele>241.7</ele><time>2026-07-26T19:29:16Z</time></trkpt>
<trkpt lat="35.191118" lon="-84.866026"><ele>241.1</ele><time>2026-07-26T19:29:18Z</time></trkpt>
<trkpt lat="35.191149" lon="-84.865992"><ele>240.2</ele><time>2026-07-26T19:29:21Z</time></trkpt>
<trkpt lat="35.191178" lon="-84.865957"><ele>239.9</ele><time>2026-07-26T19:29:24Z</time></trkpt>
<trkpt lat="35.191209" lon="-84.865923"><ele>240.8</ele><time>2026-07-26T19:29:27Z</time></trkpt>
<trkpt lat="35.191226" lon="-84.865893"><ele>241.4</ele><time>2026-07-26T19:29:29Z</time></trkpt>
<trkpt lat="35.191249" lon="-84.865875"><ele>240.8</ele><time>2026-07-26T19:29:31Z</time></trkpt>
<trkpt lat="35.191271" lon="-84.865854"><ele>240.8</ele><time>2026-07-26T19:29:33Z</time></trkpt>
<trkpt lat="35.191295" lon="-84.865837"><ele>240.2</ele><time>2026-07-26T19:29:35Z</time></trkpt>
<trkpt lat="35.191322" lon="-84.865804"><ele>240.2</ele><time>2026-07-26T19:29:38Z</time></trkpt>
<trkpt lat="35.191338" lon="-84.865775"><ele>240.8</ele><time>2026-07-26T19:29:40Z</time></trkpt>
<trkpt lat="35.191356" lon="-84.865748"><ele>241.4</ele><time>2026-07-26T19:29:42Z</time></trkpt>
<trkpt lat="35.191374" lon="-84.865723"><ele>241.4</ele><time>2026-07-26T19:29:44Z</time></trkpt>
<trkpt lat="35.191387" lon="-84.865691"><ele>242.6</ele><time>2026-07-26T19:29:46Z</time></trkpt>
<trkpt lat="35.191401" lon="-84.865659"><ele>241.4</ele><time>2026-07-26T19:29:48Z</time></trkpt>
<trkpt lat="35.191415" lon="-84.865628"><ele>242.0</ele><time>2026-07-26T19:29:50Z</time></trkpt>
<trkpt lat="35.191431" lon="-84.865598"><ele>242.9</ele><time>2026-07-26T19:29:52Z</time></trkpt>
<trkpt lat="35.191457" lon="-84.865572"><ele>243.5</ele><time>2026-07-26T19:29:54Z</time></trkpt>
<trkpt lat="35.191479" lon="-84.865546"><ele>243.8</ele><time>2026-07-26T19:29:56Z</time></trkpt>
<trkpt lat="35.191501" lon="-84.865524"><ele>243.2</ele><time>2026-07-26T19:29:58Z</time></trkpt>
<trkpt lat="35.191522" lon="-84.865502"><ele>242.6</ele><time>2026-07-26T19:30:00Z</time></trkpt>
<trkpt lat="35.191541" lon="-84.865477"><ele>241.7</ele><time>2026-07-26T19:30:02Z</time></trkpt>
<trkpt lat="35.19156" lon="-84.865451"><ele>242.0</ele><time>2026-07-26T19:30:04Z</time></trkpt>
<trkpt lat="35.191578" lon="-84.865424"><ele>241.1</ele><time>2026-07-26T19:30:06Z</time></trkpt>
<trkpt lat="35.191602" lon="-84.865403"><ele>242.0</ele><time>2026-07-26T19:30:08Z</time></trkpt>
<trkpt lat="35.191625" lon="-84.865384"><ele>241.7</ele><time>2026-07-26T19:30:10Z</time></trkpt>
<trkpt lat="35.19165" lon="-84.865365"><ele>241.4</ele><time>2026-07-26T19:30:12Z</time></trkpt>
<trkpt lat="35.191683" lon="-84.865338"><ele>241.1</ele><time>2026-07-26T19:30:15Z</time></trkpt>
<trkpt lat="35.191717" lon="-84.86531"><ele>240.8</ele><time>2026-07-26T19:30:18Z</time></trkpt>
<trkpt lat="35.19174" lon="-84.865288"><ele>240.8</ele><time>2026-07-26T19:30:20Z</time></trkpt>
<trkpt lat="35.191772" lon="-84.865258"><ele>239.6</ele><time>2026-07-26T19:30:23Z</time></trkpt>
<trkpt lat="35.191793" lon="-84.865236"><ele>239.3</ele><time>2026-07-26T19:30:25Z</time></trkpt>
<trkpt lat="35.191821" lon="-84.865216"><ele>240.2</ele><time>2026-07-26T19:30:27Z</time></trkpt>
<trkpt lat="35.191845" lon="-84.865197"><ele>240.2</ele><time>2026-07-26T19:30:29Z</time></trkpt>
<trkpt lat="35.191871" lon="-84.865181"><ele>239.6</ele><time>2026-07-26T19:30:31Z</time></trkpt>
<trkpt lat="35.191897" lon="-84.865168"><ele>241.4</ele><time>2026-07-26T19:30:33Z</time></trkpt>
<trkpt lat="35.191924" lon="-84.865149"><ele>240.5</ele><time>2026-07-26T19:30:35Z</time></trkpt>
<trkpt lat="35.191949" lon="-84.86513"><ele>239.6</ele><time>2026-07-26T19:30:37Z</time></trkpt>
<trkpt lat="35.19199" lon="-84.865121"><ele>239.3</ele><time>2026-07-26T19:30:40Z</time></trkpt>
<trkpt lat="35.192018" lon="-84.865113"><ele>239.3</ele><time>2026-07-26T19:30:42Z</time></trkpt>
<trkpt lat="35.192048" lon="-84.865112"><ele>239.0</ele><time>2026-07-26T19:30:44Z</time></trkpt>
<trkpt lat="35.192075" lon="-84.865105"><ele>239.3</ele><time>2026-07-26T19:30:46Z</time></trkpt>
<trkpt lat="35.192116" lon="-84.865102"><ele>239.3</ele><time>2026-07-26T19:30:49Z</time></trkpt>
<trkpt lat="35.192156" lon="-84.865092"><ele>238.7</ele><time>2026-07-26T19:30:52Z</time></trkpt>
<trkpt lat="35.192186" lon="-84.865076"><ele>239.0</ele><time>2026-07-26T19:30:54Z</time></trkpt>
<trkpt lat="35.192219" lon="-84.86507"><ele>238.7</ele><time>2026-07-26T19:30:56Z</time></trkpt>
<trkpt lat="35.192249" lon="-84.865066"><ele>238.7</ele><time>2026-07-26T19:30:58Z</time></trkpt>
<trkpt lat="35.192278" lon="-84.865062"><ele>239.0</ele><time>2026-07-26T19:31:00Z</time></trkpt>
<trkpt lat="35.192305" lon="-84.865055"><ele>239.0</ele><time>2026-07-26T19:31:02Z</time></trkpt>
<trkpt lat="35.192333" lon="-84.86505"><ele>239.3</ele><time>2026-07-26T19:31:04Z</time></trkpt>
<trkpt lat="35.192359" lon="-84.86504"><ele>239.9</ele><time>2026-07-26T19:31:06Z</time></trkpt>
<trkpt lat="35.192383" lon="-84.865022"><ele>239.6</ele><time>2026-07-26T19:31:08Z</time></trkpt>
<trkpt lat="35.192411" lon="-84.86501"><ele>239.9</ele><time>2026-07-26T19:31:10Z</time></trkpt>
<trkpt lat="35.192439" lon="-84.865004"><ele>241.1</ele><time>2026-07-26T19:31:12Z</time></trkpt>
<trkpt lat="35.192469" lon="-84.864995"><ele>241.4</ele><time>2026-07-26T19:31:14Z</time></trkpt>
<trkpt lat="35.192496" lon="-84.864977"><ele>241.4</ele><time>2026-07-26T19:31:16Z</time></trkpt>
<trkpt lat="35.19252" lon="-84.864959"><ele>241.4</ele><time>2026-07-26T19:31:18Z</time></trkpt>
<trkpt lat="35.192546" lon="-84.864945"><ele>241.4</ele><time>2026-07-26T19:31:20Z</time></trkpt>
<trkpt lat="35.19257" lon="-84.864921"><ele>241.1</ele><time>2026-07-26T19:31:22Z</time></trkpt>
<trkpt lat="35.192594" lon="-84.864904"><ele>240.8</ele><time>2026-07-26T19:31:24Z</time></trkpt>
<trkpt lat="35.192619" lon="-84.86489"><ele>240.8</ele><time>2026-07-26T19:31:26Z</time></trkpt>
<trkpt lat="35.192646" lon="-84.864878"><ele>240.5</ele><time>2026-07-26T19:31:28Z</time></trkpt>
<trkpt lat="35.192684" lon="-84.86486"><ele>240.8</ele><time>2026-07-26T19:31:31Z</time></trkpt>
<trkpt lat="35.19271" lon="-84.864846"><ele>240.2</ele><time>2026-07-26T19:31:33Z</time></trkpt>
<trkpt lat="35.192749" lon="-84.864829"><ele>239.9</ele><time>2026-07-26T19:31:36Z</time></trkpt>
<trkpt lat="35.192775" lon="-84.864817"><ele>240.5</ele><time>2026-07-26T19:31:38Z</time></trkpt>
<trkpt lat="35.192813" lon="-84.864801"><ele>240.8</ele><time>2026-07-26T19:31:41Z</time></trkpt>
<trkpt lat="35.192838" lon="-84.864786"><ele>240.5</ele><time>2026-07-26T19:31:43Z</time></trkpt>
<trkpt lat="35.192877" lon="-84.86477"><ele>241.4</ele><time>2026-07-26T19:31:46Z</time></trkpt>
<trkpt lat="35.192915" lon="-84.864758"><ele>242.6</ele><time>2026-07-26T19:31:49Z</time></trkpt>
<trkpt lat="35.19294" lon="-84.86474"><ele>241.4</ele><time>2026-07-26T19:31:51Z</time></trkpt>
<trkpt lat="35.192973" lon="-84.864712"><ele>241.1</ele><time>2026-07-26T19:31:54Z</time></trkpt>
<trkpt lat="35.193007" lon="-84.864694"><ele>241.1</ele><time>2026-07-26T19:31:57Z</time></trkpt>
<trkpt lat="35.193045" lon="-84.864676"><ele>240.5</ele><time>2026-07-26T19:32:00Z</time></trkpt>
<trkpt lat="35.19307" lon="-84.864663"><ele>240.2</ele><time>2026-07-26T19:32:02Z</time></trkpt>
<trkpt lat="35.193105" lon="-84.86464"><ele>240.8</ele><time>2026-07-26T19:32:05Z</time></trkpt>
<trkpt lat="35.193143" lon="-84.86462"><ele>240.8</ele><time>2026-07-26T19:32:08Z</time></trkpt>
<trkpt lat="35.193169" lon="-84.864609"><ele>240.8</ele><time>2026-07-26T19:32:10Z</time></trkpt>
<trkpt lat="35.193211" lon="-84.864596"><ele>242.0</ele><time>2026-07-26T19:32:13Z</time></trkpt>
<trkpt lat="35.193245" lon="-84.864583"><ele>243.8</ele><time>2026-07-26T19:32:15Z</time></trkpt>
<trkpt lat="35.193267" lon="-84.864559"><ele>244.4</ele><time>2026-07-26T19:32:17Z</time></trkpt>
<trkpt lat="35.193293" lon="-84.864545"><ele>245.4</ele><time>2026-07-26T19:32:19Z</time></trkpt>
<trkpt lat="35.193321" lon="-84.86453"><ele>245.7</ele><time>2026-07-26T19:32:21Z</time></trkpt>
<trkpt lat="35.19335" lon="-84.864516"><ele>246.6</ele><time>2026-07-26T19:32:23Z</time></trkpt>
<trkpt lat="35.19338" lon="-84.864505"><ele>246.9</ele><time>2026-07-26T19:32:25Z</time></trkpt>
<trkpt lat="35.19341" lon="-84.864493"><ele>247.2</ele><time>2026-07-26T19:32:27Z</time></trkpt>
<trkpt lat="35.193435" lon="-84.864479"><ele>247.2</ele><time>2026-07-26T19:32:29Z</time></trkpt>
<trkpt lat="35.19346" lon="-84.864465"><ele>246.9</ele><time>2026-07-26T19:32:31Z</time></trkpt>
<trkpt lat="35.193485" lon="-84.86445"><ele>246.9</ele><time>2026-07-26T19:32:33Z</time></trkpt>
<trkpt lat="35.193511" lon="-84.864435"><ele>246.9</ele><time>2026-07-26T19:32:35Z</time></trkpt>
<trkpt lat="35.193537" lon="-84.864422"><ele>247.2</ele><time>2026-07-26T19:32:37Z</time></trkpt>
<trkpt lat="35.193574" lon="-84.864401"><ele>246.9</ele><time>2026-07-26T19:32:40Z</time></trkpt>
<trkpt lat="35.193597" lon="-84.864382"><ele>246.9</ele><time>2026-07-26T19:32:42Z</time></trkpt>
<trkpt lat="35.193622" lon="-84.864364"><ele>246.9</ele><time>2026-07-26T19:32:44Z</time></trkpt>
<trkpt lat="35.193645" lon="-84.864344"><ele>246.3</ele><time>2026-07-26T19:32:46Z</time></trkpt>
<trkpt lat="35.193675" lon="-84.864313"><ele>244.8</ele><time>2026-07-26T19:32:49Z</time></trkpt>
<trkpt lat="35.193697" lon="-84.864292"><ele>244.1</ele><time>2026-07-26T19:32:51Z</time></trkpt>
<trkpt lat="35.193724" lon="-84.864277"><ele>243.5</ele><time>2026-07-26T19:32:53Z</time></trkpt>
<trkpt lat="35.193745" lon="-84.864251"><ele>242.9</ele><time>2026-07-26T19:32:55Z</time></trkpt>
<trkpt lat="35.193765" lon="-84.864228"><ele>242.9</ele><time>2026-07-26T19:32:57Z</time></trkpt>
<trkpt lat="35.19379" lon="-84.864213"><ele>242.6</ele><time>2026-07-26T19:32:59Z</time></trkpt>
<trkpt lat="35.193828" lon="-84.864195"><ele>242.0</ele><time>2026-07-26T19:33:02Z</time></trkpt>
<trkpt lat="35.193856" lon="-84.864183"><ele>241.7</ele><time>2026-07-26T19:33:04Z</time></trkpt>
<trkpt lat="35.19389" lon="-84.86416"><ele>240.8</ele><time>2026-07-26T19:33:07Z</time></trkpt>
<trkpt lat="35.193926" lon="-84.86414"><ele>241.4</ele><time>2026-07-26T19:33:10Z</time></trkpt>
<trkpt lat="35.193964" lon="-84.864124"><ele>241.4</ele><time>2026-07-26T19:33:13Z</time></trkpt>
<trkpt lat="35.193989" lon="-84.864106"><ele>241.7</ele><time>2026-07-26T19:33:15Z</time></trkpt>
<trkpt lat="35.194017" lon="-84.864099"><ele>242.9</ele><time>2026-07-26T19:33:17Z</time></trkpt>
<trkpt lat="35.194045" lon="-84.864098"><ele>243.8</ele><time>2026-07-26T19:33:19Z</time></trkpt>
<trkpt lat="35.194081" lon="-84.864087"><ele>242.9</ele><time>2026-07-26T19:33:22Z</time></trkpt>
<trkpt lat="35.194119" lon="-84.864069"><ele>241.7</ele><time>2026-07-26T19:33:25Z</time></trkpt>
<trkpt lat="35.194144" lon="-84.864054"><ele>241.7</ele><time>2026-07-26T19:33:27Z</time></trkpt>
<trkpt lat="35.194169" lon="-84.864039"><ele>242.0</ele><time>2026-07-26T19:33:29Z</time></trkpt>
<trkpt lat="35.194206" lon="-84.864016"><ele>241.4</ele><time>2026-07-26T19:33:32Z</time></trkpt>
<trkpt lat="35.194244" lon="-84.864002"><ele>241.1</ele><time>2026-07-26T19:33:35Z</time></trkpt>
<trkpt lat="35.194282" lon="-84.863993"><ele>241.7</ele><time>2026-07-26T19:33:38Z</time></trkpt>
<trkpt lat="35.194319" lon="-84.86397"><ele>240.5</ele><time>2026-07-26T19:33:41Z</time></trkpt>
<trkpt lat="35.194344" lon="-84.863954"><ele>240.5</ele><time>2026-07-26T19:33:43Z</time></trkpt>
<trkpt lat="35.19438" lon="-84.863931"><ele>241.1</ele><time>2026-07-26T19:33:46Z</time></trkpt>
<trkpt lat="35.194395" lon="-84.863895"><ele>241.4</ele><time>2026-07-26T19:33:48Z</time></trkpt>
<trkpt lat="35.194396" lon="-84.863852"><ele>240.8</ele><time>2026-07-26T19:33:50Z</time></trkpt>
<trkpt lat="35.194391" lon="-84.863812"><ele>240.5</ele><time>2026-07-26T19:33:52Z</time></trkpt>
<trkpt lat="35.194385" lon="-84.863772"><ele>240.8</ele><time>2026-07-26T19:33:54Z</time></trkpt>
<trkpt lat="35.19438" lon="-84.863735"><ele>241.4</ele><time>2026-07-26T19:33:56Z</time></trkpt>
<trkpt lat="35.194373" lon="-84.863699"><ele>241.1</ele><time>2026-07-26T19:33:58Z</time></trkpt>
<trkpt lat="35.194366" lon="-84.863663"><ele>242.3</ele><time>2026-07-26T19:34:00Z</time></trkpt>
<trkpt lat="35.194359" lon="-84.863627"><ele>242.0</ele><time>2026-07-26T19:34:02Z</time></trkpt>
<trkpt lat="35.194351" lon="-84.863592"><ele>242.3</ele><time>2026-07-26T19:34:04Z</time></trkpt>
<trkpt lat="35.194352" lon="-84.863551"><ele>245.4</ele><time>2026-07-26T19:34:06Z</time></trkpt>
<trkpt lat="35.194362" lon="-84.863519"><ele>244.8</ele><time>2026-07-26T19:34:08Z</time></trkpt>
<trkpt lat="35.194387" lon="-84.863501"><ele>244.4</ele><time>2026-07-26T19:34:10Z</time></trkpt>
<trkpt lat="35.194425" lon="-84.863495"><ele>243.5</ele><time>2026-07-26T19:34:13Z</time></trkpt>
<trkpt lat="35.194462" lon="-84.863491"><ele>243.2</ele><time>2026-07-26T19:34:16Z</time></trkpt>
<trkpt lat="35.194502" lon="-84.863482"><ele>243.8</ele><time>2026-07-26T19:34:19Z</time></trkpt>
<trkpt lat="35.19454" lon="-84.863475"><ele>244.8</ele><time>2026-07-26T19:34:22Z</time></trkpt>
<trkpt lat="35.194569" lon="-84.863466"><ele>243.8</ele><time>2026-07-26T19:34:24Z</time></trkpt>
<trkpt lat="35.194602" lon="-84.863463"><ele>244.1</ele><time>2026-07-26T19:34:26Z</time></trkpt>
<trkpt lat="35.194638" lon="-84.863457"><ele>245.1</ele><time>2026-07-26T19:34:28Z</time></trkpt>
<trkpt lat="35.194667" lon="-84.863456"><ele>244.4</ele><time>2026-07-26T19:34:30Z</time></trkpt>
<trkpt lat="35.194696" lon="-84.863456"><ele>244.1</ele><time>2026-07-26T19:34:32Z</time></trkpt>
<trkpt lat="35.194724" lon="-84.863454"><ele>244.4</ele><time>2026-07-26T19:34:34Z</time></trkpt>
<trkpt lat="35.194754" lon="-84.863451"><ele>244.1</ele><time>2026-07-26T19:34:36Z</time></trkpt>
<trkpt lat="35.194784" lon="-84.863452"><ele>241.4</ele><time>2026-07-26T19:34:38Z</time></trkpt>
<trkpt lat="35.194813" lon="-84.863444"><ele>239.6</ele><time>2026-07-26T19:34:40Z</time></trkpt>
<trkpt lat="35.19484" lon="-84.863433"><ele>239.6</ele><time>2026-07-26T19:34:42Z</time></trkpt>
<trkpt lat="35.194866" lon="-84.863421"><ele>239.6</ele><time>2026-07-26T19:34:44Z</time></trkpt>
<trkpt lat="35.194895" lon="-84.863403"><ele>241.7</ele><time>2026-07-26T19:34:46Z</time></trkpt>
<trkpt lat="35.194921" lon="-84.863386"><ele>241.1</ele><time>2026-07-26T19:34:48Z</time></trkpt>
<trkpt lat="35.194944" lon="-84.863368"><ele>240.8</ele><time>2026-07-26T19:34:50Z</time></trkpt>
<trkpt lat="35.194968" lon="-84.863344"><ele>242.6</ele><time>2026-07-26T19:34:52Z</time></trkpt>
<trkpt lat="35.194986" lon="-84.863316"><ele>243.5</ele><time>2026-07-26T19:34:54Z</time></trkpt>
<trkpt lat="35.195014" lon="-84.863279"><ele>243.5</ele><time>2026-07-26T19:34:57Z</time></trkpt>
<trkpt lat="35.19503" lon="-84.863249"><ele>244.1</ele><time>2026-07-26T19:34:59Z</time></trkpt>
<trkpt lat="35.195058" lon="-84.863218"><ele>243.5</ele><time>2026-07-26T19:35:02Z</time></trkpt>
<trkpt lat="35.195083" lon="-84.863185"><ele>243.2</ele><time>2026-07-26T19:35:05Z</time></trkpt>
<trkpt lat="35.195106" lon="-84.863145"><ele>241.7</ele><time>2026-07-26T19:35:08Z</time></trkpt>
<trkpt lat="35.195115" lon="-84.863113"><ele>240.8</ele><time>2026-07-26T19:35:10Z</time></trkpt>
<trkpt lat="35.195118" lon="-84.863077"><ele>240.8</ele><time>2026-07-26T19:35:12Z</time></trkpt>
<trkpt lat="35.195128" lon="-84.863042"><ele>240.5</ele><time>2026-07-26T19:35:14Z</time></trkpt>
<trkpt lat="35.195134" lon="-84.863004"><ele>241.1</ele><time>2026-07-26T19:35:16Z</time></trkpt>
<trkpt lat="35.195139" lon="-84.862967"><ele>242.0</ele><time>2026-07-26T19:35:18Z</time></trkpt>
<trkpt lat="35.195143" lon="-84.862931"><ele>241.4</ele><time>2026-07-26T19:35:20Z</time></trkpt>
<trkpt lat="35.195146" lon="-84.862894"><ele>241.7</ele><time>2026-07-26T19:35:22Z</time></trkpt>
<trkpt lat="35.195143" lon="-84.862856"><ele>242.3</ele><time>2026-07-26T19:35:24Z</time></trkpt>
<trkpt lat="35.195141" lon="-84.862821"><ele>242.9</ele><time>2026-07-26T19:35:26Z</time></trkpt>
<trkpt lat="35.195145" lon="-84.862785"><ele>242.0</ele><time>2026-07-26T19:35:28Z</time></trkpt>
<trkpt lat="35.195152" lon="-84.862751"><ele>242.0</ele><time>2026-07-26T19:35:30Z</time></trkpt>
<trkpt lat="35.195172" lon="-84.862724"><ele>242.0</ele><time>2026-07-26T19:35:32Z</time></trkpt>
<trkpt lat="35.195199" lon="-84.862703"><ele>241.7</ele><time>2026-07-26T19:35:34Z</time></trkpt>
<trkpt lat="35.195225" lon="-84.862688"><ele>241.7</ele><time>2026-07-26T19:35:36Z</time></trkpt>
<trkpt lat="35.195262" lon="-84.862667"><ele>241.4</ele><time>2026-07-26T19:35:39Z</time></trkpt>
<trkpt lat="35.195287" lon="-84.862652"><ele>242.0</ele><time>2026-07-26T19:35:41Z</time></trkpt>
<trkpt lat="35.195318" lon="-84.862626"><ele>243.8</ele><time>2026-07-26T19:35:44Z</time></trkpt>
<trkpt lat="35.195356" lon="-84.862608"><ele>244.1</ele><time>2026-07-26T19:35:47Z</time></trkpt>
<trkpt lat="35.195381" lon="-84.86259"><ele>245.4</ele><time>2026-07-26T19:35:49Z</time></trkpt>
<trkpt lat="35.195415" lon="-84.862564"><ele>246.0</ele><time>2026-07-26T19:35:52Z</time></trkpt>
<trkpt lat="35.195437" lon="-84.862544"><ele>245.7</ele><time>2026-07-26T19:35:54Z</time></trkpt>
<trkpt lat="35.195471" lon="-84.862516"><ele>245.1</ele><time>2026-07-26T19:35:57Z</time></trkpt>
<trkpt lat="35.195495" lon="-84.862498"><ele>245.1</ele><time>2026-07-26T19:35:59Z</time></trkpt>
<trkpt lat="35.195526" lon="-84.862468"><ele>244.4</ele><time>2026-07-26T19:36:02Z</time></trkpt>
<trkpt lat="35.195561" lon="-84.862444"><ele>245.4</ele><time>2026-07-26T19:36:05Z</time></trkpt>
<trkpt lat="35.1956" lon="-84.862425"><ele>245.7</ele><time>2026-07-26T19:36:08Z</time></trkpt>
<trkpt lat="35.195625" lon="-84.86241"><ele>246.9</ele><time>2026-07-26T19:36:10Z</time></trkpt>
<trkpt lat="35.195647" lon="-84.862389"><ele>246.6</ele><time>2026-07-26T19:36:12Z</time></trkpt>
<trkpt lat="35.195667" lon="-84.862366"><ele>246.9</ele><time>2026-07-26T19:36:14Z</time></trkpt>
<trkpt lat="35.195697" lon="-84.862363"><ele>246.6</ele><time>2026-07-26T19:36:16Z</time></trkpt>
<trkpt lat="35.195724" lon="-84.862329"><ele>247.5</ele><time>2026-07-26T19:36:21Z</time></trkpt>
<trkpt lat="35.195743" lon="-84.862298"><ele>246.0</ele><time>2026-07-26T19:36:23Z</time></trkpt>
<trkpt lat="35.195765" lon="-84.862271"><ele>245.7</ele><time>2026-07-26T19:36:25Z</time></trkpt>
<trkpt lat="35.195798" lon="-84.862237"><ele>244.4</ele><time>2026-07-26T19:36:28Z</time></trkpt>
<trkpt lat="35.195824" lon="-84.862217"><ele>243.5</ele><time>2026-07-26T19:36:30Z</time></trkpt>
<trkpt lat="35.195863" lon="-84.862191"><ele>245.1</ele><time>2026-07-26T19:36:33Z</time></trkpt>
<trkpt lat="35.195884" lon="-84.862166"><ele>245.4</ele><time>2026-07-26T19:36:36Z</time></trkpt>
<trkpt lat="35.195926" lon="-84.86215"><ele>246.6</ele><time>2026-07-26T19:36:39Z</time></trkpt>
<trkpt lat="35.195951" lon="-84.86213"><ele>245.4</ele><time>2026-07-26T19:36:41Z</time></trkpt>
<trkpt lat="35.195976" lon="-84.862105"><ele>245.4</ele><time>2026-07-26T19:36:43Z</time></trkpt>
<trkpt lat="35.196008" lon="-84.862086"><ele>246.9</ele><time>2026-07-26T19:36:46Z</time></trkpt>
<trkpt lat="35.196036" lon="-84.86208"><ele>248.1</ele><time>2026-07-26T19:36:48Z</time></trkpt>
<trkpt lat="35.196065" lon="-84.862073"><ele>247.5</ele><time>2026-07-26T19:36:50Z</time></trkpt>
<trkpt lat="35.196095" lon="-84.862072"><ele>247.2</ele><time>2026-07-26T19:36:52Z</time></trkpt>
<trkpt lat="35.19612" lon="-84.862035"><ele>241.4</ele><time>2026-07-26T19:36:55Z</time></trkpt>
<trkpt lat="35.196169" lon="-84.862013"><ele>244.4</ele><time>2026-07-26T19:36:57Z</time></trkpt>
<trkpt lat="35.196195" lon="-84.86199"><ele>244.4</ele><time>2026-07-26T19:36:59Z</time></trkpt>
<trkpt lat="35.196229" lon="-84.861973"><ele>245.1</ele><time>2026-07-26T19:37:01Z</time></trkpt>
<trkpt lat="35.196255" lon="-84.86196"><ele>244.8</ele><time>2026-07-26T19:37:03Z</time></trkpt>
<trkpt lat="35.196294" lon="-84.861944"><ele>244.4</ele><time>2026-07-26T19:37:06Z</time></trkpt>
<trkpt lat="35.196327" lon="-84.861938"><ele>245.1</ele><time>2026-07-26T19:37:08Z</time></trkpt>
<trkpt lat="35.19635" lon="-84.861915"><ele>249.3</ele><time>2026-07-26T19:37:11Z</time></trkpt>
<trkpt lat="35.196361" lon="-84.861874"><ele>249.3</ele><time>2026-07-26T19:37:13Z</time></trkpt>
<trkpt lat="35.196376" lon="-84.861832"><ele>249.6</ele><time>2026-07-26T19:37:16Z</time></trkpt>
<trkpt lat="35.196401" lon="-84.861804"><ele>248.1</ele><time>2026-07-26T19:37:18Z</time></trkpt>
<trkpt lat="35.196441" lon="-84.86179"><ele>248.1</ele><time>2026-07-26T19:37:21Z</time></trkpt>
<trkpt lat="35.196461" lon="-84.861752"><ele>246.9</ele><time>2026-07-26T19:37:24Z</time></trkpt>
<trkpt lat="35.196484" lon="-84.861731"><ele>246.3</ele><time>2026-07-26T19:37:26Z</time></trkpt>
<trkpt lat="35.196524" lon="-84.861717"><ele>245.4</ele><time>2026-07-26T19:37:28Z</time></trkpt>
<trkpt lat="35.19656" lon="-84.861711"><ele>245.7</ele><time>2026-07-26T19:37:31Z</time></trkpt>
<trkpt lat="35.1966" lon="-84.861706"><ele>245.1</ele><time>2026-07-26T19:37:34Z</time></trkpt>
<trkpt lat="35.196637" lon="-84.861709"><ele>247.2</ele><time>2026-07-26T19:37:36Z</time></trkpt>
<trkpt lat="35.196662" lon="-84.861692"><ele>244.8</ele><time>2026-07-26T19:37:38Z</time></trkpt>
<trkpt lat="35.196684" lon="-84.861671"><ele>243.8</ele><time>2026-07-26T19:37:40Z</time></trkpt>
<trkpt lat="35.196713" lon="-84.861653"><ele>243.5</ele><time>2026-07-26T19:37:42Z</time></trkpt>
<trkpt lat="35.196737" lon="-84.861632"><ele>243.5</ele><time>2026-07-26T19:37:44Z</time></trkpt>
<trkpt lat="35.196761" lon="-84.86161"><ele>243.8</ele><time>2026-07-26T19:37:46Z</time></trkpt>
<trkpt lat="35.196785" lon="-84.861591"><ele>242.9</ele><time>2026-07-26T19:37:48Z</time></trkpt>
<trkpt lat="35.19681" lon="-84.861554"><ele>241.7</ele><time>2026-07-26T19:37:51Z</time></trkpt>
<trkpt lat="35.196838" lon="-84.861518"><ele>242.6</ele><time>2026-07-26T19:37:54Z</time></trkpt>
<trkpt lat="35.196865" lon="-84.861481"><ele>242.9</ele><time>2026-07-26T19:37:57Z</time></trkpt>
<trkpt lat="35.196888" lon="-84.861459"><ele>242.3</ele><time>2026-07-26T19:37:59Z</time></trkpt>
<trkpt lat="35.196918" lon="-84.861428"><ele>243.2</ele><time>2026-07-26T19:38:02Z</time></trkpt>
<trkpt lat="35.196945" lon="-84.861403"><ele>244.4</ele><time>2026-07-26T19:38:04Z</time></trkpt>
<trkpt lat="35.196972" lon="-84.861379"><ele>244.8</ele><time>2026-07-26T19:38:06Z</time></trkpt>
<trkpt lat="35.197003" lon="-84.86135"><ele>243.8</ele><time>2026-07-26T19:38:09Z</time></trkpt>
<trkpt lat="35.197027" lon="-84.861328"><ele>243.8</ele><time>2026-07-26T19:38:11Z</time></trkpt>
<trkpt lat="35.197063" lon="-84.861306"><ele>242.9</ele><time>2026-07-26T19:38:14Z</time></trkpt>
<trkpt lat="35.1971" lon="-84.861282"><ele>242.3</ele><time>2026-07-26T19:38:17Z</time></trkpt>
<trkpt lat="35.197126" lon="-84.861264"><ele>240.5</ele><time>2026-07-26T19:38:19Z</time></trkpt>
<trkpt lat="35.197163" lon="-84.861239"><ele>241.7</ele><time>2026-07-26T19:38:22Z</time></trkpt>
<trkpt lat="35.197188" lon="-84.861219"><ele>241.7</ele><time>2026-07-26T19:38:24Z</time></trkpt>
<trkpt lat="35.197209" lon="-84.861197"><ele>243.8</ele><time>2026-07-26T19:38:26Z</time></trkpt>
<trkpt lat="35.197241" lon="-84.861165"><ele>242.9</ele><time>2026-07-26T19:38:29Z</time></trkpt>
<trkpt lat="35.197272" lon="-84.861142"><ele>242.0</ele><time>2026-07-26T19:38:32Z</time></trkpt>
<trkpt lat="35.197306" lon="-84.861116"><ele>242.9</ele><time>2026-07-26T19:38:35Z</time></trkpt>
<trkpt lat="35.197328" lon="-84.861094"><ele>242.0</ele><time>2026-07-26T19:38:37Z</time></trkpt>
<trkpt lat="35.197349" lon="-84.86107"><ele>242.6</ele><time>2026-07-26T19:38:39Z</time></trkpt>
<trkpt lat="35.19737" lon="-84.86104"><ele>242.0</ele><time>2026-07-26T19:38:41Z</time></trkpt>
<trkpt lat="35.19739" lon="-84.861016"><ele>241.7</ele><time>2026-07-26T19:38:43Z</time></trkpt>
<trkpt lat="35.197413" lon="-84.860991"><ele>241.4</ele><time>2026-07-26T19:38:45Z</time></trkpt>
<trkpt lat="35.197431" lon="-84.860959"><ele>241.4</ele><time>2026-07-26T19:38:47Z</time></trkpt>
<trkpt lat="35.197457" lon="-84.860931"><ele>241.1</ele><time>2026-07-26T19:38:49Z</time></trkpt>
<trkpt lat="35.197487" lon="-84.860921"><ele>240.8</ele><time>2026-07-26T19:38:51Z</time></trkpt>
<trkpt lat="35.197512" lon="-84.860899"><ele>239.6</ele><time>2026-07-26T19:38:53Z</time></trkpt>
<trkpt lat="35.197546" lon="-84.860879"><ele>239.0</ele><time>2026-07-26T19:38:56Z</time></trkpt>
<trkpt lat="35.197575" lon="-84.860854"><ele>240.8</ele><time>2026-07-26T19:38:59Z</time></trkpt>
<trkpt lat="35.197607" lon="-84.860839"><ele>240.5</ele><time>2026-07-26T19:39:02Z</time></trkpt>
<trkpt lat="35.197637" lon="-84.86082"><ele>240.2</ele><time>2026-07-26T19:39:05Z</time></trkpt>
<trkpt lat="35.197668" lon="-84.8608"><ele>241.4</ele><time>2026-07-26T19:39:08Z</time></trkpt>
<trkpt lat="35.1977" lon="-84.860778"><ele>239.0</ele><time>2026-07-26T19:39:11Z</time></trkpt>
<trkpt lat="35.197733" lon="-84.860757"><ele>239.3</ele><time>2026-07-26T19:39:14Z</time></trkpt>
<trkpt lat="35.19776" lon="-84.860732"><ele>240.2</ele><time>2026-07-26T19:39:16Z</time></trkpt>
<trkpt lat="35.197789" lon="-84.86071"><ele>240.2</ele><time>2026-07-26T19:39:18Z</time></trkpt>
<trkpt lat="35.197814" lon="-84.860691"><ele>241.1</ele><time>2026-07-26T19:39:20Z</time></trkpt>
<trkpt lat="35.197847" lon="-84.860678"><ele>240.2</ele><time>2026-07-26T19:39:22Z</time></trkpt>
<trkpt lat="35.197876" lon="-84.86067"><ele>240.2</ele><time>2026-07-26T19:39:24Z</time></trkpt>
<trkpt lat="35.197904" lon="-84.860659"><ele>239.9</ele><time>2026-07-26T19:39:26Z</time></trkpt>
<trkpt lat="35.197939" lon="-84.860633"><ele>239.3</ele><time>2026-07-26T19:39:29Z</time></trkpt>
<trkpt lat="35.197965" lon="-84.860616"><ele>238.7</ele><time>2026-07-26T19:39:31Z</time></trkpt>
<trkpt lat="35.198" lon="-84.860596"><ele>239.6</ele><time>2026-07-26T19:39:34Z</time></trkpt>
<trkpt lat="35.198029" lon="-84.860568"><ele>240.2</ele><time>2026-07-26T19:39:37Z</time></trkpt>
<trkpt lat="35.19806" lon="-84.860543"><ele>240.8</ele><time>2026-07-26T19:39:40Z</time></trkpt>
<trkpt lat="35.198087" lon="-84.860514"><ele>242.0</ele><time>2026-07-26T19:39:43Z</time></trkpt>
<trkpt lat="35.19812" lon="-84.860511"><ele>240.8</ele><time>2026-07-26T19:39:45Z</time></trkpt>
<trkpt lat="35.198154" lon="-84.860488"><ele>241.1</ele><time>2026-07-26T19:39:48Z</time></trkpt>
<trkpt lat="35.198185" lon="-84.860467"><ele>240.5</ele><time>2026-07-26T19:39:51Z</time></trkpt>
<trkpt lat="35.198222" lon="-84.860447"><ele>238.7</ele><time>2026-07-26T19:39:54Z</time></trkpt>
<trkpt lat="35.198258" lon="-84.860428"><ele>239.3</ele><time>2026-07-26T19:39:57Z</time></trkpt>
<trkpt lat="35.198285" lon="-84.860416"><ele>239.9</ele><time>2026-07-26T19:39:59Z</time></trkpt>
<trkpt lat="35.19831" lon="-84.8604"><ele>240.8</ele><time>2026-07-26T19:40:01Z</time></trkpt>
<trkpt lat="35.198335" lon="-84.860382"><ele>239.3</ele><time>2026-07-26T19:40:03Z</time></trkpt>
<trkpt lat="35.198374" lon="-84.860364"><ele>238.4</ele><time>2026-07-26T19:40:06Z</time></trkpt>
<trkpt lat="35.198405" lon="-84.860354"><ele>237.7</ele><time>2026-07-26T19:40:08Z</time></trkpt>
<trkpt lat="35.198444" lon="-84.860347"><ele>239.0</ele><time>2026-07-26T19:40:10Z</time></trkpt>
<trkpt lat="35.198478" lon="-84.860335"><ele>239.6</ele><time>2026-07-26T19:40:12Z</time></trkpt>
<trkpt lat="35.198511" lon="-84.860324"><ele>241.1</ele><time>2026-07-26T19:40:14Z</time></trkpt>
<trkpt lat="35.198544" lon="-84.860314"><ele>243.5</ele><time>2026-07-26T19:40:16Z</time></trkpt>
<trkpt lat="35.198572" lon="-84.860304"><ele>243.2</ele><time>2026-07-26T19:40:18Z</time></trkpt>
<trkpt lat="35.198604" lon="-84.86029"><ele>242.9</ele><time>2026-07-26T19:40:20Z</time></trkpt>
<trkpt lat="35.19863" lon="-84.860274"><ele>242.3</ele><time>2026-07-26T19:40:22Z</time></trkpt>
<trkpt lat="35.198655" lon="-84.860259"><ele>242.6</ele><time>2026-07-26T19:40:24Z</time></trkpt>
<trkpt lat="35.198679" lon="-84.860243"><ele>242.6</ele><time>2026-07-26T19:40:26Z</time></trkpt>
<trkpt lat="35.198702" lon="-84.860225"><ele>242.6</ele><time>2026-07-26T19:40:28Z</time></trkpt>
<trkpt lat="35.198734" lon="-84.860216"><ele>245.1</ele><time>2026-07-26T19:40:30Z</time></trkpt>
<trkpt lat="35.198765" lon="-84.860204"><ele>245.7</ele><time>2026-07-26T19:40:32Z</time></trkpt>
<trkpt lat="35.19879" lon="-84.860188"><ele>244.1</ele><time>2026-07-26T19:40:34Z</time></trkpt>
<trkpt lat="35.198824" lon="-84.860157"><ele>243.2</ele><time>2026-07-26T19:40:37Z</time></trkpt>
<trkpt lat="35.198848" lon="-84.860137"><ele>243.8</ele><time>2026-07-26T19:40:39Z</time></trkpt>
<trkpt lat="35.198875" lon="-84.860121"><ele>244.1</ele><time>2026-07-26T19:40:41Z</time></trkpt>
<trkpt lat="35.198901" lon="-84.860104"><ele>242.3</ele><time>2026-07-26T19:40:43Z</time></trkpt>
<trkpt lat="35.198927" lon="-84.860085"><ele>240.8</ele><time>2026-07-26T19:40:45Z</time></trkpt>
<trkpt lat="35.198954" lon="-84.860067"><ele>239.3</ele><time>2026-07-26T19:40:47Z</time></trkpt>
<trkpt lat="35.198978" lon="-84.860047"><ele>239.6</ele><time>2026-07-26T19:40:49Z</time></trkpt>
<trkpt lat="35.199001" lon="-84.860028"><ele>239.9</ele><time>2026-07-26T19:40:51Z</time></trkpt>
<trkpt lat="35.199032" lon="-84.860003"><ele>239.6</ele><time>2026-07-26T19:40:54Z</time></trkpt>
<trkpt lat="35.199066" lon="-84.859982"><ele>239.9</ele><time>2026-07-26T19:40:57Z</time></trkpt>
<trkpt lat="35.199093" lon="-84.85997"><ele>240.5</ele><time>2026-07-26T19:41:00Z</time></trkpt>
<trkpt lat="35.199124" lon="-84.859938"><ele>239.6</ele><time>2026-07-26T19:41:04Z</time></trkpt>
<trkpt lat="35.19915" lon="-84.859913"><ele>240.5</ele><time>2026-07-26T19:41:06Z</time></trkpt>
<trkpt lat="35.199181" lon="-84.859896"><ele>239.6</ele><time>2026-07-26T19:41:09Z</time></trkpt>
<trkpt lat="35.1992" lon="-84.859865"><ele>240.2</ele><time>2026-07-26T19:41:12Z</time></trkpt>
<trkpt lat="35.199217" lon="-84.859832"><ele>241.1</ele><time>2026-07-26T19:41:15Z</time></trkpt>
<trkpt lat="35.199266" lon="-84.859826"><ele>239.9</ele><time>2026-07-26T19:41:17Z</time></trkpt>
<trkpt lat="35.199308" lon="-84.859818"><ele>238.7</ele><time>2026-07-26T19:41:19Z</time></trkpt>
<trkpt lat="35.19934" lon="-84.859802"><ele>237.7</ele><time>2026-07-26T19:41:21Z</time></trkpt>
<trkpt lat="35.199365" lon="-84.859787"><ele>236.5</ele><time>2026-07-26T19:41:23Z</time></trkpt>
<trkpt lat="35.199393" lon="-84.85977"><ele>236.8</ele><time>2026-07-26T19:41:25Z</time></trkpt>
<trkpt lat="35.199433" lon="-84.859756"><ele>237.4</ele><time>2026-07-26T19:41:27Z</time></trkpt>
<trkpt lat="35.199479" lon="-84.859746"><ele>237.1</ele><time>2026-07-26T19:41:29Z</time></trkpt>
<trkpt lat="35.199511" lon="-84.859737"><ele>238.0</ele><time>2026-07-26T19:41:31Z</time></trkpt>
<trkpt lat="35.19954" lon="-84.859724"><ele>239.9</ele><time>2026-07-26T19:41:33Z</time></trkpt>
<trkpt lat="35.19957" lon="-84.859703"><ele>239.3</ele><time>2026-07-26T19:41:35Z</time></trkpt>
<trkpt lat="35.199604" lon="-84.859685"><ele>238.0</ele><time>2026-07-26T19:41:37Z</time></trkpt>
<trkpt lat="35.199624" lon="-84.859646"><ele>239.0</ele><time>2026-07-26T19:41:40Z</time></trkpt>
<trkpt lat="35.199645" lon="-84.85962"><ele>239.3</ele><time>2026-07-26T19:41:42Z</time></trkpt>
<trkpt lat="35.199664" lon="-84.859592"><ele>238.4</ele><time>2026-07-26T19:41:44Z</time></trkpt>
<trkpt lat="35.199678" lon="-84.859561"><ele>238.4</ele><time>2026-07-26T19:41:46Z</time></trkpt>
<trkpt lat="35.199707" lon="-84.859522"><ele>238.0</ele><time>2026-07-26T19:41:49Z</time></trkpt>
<trkpt lat="35.199729" lon="-84.859491"><ele>239.0</ele><time>2026-07-26T19:41:51Z</time></trkpt>
<trkpt lat="35.199748" lon="-84.859457"><ele>240.2</ele><time>2026-07-26T19:41:53Z</time></trkpt>
<trkpt lat="35.199765" lon="-84.859425"><ele>240.5</ele><time>2026-07-26T19:41:55Z</time></trkpt>
<trkpt lat="35.199784" lon="-84.859395"><ele>241.4</ele><time>2026-07-26T19:41:57Z</time></trkpt>
<trkpt lat="35.199806" lon="-84.859371"><ele>241.7</ele><time>2026-07-26T19:41:59Z</time></trkpt>
<trkpt lat="35.199827" lon="-84.859341"><ele>242.0</ele><time>2026-07-26T19:42:01Z</time></trkpt>
<trkpt lat="35.199852" lon="-84.859301"><ele>242.6</ele><time>2026-07-26T19:42:04Z</time></trkpt>
<trkpt lat="35.199872" lon="-84.859277"><ele>241.4</ele><time>2026-07-26T19:42:06Z</time></trkpt>
<trkpt lat="35.199895" lon="-84.859245"><ele>240.8</ele><time>2026-07-26T19:42:09Z</time></trkpt>
<trkpt lat="35.199915" lon="-84.859202"><ele>240.2</ele><time>2026-07-26T19:42:12Z</time></trkpt>
<trkpt lat="35.199937" lon="-84.859162"><ele>238.7</ele><time>2026-07-26T19:42:15Z</time></trkpt>
<trkpt lat="35.199963" lon="-84.859128"><ele>239.0</ele><time>2026-07-26T19:42:18Z</time></trkpt>
<trkpt lat="35.199996" lon="-84.859101"><ele>238.7</ele><time>2026-07-26T19:42:21Z</time></trkpt>
<trkpt lat="35.200022" lon="-84.859068"><ele>237.4</ele><time>2026-07-26T19:42:24Z</time></trkpt>
<trkpt lat="35.200057" lon="-84.859042"><ele>236.5</ele><time>2026-07-26T19:42:27Z</time></trkpt>
<trkpt lat="35.200081" lon="-84.859011"><ele>236.5</ele><time>2026-07-26T19:42:30Z</time></trkpt>
<trkpt lat="35.200099" lon="-84.858984"><ele>239.6</ele><time>2026-07-26T19:42:32Z</time></trkpt>
<trkpt lat="35.200123" lon="-84.858966"><ele>237.1</ele><time>2026-07-26T19:42:34Z</time></trkpt>
<trkpt lat="35.200146" lon="-84.858942"><ele>237.1</ele><time>2026-07-26T19:42:36Z</time></trkpt>
<trkpt lat="35.200164" lon="-84.858899"><ele>235.9</ele><time>2026-07-26T19:42:39Z</time></trkpt>
<trkpt lat="35.200178" lon="-84.85887"><ele>235.9</ele><time>2026-07-26T19:42:41Z</time></trkpt>
<trkpt lat="35.200198" lon="-84.858827"><ele>235.9</ele><time>2026-07-26T19:42:44Z</time></trkpt>
<trkpt lat="35.200216" lon="-84.858784"><ele>236.5</ele><time>2026-07-26T19:42:47Z</time></trkpt>
<trkpt lat="35.200244" lon="-84.858747"><ele>239.6</ele><time>2026-07-26T19:42:50Z</time></trkpt>
<trkpt lat="35.200265" lon="-84.858724"><ele>239.6</ele><time>2026-07-26T19:42:52Z</time></trkpt>
<trkpt lat="35.20028" lon="-84.858695"><ele>239.9</ele><time>2026-07-26T19:42:54Z</time></trkpt>
<trkpt lat="35.200295" lon="-84.858665"><ele>240.5</ele><time>2026-07-26T19:42:56Z</time></trkpt>
<trkpt lat="35.200318" lon="-84.858627"><ele>240.8</ele><time>2026-07-26T19:42:59Z</time></trkpt>
<trkpt lat="35.200341" lon="-84.858596"><ele>239.9</ele><time>2026-07-26T19:43:02Z</time></trkpt>
<trkpt lat="35.200361" lon="-84.858564"><ele>238.0</ele><time>2026-07-26T19:43:05Z</time></trkpt>
<trkpt lat="35.200381" lon="-84.858527"><ele>237.7</ele><time>2026-07-26T19:43:08Z</time></trkpt>
<trkpt lat="35.20041" lon="-84.858494"><ele>234.4</ele><time>2026-07-26T19:43:11Z</time></trkpt>
<trkpt lat="35.200432" lon="-84.858471"><ele>232.6</ele><time>2026-07-26T19:43:13Z</time></trkpt>
<trkpt lat="35.200462" lon="-84.858451"><ele>231.6</ele><time>2026-07-26T19:43:15Z</time></trkpt>
<trkpt lat="35.200488" lon="-84.858428"><ele>231.0</ele><time>2026-07-26T19:43:17Z</time></trkpt>
<trkpt lat="35.200509" lon="-84.858404"><ele>232.0</ele><time>2026-07-26T19:43:19Z</time></trkpt>
<trkpt lat="35.200535" lon="-84.858366"><ele>232.9</ele><time>2026-07-26T19:43:22Z</time></trkpt>
<trkpt lat="35.200552" lon="-84.858338"><ele>232.9</ele><time>2026-07-26T19:43:24Z</time></trkpt>
<trkpt lat="35.20058" lon="-84.858303"><ele>234.1</ele><time>2026-07-26T19:43:27Z</time></trkpt>
<trkpt lat="35.200606" lon="-84.858266"><ele>234.1</ele><time>2026-07-26T19:43:30Z</time></trkpt>
<trkpt lat="35.200633" lon="-84.858231"><ele>235.0</ele><time>2026-07-26T19:43:33Z</time></trkpt>
<trkpt lat="35.200657" lon="-84.858203"><ele>235.3</ele><time>2026-07-26T19:43:35Z</time></trkpt>
<trkpt lat="35.200677" lon="-84.858179"><ele>234.7</ele><time>2026-07-26T19:43:37Z</time></trkpt>
<trkpt lat="35.200702" lon="-84.858139"><ele>235.3</ele><time>2026-07-26T19:43:40Z</time></trkpt>
<trkpt lat="35.200719" lon="-84.858111"><ele>235.6</ele><time>2026-07-26T19:43:42Z</time></trkpt>
<trkpt lat="35.200744" lon="-84.858088"><ele>235.9</ele><time>2026-07-26T19:43:44Z</time></trkpt>
<trkpt lat="35.200762" lon="-84.858062"><ele>237.1</ele><time>2026-07-26T19:43:46Z</time></trkpt>
<trkpt lat="35.200785" lon="-84.858037"><ele>238.7</ele><time>2026-07-26T19:43:48Z</time></trkpt>
<trkpt lat="35.200813" lon="-84.858013"><ele>239.0</ele><time>2026-07-26T19:43:50Z</time></trkpt>
<trkpt lat="35.200842" lon="-84.857996"><ele>239.3</ele><time>2026-07-26T19:43:52Z</time></trkpt>
<trkpt lat="35.200865" lon="-84.857974"><ele>240.2</ele><time>2026-07-26T19:43:54Z</time></trkpt>
<trkpt lat="35.200896" lon="-84.857966"><ele>242.3</ele><time>2026-07-26T19:43:56Z</time></trkpt>
<trkpt lat="35.200927" lon="-84.857962"><ele>241.1</ele><time>2026-07-26T19:43:58Z</time></trkpt>
<trkpt lat="35.200975" lon="-84.857967"><ele>243.2</ele><time>2026-07-26T19:44:00Z</time></trkpt>
<trkpt lat="35.201009" lon="-84.857966"><ele>242.0</ele><time>2026-07-26T19:44:02Z</time></trkpt>
<trkpt lat="35.201042" lon="-84.857961"><ele>242.0</ele><time>2026-07-26T19:44:04Z</time></trkpt>
<trkpt lat="35.201075" lon="-84.857962"><ele>242.6</ele><time>2026-07-26T19:44:06Z</time></trkpt>
<trkpt lat="35.201113" lon="-84.857966"><ele>242.6</ele><time>2026-07-26T19:44:08Z</time></trkpt>
<trkpt lat="35.201147" lon="-84.85796"><ele>243.8</ele><time>2026-07-26T19:44:10Z</time></trkpt>
<trkpt lat="35.201174" lon="-84.857942"><ele>242.9</ele><time>2026-07-26T19:44:12Z</time></trkpt>
<trkpt lat="35.201213" lon="-84.857933"><ele>241.4</ele><time>2026-07-26T19:44:15Z</time></trkpt>
<trkpt lat="35.201245" lon="-84.857941"><ele>242.0</ele><time>2026-07-26T19:44:17Z</time></trkpt>
<trkpt lat="35.201274" lon="-84.857945"><ele>241.7</ele><time>2026-07-26T19:44:19Z</time></trkpt>
<trkpt lat="35.201313" lon="-84.85795"><ele>240.2</ele><time>2026-07-26T19:44:22Z</time></trkpt>
<trkpt lat="35.201352" lon="-84.857956"><ele>239.3</ele><time>2026-07-26T19:44:25Z</time></trkpt>
<trkpt lat="35.201391" lon="-84.857953"><ele>239.3</ele><time>2026-07-26T19:44:28Z</time></trkpt>
<trkpt lat="35.201418" lon="-84.857945"><ele>237.7</ele><time>2026-07-26T19:44:30Z</time></trkpt>
<trkpt lat="35.201455" lon="-84.857933"><ele>238.4</ele><time>2026-07-26T19:44:33Z</time></trkpt>
<trkpt lat="35.201492" lon="-84.857908"><ele>236.8</ele><time>2026-07-26T19:44:36Z</time></trkpt>
<trkpt lat="35.201517" lon="-84.857891"><ele>238.0</ele><time>2026-07-26T19:44:38Z</time></trkpt>
<trkpt lat="35.201541" lon="-84.857871"><ele>237.4</ele><time>2026-07-26T19:44:40Z</time></trkpt>
<trkpt lat="35.201563" lon="-84.857851"><ele>238.0</ele><time>2026-07-26T19:44:42Z</time></trkpt>
<trkpt lat="35.201595" lon="-84.857825"><ele>236.2</ele><time>2026-07-26T19:44:45Z</time></trkpt>
<trkpt lat="35.201627" lon="-84.857797"><ele>235.3</ele><time>2026-07-26T19:44:48Z</time></trkpt>
<trkpt lat="35.201655" lon="-84.857761"><ele>235.3</ele><time>2026-07-26T19:44:51Z</time></trkpt>
<trkpt lat="35.201678" lon="-84.85772"><ele>235.0</ele><time>2026-07-26T19:44:54Z</time></trkpt>
<trkpt lat="35.201708" lon="-84.857688"><ele>234.7</ele><time>2026-07-26T19:44:57Z</time></trkpt>
<trkpt lat="35.201727" lon="-84.857661"><ele>235.3</ele><time>2026-07-26T19:44:59Z</time></trkpt>
<trkpt lat="35.201738" lon="-84.85763"><ele>236.5</ele><time>2026-07-26T19:45:01Z</time></trkpt>
<trkpt lat="35.201743" lon="-84.857596"><ele>235.0</ele><time>2026-07-26T19:45:03Z</time></trkpt>
<trkpt lat="35.201742" lon="-84.857562"><ele>235.9</ele><time>2026-07-26T19:45:05Z</time></trkpt>
<trkpt lat="35.201736" lon="-84.857529"><ele>235.9</ele><time>2026-07-26T19:45:07Z</time></trkpt>
<trkpt lat="35.201725" lon="-84.85748"><ele>236.2</ele><time>2026-07-26T19:45:10Z</time></trkpt>
<trkpt lat="35.201727" lon="-84.857442"><ele>236.2</ele><time>2026-07-26T19:45:12Z</time></trkpt>
<trkpt lat="35.20172" lon="-84.857397"><ele>235.9</ele><time>2026-07-26T19:45:15Z</time></trkpt>
<trkpt lat="35.20172" lon="-84.857362"><ele>237.1</ele><time>2026-07-26T19:45:17Z</time></trkpt>
<trkpt lat="35.201717" lon="-84.857327"><ele>237.7</ele><time>2026-07-26T19:45:19Z</time></trkpt>
<trkpt lat="35.201717" lon="-84.85729"><ele>237.4</ele><time>2026-07-26T19:45:21Z</time></trkpt>
<trkpt lat="35.201712" lon="-84.857254"><ele>238.4</ele><time>2026-07-26T19:45:23Z</time></trkpt>
<trkpt lat="35.20171" lon="-84.85722"><ele>239.0</ele><time>2026-07-26T19:45:25Z</time></trkpt>
<trkpt lat="35.201708" lon="-84.85717"><ele>239.6</ele><time>2026-07-26T19:45:28Z</time></trkpt>
<trkpt lat="35.201701" lon="-84.857136"><ele>239.6</ele><time>2026-07-26T19:45:30Z</time></trkpt>
<trkpt lat="35.20169" lon="-84.857084"><ele>239.9</ele><time>2026-07-26T19:45:33Z</time></trkpt>
<trkpt lat="35.20168" lon="-84.857049"><ele>239.9</ele><time>2026-07-26T19:45:35Z</time></trkpt>
<trkpt lat="35.201675" lon="-84.857016"><ele>239.6</ele><time>2026-07-26T19:45:37Z</time></trkpt>
<trkpt lat="35.201659" lon="-84.856972"><ele>238.7</ele><time>2026-07-26T19:45:40Z</time></trkpt>
<trkpt lat="35.201652" lon="-84.856937"><ele>237.1</ele><time>2026-07-26T19:45:42Z</time></trkpt>
<trkpt lat="35.201644" lon="-84.856905"><ele>237.1</ele><time>2026-07-26T19:45:44Z</time></trkpt>
<trkpt lat="35.201639" lon="-84.85687"><ele>238.0</ele><time>2026-07-26T19:45:46Z</time></trkpt>
<trkpt lat="35.20163" lon="-84.856836"><ele>238.0</ele><time>2026-07-26T19:45:48Z</time></trkpt>
<trkpt lat="35.201619" lon="-84.856802"><ele>239.0</ele><time>2026-07-26T19:45:50Z</time></trkpt>
<trkpt lat="35.2016" lon="-84.856757"><ele>239.3</ele><time>2026-07-26T19:45:53Z</time></trkpt>
<trkpt lat="35.201593" lon="-84.856724"><ele>238.4</ele><time>2026-07-26T19:45:55Z</time></trkpt>
<trkpt lat="35.201584" lon="-84.85669"><ele>237.4</ele><time>2026-07-26T19:45:57Z</time></trkpt>
<trkpt lat="35.201571" lon="-84.856655"><ele>238.4</ele><time>2026-07-26T19:45:59Z</time></trkpt>
<trkpt lat="35.201557" lon="-84.856625"><ele>238.4</ele><time>2026-07-26T19:46:01Z</time></trkpt>
<trkpt lat="35.201546" lon="-84.856593"><ele>239.0</ele><time>2026-07-26T19:46:03Z</time></trkpt>
<trkpt lat="35.201538" lon="-84.856561"><ele>238.0</ele><time>2026-07-26T19:46:05Z</time></trkpt>
<trkpt lat="35.201531" lon="-84.856525"><ele>238.0</ele><time>2026-07-26T19:46:07Z</time></trkpt>
<trkpt lat="35.201526" lon="-84.856491"><ele>238.0</ele><time>2026-07-26T19:46:09Z</time></trkpt>
<trkpt lat="35.201511" lon="-84.856444"><ele>238.0</ele><time>2026-07-26T19:46:12Z</time></trkpt>
<trkpt lat="35.201504" lon="-84.856411"><ele>237.4</ele><time>2026-07-26T19:46:14Z</time></trkpt>
<trkpt lat="35.201498" lon="-84.856377"><ele>237.7</ele><time>2026-07-26T19:46:16Z</time></trkpt>
<trkpt lat="35.201488" lon="-84.856345"><ele>237.7</ele><time>2026-07-26T19:46:18Z</time></trkpt>
<trkpt lat="35.201475" lon="-84.856315"><ele>237.7</ele><time>2026-07-26T19:46:20Z</time></trkpt>
<trkpt lat="35.20146" lon="-84.856285"><ele>237.7</ele><time>2026-07-26T19:46:22Z</time></trkpt>
<trkpt lat="35.201449" lon="-84.856252"><ele>238.4</ele><time>2026-07-26T19:46:24Z</time></trkpt>
<trkpt lat="35.201438" lon="-84.856217"><ele>238.4</ele><time>2026-07-26T19:46:26Z</time></trkpt>
<trkpt lat="35.201424" lon="-84.856183"><ele>237.4</ele><time>2026-07-26T19:46:28Z</time></trkpt>
<trkpt lat="35.201412" lon="-84.856147"><ele>238.0</ele><time>2026-07-26T19:46:30Z</time></trkpt>
<trkpt lat="35.2014" lon="-84.856114"><ele>238.4</ele><time>2026-07-26T19:46:32Z</time></trkpt>
<trkpt lat="35.201387" lon="-84.85608"><ele>238.0</ele><time>2026-07-26T19:46:34Z</time></trkpt>
<trkpt lat="35.201374" lon="-84.856045"><ele>238.7</ele><time>2026-07-26T19:46:36Z</time></trkpt>
<trkpt lat="35.201361" lon="-84.85601"><ele>238.7</ele><time>2026-07-26T19:46:38Z</time></trkpt>
<trkpt lat="35.201348" lon="-84.855977"><ele>239.3</ele><time>2026-07-26T19:46:40Z</time></trkpt>
<trkpt lat="35.201336" lon="-84.855946"><ele>239.6</ele><time>2026-07-26T19:46:42Z</time></trkpt>
<trkpt lat="35.201327" lon="-84.855911"><ele>239.0</ele><time>2026-07-26T19:46:44Z</time></trkpt>
<trkpt lat="35.201314" lon="-84.855879"><ele>239.6</ele><time>2026-07-26T19:46:46Z</time></trkpt>
<trkpt lat="35.201302" lon="-84.855848"><ele>239.6</ele><time>2026-07-26T19:46:48Z</time></trkpt>
<trkpt lat="35.201286" lon="-84.855819"><ele>239.6</ele><time>2026-07-26T19:46:50Z</time></trkpt>
<trkpt lat="35.201271" lon="-84.855788"><ele>239.9</ele><time>2026-07-26T19:46:52Z</time></trkpt>
<trkpt lat="35.201261" lon="-84.855755"><ele>239.6</ele><time>2026-07-26T19:46:54Z</time></trkpt>
<trkpt lat="35.20125" lon="-84.855723"><ele>239.9</ele><time>2026-07-26T19:46:56Z</time></trkpt>
<trkpt lat="35.201239" lon="-84.85569"><ele>240.2</ele><time>2026-07-26T19:46:58Z</time></trkpt>
<trkpt lat="35.201225" lon="-84.85566"><ele>240.8</ele><time>2026-07-26T19:47:00Z</time></trkpt>
<trkpt lat="35.201214" lon="-84.855628"><ele>241.7</ele><time>2026-07-26T19:47:02Z</time></trkpt>
<trkpt lat="35.201199" lon="-84.855586"><ele>241.7</ele><time>2026-07-26T19:47:05Z</time></trkpt>
<trkpt lat="35.201185" lon="-84.855557"><ele>241.1</ele><time>2026-07-26T19:47:07Z</time></trkpt>
<trkpt lat="35.201168" lon="-84.855529"><ele>240.8</ele><time>2026-07-26T19:47:09Z</time></trkpt>
<trkpt lat="35.201145" lon="-84.855487"><ele>241.1</ele><time>2026-07-26T19:47:12Z</time></trkpt>
<trkpt lat="35.20113" lon="-84.855458"><ele>241.4</ele><time>2026-07-26T19:47:14Z</time></trkpt>
<trkpt lat="35.201116" lon="-84.855428"><ele>241.7</ele><time>2026-07-26T19:47:16Z</time></trkpt>
<trkpt lat="35.201102" lon="-84.855399"><ele>241.7</ele><time>2026-07-26T19:47:18Z</time></trkpt>
<trkpt lat="35.201086" lon="-84.855369"><ele>241.4</ele><time>2026-07-26T19:47:20Z</time></trkpt>
<trkpt lat="35.201074" lon="-84.855336"><ele>241.1</ele><time>2026-07-26T19:47:22Z</time></trkpt>
<trkpt lat="35.201059" lon="-84.855306"><ele>240.5</ele><time>2026-07-26T19:47:24Z</time></trkpt>
<trkpt lat="35.201045" lon="-84.855277"><ele>240.5</ele><time>2026-07-26T19:47:26Z</time></trkpt>
<trkpt lat="35.201029" lon="-84.85525"><ele>240.5</ele><time>2026-07-26T19:47:28Z</time></trkpt>
<trkpt lat="35.201008" lon="-84.855225"><ele>239.3</ele><time>2026-07-26T19:47:30Z</time></trkpt>
<trkpt lat="35.200988" lon="-84.8552"><ele>239.3</ele><time>2026-07-26T19:47:32Z</time></trkpt>
<trkpt lat="35.200966" lon="-84.855176"><ele>239.9</ele><time>2026-07-26T19:47:34Z</time></trkpt>
<trkpt lat="35.200939" lon="-84.85516"><ele>241.1</ele><time>2026-07-26T19:47:36Z</time></trkpt>
<trkpt lat="35.200918" lon="-84.855137"><ele>241.1</ele><time>2026-07-26T19:47:38Z</time></trkpt>
<trkpt lat="35.200901" lon="-84.855093"><ele>240.2</ele><time>2026-07-26T19:47:41Z</time></trkpt>
<trkpt lat="35.20089" lon="-84.855062"><ele>240.2</ele><time>2026-07-26T19:47:43Z</time></trkpt>
<trkpt lat="35.200882" lon="-84.855028"><ele>240.2</ele><time>2026-07-26T19:47:45Z</time></trkpt>
<trkpt lat="35.200871" lon="-84.854983"><ele>239.9</ele><time>2026-07-26T19:47:48Z</time></trkpt>
<trkpt lat="35.200858" lon="-84.854938"><ele>239.3</ele><time>2026-07-26T19:47:51Z</time></trkpt>
<trkpt lat="35.200844" lon="-84.854891"><ele>239.0</ele><time>2026-07-26T19:47:54Z</time></trkpt>
<trkpt lat="35.200839" lon="-84.854857"><ele>239.0</ele><time>2026-07-26T19:47:56Z</time></trkpt>
<trkpt lat="35.200847" lon="-84.854822"><ele>238.0</ele><time>2026-07-26T19:47:58Z</time></trkpt>
<trkpt lat="35.200835" lon="-84.854789"><ele>239.3</ele><time>2026-07-26T19:48:00Z</time></trkpt>
<trkpt lat="35.200811" lon="-84.854746"><ele>239.3</ele><time>2026-07-26T19:48:03Z</time></trkpt>
<trkpt lat="35.20079" lon="-84.854723"><ele>239.3</ele><time>2026-07-26T19:48:05Z</time></trkpt>
<trkpt lat="35.200773" lon="-84.854695"><ele>239.9</ele><time>2026-07-26T19:48:07Z</time></trkpt>
<trkpt lat="35.200757" lon="-84.854668"><ele>240.8</ele><time>2026-07-26T19:48:09Z</time></trkpt>
<trkpt lat="35.200742" lon="-84.854638"><ele>240.8</ele><time>2026-07-26T19:48:11Z</time></trkpt>
<trkpt lat="35.200728" lon="-84.854603"><ele>240.2</ele><time>2026-07-26T19:48:13Z</time></trkpt>
<trkpt lat="35.200713" lon="-84.854573"><ele>240.5</ele><time>2026-07-26T19:48:15Z</time></trkpt>
<trkpt lat="35.200702" lon="-84.854543"><ele>239.9</ele><time>2026-07-26T19:48:17Z</time></trkpt>
<trkpt lat="35.200682" lon="-84.854499"><ele>240.2</ele><time>2026-07-26T19:48:20Z</time></trkpt>
<trkpt lat="35.20067" lon="-84.854467"><ele>240.2</ele><time>2026-07-26T19:48:22Z</time></trkpt>
<trkpt lat="35.200657" lon="-84.854436"><ele>239.9</ele><time>2026-07-26T19:48:24Z</time></trkpt>
<trkpt lat="35.20064" lon="-84.85441"><ele>240.2</ele><time>2026-07-26T19:48:26Z</time></trkpt>
<trkpt lat="35.20062" lon="-84.854386"><ele>239.0</ele><time>2026-07-26T19:48:28Z</time></trkpt>
<trkpt lat="35.200595" lon="-84.854346"><ele>239.6</ele><time>2026-07-26T19:48:31Z</time></trkpt>
<trkpt lat="35.200577" lon="-84.854318"><ele>239.3</ele><time>2026-07-26T19:48:33Z</time></trkpt>
<trkpt lat="35.200556" lon="-84.854288"><ele>240.2</ele><time>2026-07-26T19:48:35Z</time></trkpt>
<trkpt lat="35.200539" lon="-84.85426"><ele>240.5</ele><time>2026-07-26T19:48:37Z</time></trkpt>
<trkpt lat="35.200522" lon="-84.854231"><ele>241.4</ele><time>2026-07-26T19:48:39Z</time></trkpt>
<trkpt lat="35.200503" lon="-84.854204"><ele>241.7</ele><time>2026-07-26T19:48:41Z</time></trkpt>
<trkpt lat="35.200486" lon="-84.854177"><ele>241.1</ele><time>2026-07-26T19:48:43Z</time></trkpt>
<trkpt lat="35.200466" lon="-84.854152"><ele>242.3</ele><time>2026-07-26T19:48:45Z</time></trkpt>
<trkpt lat="35.200443" lon="-84.854131"><ele>242.6</ele><time>2026-07-26T19:48:47Z</time></trkpt>
<trkpt lat="35.200424" lon="-84.854104"><ele>242.3</ele><time>2026-07-26T19:48:49Z</time></trkpt>
<trkpt lat="35.200402" lon="-84.854082"><ele>242.6</ele><time>2026-07-26T19:48:51Z</time></trkpt>
<trkpt lat="35.200378" lon="-84.854062"><ele>242.0</ele><time>2026-07-26T19:48:53Z</time></trkpt>
<trkpt lat="35.200352" lon="-84.854046"><ele>242.3</ele><time>2026-07-26T19:48:55Z</time></trkpt>
<trkpt lat="35.200328" lon="-84.854024"><ele>241.7</ele><time>2026-07-26T19:48:57Z</time></trkpt>
<trkpt lat="35.200302" lon="-84.854008"><ele>240.8</ele><time>2026-07-26T19:48:59Z</time></trkpt>
<trkpt lat="35.200278" lon="-84.85399"><ele>240.8</ele><time>2026-07-26T19:49:01Z</time></trkpt>
<trkpt lat="35.200257" lon="-84.853964"><ele>241.4</ele><time>2026-07-26T19:49:03Z</time></trkpt>
<trkpt lat="35.200239" lon="-84.853921"><ele>240.8</ele><time>2026-07-26T19:49:06Z</time></trkpt>
<trkpt lat="35.200246" lon="-84.853886"><ele>240.5</ele><time>2026-07-26T19:49:08Z</time></trkpt>
<trkpt lat="35.200258" lon="-84.853843"><ele>240.2</ele><time>2026-07-26T19:49:11Z</time></trkpt>
<trkpt lat="35.200287" lon="-84.853811"><ele>239.0</ele><time>2026-07-26T19:49:14Z</time></trkpt>
<trkpt lat="35.200324" lon="-84.853792"><ele>240.2</ele><time>2026-07-26T19:49:17Z</time></trkpt>
<trkpt lat="35.200362" lon="-84.85379"><ele>241.7</ele><time>2026-07-26T19:49:20Z</time></trkpt>
<trkpt lat="35.200402" lon="-84.853784"><ele>240.2</ele><time>2026-07-26T19:49:23Z</time></trkpt>
<trkpt lat="35.200429" lon="-84.853778"><ele>239.3</ele><time>2026-07-26T19:49:25Z</time></trkpt>
<trkpt lat="35.200469" lon="-84.853774"><ele>240.5</ele><time>2026-07-26T19:49:28Z</time></trkpt>
<trkpt lat="35.200498" lon="-84.853772"><ele>239.9</ele><time>2026-07-26T19:49:30Z</time></trkpt>
<trkpt lat="35.200526" lon="-84.853762"><ele>239.6</ele><time>2026-07-26T19:49:32Z</time></trkpt>
<trkpt lat="35.200553" lon="-84.853741"><ele>238.0</ele><time>2026-07-26T19:49:34Z</time></trkpt>
<trkpt lat="35.200567" lon="-84.853702"><ele>237.7</ele><time>2026-07-26T19:49:36Z</time></trkpt>
<trkpt lat="35.200574" lon="-84.85366"><ele>237.4</ele><time>2026-07-26T19:49:38Z</time></trkpt>
<trkpt lat="35.200584" lon="-84.853624"><ele>236.5</ele><time>2026-07-26T19:49:40Z</time></trkpt>
<trkpt lat="35.200591" lon="-84.853591"><ele>235.6</ele><time>2026-07-26T19:49:42Z</time></trkpt>
<trkpt lat="35.200606" lon="-84.853544"><ele>235.6</ele><time>2026-07-26T19:49:45Z</time></trkpt>
<trkpt lat="35.200623" lon="-84.853498"><ele>235.6</ele><time>2026-07-26T19:49:48Z</time></trkpt>
<trkpt lat="35.200643" lon="-84.853457"><ele>234.7</ele><time>2026-07-26T19:49:51Z</time></trkpt>
<trkpt lat="35.200661" lon="-84.853412"><ele>234.7</ele><time>2026-07-26T19:49:54Z</time></trkpt>
<trkpt lat="35.200687" lon="-84.853374"><ele>234.4</ele><time>2026-07-26T19:49:57Z</time></trkpt>
<trkpt lat="35.200703" lon="-84.853345"><ele>234.7</ele><time>2026-07-26T19:49:59Z</time></trkpt>
<trkpt lat="35.200714" lon="-84.853314"><ele>234.1</ele><time>2026-07-26T19:50:01Z</time></trkpt>
<trkpt lat="35.200726" lon="-84.853279"><ele>234.4</ele><time>2026-07-26T19:50:03Z</time></trkpt>
<trkpt lat="35.200739" lon="-84.853248"><ele>234.7</ele><time>2026-07-26T19:50:05Z</time></trkpt>
<trkpt lat="35.200752" lon="-84.853218"><ele>234.4</ele><time>2026-07-26T19:50:07Z</time></trkpt>
<trkpt lat="35.200769" lon="-84.853189"><ele>235.0</ele><time>2026-07-26T19:50:09Z</time></trkpt>
<trkpt lat="35.200784" lon="-84.85316"><ele>235.0</ele><time>2026-07-26T19:50:11Z</time></trkpt>
<trkpt lat="35.2008" lon="-84.853131"><ele>233.5</ele><time>2026-07-26T19:50:13Z</time></trkpt>
<trkpt lat="35.200821" lon="-84.853092"><ele>232.9</ele><time>2026-07-26T19:50:16Z</time></trkpt>
<trkpt lat="35.200834" lon="-84.85306"><ele>232.9</ele><time>2026-07-26T19:50:18Z</time></trkpt>
<trkpt lat="35.200854" lon="-84.853017"><ele>233.8</ele><time>2026-07-26T19:50:21Z</time></trkpt>
<trkpt lat="35.200866" lon="-84.852985"><ele>234.7</ele><time>2026-07-26T19:50:23Z</time></trkpt>
<trkpt lat="35.200873" lon="-84.852952"><ele>233.8</ele><time>2026-07-26T19:50:25Z</time></trkpt>
<trkpt lat="35.20089" lon="-84.852906"><ele>233.8</ele><time>2026-07-26T19:50:28Z</time></trkpt>
<trkpt lat="35.200901" lon="-84.852875"><ele>234.4</ele><time>2026-07-26T19:50:30Z</time></trkpt>
<trkpt lat="35.200909" lon="-84.852842"><ele>234.7</ele><time>2026-07-26T19:50:32Z</time></trkpt>
<trkpt lat="35.20092" lon="-84.852794"><ele>234.4</ele><time>2026-07-26T19:50:35Z</time></trkpt>
<trkpt lat="35.200926" lon="-84.852746"><ele>233.8</ele><time>2026-07-26T19:50:38Z</time></trkpt>
<trkpt lat="35.200925" lon="-84.852713"><ele>233.8</ele><time>2026-07-26T19:50:40Z</time></trkpt>
<trkpt lat="35.20094" lon="-84.852682"><ele>234.1</ele><time>2026-07-26T19:50:42Z</time></trkpt>
<trkpt lat="35.20096" lon="-84.852659"><ele>234.7</ele><time>2026-07-26T19:50:44Z</time></trkpt>
<trkpt lat="35.200985" lon="-84.852642"><ele>235.0</ele><time>2026-07-26T19:50:46Z</time></trkpt>
<trkpt lat="35.201012" lon="-84.852629"><ele>235.3</ele><time>2026-07-26T19:50:48Z</time></trkpt>
<trkpt lat="35.20104" lon="-84.852616"><ele>234.1</ele><time>2026-07-26T19:50:50Z</time></trkpt>
<trkpt lat="35.20107" lon="-84.852603"><ele>232.0</ele><time>2026-07-26T19:50:52Z</time></trkpt>
<trkpt lat="35.201098" lon="-84.852585"><ele>232.9</ele><time>2026-07-26T19:50:54Z</time></trkpt>
<trkpt lat="35.201126" lon="-84.852581"><ele>233.5</ele><time>2026-07-26T19:50:56Z</time></trkpt>
<trkpt lat="35.201155" lon="-84.852584"><ele>232.0</ele><time>2026-07-26T19:50:58Z</time></trkpt>
<trkpt lat="35.201186" lon="-84.852591"><ele>228.3</ele><time>2026-07-26T19:51:00Z</time></trkpt>
<trkpt lat="35.201222" lon="-84.852602"><ele>230.4</ele><time>2026-07-26T19:51:02Z</time></trkpt>
<trkpt lat="35.201252" lon="-84.852617"><ele>231.0</ele><time>2026-07-26T19:51:04Z</time></trkpt>
<trkpt lat="35.201279" lon="-84.852632"><ele>233.2</ele><time>2026-07-26T19:51:06Z</time></trkpt>
<trkpt lat="35.201305" lon="-84.85265"><ele>234.4</ele><time>2026-07-26T19:51:08Z</time></trkpt>
<trkpt lat="35.201341" lon="-84.852665"><ele>235.0</ele><time>2026-07-26T19:51:11Z</time></trkpt>
<trkpt lat="35.20138" lon="-84.852678"><ele>235.6</ele><time>2026-07-26T19:51:14Z</time></trkpt>
<trkpt lat="35.201407" lon="-84.85269"><ele>235.9</ele><time>2026-07-26T19:51:16Z</time></trkpt>
<trkpt lat="35.201446" lon="-84.852703"><ele>235.3</ele><time>2026-07-26T19:51:19Z</time></trkpt>
<trkpt lat="35.201486" lon="-84.852703"><ele>235.6</ele><time>2026-07-26T19:51:22Z</time></trkpt>
<trkpt lat="35.201513" lon="-84.852696"><ele>235.0</ele><time>2026-07-26T19:51:24Z</time></trkpt>
<trkpt lat="35.201541" lon="-84.852687"><ele>234.7</ele><time>2026-07-26T19:51:26Z</time></trkpt>
<trkpt lat="35.201567" lon="-84.852676"><ele>234.4</ele><time>2026-07-26T19:51:28Z</time></trkpt>
<trkpt lat="35.201603" lon="-84.852655"><ele>234.7</ele><time>2026-07-26T19:51:31Z</time></trkpt>
<trkpt lat="35.20164" lon="-84.852643"><ele>235.6</ele><time>2026-07-26T19:51:34Z</time></trkpt>
<trkpt lat="35.201667" lon="-84.852639"><ele>236.2</ele><time>2026-07-26T19:51:36Z</time></trkpt>
<trkpt lat="35.201696" lon="-84.852636"><ele>236.2</ele><time>2026-07-26T19:51:38Z</time></trkpt>
<trkpt lat="35.201734" lon="-84.852635"><ele>236.5</ele><time>2026-07-26T19:51:41Z</time></trkpt>
<trkpt lat="35.20177" lon="-84.852634"><ele>237.4</ele><time>2026-07-26T19:51:44Z</time></trkpt>
<trkpt lat="35.20181" lon="-84.852632"><ele>238.4</ele><time>2026-07-26T19:51:47Z</time></trkpt>
<trkpt lat="35.201851" lon="-84.852632"><ele>239.0</ele><time>2026-07-26T19:51:50Z</time></trkpt>
<trkpt lat="35.201889" lon="-84.852627"><ele>238.7</ele><time>2026-07-26T19:51:53Z</time></trkpt>
<trkpt lat="35.201916" lon="-84.852632"><ele>238.0</ele><time>2026-07-26T19:51:55Z</time></trkpt>
<trkpt lat="35.201956" lon="-84.852629"><ele>238.0</ele><time>2026-07-26T19:51:58Z</time></trkpt>
<trkpt lat="35.201996" lon="-84.852634"><ele>238.4</ele><time>2026-07-26T19:52:01Z</time></trkpt>
<trkpt lat="35.202023" lon="-84.852641"><ele>238.7</ele><time>2026-07-26T19:52:03Z</time></trkpt>
<trkpt lat="35.202052" lon="-84.852643"><ele>238.7</ele><time>2026-07-26T19:52:05Z</time></trkpt>
<trkpt lat="35.202082" lon="-84.852646"><ele>239.0</ele><time>2026-07-26T19:52:07Z</time></trkpt>
<trkpt lat="35.20211" lon="-84.852654"><ele>239.3</ele><time>2026-07-26T19:52:09Z</time></trkpt>
<trkpt lat="35.202138" lon="-84.852663"><ele>239.9</ele><time>2026-07-26T19:52:11Z</time></trkpt>
<trkpt lat="35.202168" lon="-84.852666"><ele>240.5</ele><time>2026-07-26T19:52:13Z</time></trkpt>
<trkpt lat="35.202197" lon="-84.852675"><ele>240.5</ele><time>2026-07-26T19:52:15Z</time></trkpt>
<trkpt lat="35.202225" lon="-84.852682"><ele>240.8</ele><time>2026-07-26T19:52:17Z</time></trkpt>
<trkpt lat="35.202252" lon="-84.852694"><ele>240.8</ele><time>2026-07-26T19:52:19Z</time></trkpt>
<trkpt lat="35.202279" lon="-84.852701"><ele>240.8</ele><time>2026-07-26T19:52:21Z</time></trkpt>
<trkpt lat="35.202305" lon="-84.852714"><ele>240.5</ele><time>2026-07-26T19:52:23Z</time></trkpt>
<trkpt lat="35.20233" lon="-84.852732"><ele>239.9</ele><time>2026-07-26T19:52:25Z</time></trkpt>
<trkpt lat="35.202365" lon="-84.852756"><ele>239.0</ele><time>2026-07-26T19:52:28Z</time></trkpt>
<trkpt lat="35.202392" lon="-84.852769"><ele>239.0</ele><time>2026-07-26T19:52:30Z</time></trkpt>
<trkpt lat="35.202418" lon="-84.85278"><ele>239.3</ele><time>2026-07-26T19:52:32Z</time></trkpt>
<trkpt lat="35.202444" lon="-84.852794"><ele>240.2</ele><time>2026-07-26T19:52:34Z</time></trkpt>
<trkpt lat="35.20247" lon="-84.85281"><ele>239.9</ele><time>2026-07-26T19:52:36Z</time></trkpt>
<trkpt lat="35.202499" lon="-84.852823"><ele>240.8</ele><time>2026-07-26T19:52:38Z</time></trkpt>
<trkpt lat="35.202527" lon="-84.852841"><ele>241.1</ele><time>2026-07-26T19:52:40Z</time></trkpt>
<trkpt lat="35.202556" lon="-84.852854"><ele>241.7</ele><time>2026-07-26T19:52:42Z</time></trkpt>
<trkpt lat="35.202581" lon="-84.852874"><ele>242.0</ele><time>2026-07-26T19:52:44Z</time></trkpt>
<trkpt lat="35.202607" lon="-84.85289"><ele>242.6</ele><time>2026-07-26T19:52:46Z</time></trkpt>
<trkpt lat="35.202634" lon="-84.852903"><ele>242.6</ele><time>2026-07-26T19:52:48Z</time></trkpt>
<trkpt lat="35.202655" lon="-84.852927"><ele>242.9</ele><time>2026-07-26T19:52:50Z</time></trkpt>
<trkpt lat="35.202687" lon="-84.852957"><ele>242.3</ele><time>2026-07-26T19:52:53Z</time></trkpt>
<trkpt lat="35.202711" lon="-84.852975"><ele>241.7</ele><time>2026-07-26T19:52:55Z</time></trkpt>
<trkpt lat="35.202736" lon="-84.852994"><ele>240.5</ele><time>2026-07-26T19:52:57Z</time></trkpt>
<trkpt lat="35.202772" lon="-84.853015"><ele>240.2</ele><time>2026-07-26T19:53:00Z</time></trkpt>
<trkpt lat="35.202796" lon="-84.853032"><ele>239.9</ele><time>2026-07-26T19:53:02Z</time></trkpt>
<trkpt lat="35.202825" lon="-84.853063"><ele>240.2</ele><time>2026-07-26T19:53:05Z</time></trkpt>
<trkpt lat="35.202855" lon="-84.853091"><ele>240.8</ele><time>2026-07-26T19:53:08Z</time></trkpt>
<trkpt lat="35.202888" lon="-84.853118"><ele>239.9</ele><time>2026-07-26T19:53:11Z</time></trkpt>
<trkpt lat="35.202911" lon="-84.853142"><ele>238.0</ele><time>2026-07-26T19:53:13Z</time></trkpt>
<trkpt lat="35.202942" lon="-84.853171"><ele>239.6</ele><time>2026-07-26T19:53:16Z</time></trkpt>
<trkpt lat="35.202973" lon="-84.853203"><ele>239.6</ele><time>2026-07-26T19:53:19Z</time></trkpt>
<trkpt lat="35.203004" lon="-84.853233"><ele>237.7</ele><time>2026-07-26T19:53:22Z</time></trkpt>
<trkpt lat="35.203036" lon="-84.853263"><ele>238.4</ele><time>2026-07-26T19:53:25Z</time></trkpt>
<trkpt lat="35.203058" lon="-84.853285"><ele>238.0</ele><time>2026-07-26T19:53:27Z</time></trkpt>
<trkpt lat="35.20308" lon="-84.853305"><ele>237.4</ele><time>2026-07-26T19:53:29Z</time></trkpt>
<trkpt lat="35.203102" lon="-84.853326"><ele>237.1</ele><time>2026-07-26T19:53:31Z</time></trkpt>
<trkpt lat="35.203136" lon="-84.853351"><ele>236.2</ele><time>2026-07-26T19:53:34Z</time></trkpt>
<trkpt lat="35.20317" lon="-84.853376"><ele>235.6</ele><time>2026-07-26T19:53:37Z</time></trkpt>
<trkpt lat="35.203202" lon="-84.853404"><ele>238.7</ele><time>2026-07-26T19:53:40Z</time></trkpt>
<trkpt lat="35.203228" lon="-84.853415"><ele>237.7</ele><time>2026-07-26T19:53:42Z</time></trkpt>
<trkpt lat="35.203252" lon="-84.853435"><ele>237.7</ele><time>2026-07-26T19:53:44Z</time></trkpt>
<trkpt lat="35.203287" lon="-84.853465"><ele>240.2</ele><time>2026-07-26T19:53:47Z</time></trkpt>
<trkpt lat="35.203311" lon="-84.853483"><ele>239.0</ele><time>2026-07-26T19:53:49Z</time></trkpt>
<trkpt lat="35.203346" lon="-84.853507"><ele>240.5</ele><time>2026-07-26T19:53:52Z</time></trkpt>
<trkpt lat="35.203366" lon="-84.853529"><ele>241.1</ele><time>2026-07-26T19:53:54Z</time></trkpt>
<trkpt lat="35.203396" lon="-84.853562"><ele>240.2</ele><time>2026-07-26T19:53:57Z</time></trkpt>
<trkpt lat="35.203419" lon="-84.853582"><ele>239.6</ele><time>2026-07-26T19:53:59Z</time></trkpt>
<trkpt lat="35.203452" lon="-84.85361"><ele>238.4</ele><time>2026-07-26T19:54:02Z</time></trkpt>
<trkpt lat="35.203488" lon="-84.853632"><ele>236.8</ele><time>2026-07-26T19:54:05Z</time></trkpt>
<trkpt lat="35.203517" lon="-84.853664"><ele>239.3</ele><time>2026-07-26T19:54:08Z</time></trkpt>
<trkpt lat="35.203537" lon="-84.853688"><ele>238.7</ele><time>2026-07-26T19:54:10Z</time></trkpt>
<trkpt lat="35.203563" lon="-84.853706"><ele>239.0</ele><time>2026-07-26T19:54:12Z</time></trkpt>
<trkpt lat="35.203589" lon="-84.853722"><ele>237.7</ele><time>2026-07-26T19:54:14Z</time></trkpt>
<trkpt lat="35.203609" lon="-84.853747"><ele>236.8</ele><time>2026-07-26T19:54:16Z</time></trkpt>
<trkpt lat="35.20364" lon="-84.853778"><ele>235.6</ele><time>2026-07-26T19:54:19Z</time></trkpt>
<trkpt lat="35.203663" lon="-84.853798"><ele>235.0</ele><time>2026-07-26T19:54:21Z</time></trkpt>
<trkpt lat="35.203694" lon="-84.853827"><ele>235.0</ele><time>2026-07-26T19:54:24Z</time></trkpt>
<trkpt lat="35.203709" lon="-84.853856"><ele>240.5</ele><time>2026-07-26T19:54:26Z</time></trkpt>
<trkpt lat="35.203733" lon="-84.853894"><ele>245.4</ele><time>2026-07-26T19:54:29Z</time></trkpt>
<trkpt lat="35.203765" lon="-84.853926"><ele>245.7</ele><time>2026-07-26T19:54:32Z</time></trkpt>
<trkpt lat="35.203788" lon="-84.853947"><ele>245.4</ele><time>2026-07-26T19:54:34Z</time></trkpt>
<trkpt lat="35.203822" lon="-84.853971"><ele>245.7</ele><time>2026-07-26T19:54:37Z</time></trkpt>
<trkpt lat="35.203859" lon="-84.85399"><ele>246.6</ele><time>2026-07-26T19:54:40Z</time></trkpt>
<trkpt lat="35.203892" lon="-84.854015"><ele>248.4</ele><time>2026-07-26T19:54:43Z</time></trkpt>
<trkpt lat="35.203918" lon="-84.854035"><ele>247.5</ele><time>2026-07-26T19:54:45Z</time></trkpt>
<trkpt lat="35.203949" lon="-84.854042"><ele>246.9</ele><time>2026-07-26T19:54:47Z</time></trkpt>
<trkpt lat="35.203981" lon="-84.854049"><ele>245.1</ele><time>2026-07-26T19:54:49Z</time></trkpt>
<trkpt lat="35.20401" lon="-84.854062"><ele>245.1</ele><time>2026-07-26T19:54:51Z</time></trkpt>
<trkpt lat="35.204039" lon="-84.854069"><ele>245.1</ele><time>2026-07-26T19:54:53Z</time></trkpt>
<trkpt lat="35.204072" lon="-84.854068"><ele>245.4</ele><time>2026-07-26T19:54:55Z</time></trkpt>
<trkpt lat="35.204103" lon="-84.854063"><ele>244.1</ele><time>2026-07-26T19:54:57Z</time></trkpt>
<trkpt lat="35.204131" lon="-84.854064"><ele>244.4</ele><time>2026-07-26T19:54:59Z</time></trkpt>
<trkpt lat="35.204159" lon="-84.854071"><ele>243.5</ele><time>2026-07-26T19:55:01Z</time></trkpt>
<trkpt lat="35.204187" lon="-84.854068"><ele>241.4</ele><time>2026-07-26T19:55:03Z</time></trkpt>
<trkpt lat="35.204214" lon="-84.854074"><ele>241.4</ele><time>2026-07-26T19:55:05Z</time></trkpt>
<trkpt lat="35.204254" lon="-84.854092"><ele>239.9</ele><time>2026-07-26T19:55:08Z</time></trkpt>
<trkpt lat="35.204281" lon="-84.854103"><ele>240.2</ele><time>2026-07-26T19:55:10Z</time></trkpt>
<trkpt lat="35.204318" lon="-84.85412"><ele>240.5</ele><time>2026-07-26T19:55:13Z</time></trkpt>
<trkpt lat="35.204343" lon="-84.854135"><ele>240.8</ele><time>2026-07-26T19:55:15Z</time></trkpt>
<trkpt lat="35.204368" lon="-84.854151"><ele>240.8</ele><time>2026-07-26T19:55:17Z</time></trkpt>
<trkpt lat="35.204405" lon="-84.854171"><ele>240.5</ele><time>2026-07-26T19:55:20Z</time></trkpt>
<trkpt lat="35.204445" lon="-84.854181"><ele>240.5</ele><time>2026-07-26T19:55:23Z</time></trkpt>
<trkpt lat="35.204472" lon="-84.854188"><ele>240.5</ele><time>2026-07-26T19:55:25Z</time></trkpt>
<trkpt lat="35.204509" lon="-84.854204"><ele>239.9</ele><time>2026-07-26T19:55:28Z</time></trkpt>
<trkpt lat="35.204536" lon="-84.854211"><ele>240.2</ele><time>2026-07-26T19:55:30Z</time></trkpt>
<trkpt lat="35.204563" lon="-84.854226"><ele>240.5</ele><time>2026-07-26T19:55:32Z</time></trkpt>
<trkpt lat="35.204602" lon="-84.85424"><ele>239.9</ele><time>2026-07-26T19:55:35Z</time></trkpt>
<trkpt lat="35.20464" lon="-84.854251"><ele>239.6</ele><time>2026-07-26T19:55:38Z</time></trkpt>
<trkpt lat="35.20468" lon="-84.85426"><ele>241.1</ele><time>2026-07-26T19:55:41Z</time></trkpt>
<trkpt lat="35.204721" lon="-84.854262"><ele>242.6</ele><time>2026-07-26T19:55:44Z</time></trkpt>
<trkpt lat="35.204753" lon="-84.854253"><ele>239.0</ele><time>2026-07-26T19:55:46Z</time></trkpt>
<trkpt lat="35.204783" lon="-84.854247"><ele>239.0</ele><time>2026-07-26T19:55:48Z</time></trkpt>
<trkpt lat="35.204825" lon="-84.85425"><ele>239.3</ele><time>2026-07-26T19:55:51Z</time></trkpt>
<trkpt lat="35.204866" lon="-84.854241"><ele>238.4</ele><time>2026-07-26T19:55:54Z</time></trkpt>
<trkpt lat="35.204894" lon="-84.854238"><ele>237.7</ele><time>2026-07-26T19:55:56Z</time></trkpt>
<trkpt lat="35.204924" lon="-84.854243"><ele>237.7</ele><time>2026-07-26T19:55:58Z</time></trkpt>
<trkpt lat="35.204953" lon="-84.85425"><ele>237.7</ele><time>2026-07-26T19:56:00Z</time></trkpt>
<trkpt lat="35.20498" lon="-84.854257"><ele>237.4</ele><time>2026-07-26T19:56:02Z</time></trkpt>
<trkpt lat="35.20501" lon="-84.85426"><ele>235.9</ele><time>2026-07-26T19:56:04Z</time></trkpt>
<trkpt lat="35.205042" lon="-84.854261"><ele>235.0</ele><time>2026-07-26T19:56:06Z</time></trkpt>
<trkpt lat="35.205073" lon="-84.854276"><ele>233.8</ele><time>2026-07-26T19:56:08Z</time></trkpt>
<trkpt lat="35.205103" lon="-84.854281"><ele>233.8</ele><time>2026-07-26T19:56:10Z</time></trkpt>
<trkpt lat="35.205132" lon="-84.854282"><ele>234.1</ele><time>2026-07-26T19:56:12Z</time></trkpt>
<trkpt lat="35.20516" lon="-84.854283"><ele>234.1</ele><time>2026-07-26T19:56:14Z</time></trkpt>
<trkpt lat="35.205189" lon="-84.854285"><ele>234.1</ele><time>2026-07-26T19:56:16Z</time></trkpt>
<trkpt lat="35.205218" lon="-84.854287"><ele>234.1</ele><time>2026-07-26T19:56:18Z</time></trkpt>
<trkpt lat="35.205247" lon="-84.854289"><ele>234.7</ele><time>2026-07-26T19:56:20Z</time></trkpt>
<trkpt lat="35.205274" lon="-84.854292"><ele>234.7</ele><time>2026-07-26T19:56:22Z</time></trkpt>
<trkpt lat="35.205302" lon="-84.854297"><ele>236.5</ele><time>2026-07-26T19:56:24Z</time></trkpt>
<trkpt lat="35.205342" lon="-84.854302"><ele>237.1</ele><time>2026-07-26T19:56:27Z</time></trkpt>
<trkpt lat="35.205371" lon="-84.854294"><ele>235.6</ele><time>2026-07-26T19:56:29Z</time></trkpt>
<trkpt lat="35.205403" lon="-84.854293"><ele>235.9</ele><time>2026-07-26T19:56:31Z</time></trkpt>
<trkpt lat="35.205431" lon="-84.85429"><ele>235.9</ele><time>2026-07-26T19:56:33Z</time></trkpt>
<trkpt lat="35.205459" lon="-84.854288"><ele>235.6</ele><time>2026-07-26T19:56:35Z</time></trkpt>
<trkpt lat="35.205489" lon="-84.854282"><ele>236.8</ele><time>2026-07-26T19:56:37Z</time></trkpt>
<trkpt lat="35.205517" lon="-84.854274"><ele>237.7</ele><time>2026-07-26T19:56:39Z</time></trkpt>
<trkpt lat="35.205543" lon="-84.854263"><ele>238.4</ele><time>2026-07-26T19:56:41Z</time></trkpt>
<trkpt lat="35.20557" lon="-84.854257"><ele>238.7</ele><time>2026-07-26T19:56:43Z</time></trkpt>
<trkpt lat="35.205598" lon="-84.854245"><ele>240.2</ele><time>2026-07-26T19:56:45Z</time></trkpt>
<trkpt lat="35.205626" lon="-84.854236"><ele>240.5</ele><time>2026-07-26T19:56:47Z</time></trkpt>
<trkpt lat="35.205664" lon="-84.854226"><ele>239.6</ele><time>2026-07-26T19:56:50Z</time></trkpt>
<trkpt lat="35.205705" lon="-84.854224"><ele>238.7</ele><time>2026-07-26T19:56:53Z</time></trkpt>
<trkpt lat="35.205743" lon="-84.85422"><ele>239.3</ele><time>2026-07-26T19:56:56Z</time></trkpt>
<trkpt lat="35.205784" lon="-84.854222"><ele>239.9</ele><time>2026-07-26T19:56:59Z</time></trkpt>
<trkpt lat="35.205824" lon="-84.854232"><ele>240.8</ele><time>2026-07-26T19:57:02Z</time></trkpt>
<trkpt lat="35.205864" lon="-84.854229"><ele>240.5</ele><time>2026-07-26T19:57:05Z</time></trkpt>
<trkpt lat="35.205905" lon="-84.854238"><ele>241.1</ele><time>2026-07-26T19:57:08Z</time></trkpt>
<trkpt lat="35.205932" lon="-84.854251"><ele>242.0</ele><time>2026-07-26T19:57:10Z</time></trkpt>
<trkpt lat="35.20596" lon="-84.854256"><ele>242.0</ele><time>2026-07-26T19:57:12Z</time></trkpt>
<trkpt lat="35.205988" lon="-84.854262"><ele>241.7</ele><time>2026-07-26T19:57:14Z</time></trkpt>
<trkpt lat="35.206016" lon="-84.854266"><ele>240.2</ele><time>2026-07-26T19:57:16Z</time></trkpt>
<trkpt lat="35.206045" lon="-84.854257"><ele>238.7</ele><time>2026-07-26T19:57:18Z</time></trkpt>
<trkpt lat="35.206072" lon="-84.854257"><ele>239.3</ele><time>2026-07-26T19:57:20Z</time></trkpt>
<trkpt lat="35.2061" lon="-84.854261"><ele>239.6</ele><time>2026-07-26T19:57:22Z</time></trkpt>
<trkpt lat="35.206127" lon="-84.85426"><ele>238.0</ele><time>2026-07-26T19:57:24Z</time></trkpt>
<trkpt lat="35.206154" lon="-84.854267"><ele>237.4</ele><time>2026-07-26T19:57:26Z</time></trkpt>
<trkpt lat="35.206194" lon="-84.854269"><ele>237.4</ele><time>2026-07-26T19:57:29Z</time></trkpt>
<trkpt lat="35.206233" lon="-84.854277"><ele>237.1</ele><time>2026-07-26T19:57:32Z</time></trkpt>
<trkpt lat="35.206272" lon="-84.854292"><ele>236.2</ele><time>2026-07-26T19:57:35Z</time></trkpt>
<trkpt lat="35.2063" lon="-84.854294"><ele>235.3</ele><time>2026-07-26T19:57:37Z</time></trkpt>
<trkpt lat="35.206342" lon="-84.854296"><ele>235.6</ele><time>2026-07-26T19:57:40Z</time></trkpt>
<trkpt lat="35.206371" lon="-84.854293"><ele>234.4</ele><time>2026-07-26T19:57:42Z</time></trkpt>
<trkpt lat="35.206397" lon="-84.85428"><ele>234.7</ele><time>2026-07-26T19:57:44Z</time></trkpt>
<trkpt lat="35.206431" lon="-84.854278"><ele>235.9</ele><time>2026-07-26T19:57:47Z</time></trkpt>
<trkpt lat="35.206464" lon="-84.854279"><ele>236.8</ele><time>2026-07-26T19:57:50Z</time></trkpt>
<trkpt lat="35.206492" lon="-84.854279"><ele>236.8</ele><time>2026-07-26T19:57:52Z</time></trkpt>
<trkpt lat="35.206522" lon="-84.854275"><ele>236.2</ele><time>2026-07-26T19:57:54Z</time></trkpt>
<trkpt lat="35.206564" lon="-84.854271"><ele>236.8</ele><time>2026-07-26T19:57:57Z</time></trkpt>
<trkpt lat="35.206592" lon="-84.854268"><ele>238.0</ele><time>2026-07-26T19:57:59Z</time></trkpt>
<trkpt lat="35.20662" lon="-84.854271"><ele>238.0</ele><time>2026-07-26T19:58:01Z</time></trkpt>
<trkpt lat="35.206659" lon="-84.854269"><ele>238.7</ele><time>2026-07-26T19:58:04Z</time></trkpt>
<trkpt lat="35.206697" lon="-84.854262"><ele>240.2</ele><time>2026-07-26T19:58:07Z</time></trkpt>
<trkpt lat="35.206737" lon="-84.854252"><ele>239.3</ele><time>2026-07-26T19:58:10Z</time></trkpt>
<trkpt lat="35.206764" lon="-84.854236"><ele>237.4</ele><time>2026-07-26T19:58:12Z</time></trkpt>
<trkpt lat="35.206788" lon="-84.854215"><ele>237.7</ele><time>2026-07-26T19:58:14Z</time></trkpt>
<trkpt lat="35.206806" lon="-84.854189"><ele>237.4</ele><time>2026-07-26T19:58:16Z</time></trkpt>
<trkpt lat="35.206842" lon="-84.854166"><ele>239.6</ele><time>2026-07-26T19:58:19Z</time></trkpt>
<trkpt lat="35.206864" lon="-84.854145"><ele>238.7</ele><time>2026-07-26T19:58:21Z</time></trkpt>
<trkpt lat="35.206891" lon="-84.854131"><ele>239.0</ele><time>2026-07-26T19:58:23Z</time></trkpt>
<trkpt lat="35.206916" lon="-84.85411"><ele>238.7</ele><time>2026-07-26T19:58:25Z</time></trkpt>
<trkpt lat="35.206943" lon="-84.854095"><ele>238.7</ele><time>2026-07-26T19:58:27Z</time></trkpt>
<trkpt lat="35.206977" lon="-84.854074"><ele>239.6</ele><time>2026-07-26T19:58:30Z</time></trkpt>
<trkpt lat="35.206999" lon="-84.854052"><ele>239.9</ele><time>2026-07-26T19:58:32Z</time></trkpt>
<trkpt lat="35.207034" lon="-84.85403"><ele>240.5</ele><time>2026-07-26T19:58:35Z</time></trkpt>
<trkpt lat="35.207058" lon="-84.854011"><ele>242.3</ele><time>2026-07-26T19:58:37Z</time></trkpt>
<trkpt lat="35.207087" lon="-84.854"><ele>241.1</ele><time>2026-07-26T19:58:39Z</time></trkpt>
<trkpt lat="35.207125" lon="-84.853983"><ele>240.8</ele><time>2026-07-26T19:58:42Z</time></trkpt>
<trkpt lat="35.207151" lon="-84.853967"><ele>240.5</ele><time>2026-07-26T19:58:44Z</time></trkpt>
<trkpt lat="35.207185" lon="-84.853941"><ele>241.4</ele><time>2026-07-26T19:58:47Z</time></trkpt>
<trkpt lat="35.20722" lon="-84.85392"><ele>242.0</ele><time>2026-07-26T19:58:50Z</time></trkpt>
<trkpt lat="35.207255" lon="-84.853894"><ele>241.7</ele><time>2026-07-26T19:58:53Z</time></trkpt>
<trkpt lat="35.207289" lon="-84.853865"><ele>241.1</ele><time>2026-07-26T19:58:56Z</time></trkpt>
<trkpt lat="35.207317" lon="-84.853861"><ele>240.5</ele><time>2026-07-26T19:58:58Z</time></trkpt>
<trkpt lat="35.207341" lon="-84.853842"><ele>240.8</ele><time>2026-07-26T19:59:00Z</time></trkpt>
<trkpt lat="35.207366" lon="-84.853825"><ele>240.8</ele><time>2026-07-26T19:59:02Z</time></trkpt>
<trkpt lat="35.207391" lon="-84.853812"><ele>240.8</ele><time>2026-07-26T19:59:04Z</time></trkpt>
<trkpt lat="35.207428" lon="-84.853795"><ele>241.1</ele><time>2026-07-26T19:59:07Z</time></trkpt>
<trkpt lat="35.207466" lon="-84.853776"><ele>240.5</ele><time>2026-07-26T19:59:10Z</time></trkpt>
<trkpt lat="35.207494" lon="-84.853768"><ele>239.0</ele><time>2026-07-26T19:59:12Z</time></trkpt>
<trkpt lat="35.207531" lon="-84.853746"><ele>239.3</ele><time>2026-07-26T19:59:15Z</time></trkpt>
<trkpt lat="35.207565" lon="-84.853719"><ele>238.7</ele><time>2026-07-26T19:59:18Z</time></trkpt>
<trkpt lat="35.207601" lon="-84.853703"><ele>239.0</ele><time>2026-07-26T19:59:21Z</time></trkpt>
<trkpt lat="35.20764" lon="-84.853691"><ele>238.7</ele><time>2026-07-26T19:59:24Z</time></trkpt>
<trkpt lat="35.207677" lon="-84.853681"><ele>239.3</ele><time>2026-07-26T19:59:27Z</time></trkpt>
<trkpt lat="35.207715" lon="-84.853669"><ele>239.6</ele><time>2026-07-26T19:59:30Z</time></trkpt>
<trkpt lat="35.207742" lon="-84.853662"><ele>240.2</ele><time>2026-07-26T19:59:32Z</time></trkpt>
<trkpt lat="35.207781" lon="-84.853657"><ele>241.4</ele><time>2026-07-26T19:59:35Z</time></trkpt>
<trkpt lat="35.207823" lon="-84.853652"><ele>241.1</ele><time>2026-07-26T19:59:38Z</time></trkpt>
<trkpt lat="35.207863" lon="-84.853657"><ele>241.7</ele><time>2026-07-26T19:59:41Z</time></trkpt>
<trkpt lat="35.207903" lon="-84.853666"><ele>242.9</ele><time>2026-07-26T19:59:44Z</time></trkpt>
<trkpt lat="35.207944" lon="-84.853676"><ele>243.8</ele><time>2026-07-26T19:59:47Z</time></trkpt>
<trkpt lat="35.207974" lon="-84.853684"><ele>243.8</ele><time>2026-07-26T19:59:49Z</time></trkpt>
<trkpt lat="35.208015" lon="-84.853694"><ele>242.6</ele><time>2026-07-26T19:59:52Z</time></trkpt>
<trkpt lat="35.208043" lon="-84.853698"><ele>242.9</ele><time>2026-07-26T19:59:54Z</time></trkpt>
<trkpt lat="35.208084" lon="-84.8537"><ele>242.9</ele><time>2026-07-26T19:59:57Z</time></trkpt>
<trkpt lat="35.208112" lon="-84.853694"><ele>242.6</ele><time>2026-07-26T19:59:59Z</time></trkpt>
<trkpt lat="35.208142" lon="-84.853695"><ele>242.0</ele><time>2026-07-26T20:00:01Z</time></trkpt>
<trkpt lat="35.208171" lon="-84.853701"><ele>241.7</ele><time>2026-07-26T20:00:03Z</time></trkpt>
<trkpt lat="35.208189" lon="-84.853741"><ele>241.7</ele><time>2026-07-26T20:00:06Z</time></trkpt>
<trkpt lat="35.208189" lon="-84.853788"><ele>241.4</ele><time>2026-07-26T20:00:09Z</time></trkpt>
<trkpt lat="35.208189" lon="-84.853833"><ele>241.1</ele><time>2026-07-26T20:00:12Z</time></trkpt>
<trkpt lat="35.208189" lon="-84.853882"><ele>241.1</ele><time>2026-07-26T20:00:15Z</time></trkpt>
<trkpt lat="35.208189" lon="-84.853931"><ele>239.9</ele><time>2026-07-26T20:00:18Z</time></trkpt>
<trkpt lat="35.208184" lon="-84.853979"><ele>239.6</ele><time>2026-07-26T20:00:21Z</time></trkpt>
<trkpt lat="35.208183" lon="-84.854029"><ele>239.3</ele><time>2026-07-26T20:00:24Z</time></trkpt>
<trkpt lat="35.208186" lon="-84.854077"><ele>239.3</ele><time>2026-07-26T20:00:27Z</time></trkpt>
<trkpt lat="35.208191" lon="-84.854125"><ele>239.3</ele><time>2026-07-26T20:00:30Z</time></trkpt>
<trkpt lat="35.208191" lon="-84.85416"><ele>239.6</ele><time>2026-07-26T20:00:32Z</time></trkpt>
<trkpt lat="35.208189" lon="-84.854193"><ele>239.3</ele><time>2026-07-26T20:00:34Z</time></trkpt>
<trkpt lat="35.20819" lon="-84.854227"><ele>240.2</ele><time>2026-07-26T20:00:36Z</time></trkpt>
<trkpt lat="35.208187" lon="-84.854262"><ele>240.8</ele><time>2026-07-26T20:00:38Z</time></trkpt>
<trkpt lat="35.208189" lon="-84.854311"><ele>240.5</ele><time>2026-07-26T20:00:41Z</time></trkpt>
<trkpt lat="35.208193" lon="-84.854346"><ele>239.9</ele><time>2026-07-26T20:00:43Z</time></trkpt>
<trkpt lat="35.208192" lon="-84.854379"><ele>240.2</ele><time>2026-07-26T20:00:45Z</time></trkpt>
<trkpt lat="35.208196" lon="-84.854413"><ele>239.3</ele><time>2026-07-26T20:00:47Z</time></trkpt>
<trkpt lat="35.208199" lon="-84.854461"><ele>239.3</ele><time>2026-07-26T20:00:50Z</time></trkpt>
<trkpt lat="35.2082" lon="-84.854508"><ele>239.9</ele><time>2026-07-26T20:00:53Z</time></trkpt>
<trkpt lat="35.208197" lon="-84.854543"><ele>240.5</ele><time>2026-07-26T20:00:55Z</time></trkpt>
<trkpt lat="35.208194" lon="-84.854576"><ele>240.8</ele><time>2026-07-26T20:00:57Z</time></trkpt>
<trkpt lat="35.208193" lon="-84.854614"><ele>240.5</ele><time>2026-07-26T20:00:59Z</time></trkpt>
<trkpt lat="35.208192" lon="-84.854664"><ele>239.9</ele><time>2026-07-26T20:01:02Z</time></trkpt>
<trkpt lat="35.208193" lon="-84.8547"><ele>240.2</ele><time>2026-07-26T20:01:04Z</time></trkpt>
<trkpt lat="35.208197" lon="-84.854735"><ele>239.3</ele><time>2026-07-26T20:01:06Z</time></trkpt>
<trkpt lat="35.208203" lon="-84.854785"><ele>239.0</ele><time>2026-07-26T20:01:09Z</time></trkpt>
<trkpt lat="35.208203" lon="-84.854819"><ele>238.7</ele><time>2026-07-26T20:01:11Z</time></trkpt>
<trkpt lat="35.208204" lon="-84.854853"><ele>239.0</ele><time>2026-07-26T20:01:13Z</time></trkpt>
<trkpt lat="35.208207" lon="-84.854887"><ele>238.7</ele><time>2026-07-26T20:01:15Z</time></trkpt>
<trkpt lat="35.208213" lon="-84.854934"><ele>239.3</ele><time>2026-07-26T20:01:18Z</time></trkpt>
<trkpt lat="35.208216" lon="-84.854983"><ele>239.3</ele><time>2026-07-26T20:01:21Z</time></trkpt>
<trkpt lat="35.208217" lon="-84.855018"><ele>239.3</ele><time>2026-07-26T20:01:23Z</time></trkpt>
<trkpt lat="35.208217" lon="-84.855053"><ele>239.0</ele><time>2026-07-26T20:01:25Z</time></trkpt>
<trkpt lat="35.208218" lon="-84.855087"><ele>239.6</ele><time>2026-07-26T20:01:27Z</time></trkpt>
<trkpt lat="35.208218" lon="-84.855121"><ele>239.6</ele><time>2026-07-26T20:01:29Z</time></trkpt>
<trkpt lat="35.208221" lon="-84.855168"><ele>239.9</ele><time>2026-07-26T20:01:32Z</time></trkpt>
<trkpt lat="35.208218" lon="-84.855214"><ele>240.8</ele><time>2026-07-26T20:01:35Z</time></trkpt>
<trkpt lat="35.20822" lon="-84.855261"><ele>240.5</ele><time>2026-07-26T20:01:38Z</time></trkpt>
<trkpt lat="35.208226" lon="-84.855309"><ele>240.8</ele><time>2026-07-26T20:01:41Z</time></trkpt>
<trkpt lat="35.20823" lon="-84.855343"><ele>240.5</ele><time>2026-07-26T20:01:43Z</time></trkpt>
<trkpt lat="35.208243" lon="-84.855391"><ele>242.0</ele><time>2026-07-26T20:01:46Z</time></trkpt>
<trkpt lat="35.208258" lon="-84.855433"><ele>242.6</ele><time>2026-07-26T20:01:49Z</time></trkpt>
<trkpt lat="35.208233" lon="-84.855417"><ele>242.6</ele><time>2026-07-26T20:01:53Z</time></trkpt>
<trkpt lat="35.208232" lon="-84.855377"><ele>242.0</ele><time>2026-07-26T20:01:55Z</time></trkpt>
<trkpt lat="35.208229" lon="-84.85534"><ele>241.1</ele><time>2026-07-26T20:01:57Z</time></trkpt>
<trkpt lat="35.208226" lon="-84.855305"><ele>240.5</ele><time>2026-07-26T20:01:59Z</time></trkpt>
<trkpt lat="35.208223" lon="-84.85527"><ele>239.9</ele><time>2026-07-26T20:02:01Z</time></trkpt>
<trkpt lat="35.208226" lon="-84.855233"><ele>239.0</ele><time>2026-07-26T20:02:03Z</time></trkpt>
<trkpt lat="35.208228" lon="-84.855199"><ele>239.0</ele><time>2026-07-26T20:02:05Z</time></trkpt>
<trkpt lat="35.208233" lon="-84.855165"><ele>238.4</ele><time>2026-07-26T20:02:07Z</time></trkpt>
<trkpt lat="35.208225" lon="-84.855131"><ele>237.7</ele><time>2026-07-26T20:02:09Z</time></trkpt>
<trkpt lat="35.208224" lon="-84.855096"><ele>237.4</ele><time>2026-07-26T20:02:11Z</time></trkpt>
<trkpt lat="35.208232" lon="-84.855059"><ele>237.1</ele><time>2026-07-26T20:02:13Z</time></trkpt>
<trkpt lat="35.208231" lon="-84.855009"><ele>236.5</ele><time>2026-07-26T20:02:16Z</time></trkpt>
<trkpt lat="35.208227" lon="-84.854973"><ele>236.8</ele><time>2026-07-26T20:02:18Z</time></trkpt>
<trkpt lat="35.208223" lon="-84.854936"><ele>236.5</ele><time>2026-07-26T20:02:20Z</time></trkpt>
<trkpt lat="35.20822" lon="-84.854902"><ele>236.8</ele><time>2026-07-26T20:02:22Z</time></trkpt>
<trkpt lat="35.208218" lon="-84.854868"><ele>236.5</ele><time>2026-07-26T20:02:24Z</time></trkpt>
<trkpt lat="35.208213" lon="-84.85482"><ele>235.9</ele><time>2026-07-26T20:02:27Z</time></trkpt>
<trkpt lat="35.20821" lon="-84.854775"><ele>235.0</ele><time>2026-07-26T20:02:30Z</time></trkpt>
<trkpt lat="35.208207" lon="-84.854739"><ele>235.0</ele><time>2026-07-26T20:02:32Z</time></trkpt>
<trkpt lat="35.208207" lon="-84.854704"><ele>235.3</ele><time>2026-07-26T20:02:34Z</time></trkpt>
<trkpt lat="35.208211" lon="-84.854668"><ele>235.3</ele><time>2026-07-26T20:02:36Z</time></trkpt>
<trkpt lat="35.208215" lon="-84.854634"><ele>235.0</ele><time>2026-07-26T20:02:38Z</time></trkpt>
<trkpt lat="35.208214" lon="-84.854599"><ele>235.3</ele><time>2026-07-26T20:02:40Z</time></trkpt>
<trkpt lat="35.208212" lon="-84.854562"><ele>235.9</ele><time>2026-07-26T20:02:42Z</time></trkpt>
<trkpt lat="35.208207" lon="-84.854527"><ele>235.9</ele><time>2026-07-26T20:02:44Z</time></trkpt>
<trkpt lat="35.208204" lon="-84.854491"><ele>236.5</ele><time>2026-07-26T20:02:46Z</time></trkpt>
<trkpt lat="35.208202" lon="-84.854456"><ele>236.5</ele><time>2026-07-26T20:02:48Z</time></trkpt>
<trkpt lat="35.208195" lon="-84.854422"><ele>236.8</ele><time>2026-07-26T20:02:50Z</time></trkpt>
<trkpt lat="35.208189" lon="-84.854385"><ele>236.8</ele><time>2026-07-26T20:02:52Z</time></trkpt>
<trkpt lat="35.208189" lon="-84.854349"><ele>235.9</ele><time>2026-07-26T20:02:54Z</time></trkpt>
<trkpt lat="35.208198" lon="-84.854312"><ele>235.0</ele><time>2026-07-26T20:02:56Z</time></trkpt>
<trkpt lat="35.208202" lon="-84.854276"><ele>235.9</ele><time>2026-07-26T20:02:58Z</time></trkpt>
<trkpt lat="35.208209" lon="-84.854243"><ele>235.9</ele><time>2026-07-26T20:03:00Z</time></trkpt>
<trkpt lat="35.208217" lon="-84.854197"><ele>235.6</ele><time>2026-07-26T20:03:03Z</time></trkpt>
<trkpt lat="35.208217" lon="-84.854163"><ele>236.5</ele><time>2026-07-26T20:03:05Z</time></trkpt>
<trkpt lat="35.208223" lon="-84.854129"><ele>236.2</ele><time>2026-07-26T20:03:07Z</time></trkpt>
<trkpt lat="35.208219" lon="-84.854081"><ele>235.9</ele><time>2026-07-26T20:03:10Z</time></trkpt>
<trkpt lat="35.208213" lon="-84.854047"><ele>237.7</ele><time>2026-07-26T20:03:12Z</time></trkpt>
<trkpt lat="35.208209" lon="-84.853998"><ele>238.0</ele><time>2026-07-26T20:03:15Z</time></trkpt>
<trkpt lat="35.208201" lon="-84.853952"><ele>239.0</ele><time>2026-07-26T20:03:18Z</time></trkpt>
<trkpt lat="35.208195" lon="-84.853918"><ele>239.9</ele><time>2026-07-26T20:03:20Z</time></trkpt>
<trkpt lat="35.2082" lon="-84.853884"><ele>240.2</ele><time>2026-07-26T20:03:22Z</time></trkpt>
<trkpt lat="35.208196" lon="-84.85385"><ele>239.9</ele><time>2026-07-26T20:03:24Z</time></trkpt>
<trkpt lat="35.208193" lon="-84.853817"><ele>241.1</ele><time>2026-07-26T20:03:26Z</time></trkpt>
<trkpt lat="35.208194" lon="-84.853768"><ele>240.8</ele><time>2026-07-26T20:03:29Z</time></trkpt>
<trkpt lat="35.208195" lon="-84.853734"><ele>239.9</ele><time>2026-07-26T20:03:31Z</time></trkpt>
<trkpt lat="35.208202" lon="-84.853685"><ele>240.2</ele><time>2026-07-26T20:03:34Z</time></trkpt>
<trkpt lat="35.208232" lon="-84.85366"><ele>240.2</ele><time>2026-07-26T20:03:37Z</time></trkpt>
<trkpt lat="35.208273" lon="-84.853654"><ele>239.9</ele><time>2026-07-26T20:03:40Z</time></trkpt>
<trkpt lat="35.208313" lon="-84.853659"><ele>239.3</ele><time>2026-07-26T20:03:43Z</time></trkpt>
<trkpt lat="35.208351" lon="-84.853655"><ele>239.9</ele><time>2026-07-26T20:03:46Z</time></trkpt>
<trkpt lat="35.208389" lon="-84.853652"><ele>239.3</ele><time>2026-07-26T20:03:49Z</time></trkpt>
<trkpt lat="35.208429" lon="-84.853642"><ele>238.4</ele><time>2026-07-26T20:03:52Z</time></trkpt>
<trkpt lat="35.208457" lon="-84.853641"><ele>237.7</ele><time>2026-07-26T20:03:54Z</time></trkpt>
<trkpt lat="35.208484" lon="-84.853629"><ele>238.0</ele><time>2026-07-26T20:03:56Z</time></trkpt>
<trkpt lat="35.208509" lon="-84.853616"><ele>237.7</ele><time>2026-07-26T20:03:58Z</time></trkpt>
<trkpt lat="35.208539" lon="-84.853616"><ele>238.4</ele><time>2026-07-26T20:04:01Z</time></trkpt>
<trkpt lat="35.208578" lon="-84.853616"><ele>239.0</ele><time>2026-07-26T20:04:05Z</time></trkpt>
<trkpt lat="35.208611" lon="-84.853621"><ele>239.3</ele><time>2026-07-26T20:04:08Z</time></trkpt>
<trkpt lat="35.208645" lon="-84.853646"><ele>239.0</ele><time>2026-07-26T20:04:11Z</time></trkpt>
<trkpt lat="35.208683" lon="-84.853638"><ele>236.2</ele><time>2026-07-26T20:04:13Z</time></trkpt>
<trkpt lat="35.208714" lon="-84.853615"><ele>235.6</ele><time>2026-07-26T20:04:15Z</time></trkpt>
<trkpt lat="35.208742" lon="-84.853597"><ele>235.3</ele><time>2026-07-26T20:04:17Z</time></trkpt>
<trkpt lat="35.208776" lon="-84.853583"><ele>236.5</ele><time>2026-07-26T20:04:19Z</time></trkpt>
<trkpt lat="35.208822" lon="-84.853574"><ele>237.1</ele><time>2026-07-26T20:04:21Z</time></trkpt>
<trkpt lat="35.208858" lon="-84.853567"><ele>237.4</ele><time>2026-07-26T20:04:23Z</time></trkpt>
<trkpt lat="35.208885" lon="-84.853558"><ele>238.4</ele><time>2026-07-26T20:04:25Z</time></trkpt>
<trkpt lat="35.208914" lon="-84.853547"><ele>239.3</ele><time>2026-07-26T20:04:27Z</time></trkpt>
<trkpt lat="35.208942" lon="-84.853536"><ele>239.9</ele><time>2026-07-26T20:04:29Z</time></trkpt>
<trkpt lat="35.20898" lon="-84.853513"><ele>238.4</ele><time>2026-07-26T20:04:32Z</time></trkpt>
<trkpt lat="35.209008" lon="-84.853495"><ele>237.1</ele><time>2026-07-26T20:04:34Z</time></trkpt>
<trkpt lat="35.209038" lon="-84.853482"><ele>235.9</ele><time>2026-07-26T20:04:36Z</time></trkpt>
<trkpt lat="35.209067" lon="-84.853467"><ele>235.0</ele><time>2026-07-26T20:04:38Z</time></trkpt>
<trkpt lat="35.209094" lon="-84.85345"><ele>235.3</ele><time>2026-07-26T20:04:40Z</time></trkpt>
<trkpt lat="35.209123" lon="-84.853429"><ele>235.3</ele><time>2026-07-26T20:04:42Z</time></trkpt>
<trkpt lat="35.20915" lon="-84.853407"><ele>233.8</ele><time>2026-07-26T20:04:44Z</time></trkpt>
<trkpt lat="35.209182" lon="-84.853371"><ele>234.7</ele><time>2026-07-26T20:04:47Z</time></trkpt>
<trkpt lat="35.209201" lon="-84.853342"><ele>234.7</ele><time>2026-07-26T20:04:49Z</time></trkpt>
<trkpt lat="35.20922" lon="-84.853314"><ele>234.7</ele><time>2026-07-26T20:04:51Z</time></trkpt>
<trkpt lat="35.20924" lon="-84.853287"><ele>235.3</ele><time>2026-07-26T20:04:53Z</time></trkpt>
<trkpt lat="35.209262" lon="-84.853258"><ele>236.5</ele><time>2026-07-26T20:04:55Z</time></trkpt>
<trkpt lat="35.209289" lon="-84.85323"><ele>238.0</ele><time>2026-07-26T20:04:57Z</time></trkpt>
<trkpt lat="35.209306" lon="-84.853205"><ele>237.4</ele><time>2026-07-26T20:04:59Z</time></trkpt>
<trkpt lat="35.209324" lon="-84.853176"><ele>238.4</ele><time>2026-07-26T20:05:01Z</time></trkpt>
<trkpt lat="35.209349" lon="-84.853141"><ele>236.8</ele><time>2026-07-26T20:05:04Z</time></trkpt>
<trkpt lat="35.209375" lon="-84.853107"><ele>236.2</ele><time>2026-07-26T20:05:07Z</time></trkpt>
<trkpt lat="35.209402" lon="-84.853075"><ele>235.0</ele><time>2026-07-26T20:05:10Z</time></trkpt>
<trkpt lat="35.209431" lon="-84.853042"><ele>235.3</ele><time>2026-07-26T20:05:13Z</time></trkpt>
<trkpt lat="35.209457" lon="-84.853018"><ele>234.1</ele><time>2026-07-26T20:05:16Z</time></trkpt>
<trkpt lat="35.209495" lon="-84.853005"><ele>236.2</ele><time>2026-07-26T20:05:19Z</time></trkpt>
<trkpt lat="35.209521" lon="-84.852985"><ele>235.6</ele><time>2026-07-26T20:05:21Z</time></trkpt>
<trkpt lat="35.20955" lon="-84.852967"><ele>235.6</ele><time>2026-07-26T20:05:23Z</time></trkpt>
<trkpt lat="35.209587" lon="-84.852946"><ele>234.7</ele><time>2026-07-26T20:05:26Z</time></trkpt>
<trkpt lat="35.209611" lon="-84.852927"><ele>235.6</ele><time>2026-07-26T20:05:28Z</time></trkpt>
<trkpt lat="35.209634" lon="-84.852908"><ele>236.2</ele><time>2026-07-26T20:05:30Z</time></trkpt>
<trkpt lat="35.209666" lon="-84.852884"><ele>236.2</ele><time>2026-07-26T20:05:33Z</time></trkpt>
<trkpt lat="35.209693" lon="-84.852865"><ele>237.1</ele><time>2026-07-26T20:05:35Z</time></trkpt>
<trkpt lat="35.209717" lon="-84.852844"><ele>236.8</ele><time>2026-07-26T20:05:37Z</time></trkpt>
<trkpt lat="35.209742" lon="-84.852822"><ele>235.9</ele><time>2026-07-26T20:05:39Z</time></trkpt>
<trkpt lat="35.209761" lon="-84.852797"><ele>236.8</ele><time>2026-07-26T20:05:41Z</time></trkpt>
<trkpt lat="35.209784" lon="-84.852778"><ele>236.2</ele><time>2026-07-26T20:05:43Z</time></trkpt>
<trkpt lat="35.209806" lon="-84.852755"><ele>236.5</ele><time>2026-07-26T20:05:45Z</time></trkpt>
<trkpt lat="35.209829" lon="-84.852731"><ele>235.9</ele><time>2026-07-26T20:05:47Z</time></trkpt>
<trkpt lat="35.209849" lon="-84.852707"><ele>235.6</ele><time>2026-07-26T20:05:49Z</time></trkpt>
<trkpt lat="35.209872" lon="-84.852685"><ele>236.5</ele><time>2026-07-26T20:05:51Z</time></trkpt>
<trkpt lat="35.209895" lon="-84.852665"><ele>236.2</ele><time>2026-07-26T20:05:53Z</time></trkpt>
<trkpt lat="35.209915" lon="-84.852638"><ele>236.2</ele><time>2026-07-26T20:05:55Z</time></trkpt>
<trkpt lat="35.209942" lon="-84.852615"><ele>235.0</ele><time>2026-07-26T20:05:57Z</time></trkpt>
<trkpt lat="35.209967" lon="-84.852591"><ele>236.2</ele><time>2026-07-26T20:05:59Z</time></trkpt>
<trkpt lat="35.21" lon="-84.852563"><ele>236.5</ele><time>2026-07-26T20:06:02Z</time></trkpt>
<trkpt lat="35.210032" lon="-84.852541"><ele>237.7</ele><time>2026-07-26T20:06:05Z</time></trkpt>
<trkpt lat="35.210058" lon="-84.852524"><ele>237.4</ele><time>2026-07-26T20:06:07Z</time></trkpt>
<trkpt lat="35.210087" lon="-84.85251"><ele>239.0</ele><time>2026-07-26T20:06:09Z</time></trkpt>
<trkpt lat="35.210116" lon="-84.852498"><ele>238.7</ele><time>2026-07-26T20:06:11Z</time></trkpt>
<trkpt lat="35.21014" lon="-84.852481"><ele>238.4</ele><time>2026-07-26T20:06:13Z</time></trkpt>
<trkpt lat="35.210174" lon="-84.852455"><ele>238.0</ele><time>2026-07-26T20:06:16Z</time></trkpt>
<trkpt lat="35.2102" lon="-84.852438"><ele>238.0</ele><time>2026-07-26T20:06:18Z</time></trkpt>
<trkpt lat="35.210221" lon="-84.852416"><ele>238.0</ele><time>2026-07-26T20:06:20Z</time></trkpt>
<trkpt lat="35.210252" lon="-84.852388"><ele>237.4</ele><time>2026-07-26T20:06:23Z</time></trkpt>
<trkpt lat="35.210285" lon="-84.852361"><ele>237.1</ele><time>2026-07-26T20:06:26Z</time></trkpt>
<trkpt lat="35.210318" lon="-84.852332"><ele>238.7</ele><time>2026-07-26T20:06:29Z</time></trkpt>
<trkpt lat="35.210348" lon="-84.852308"><ele>237.7</ele><time>2026-07-26T20:06:32Z</time></trkpt>
<trkpt lat="35.210383" lon="-84.85229"><ele>239.0</ele><time>2026-07-26T20:06:35Z</time></trkpt>
<trkpt lat="35.210417" lon="-84.852263"><ele>239.9</ele><time>2026-07-26T20:06:38Z</time></trkpt>
<trkpt lat="35.210451" lon="-84.852238"><ele>238.7</ele><time>2026-07-26T20:06:41Z</time></trkpt>
<trkpt lat="35.210475" lon="-84.85222"><ele>238.0</ele><time>2026-07-26T20:06:43Z</time></trkpt>
<trkpt lat="35.210507" lon="-84.852195"><ele>238.0</ele><time>2026-07-26T20:06:46Z</time></trkpt>
<trkpt lat="35.210547" lon="-84.852187"><ele>240.8</ele><time>2026-07-26T20:06:49Z</time></trkpt>
<trkpt lat="35.210584" lon="-84.852171"><ele>240.2</ele><time>2026-07-26T20:06:52Z</time></trkpt>
<trkpt lat="35.21062" lon="-84.852153"><ele>239.6</ele><time>2026-07-26T20:06:55Z</time></trkpt>
<trkpt lat="35.210658" lon="-84.852134"><ele>239.9</ele><time>2026-07-26T20:06:58Z</time></trkpt>
<trkpt lat="35.210685" lon="-84.85212"><ele>239.3</ele><time>2026-07-26T20:07:00Z</time></trkpt>
<trkpt lat="35.210722" lon="-84.852099"><ele>236.5</ele><time>2026-07-26T20:07:03Z</time></trkpt>
<trkpt lat="35.210756" lon="-84.852076"><ele>237.1</ele><time>2026-07-26T20:07:06Z</time></trkpt>
<trkpt lat="35.210793" lon="-84.852054"><ele>235.3</ele><time>2026-07-26T20:07:09Z</time></trkpt>
<trkpt lat="35.210841" lon="-84.852027"><ele>235.3</ele><time>2026-07-26T20:07:13Z</time></trkpt>
<trkpt lat="35.210867" lon="-84.852013"><ele>235.3</ele><time>2026-07-26T20:07:15Z</time></trkpt>
<trkpt lat="35.210893" lon="-84.852"><ele>235.3</ele><time>2026-07-26T20:07:17Z</time></trkpt>
<trkpt lat="35.21092" lon="-84.851989"><ele>236.8</ele><time>2026-07-26T20:07:19Z</time></trkpt>
<trkpt lat="35.210956" lon="-84.851966"><ele>237.1</ele><time>2026-07-26T20:07:22Z</time></trkpt>
<trkpt lat="35.210975" lon="-84.851973"><ele>235.9</ele><time>2026-07-26T20:07:24Z</time></trkpt>
<trkpt lat="35.21097" lon="-84.851972"><ele>235.9</ele><time>2026-07-26T20:07:25Z</time></trkpt>
<trkpt lat="35.210995" lon="-84.85197"><ele>235.3</ele><time>2026-07-26T20:07:26Z</time></trkpt>
<trkpt lat="35.211027" lon="-84.851948"><ele>233.8</ele><time>2026-07-26T20:07:28Z</time></trkpt>
<trkpt lat="35.211052" lon="-84.851932"><ele>234.7</ele><time>2026-07-26T20:07:29Z</time></trkpt>
<trkpt lat="35.211092" lon="-84.851928"><ele>237.4</ele><time>2026-07-26T20:07:32Z</time></trkpt>
<trkpt lat="35.211123" lon="-84.851917"><ele>237.4</ele><time>2026-07-26T20:07:34Z</time></trkpt>
<trkpt lat="35.211151" lon="-84.851884"><ele>238.0</ele><time>2026-07-26T20:07:36Z</time></trkpt>
<trkpt lat="35.211185" lon="-84.851877"><ele>237.4</ele><time>2026-07-26T20:07:39Z</time></trkpt>
<trkpt lat="35.211213" lon="-84.851882"><ele>238.0</ele><time>2026-07-26T20:07:41Z</time></trkpt>
<trkpt lat="35.21125" lon="-84.851876"><ele>238.7</ele><time>2026-07-26T20:07:44Z</time></trkpt>
<trkpt lat="35.211286" lon="-84.851872"><ele>240.2</ele><time>2026-07-26T20:07:47Z</time></trkpt>
<trkpt lat="35.211325" lon="-84.851878"><ele>240.2</ele><time>2026-07-26T20:07:50Z</time></trkpt>
<trkpt lat="35.211358" lon="-84.851868"><ele>239.3</ele><time>2026-07-26T20:07:52Z</time></trkpt>
<trkpt lat="35.211385" lon="-84.851868"><ele>240.2</ele><time>2026-07-26T20:07:54Z</time></trkpt>
<trkpt lat="35.211426" lon="-84.851871"><ele>240.2</ele><time>2026-07-26T20:07:57Z</time></trkpt>
<trkpt lat="35.211457" lon="-84.851868"><ele>238.4</ele><time>2026-07-26T20:07:59Z</time></trkpt>
<trkpt lat="35.211498" lon="-84.851859"><ele>237.4</ele><time>2026-07-26T20:08:02Z</time></trkpt>
<trkpt lat="35.211537" lon="-84.851855"><ele>238.0</ele><time>2026-07-26T20:08:05Z</time></trkpt>
<trkpt lat="35.211575" lon="-84.851863"><ele>237.7</ele><time>2026-07-26T20:08:08Z</time></trkpt>
<trkpt lat="35.211614" lon="-84.851875"><ele>236.8</ele><time>2026-07-26T20:08:11Z</time></trkpt>
<trkpt lat="35.21165" lon="-84.851895"><ele>237.1</ele><time>2026-07-26T20:08:14Z</time></trkpt>
<trkpt lat="35.211677" lon="-84.851908"><ele>237.4</ele><time>2026-07-26T20:08:16Z</time></trkpt>
<trkpt lat="35.211711" lon="-84.851915"><ele>235.9</ele><time>2026-07-26T20:08:19Z</time></trkpt>
<trkpt lat="35.211739" lon="-84.851921"><ele>236.2</ele><time>2026-07-26T20:08:21Z</time></trkpt>
<trkpt lat="35.211772" lon="-84.851908"><ele>235.0</ele><time>2026-07-26T20:08:23Z</time></trkpt>
<trkpt lat="35.211779" lon="-84.851858"><ele>234.4</ele><time>2026-07-26T20:08:25Z</time></trkpt>
<trkpt lat="35.211787" lon="-84.851822"><ele>234.4</ele><time>2026-07-26T20:08:27Z</time></trkpt>
<trkpt lat="35.211799" lon="-84.851791"><ele>234.1</ele><time>2026-07-26T20:08:29Z</time></trkpt>
<trkpt lat="35.211819" lon="-84.851752"><ele>233.2</ele><time>2026-07-26T20:08:32Z</time></trkpt>
<trkpt lat="35.211842" lon="-84.851731"><ele>233.2</ele><time>2026-07-26T20:08:34Z</time></trkpt>
<trkpt lat="35.211871" lon="-84.851713"><ele>234.1</ele><time>2026-07-26T20:08:36Z</time></trkpt>
<trkpt lat="35.21191" lon="-84.851706"><ele>234.1</ele><time>2026-07-26T20:08:39Z</time></trkpt>
<trkpt lat="35.211938" lon="-84.851715"><ele>232.9</ele><time>2026-07-26T20:08:41Z</time></trkpt>
<trkpt lat="35.21197" lon="-84.851718"><ele>232.3</ele><time>2026-07-26T20:08:43Z</time></trkpt>
<trkpt lat="35.212003" lon="-84.851722"><ele>233.5</ele><time>2026-07-26T20:08:45Z</time></trkpt>
<trkpt lat="35.212032" lon="-84.851736"><ele>234.7</ele><time>2026-07-26T20:08:47Z</time></trkpt>
<trkpt lat="35.212061" lon="-84.851753"><ele>235.6</ele><time>2026-07-26T20:08:49Z</time></trkpt>
<trkpt lat="35.212085" lon="-84.851772"><ele>236.2</ele><time>2026-07-26T20:08:51Z</time></trkpt>
<trkpt lat="35.212111" lon="-84.851787"><ele>236.2</ele><time>2026-07-26T20:08:53Z</time></trkpt>
<trkpt lat="35.212137" lon="-84.851802"><ele>236.5</ele><time>2026-07-26T20:08:55Z</time></trkpt>
<trkpt lat="35.212161" lon="-84.85182"><ele>237.1</ele><time>2026-07-26T20:08:57Z</time></trkpt>
<trkpt lat="35.212183" lon="-84.851842"><ele>237.4</ele><time>2026-07-26T20:08:59Z</time></trkpt>
<trkpt lat="35.212206" lon="-84.851861"><ele>237.4</ele><time>2026-07-26T20:09:01Z</time></trkpt>
<trkpt lat="35.21223" lon="-84.851877"><ele>236.8</ele><time>2026-07-26T20:09:03Z</time></trkpt>
<trkpt lat="35.212265" lon="-84.851901"><ele>235.9</ele><time>2026-07-26T20:09:06Z</time></trkpt>
<trkpt lat="35.212293" lon="-84.851911"><ele>234.7</ele><time>2026-07-26T20:09:08Z</time></trkpt>
<trkpt lat="35.212322" lon="-84.851917"><ele>234.1</ele><time>2026-07-26T20:09:10Z</time></trkpt>
<trkpt lat="35.212348" lon="-84.851932"><ele>233.8</ele><time>2026-07-26T20:09:12Z</time></trkpt>
<trkpt lat="35.212374" lon="-84.85194"><ele>234.1</ele><time>2026-07-26T20:09:14Z</time></trkpt>
<trkpt lat="35.212401" lon="-84.85195"><ele>234.1</ele><time>2026-07-26T20:09:16Z</time></trkpt>
<trkpt lat="35.212441" lon="-84.851964"><ele>234.7</ele><time>2026-07-26T20:09:19Z</time></trkpt>
<trkpt lat="35.212469" lon="-84.851967"><ele>235.6</ele><time>2026-07-26T20:09:21Z</time></trkpt>
<trkpt lat="35.212497" lon="-84.851981"><ele>237.7</ele><time>2026-07-26T20:09:23Z</time></trkpt>
<trkpt lat="35.212523" lon="-84.851993"><ele>238.4</ele><time>2026-07-26T20:09:25Z</time></trkpt>
<trkpt lat="35.212562" lon="-84.852004"><ele>239.6</ele><time>2026-07-26T20:09:28Z</time></trkpt>
<trkpt lat="35.212601" lon="-84.851991"><ele>239.6</ele><time>2026-07-26T20:09:31Z</time></trkpt>
<trkpt lat="35.212623" lon="-84.851964"><ele>239.3</ele><time>2026-07-26T20:09:33Z</time></trkpt>
<trkpt lat="35.212645" lon="-84.851942"><ele>240.5</ele><time>2026-07-26T20:09:35Z</time></trkpt>
<trkpt lat="35.212674" lon="-84.851925"><ele>239.9</ele><time>2026-07-26T20:09:37Z</time></trkpt>
<trkpt lat="35.212703" lon="-84.851917"><ele>239.9</ele><time>2026-07-26T20:09:39Z</time></trkpt>
<trkpt lat="35.212732" lon="-84.851909"><ele>239.9</ele><time>2026-07-26T20:09:41Z</time></trkpt>
<trkpt lat="35.212762" lon="-84.851909"><ele>239.0</ele><time>2026-07-26T20:09:43Z</time></trkpt>
<trkpt lat="35.21279" lon="-84.851906"><ele>238.4</ele><time>2026-07-26T20:09:45Z</time></trkpt>
<trkpt lat="35.21283" lon="-84.851903"><ele>238.7</ele><time>2026-07-26T20:09:48Z</time></trkpt>
<trkpt lat="35.212858" lon="-84.851898"><ele>238.7</ele><time>2026-07-26T20:09:50Z</time></trkpt>
<trkpt lat="35.212887" lon="-84.851901"><ele>240.2</ele><time>2026-07-26T20:09:52Z</time></trkpt>
<trkpt lat="35.212926" lon="-84.851894"><ele>239.0</ele><time>2026-07-26T20:09:55Z</time></trkpt>
<trkpt lat="35.212965" lon="-84.851892"><ele>239.0</ele><time>2026-07-26T20:09:58Z</time></trkpt>
<trkpt lat="35.213006" lon="-84.8519"><ele>239.0</ele><time>2026-07-26T20:10:01Z</time></trkpt>
<trkpt lat="35.213035" lon="-84.851901"><ele>240.2</ele><time>2026-07-26T20:10:03Z</time></trkpt>
<trkpt lat="35.213075" lon="-84.851906"><ele>242.3</ele><time>2026-07-26T20:10:06Z</time></trkpt>
<trkpt lat="35.213115" lon="-84.851915"><ele>242.3</ele><time>2026-07-26T20:10:09Z</time></trkpt>
<trkpt lat="35.213156" lon="-84.851923"><ele>242.3</ele><time>2026-07-26T20:10:12Z</time></trkpt>
<trkpt lat="35.213197" lon="-84.851932"><ele>241.4</ele><time>2026-07-26T20:10:15Z</time></trkpt>
<trkpt lat="35.213227" lon="-84.851934"><ele>241.7</ele><time>2026-07-26T20:10:17Z</time></trkpt>
<trkpt lat="35.213255" lon="-84.851932"><ele>241.1</ele><time>2026-07-26T20:10:19Z</time></trkpt>
<trkpt lat="35.213285" lon="-84.851927"><ele>238.7</ele><time>2026-07-26T20:10:21Z</time></trkpt>
<trkpt lat="35.213313" lon="-84.851922"><ele>239.6</ele><time>2026-07-26T20:10:23Z</time></trkpt>
<trkpt lat="35.213339" lon="-84.851912"><ele>239.0</ele><time>2026-07-26T20:10:25Z</time></trkpt>
<trkpt lat="35.213369" lon="-84.851906"><ele>238.7</ele><time>2026-07-26T20:10:27Z</time></trkpt>
<trkpt lat="35.213398" lon="-84.851908"><ele>239.0</ele><time>2026-07-26T20:10:29Z</time></trkpt>
<trkpt lat="35.213438" lon="-84.851901"><ele>238.7</ele><time>2026-07-26T20:10:32Z</time></trkpt>
<trkpt lat="35.213476" lon="-84.851892"><ele>238.7</ele><time>2026-07-26T20:10:35Z</time></trkpt>
<trkpt lat="35.213504" lon="-84.851887"><ele>239.3</ele><time>2026-07-26T20:10:37Z</time></trkpt>
<trkpt lat="35.213533" lon="-84.851879"><ele>239.3</ele><time>2026-07-26T20:10:39Z</time></trkpt>
<trkpt lat="35.213559" lon="-84.851868"><ele>239.3</ele><time>2026-07-26T20:10:41Z</time></trkpt>
<trkpt lat="35.213589" lon="-84.851862"><ele>239.9</ele><time>2026-07-26T20:10:43Z</time></trkpt>
<trkpt lat="35.21362" lon="-84.851862"><ele>238.7</ele><time>2026-07-26T20:10:45Z</time></trkpt>
<trkpt lat="35.213648" lon="-84.851862"><ele>238.4</ele><time>2026-07-26T20:10:47Z</time></trkpt>
<trkpt lat="35.213686" lon="-84.851853"><ele>238.7</ele><time>2026-07-26T20:10:50Z</time></trkpt>
<trkpt lat="35.213707" lon="-84.851823"><ele>237.4</ele><time>2026-07-26T20:10:52Z</time></trkpt>
<trkpt lat="35.213723" lon="-84.851792"><ele>235.6</ele><time>2026-07-26T20:10:54Z</time></trkpt>
<trkpt lat="35.213738" lon="-84.851753"><ele>234.7</ele><time>2026-07-26T20:10:56Z</time></trkpt>
<trkpt lat="35.213746" lon="-84.85171"><ele>235.0</ele><time>2026-07-26T20:10:58Z</time></trkpt>
<trkpt lat="35.213757" lon="-84.851673"><ele>235.6</ele><time>2026-07-26T20:11:00Z</time></trkpt>
<trkpt lat="35.213764" lon="-84.851638"><ele>236.5</ele><time>2026-07-26T20:11:02Z</time></trkpt>
<trkpt lat="35.213782" lon="-84.851606"><ele>234.7</ele><time>2026-07-26T20:11:04Z</time></trkpt>
<trkpt lat="35.21379" lon="-84.851572"><ele>234.1</ele><time>2026-07-26T20:11:06Z</time></trkpt>
<trkpt lat="35.213799" lon="-84.851521"><ele>233.5</ele><time>2026-07-26T20:11:09Z</time></trkpt>
<trkpt lat="35.213804" lon="-84.851487"><ele>232.9</ele><time>2026-07-26T20:11:11Z</time></trkpt>
<trkpt lat="35.213821" lon="-84.851441"><ele>234.4</ele><time>2026-07-26T20:11:14Z</time></trkpt>
<trkpt lat="35.213831" lon="-84.851405"><ele>235.0</ele><time>2026-07-26T20:11:16Z</time></trkpt>
<trkpt lat="35.213845" lon="-84.851375"><ele>235.0</ele><time>2026-07-26T20:11:18Z</time></trkpt>
<trkpt lat="35.213866" lon="-84.851353"><ele>233.8</ele><time>2026-07-26T20:11:20Z</time></trkpt>
<trkpt lat="35.213884" lon="-84.851327"><ele>235.6</ele><time>2026-07-26T20:11:22Z</time></trkpt>
<trkpt lat="35.213903" lon="-84.851301"><ele>235.6</ele><time>2026-07-26T20:11:24Z</time></trkpt>
<trkpt lat="35.213923" lon="-84.851276"><ele>236.2</ele><time>2026-07-26T20:11:26Z</time></trkpt>
<trkpt lat="35.213942" lon="-84.851233"><ele>236.8</ele><time>2026-07-26T20:11:29Z</time></trkpt>
<trkpt lat="35.213968" lon="-84.851198"><ele>235.9</ele><time>2026-07-26T20:11:32Z</time></trkpt>
<trkpt lat="35.213988" lon="-84.851176"><ele>236.2</ele><time>2026-07-26T20:11:34Z</time></trkpt>
<trkpt lat="35.214008" lon="-84.85115"><ele>236.5</ele><time>2026-07-26T20:11:36Z</time></trkpt>
<trkpt lat="35.21403" lon="-84.851107"><ele>235.3</ele><time>2026-07-26T20:11:39Z</time></trkpt>
<trkpt lat="35.214043" lon="-84.851072"><ele>235.6</ele><time>2026-07-26T20:11:41Z</time></trkpt>
<trkpt lat="35.214054" lon="-84.851037"><ele>236.2</ele><time>2026-07-26T20:11:43Z</time></trkpt>
<trkpt lat="35.214068" lon="-84.851008"><ele>236.5</ele><time>2026-07-26T20:11:45Z</time></trkpt>
<trkpt lat="35.214085" lon="-84.85098"><ele>236.2</ele><time>2026-07-26T20:11:47Z</time></trkpt>
<trkpt lat="35.214096" lon="-84.850949"><ele>236.5</ele><time>2026-07-26T20:11:49Z</time></trkpt>
<trkpt lat="35.214112" lon="-84.850906"><ele>236.8</ele><time>2026-07-26T20:11:52Z</time></trkpt>
<trkpt lat="35.214125" lon="-84.850861"><ele>236.5</ele><time>2026-07-26T20:11:55Z</time></trkpt>
<trkpt lat="35.214137" lon="-84.850816"><ele>236.5</ele><time>2026-07-26T20:11:58Z</time></trkpt>
<trkpt lat="35.214146" lon="-84.850783"><ele>236.2</ele><time>2026-07-26T20:12:00Z</time></trkpt>
<trkpt lat="35.214158" lon="-84.850752"><ele>236.2</ele><time>2026-07-26T20:12:02Z</time></trkpt>
<trkpt lat="35.214167" lon="-84.850705"><ele>236.5</ele><time>2026-07-26T20:12:05Z</time></trkpt>
<trkpt lat="35.214171" lon="-84.850671"><ele>236.2</ele><time>2026-07-26T20:12:07Z</time></trkpt>
<trkpt lat="35.214176" lon="-84.850636"><ele>236.5</ele><time>2026-07-26T20:12:09Z</time></trkpt>
<trkpt lat="35.214179" lon="-84.850602"><ele>236.8</ele><time>2026-07-26T20:12:11Z</time></trkpt>
<trkpt lat="35.214184" lon="-84.850569"><ele>237.1</ele><time>2026-07-26T20:12:13Z</time></trkpt>
<trkpt lat="35.214195" lon="-84.850535"><ele>237.1</ele><time>2026-07-26T20:12:15Z</time></trkpt>
<trkpt lat="35.214212" lon="-84.850506"><ele>237.4</ele><time>2026-07-26T20:12:17Z</time></trkpt>
<trkpt lat="35.214239" lon="-84.850467"><ele>237.4</ele><time>2026-07-26T20:12:20Z</time></trkpt>
<trkpt lat="35.214264" lon="-84.850433"><ele>235.9</ele><time>2026-07-26T20:12:23Z</time></trkpt>
<trkpt lat="35.214283" lon="-84.85039"><ele>236.2</ele><time>2026-07-26T20:12:26Z</time></trkpt>
<trkpt lat="35.214316" lon="-84.850377"><ele>235.9</ele><time>2026-07-26T20:12:28Z</time></trkpt>
<trkpt lat="35.214328" lon="-84.850327"><ele>236.2</ele><time>2026-07-26T20:12:31Z</time></trkpt>
<trkpt lat="35.214334" lon="-84.850293"><ele>236.8</ele><time>2026-07-26T20:12:33Z</time></trkpt>
<trkpt lat="35.214336" lon="-84.850256"><ele>239.0</ele><time>2026-07-26T20:12:35Z</time></trkpt>
<trkpt lat="35.214337" lon="-84.85022"><ele>242.0</ele><time>2026-07-26T20:12:37Z</time></trkpt>
<trkpt lat="35.214351" lon="-84.850184"><ele>242.9</ele><time>2026-07-26T20:12:39Z</time></trkpt>
<trkpt lat="35.214367" lon="-84.850149"><ele>242.3</ele><time>2026-07-26T20:12:41Z</time></trkpt>
<trkpt lat="35.214382" lon="-84.850117"><ele>242.6</ele><time>2026-07-26T20:12:43Z</time></trkpt>
<trkpt lat="35.214394" lon="-84.850085"><ele>241.4</ele><time>2026-07-26T20:12:45Z</time></trkpt>
<trkpt lat="35.214407" lon="-84.850054"><ele>241.1</ele><time>2026-07-26T20:12:47Z</time></trkpt>
<trkpt lat="35.214423" lon="-84.850027"><ele>241.4</ele><time>2026-07-26T20:12:49Z</time></trkpt>
<trkpt lat="35.214443" lon="-84.850004"><ele>242.6</ele><time>2026-07-26T20:12:51Z</time></trkpt>
<trkpt lat="35.21446" lon="-84.849964"><ele>241.1</ele><time>2026-07-26T20:12:54Z</time></trkpt>
<trkpt lat="35.214478" lon="-84.849921"><ele>241.7</ele><time>2026-07-26T20:12:57Z</time></trkpt>
<trkpt lat="35.214496" lon="-84.849891"><ele>242.3</ele><time>2026-07-26T20:12:59Z</time></trkpt>
<trkpt lat="35.214513" lon="-84.849848"><ele>242.3</ele><time>2026-07-26T20:13:02Z</time></trkpt>
<trkpt lat="35.214531" lon="-84.849812"><ele>241.1</ele><time>2026-07-26T20:13:05Z</time></trkpt>
<trkpt lat="35.214539" lon="-84.849766"><ele>241.1</ele><time>2026-07-26T20:13:08Z</time></trkpt>
<trkpt lat="35.214565" lon="-84.849731"><ele>241.1</ele><time>2026-07-26T20:13:11Z</time></trkpt>
<trkpt lat="35.214592" lon="-84.849748"><ele>242.6</ele><time>2026-07-26T20:13:13Z</time></trkpt>
<trkpt lat="35.214597" lon="-84.84979"><ele>242.9</ele><time>2026-07-26T20:13:15Z</time></trkpt>
<trkpt lat="35.214578" lon="-84.849821"><ele>242.3</ele><time>2026-07-26T20:13:17Z</time></trkpt>
<trkpt lat="35.214559" lon="-84.849855"><ele>241.7</ele><time>2026-07-26T20:13:19Z</time></trkpt>
<trkpt lat="35.214539" lon="-84.849886"><ele>242.0</ele><time>2026-07-26T20:13:21Z</time></trkpt>
<trkpt lat="35.214513" lon="-84.849912"><ele>241.7</ele><time>2026-07-26T20:13:23Z</time></trkpt>
<trkpt lat="35.214492" lon="-84.849944"><ele>241.4</ele><time>2026-07-26T20:13:25Z</time></trkpt>
<trkpt lat="35.214475" lon="-84.849981"><ele>241.4</ele><time>2026-07-26T20:13:27Z</time></trkpt>
<trkpt lat="35.214458" lon="-84.850013"><ele>241.4</ele><time>2026-07-26T20:13:29Z</time></trkpt>
<trkpt lat="35.21444" lon="-84.850045"><ele>242.3</ele><time>2026-07-26T20:13:31Z</time></trkpt>
<trkpt lat="35.21443" lon="-84.850081"><ele>241.1</ele><time>2026-07-26T20:13:33Z</time></trkpt>
<trkpt lat="35.214417" lon="-84.850112"><ele>240.5</ele><time>2026-07-26T20:13:35Z</time></trkpt>
<trkpt lat="35.21439" lon="-84.850153"><ele>238.0</ele><time>2026-07-26T20:13:38Z</time></trkpt>
<trkpt lat="35.214373" lon="-84.850184"><ele>239.3</ele><time>2026-07-26T20:13:40Z</time></trkpt>
<trkpt lat="35.214356" lon="-84.850216"><ele>238.0</ele><time>2026-07-26T20:13:42Z</time></trkpt>
<trkpt lat="35.214346" lon="-84.850248"><ele>239.0</ele><time>2026-07-26T20:13:44Z</time></trkpt>
<trkpt lat="35.214337" lon="-84.850279"><ele>239.9</ele><time>2026-07-26T20:13:46Z</time></trkpt>
<trkpt lat="35.214321" lon="-84.850308"><ele>241.1</ele><time>2026-07-26T20:13:48Z</time></trkpt>
<trkpt lat="35.214308" lon="-84.850341"><ele>241.1</ele><time>2026-07-26T20:13:50Z</time></trkpt>
<trkpt lat="35.214288" lon="-84.850381"><ele>241.7</ele><time>2026-07-26T20:13:53Z</time></trkpt>
<trkpt lat="35.214275" lon="-84.850412"><ele>240.8</ele><time>2026-07-26T20:13:55Z</time></trkpt>
<trkpt lat="35.214256" lon="-84.850442"><ele>242.0</ele><time>2026-07-26T20:13:57Z</time></trkpt>
<trkpt lat="35.214238" lon="-84.850472"><ele>242.0</ele><time>2026-07-26T20:13:59Z</time></trkpt>
<trkpt lat="35.214213" lon="-84.850512"><ele>242.0</ele><time>2026-07-26T20:14:02Z</time></trkpt>
<trkpt lat="35.214198" lon="-84.850542"><ele>241.1</ele><time>2026-07-26T20:14:04Z</time></trkpt>
<trkpt lat="35.214191" lon="-84.850575"><ele>240.2</ele><time>2026-07-26T20:14:06Z</time></trkpt>
<trkpt lat="35.214182" lon="-84.850611"><ele>238.7</ele><time>2026-07-26T20:14:08Z</time></trkpt>
<trkpt lat="35.214172" lon="-84.850647"><ele>239.3</ele><time>2026-07-26T20:14:10Z</time></trkpt>
<trkpt lat="35.21416" lon="-84.850697"><ele>239.0</ele><time>2026-07-26T20:14:13Z</time></trkpt>
<trkpt lat="35.214151" lon="-84.850731"><ele>238.0</ele><time>2026-07-26T20:14:15Z</time></trkpt>
<trkpt lat="35.214148" lon="-84.850765"><ele>237.7</ele><time>2026-07-26T20:14:17Z</time></trkpt>
<trkpt lat="35.214143" lon="-84.850799"><ele>238.4</ele><time>2026-07-26T20:14:19Z</time></trkpt>
<trkpt lat="35.214142" lon="-84.850834"><ele>239.0</ele><time>2026-07-26T20:14:21Z</time></trkpt>
<trkpt lat="35.214138" lon="-84.850873"><ele>238.0</ele><time>2026-07-26T20:14:23Z</time></trkpt>
<trkpt lat="35.214144" lon="-84.850908"><ele>238.4</ele><time>2026-07-26T20:14:25Z</time></trkpt>
<trkpt lat="35.214152" lon="-84.85094"><ele>239.6</ele><time>2026-07-26T20:14:27Z</time></trkpt>
<trkpt lat="35.214173" lon="-84.850967"><ele>240.2</ele><time>2026-07-26T20:14:29Z</time></trkpt>
<trkpt lat="35.214198" lon="-84.850993"><ele>239.9</ele><time>2026-07-26T20:14:31Z</time></trkpt>
<trkpt lat="35.214219" lon="-84.85102"><ele>240.8</ele><time>2026-07-26T20:14:33Z</time></trkpt>
<trkpt lat="35.214242" lon="-84.851042"><ele>239.3</ele><time>2026-07-26T20:14:35Z</time></trkpt>
<trkpt lat="35.214265" lon="-84.851063"><ele>239.9</ele><time>2026-07-26T20:14:37Z</time></trkpt>
<trkpt lat="35.214287" lon="-84.851085"><ele>239.9</ele><time>2026-07-26T20:14:39Z</time></trkpt>
<trkpt lat="35.214312" lon="-84.851109"><ele>239.3</ele><time>2026-07-26T20:14:41Z</time></trkpt>
<trkpt lat="35.214338" lon="-84.851129"><ele>239.9</ele><time>2026-07-26T20:14:43Z</time></trkpt>
<trkpt lat="35.214362" lon="-84.851146"><ele>239.9</ele><time>2026-07-26T20:14:45Z</time></trkpt>
<trkpt lat="35.21439" lon="-84.851153"><ele>240.2</ele><time>2026-07-26T20:14:48Z</time></trkpt>
<trkpt lat="35.214425" lon="-84.851163"><ele>239.6</ele><time>2026-07-26T20:14:51Z</time></trkpt>
<trkpt lat="35.214463" lon="-84.85118"><ele>238.0</ele><time>2026-07-26T20:14:54Z</time></trkpt>
<trkpt lat="35.214492" lon="-84.851201"><ele>238.0</ele><time>2026-07-26T20:14:56Z</time></trkpt>
<trkpt lat="35.214512" lon="-84.851227"><ele>238.4</ele><time>2026-07-26T20:14:58Z</time></trkpt>
<trkpt lat="35.214529" lon="-84.851255"><ele>237.1</ele><time>2026-07-26T20:15:00Z</time></trkpt>
<trkpt lat="35.214544" lon="-84.851283"><ele>235.6</ele><time>2026-07-26T20:15:02Z</time></trkpt>
<trkpt lat="35.214567" lon="-84.851324"><ele>235.3</ele><time>2026-07-26T20:15:05Z</time></trkpt>
<trkpt lat="35.214573" lon="-84.85136"><ele>235.0</ele><time>2026-07-26T20:15:07Z</time></trkpt>
<trkpt lat="35.214578" lon="-84.851397"><ele>233.8</ele><time>2026-07-26T20:15:09Z</time></trkpt>
<trkpt lat="35.214585" lon="-84.851432"><ele>233.2</ele><time>2026-07-26T20:15:11Z</time></trkpt>
<trkpt lat="35.2146" lon="-84.851473"><ele>231.3</ele><time>2026-07-26T20:15:14Z</time></trkpt>
<trkpt lat="35.214613" lon="-84.851523"><ele>230.7</ele><time>2026-07-26T20:15:17Z</time></trkpt>
<trkpt lat="35.214631" lon="-84.851557"><ele>231.3</ele><time>2026-07-26T20:15:19Z</time></trkpt>
<trkpt lat="35.214645" lon="-84.851588"><ele>231.6</ele><time>2026-07-26T20:15:21Z</time></trkpt>
<trkpt lat="35.214659" lon="-84.851636"><ele>232.0</ele><time>2026-07-26T20:15:24Z</time></trkpt>
<trkpt lat="35.214673" lon="-84.851669"><ele>232.3</ele><time>2026-07-26T20:15:26Z</time></trkpt>
<trkpt lat="35.214689" lon="-84.851701"><ele>232.3</ele><time>2026-07-26T20:15:28Z</time></trkpt>
<trkpt lat="35.214707" lon="-84.851741"><ele>232.3</ele><time>2026-07-26T20:15:31Z</time></trkpt>
<trkpt lat="35.214723" lon="-84.851781"><ele>232.0</ele><time>2026-07-26T20:15:34Z</time></trkpt>
<trkpt lat="35.214744" lon="-84.851829"><ele>232.3</ele><time>2026-07-26T20:15:37Z</time></trkpt>
<trkpt lat="35.214758" lon="-84.851864"><ele>232.3</ele><time>2026-07-26T20:15:39Z</time></trkpt>
<trkpt lat="35.214768" lon="-84.851907"><ele>232.3</ele><time>2026-07-26T20:15:42Z</time></trkpt>
<trkpt lat="35.214771" lon="-84.851949"><ele>232.3</ele><time>2026-07-26T20:15:45Z</time></trkpt>
<trkpt lat="35.21474" lon="-84.851956"><ele>229.8</ele><time>2026-07-26T20:15:47Z</time></trkpt>
<trkpt lat="35.214721" lon="-84.851926"><ele>229.5</ele><time>2026-07-26T20:15:48Z</time></trkpt>
<trkpt lat="35.214721" lon="-84.851883"><ele>229.5</ele><time>2026-07-26T20:15:50Z</time></trkpt>
<trkpt lat="35.214713" lon="-84.851834"><ele>230.1</ele><time>2026-07-26T20:15:53Z</time></trkpt>
<trkpt lat="35.214701" lon="-84.851791"><ele>231.0</ele><time>2026-07-26T20:15:56Z</time></trkpt>
<trkpt lat="35.214693" lon="-84.851747"><ele>230.4</ele><time>2026-07-26T20:15:59Z</time></trkpt>
<trkpt lat="35.214678" lon="-84.851705"><ele>230.1</ele><time>2026-07-26T20:16:02Z</time></trkpt>
<trkpt lat="35.214661" lon="-84.851664"><ele>229.5</ele><time>2026-07-26T20:16:05Z</time></trkpt>
<trkpt lat="35.214653" lon="-84.851619"><ele>230.4</ele><time>2026-07-26T20:16:08Z</time></trkpt>
<trkpt lat="35.214644" lon="-84.851584"><ele>231.3</ele><time>2026-07-26T20:16:10Z</time></trkpt>
<trkpt lat="35.214638" lon="-84.851549"><ele>231.3</ele><time>2026-07-26T20:16:12Z</time></trkpt>
<trkpt lat="35.214625" lon="-84.851508"><ele>232.3</ele><time>2026-07-26T20:16:15Z</time></trkpt>
<trkpt lat="35.214609" lon="-84.851469"><ele>232.6</ele><time>2026-07-26T20:16:18Z</time></trkpt>
<trkpt lat="35.214596" lon="-84.851423"><ele>232.0</ele><time>2026-07-26T20:16:21Z</time></trkpt>
<trkpt lat="35.214593" lon="-84.851388"><ele>232.0</ele><time>2026-07-26T20:16:23Z</time></trkpt>
<trkpt lat="35.214588" lon="-84.851345"><ele>232.6</ele><time>2026-07-26T20:16:26Z</time></trkpt>
<trkpt lat="35.214587" lon="-84.851311"><ele>233.2</ele><time>2026-07-26T20:16:28Z</time></trkpt>
<trkpt lat="35.214573" lon="-84.851281"><ele>232.3</ele><time>2026-07-26T20:16:30Z</time></trkpt>
<trkpt lat="35.214554" lon="-84.851238"><ele>233.2</ele><time>2026-07-26T20:16:33Z</time></trkpt>
<trkpt lat="35.214522" lon="-84.851208"><ele>232.3</ele><time>2026-07-26T20:16:36Z</time></trkpt>
<trkpt lat="35.214488" lon="-84.851188"><ele>230.4</ele><time>2026-07-26T20:16:39Z</time></trkpt>
<trkpt lat="35.214451" lon="-84.851171"><ele>230.4</ele><time>2026-07-26T20:16:42Z</time></trkpt>
<trkpt lat="35.214411" lon="-84.85116"><ele>230.4</ele><time>2026-07-26T20:16:45Z</time></trkpt>
<trkpt lat="35.214374" lon="-84.851145"><ele>229.2</ele><time>2026-07-26T20:16:48Z</time></trkpt>
<trkpt lat="35.214345" lon="-84.851138"><ele>229.2</ele><time>2026-07-26T20:16:50Z</time></trkpt>
<trkpt lat="35.21432" lon="-84.851124"><ele>227.7</ele><time>2026-07-26T20:16:52Z</time></trkpt>
<trkpt lat="35.214296" lon="-84.851095"><ele>228.6</ele><time>2026-07-26T20:16:54Z</time></trkpt>
<trkpt lat="35.214277" lon="-84.851067"><ele>229.8</ele><time>2026-07-26T20:16:56Z</time></trkpt>
<trkpt lat="35.214257" lon="-84.851039"><ele>231.3</ele><time>2026-07-26T20:16:58Z</time></trkpt>
<trkpt lat="35.214237" lon="-84.851011"><ele>231.3</ele><time>2026-07-26T20:17:00Z</time></trkpt>
<trkpt lat="35.214221" lon="-84.850981"><ele>232.9</ele><time>2026-07-26T20:17:02Z</time></trkpt>
<trkpt lat="35.214194" lon="-84.850945"><ele>232.9</ele><time>2026-07-26T20:17:05Z</time></trkpt>
<trkpt lat="35.214168" lon="-84.850914"><ele>232.3</ele><time>2026-07-26T20:17:08Z</time></trkpt>
<trkpt lat="35.214126" lon="-84.850905"><ele>231.3</ele><time>2026-07-26T20:17:11Z</time></trkpt>
<trkpt lat="35.214102" lon="-84.85093"><ele>231.6</ele><time>2026-07-26T20:17:13Z</time></trkpt>
<trkpt lat="35.214085" lon="-84.850963"><ele>233.8</ele><time>2026-07-26T20:17:15Z</time></trkpt>
<trkpt lat="35.214066" lon="-84.850997"><ele>233.8</ele><time>2026-07-26T20:17:17Z</time></trkpt>
<trkpt lat="35.214051" lon="-84.851029"><ele>232.9</ele><time>2026-07-26T20:17:19Z</time></trkpt>
<trkpt lat="35.214036" lon="-84.851057"><ele>232.6</ele><time>2026-07-26T20:17:21Z</time></trkpt>
<trkpt lat="35.214022" lon="-84.851086"><ele>232.0</ele><time>2026-07-26T20:17:23Z</time></trkpt>
<trkpt lat="35.214004" lon="-84.851113"><ele>233.8</ele><time>2026-07-26T20:17:25Z</time></trkpt>
<trkpt lat="35.213985" lon="-84.85114"><ele>235.0</ele><time>2026-07-26T20:17:27Z</time></trkpt>
<trkpt lat="35.213967" lon="-84.851167"><ele>235.6</ele><time>2026-07-26T20:17:29Z</time></trkpt>
<trkpt lat="35.213945" lon="-84.85119"><ele>238.0</ele><time>2026-07-26T20:17:31Z</time></trkpt>
<trkpt lat="35.213926" lon="-84.851216"><ele>237.7</ele><time>2026-07-26T20:17:33Z</time></trkpt>
<trkpt lat="35.213903" lon="-84.851256"><ele>237.4</ele><time>2026-07-26T20:17:36Z</time></trkpt>
<trkpt lat="35.21388" lon="-84.851276"><ele>237.7</ele><time>2026-07-26T20:17:38Z</time></trkpt>
<trkpt lat="35.213866" lon="-84.851305"><ele>238.4</ele><time>2026-07-26T20:17:40Z</time></trkpt>
<trkpt lat="35.213842" lon="-84.851332"><ele>238.0</ele><time>2026-07-26T20:17:43Z</time></trkpt>
<trkpt lat="35.213811" lon="-84.851363"><ele>239.0</ele><time>2026-07-26T20:17:46Z</time></trkpt>
<trkpt lat="35.213785" lon="-84.851398"><ele>238.0</ele><time>2026-07-26T20:17:49Z</time></trkpt>
<trkpt lat="35.213775" lon="-84.851433"><ele>237.7</ele><time>2026-07-26T20:17:51Z</time></trkpt>
<trkpt lat="35.213772" lon="-84.85147"><ele>237.7</ele><time>2026-07-26T20:17:53Z</time></trkpt>
<trkpt lat="35.21377" lon="-84.851504"><ele>237.4</ele><time>2026-07-26T20:17:55Z</time></trkpt>
<trkpt lat="35.213764" lon="-84.851539"><ele>237.4</ele><time>2026-07-26T20:17:57Z</time></trkpt>
<trkpt lat="35.213761" lon="-84.851575"><ele>238.0</ele><time>2026-07-26T20:17:59Z</time></trkpt>
<trkpt lat="35.213753" lon="-84.851611"><ele>239.0</ele><time>2026-07-26T20:18:01Z</time></trkpt>
<trkpt lat="35.213738" lon="-84.851649"><ele>239.6</ele><time>2026-07-26T20:18:03Z</time></trkpt>
<trkpt lat="35.213727" lon="-84.851681"><ele>239.3</ele><time>2026-07-26T20:18:05Z</time></trkpt>
<trkpt lat="35.213705" lon="-84.851721"><ele>239.6</ele><time>2026-07-26T20:18:08Z</time></trkpt>
<trkpt lat="35.213684" lon="-84.851762"><ele>239.0</ele><time>2026-07-26T20:18:11Z</time></trkpt>
<trkpt lat="35.213658" lon="-84.851798"><ele>239.6</ele><time>2026-07-26T20:18:14Z</time></trkpt>
<trkpt lat="35.21365" lon="-84.851851"><ele>238.0</ele><time>2026-07-26T20:18:17Z</time></trkpt>
<trkpt lat="35.213649" lon="-84.851885"><ele>238.0</ele><time>2026-07-26T20:18:19Z</time></trkpt>
<trkpt lat="35.213649" lon="-84.85192"><ele>239.3</ele><time>2026-07-26T20:18:21Z</time></trkpt>
<trkpt lat="35.213649" lon="-84.851961"><ele>239.3</ele><time>2026-07-26T20:18:23Z</time></trkpt>
<trkpt lat="35.213651" lon="-84.852004"><ele>239.3</ele><time>2026-07-26T20:18:25Z</time></trkpt>
<trkpt lat="35.213648" lon="-84.85204"><ele>238.7</ele><time>2026-07-26T20:18:27Z</time></trkpt>
<trkpt lat="35.213649" lon="-84.852075"><ele>239.6</ele><time>2026-07-26T20:18:29Z</time></trkpt>
<trkpt lat="35.213651" lon="-84.852112"><ele>239.9</ele><time>2026-07-26T20:18:31Z</time></trkpt>
<trkpt lat="35.213662" lon="-84.852144"><ele>239.3</ele><time>2026-07-26T20:18:33Z</time></trkpt>
<trkpt lat="35.213674" lon="-84.852175"><ele>238.7</ele><time>2026-07-26T20:18:35Z</time></trkpt>
<trkpt lat="35.213689" lon="-84.852206"><ele>237.7</ele><time>2026-07-26T20:18:37Z</time></trkpt>
<trkpt lat="35.21371" lon="-84.852244"><ele>237.7</ele><time>2026-07-26T20:18:40Z</time></trkpt>
<trkpt lat="35.213726" lon="-84.852282"><ele>237.1</ele><time>2026-07-26T20:18:42Z</time></trkpt>
<trkpt lat="35.213741" lon="-84.852318"><ele>237.4</ele><time>2026-07-26T20:18:44Z</time></trkpt>
<trkpt lat="35.213757" lon="-84.852349"><ele>237.1</ele><time>2026-07-26T20:18:46Z</time></trkpt>
<trkpt lat="35.213778" lon="-84.852376"><ele>236.8</ele><time>2026-07-26T20:18:48Z</time></trkpt>
<trkpt lat="35.213799" lon="-84.8524"><ele>236.2</ele><time>2026-07-26T20:18:50Z</time></trkpt>
<trkpt lat="35.21383" lon="-84.852407"><ele>236.5</ele><time>2026-07-26T20:18:52Z</time></trkpt>
<trkpt lat="35.21386" lon="-84.852409"><ele>235.6</ele><time>2026-07-26T20:18:54Z</time></trkpt>
<trkpt lat="35.2139" lon="-84.852412"><ele>234.1</ele><time>2026-07-26T20:18:57Z</time></trkpt>
<trkpt lat="35.213928" lon="-84.852413"><ele>235.0</ele><time>2026-07-26T20:18:59Z</time></trkpt>
<trkpt lat="35.213967" lon="-84.852414"><ele>236.2</ele><time>2026-07-26T20:19:02Z</time></trkpt>
<trkpt lat="35.213972" lon="-84.85246"><ele>236.2</ele><time>2026-07-26T20:19:04Z</time></trkpt>
<trkpt lat="35.213932" lon="-84.852455"><ele>234.4</ele><time>2026-07-26T20:19:06Z</time></trkpt>
<trkpt lat="35.213905" lon="-84.852444"><ele>233.2</ele><time>2026-07-26T20:19:08Z</time></trkpt>
<trkpt lat="35.213879" lon="-84.852434"><ele>232.9</ele><time>2026-07-26T20:19:10Z</time></trkpt>
<trkpt lat="35.213849" lon="-84.852432"><ele>234.1</ele><time>2026-07-26T20:19:12Z</time></trkpt>
<trkpt lat="35.21382" lon="-84.852422"><ele>233.2</ele><time>2026-07-26T20:19:14Z</time></trkpt>
<trkpt lat="35.213795" lon="-84.852405"><ele>232.9</ele><time>2026-07-26T20:19:16Z</time></trkpt>
<trkpt lat="35.213772" lon="-84.852383"><ele>233.8</ele><time>2026-07-26T20:19:18Z</time></trkpt>
<trkpt lat="35.213755" lon="-84.852351"><ele>233.5</ele><time>2026-07-26T20:19:20Z</time></trkpt>
<trkpt lat="35.213737" lon="-84.85232"><ele>234.1</ele><time>2026-07-26T20:19:22Z</time></trkpt>
<trkpt lat="35.213722" lon="-84.852289"><ele>235.0</ele><time>2026-07-26T20:19:24Z</time></trkpt>
<trkpt lat="35.213709" lon="-84.852257"><ele>235.9</ele><time>2026-07-26T20:19:26Z</time></trkpt>
<trkpt lat="35.213689" lon="-84.852213"><ele>235.9</ele><time>2026-07-26T20:19:29Z</time></trkpt>
<trkpt lat="35.213674" lon="-84.852168"><ele>235.0</ele><time>2026-07-26T20:19:32Z</time></trkpt>
<trkpt lat="35.213666" lon="-84.852122"><ele>235.3</ele><time>2026-07-26T20:19:35Z</time></trkpt>
<trkpt lat="35.21367" lon="-84.852087"><ele>234.7</ele><time>2026-07-26T20:19:37Z</time></trkpt>
<trkpt lat="35.213673" lon="-84.852049"><ele>235.6</ele><time>2026-07-26T20:19:39Z</time></trkpt>
<trkpt lat="35.213671" lon="-84.852012"><ele>236.2</ele><time>2026-07-26T20:19:41Z</time></trkpt>
<trkpt lat="35.21367" lon="-84.851977"><ele>236.8</ele><time>2026-07-26T20:19:43Z</time></trkpt>
<trkpt lat="35.213673" lon="-84.851943"><ele>236.2</ele><time>2026-07-26T20:19:45Z</time></trkpt>
<trkpt lat="35.213671" lon="-84.851894"><ele>236.5</ele><time>2026-07-26T20:19:48Z</time></trkpt>
<trkpt lat="35.213663" lon="-84.851847"><ele>235.6</ele><time>2026-07-26T20:19:51Z</time></trkpt>
<trkpt lat="35.213641" lon="-84.851821"><ele>235.3</ele><time>2026-07-26T20:19:53Z</time></trkpt>
<trkpt lat="35.213609" lon="-84.851813"><ele>234.1</ele><time>2026-07-26T20:19:55Z</time></trkpt>
<trkpt lat="35.21358" lon="-84.851821"><ele>233.8</ele><time>2026-07-26T20:19:57Z</time></trkpt>
<trkpt lat="35.213538" lon="-84.851833"><ele>233.5</ele><time>2026-07-26T20:20:00Z</time></trkpt>
<trkpt lat="35.213509" lon="-84.851838"><ele>232.0</ele><time>2026-07-26T20:20:02Z</time></trkpt>
<trkpt lat="35.213469" lon="-84.851848"><ele>232.6</ele><time>2026-07-26T20:20:05Z</time></trkpt>
<trkpt lat="35.213438" lon="-84.851849"><ele>234.7</ele><time>2026-07-26T20:20:07Z</time></trkpt>
<trkpt lat="35.213409" lon="-84.851855"><ele>236.5</ele><time>2026-07-26T20:20:09Z</time></trkpt>
<trkpt lat="35.213371" lon="-84.851859"><ele>235.3</ele><time>2026-07-26T20:20:12Z</time></trkpt>
<trkpt lat="35.213334" lon="-84.851862"><ele>236.2</ele><time>2026-07-26T20:20:15Z</time></trkpt>
<trkpt lat="35.213294" lon="-84.851869"><ele>235.6</ele><time>2026-07-26T20:20:18Z</time></trkpt>
<trkpt lat="35.213254" lon="-84.851874"><ele>236.8</ele><time>2026-07-26T20:20:21Z</time></trkpt>
<trkpt lat="35.213224" lon="-84.851878"><ele>239.3</ele><time>2026-07-26T20:20:23Z</time></trkpt>
<trkpt lat="35.213195" lon="-84.851878"><ele>238.4</ele><time>2026-07-26T20:20:25Z</time></trkpt>
<trkpt lat="35.213155" lon="-84.851883"><ele>238.0</ele><time>2026-07-26T20:20:28Z</time></trkpt>
<trkpt lat="35.213128" lon="-84.851876"><ele>239.3</ele><time>2026-07-26T20:20:30Z</time></trkpt>
<trkpt lat="35.213091" lon="-84.851867"><ele>240.2</ele><time>2026-07-26T20:20:33Z</time></trkpt>
<trkpt lat="35.213053" lon="-84.851859"><ele>239.9</ele><time>2026-07-26T20:20:36Z</time></trkpt>
<trkpt lat="35.213015" lon="-84.851859"><ele>239.3</ele><time>2026-07-26T20:20:39Z</time></trkpt>
<trkpt lat="35.212978" lon="-84.851849"><ele>239.0</ele><time>2026-07-26T20:20:42Z</time></trkpt>
<trkpt lat="35.212939" lon="-84.851844"><ele>240.2</ele><time>2026-07-26T20:20:45Z</time></trkpt>
<trkpt lat="35.212912" lon="-84.851837"><ele>240.5</ele><time>2026-07-26T20:20:47Z</time></trkpt>
<trkpt lat="35.212883" lon="-84.851834"><ele>240.5</ele><time>2026-07-26T20:20:49Z</time></trkpt>
<trkpt lat="35.212853" lon="-84.85183"><ele>241.1</ele><time>2026-07-26T20:20:51Z</time></trkpt>
<trkpt lat="35.212824" lon="-84.851836"><ele>242.6</ele><time>2026-07-26T20:20:53Z</time></trkpt>
<trkpt lat="35.212797" lon="-84.851841"><ele>243.5</ele><time>2026-07-26T20:20:55Z</time></trkpt>
<trkpt lat="35.212768" lon="-84.851844"><ele>245.7</ele><time>2026-07-26T20:20:57Z</time></trkpt>
<trkpt lat="35.21274" lon="-84.851847"><ele>245.4</ele><time>2026-07-26T20:20:59Z</time></trkpt>
<trkpt lat="35.212712" lon="-84.851847"><ele>244.8</ele><time>2026-07-26T20:21:01Z</time></trkpt>
<trkpt lat="35.212672" lon="-84.851845"><ele>243.5</ele><time>2026-07-26T20:21:04Z</time></trkpt>
<trkpt lat="35.212634" lon="-84.851855"><ele>243.2</ele><time>2026-07-26T20:21:07Z</time></trkpt>
<trkpt lat="35.212601" lon="-84.851886"><ele>243.2</ele><time>2026-07-26T20:21:10Z</time></trkpt>
<trkpt lat="35.212577" lon="-84.851907"><ele>243.2</ele><time>2026-07-26T20:21:12Z</time></trkpt>
<trkpt lat="35.212545" lon="-84.851923"><ele>244.8</ele><time>2026-07-26T20:21:14Z</time></trkpt>
<trkpt lat="35.212518" lon="-84.851937"><ele>245.4</ele><time>2026-07-26T20:21:16Z</time></trkpt>
<trkpt lat="35.21249" lon="-84.85194"><ele>245.4</ele><time>2026-07-26T20:21:18Z</time></trkpt>
<trkpt lat="35.212461" lon="-84.851933"><ele>245.7</ele><time>2026-07-26T20:21:20Z</time></trkpt>
<trkpt lat="35.212423" lon="-84.851919"><ele>245.7</ele><time>2026-07-26T20:21:23Z</time></trkpt>
<trkpt lat="35.212389" lon="-84.851907"><ele>245.1</ele><time>2026-07-26T20:21:26Z</time></trkpt>
<trkpt lat="35.212353" lon="-84.851896"><ele>243.8</ele><time>2026-07-26T20:21:29Z</time></trkpt>
<trkpt lat="35.212319" lon="-84.851892"><ele>243.5</ele><time>2026-07-26T20:21:32Z</time></trkpt>
<trkpt lat="35.212291" lon="-84.85189"><ele>244.4</ele><time>2026-07-26T20:21:34Z</time></trkpt>
<trkpt lat="35.212265" lon="-84.851879"><ele>243.8</ele><time>2026-07-26T20:21:36Z</time></trkpt>
<trkpt lat="35.212233" lon="-84.851868"><ele>244.1</ele><time>2026-07-26T20:21:39Z</time></trkpt>
<trkpt lat="35.2122" lon="-84.851856"><ele>243.8</ele><time>2026-07-26T20:21:42Z</time></trkpt>
<trkpt lat="35.212171" lon="-84.851832"><ele>242.9</ele><time>2026-07-26T20:21:45Z</time></trkpt>
<trkpt lat="35.212139" lon="-84.851803"><ele>241.4</ele><time>2026-07-26T20:21:48Z</time></trkpt>
<trkpt lat="35.212119" lon="-84.851777"><ele>241.7</ele><time>2026-07-26T20:21:50Z</time></trkpt>
<trkpt lat="35.212086" lon="-84.85175"><ele>241.1</ele><time>2026-07-26T20:21:53Z</time></trkpt>
<trkpt lat="35.212056" lon="-84.851729"><ele>239.3</ele><time>2026-07-26T20:21:56Z</time></trkpt>
<trkpt lat="35.212023" lon="-84.851712"><ele>238.0</ele><time>2026-07-26T20:21:59Z</time></trkpt>
<trkpt lat="35.211987" lon="-84.8517"><ele>236.8</ele><time>2026-07-26T20:22:02Z</time></trkpt>
<trkpt lat="35.211947" lon="-84.851689"><ele>235.0</ele><time>2026-07-26T20:22:05Z</time></trkpt>
<trkpt lat="35.211909" lon="-84.851688"><ele>235.0</ele><time>2026-07-26T20:22:08Z</time></trkpt>
<trkpt lat="35.21187" lon="-84.851698"><ele>236.5</ele><time>2026-07-26T20:22:11Z</time></trkpt>
<trkpt lat="35.211844" lon="-84.851711"><ele>236.8</ele><time>2026-07-26T20:22:13Z</time></trkpt>
<trkpt lat="35.211826" lon="-84.85174"><ele>236.8</ele><time>2026-07-26T20:22:15Z</time></trkpt>
<trkpt lat="35.211807" lon="-84.85177"><ele>238.4</ele><time>2026-07-26T20:22:17Z</time></trkpt>
<trkpt lat="35.211793" lon="-84.851802"><ele>238.0</ele><time>2026-07-26T20:22:19Z</time></trkpt>
<trkpt lat="35.211775" lon="-84.85183"><ele>237.1</ele><time>2026-07-26T20:22:21Z</time></trkpt>
<trkpt lat="35.211756" lon="-84.851855"><ele>238.0</ele><time>2026-07-26T20:22:23Z</time></trkpt>
<trkpt lat="35.211775" lon="-84.851891"><ele>236.2</ele><time>2026-07-26T20:22:25Z</time></trkpt>
<trkpt lat="35.211799" lon="-84.851916"><ele>236.8</ele><time>2026-07-26T20:22:27Z</time></trkpt>
<trkpt lat="35.211819" lon="-84.851943"><ele>237.4</ele><time>2026-07-26T20:22:29Z</time></trkpt>
<trkpt lat="35.211836" lon="-84.851972"><ele>237.4</ele><time>2026-07-26T20:22:31Z</time></trkpt>
<trkpt lat="35.211857" lon="-84.851998"><ele>237.4</ele><time>2026-07-26T20:22:33Z</time></trkpt>
<trkpt lat="35.211869" lon="-84.852032"><ele>237.4</ele><time>2026-07-26T20:22:35Z</time></trkpt>
<trkpt lat="35.211875" lon="-84.852072"><ele>237.4</ele><time>2026-07-26T20:22:37Z</time></trkpt>
<trkpt lat="35.211875" lon="-84.852111"><ele>237.7</ele><time>2026-07-26T20:22:39Z</time></trkpt>
<trkpt lat="35.211869" lon="-84.852146"><ele>237.7</ele><time>2026-07-26T20:22:41Z</time></trkpt>
<trkpt lat="35.211861" lon="-84.85218"><ele>238.0</ele><time>2026-07-26T20:22:43Z</time></trkpt>
<trkpt lat="35.21185" lon="-84.852212"><ele>238.4</ele><time>2026-07-26T20:22:45Z</time></trkpt>
<trkpt lat="35.211833" lon="-84.852239"><ele>238.4</ele><time>2026-07-26T20:22:47Z</time></trkpt>
<trkpt lat="35.211805" lon="-84.852272"><ele>238.7</ele><time>2026-07-26T20:22:50Z</time></trkpt>
<trkpt lat="35.211774" lon="-84.852302"><ele>238.4</ele><time>2026-07-26T20:22:53Z</time></trkpt>
<trkpt lat="35.211744" lon="-84.852334"><ele>238.4</ele><time>2026-07-26T20:22:56Z</time></trkpt>
<trkpt lat="35.211723" lon="-84.852371"><ele>238.4</ele><time>2026-07-26T20:22:59Z</time></trkpt>
<trkpt lat="35.211711" lon="-84.852405"><ele>239.0</ele><time>2026-07-26T20:23:02Z</time></trkpt>
</trkseg></trk></gpx>